<?xml version="1.0" encoding="UTF-8"?>
<gpx version="1.1" creator="Garmin Connect"
  xsi:schemaLocation="http://www.topografix.com/GPX/1/1 http://www.topografix.com/GPX/1/1/gpx.xsd http://www.garmin.com/xmlschemas/GpxExtensions/v3 http://www.garmin.com/xmlschemas/GpxExtensionsv3.xsd http://www.garmin.com/xmlschemas/TrackPointExtension/v1 http://www.garmin.com/xmlschemas/TrackPointExtensionv1.xsd"
  xmlns="http://www.topografix.com/GPX/1/1"
  xmlns:gpxtpx="http://www.garmin.com/xmlschemas/TrackPointExtension/v1"
  xmlns:gpxx="http://www.garmin.com/xmlschemas/GpxExtensions/v3" xmlns:xsi="http://www.w3.org/2001/XMLSchema-instance">
  <metadata>
    <link href="connect.garmin.com">
      <text>Garmin Connect</text>
    </link>
    <time>2014-01-03T05:46:59.000Z</time>
  </metadata>
  <trk>
    <name>Dragot</name>
    <trkseg>
      <trkpt lon="35.39255864918232" lat="31.590199721977115">
        <ele>13.199999809265137</ele>
        <time>2014-01-03T05:46:59.000Z</time>
      </trkpt>
      <trkpt lon="35.39255571551621" lat="31.590191926807165">
        <ele>11.199999809265137</ele>
        <time>2014-01-03T05:47:10.000Z</time>
      </trkpt>
      <trkpt lon="35.39253727532923" lat="31.59017558209598">
        <ele>10.199999809265137</ele>
        <time>2014-01-03T05:47:17.000Z</time>
      </trkpt>
      <trkpt lon="35.39250207133591" lat="31.59016828984022">
        <ele>11.600000381469727</ele>
        <time>2014-01-03T05:47:27.000Z</time>
      </trkpt>
      <trkpt lon="35.39244105108082" lat="31.590126883238554">
        <ele>12.600000381469727</ele>
        <time>2014-01-03T05:47:34.000Z</time>
      </trkpt>
      <trkpt lon="35.392414815723896" lat="31.59012378193438">
        <ele>12.600000381469727</ele>
        <time>2014-01-03T05:47:42.000Z</time>
      </trkpt>
      <trkpt lon="35.39241104386747" lat="31.590125542134047">
        <ele>13.600000381469727</ele>
        <time>2014-01-03T05:47:56.000Z</time>
      </trkpt>
      <trkpt lon="35.3924127202481" lat="31.590122943744063">
        <ele>14.0</ele>
        <time>2014-01-03T05:48:04.000Z</time>
      </trkpt>
      <trkpt lon="35.39240618236363" lat="31.5901140589267">
        <ele>15.0</ele>
        <time>2014-01-03T05:48:15.000Z</time>
      </trkpt>
      <trkpt lon="35.39240811020136" lat="31.59012470394373">
        <ele>17.0</ele>
        <time>2014-01-03T05:48:23.000Z</time>
      </trkpt>
      <trkpt lon="35.39241598919034" lat="31.590142222121358">
        <ele>16.0</ele>
        <time>2014-01-03T05:48:30.000Z</time>
      </trkpt>
      <trkpt lon="35.392431914806366" lat="31.59015848301351">
        <ele>17.0</ele>
        <time>2014-01-03T05:48:49.000Z</time>
      </trkpt>
      <trkpt lon="35.3924198448658" lat="31.59016862511635">
        <ele>19.799999237060547</ele>
        <time>2014-01-03T05:49:08.000Z</time>
      </trkpt>
      <trkpt lon="35.39241397753358" lat="31.59016334451735">
        <ele>20.799999237060547</ele>
        <time>2014-01-03T05:49:18.000Z</time>
      </trkpt>
      <trkpt lon="35.39241498336196" lat="31.590162673965096">
        <ele>21.200000762939453</ele>
        <time>2014-01-03T05:49:29.000Z</time>
      </trkpt>
      <trkpt lon="35.39240417070687" lat="31.590166864916682">
        <ele>21.200000762939453</ele>
        <time>2014-01-03T05:49:41.000Z</time>
      </trkpt>
      <trkpt lon="35.392372738569975" lat="31.590172732248902">
        <ele>20.799999237060547</ele>
        <time>2014-01-03T05:49:57.000Z</time>
      </trkpt>
      <trkpt lon="35.3923765104264" lat="31.59017063677311">
        <ele>20.399999618530273</ele>
        <time>2014-01-03T05:50:10.000Z</time>
      </trkpt>
      <trkpt lon="35.39237206801772" lat="31.590174743905663">
        <ele>21.200000762939453</ele>
        <time>2014-01-03T05:50:22.000Z</time>
      </trkpt>
      <trkpt lon="35.39239687845111" lat="31.590179605409503">
        <ele>20.399999618530273</ele>
        <time>2014-01-03T05:50:35.000Z</time>
      </trkpt>
      <trkpt lon="35.392389837652445" lat="31.590165523812175">
        <ele>20.799999237060547</ele>
        <time>2014-01-03T05:50:49.000Z</time>
      </trkpt>
      <trkpt lon="35.3923989739269" lat="31.59017155878246">
        <ele>19.799999237060547</ele>
        <time>2014-01-03T05:50:59.000Z</time>
      </trkpt>
      <trkpt lon="35.39237575605512" lat="31.590165188536048">
        <ele>19.399999618530273</ele>
        <time>2014-01-03T05:51:10.000Z</time>
      </trkpt>
      <trkpt lon="35.39237299002707" lat="31.590157812461257">
        <ele>19.399999618530273</ele>
        <time>2014-01-03T05:51:24.000Z</time>
      </trkpt>
      <trkpt lon="35.392385479062796" lat="31.59016485325992">
        <ele>20.799999237060547</ele>
        <time>2014-01-03T05:51:40.000Z</time>
      </trkpt>
      <trkpt lon="35.392393693327904" lat="31.59016912803054">
        <ele>17.0</ele>
        <time>2014-01-03T05:52:00.000Z</time>
      </trkpt>
      <trkpt lon="35.39239788427949" lat="31.590173821896315">
        <ele>16.399999618530273</ele>
        <time>2014-01-03T05:52:11.000Z</time>
      </trkpt>
      <trkpt lon="35.39240333251655" lat="31.590162087231874">
        <ele>15.600000381469727</ele>
        <time>2014-01-03T05:52:30.000Z</time>
      </trkpt>
      <trkpt lon="35.39239352568984" lat="31.590153789147735">
        <ele>13.199999809265137</ele>
        <time>2014-01-03T05:52:41.000Z</time>
      </trkpt>
      <trkpt lon="35.392407439649105" lat="31.590150771662593">
        <ele>11.600000381469727</ele>
        <time>2014-01-03T05:52:55.000Z</time>
      </trkpt>
      <trkpt lon="35.392400650307536" lat="31.590159572660923">
        <ele>11.600000381469727</ele>
        <time>2014-01-03T05:53:06.000Z</time>
      </trkpt>
      <trkpt lon="35.392382042482495" lat="31.590147418901324">
        <ele>11.199999809265137</ele>
        <time>2014-01-03T05:53:16.000Z</time>
      </trkpt>
      <trkpt lon="35.39238925091922" lat="31.590151274576783">
        <ele>12.600000381469727</ele>
        <time>2014-01-03T05:53:31.000Z</time>
      </trkpt>
      <trkpt lon="35.39239939302206" lat="31.59015362150967">
        <ele>14.0</ele>
        <time>2014-01-03T05:53:42.000Z</time>
      </trkpt>
      <trkpt lon="35.39239880628884" lat="31.59015404060483">
        <ele>15.0</ele>
        <time>2014-01-03T05:54:00.000Z</time>
      </trkpt>
      <trkpt lon="35.39237349294126" lat="31.590161500498652">
        <ele>15.0</ele>
        <time>2014-01-03T05:54:11.000Z</time>
      </trkpt>
      <trkpt lon="35.39230895228684" lat="31.59017122350633">
        <ele>14.600000381469727</ele>
        <time>2014-01-03T05:54:20.000Z</time>
      </trkpt>
      <trkpt lon="35.39224315434694" lat="31.59019025042653">
        <ele>14.600000381469727</ele>
        <time>2014-01-03T05:54:30.000Z</time>
      </trkpt>
      <trkpt lon="35.39221557788551" lat="31.590191507712007">
        <ele>15.0</ele>
        <time>2014-01-03T05:54:38.000Z</time>
      </trkpt>
      <trkpt lon="35.39220493286848" lat="31.590175163000822">
        <ele>16.0</ele>
        <time>2014-01-03T05:54:56.000Z</time>
      </trkpt>
      <trkpt lon="35.39221549406648" lat="31.590175330638885">
        <ele>17.399999618530273</ele>
        <time>2014-01-03T05:55:09.000Z</time>
      </trkpt>
      <trkpt lon="35.392223708331585" lat="31.590183041989803">
        <ele>17.0</ele>
        <time>2014-01-03T05:55:26.000Z</time>
      </trkpt>
      <trkpt lon="35.3922298271209" lat="31.590179856866598">
        <ele>16.0</ele>
        <time>2014-01-03T05:55:39.000Z</time>
      </trkpt>
      <trkpt lon="35.39221700280905" lat="31.590194273740053">
        <ele>14.0</ele>
        <time>2014-01-03T05:55:48.000Z</time>
      </trkpt>
      <trkpt lon="35.39220493286848" lat="31.590197710320354">
        <ele>14.0</ele>
        <time>2014-01-03T05:56:04.000Z</time>
      </trkpt>
      <trkpt lon="35.39221658371389" lat="31.590198213234544">
        <ele>14.0</ele>
        <time>2014-01-03T05:56:16.000Z</time>
      </trkpt>
      <trkpt lon="35.39221616461873" lat="31.590192848816514">
        <ele>14.600000381469727</ele>
        <time>2014-01-03T05:56:25.000Z</time>
      </trkpt>
      <trkpt lon="35.392217338085175" lat="31.59020684659481">
        <ele>16.0</ele>
        <time>2014-01-03T05:56:42.000Z</time>
      </trkpt>
      <trkpt lon="35.392210464924574" lat="31.590199721977115">
        <ele>17.0</ele>
        <time>2014-01-03T05:57:00.000Z</time>
      </trkpt>
      <trkpt lon="35.39221063256264" lat="31.590223275125027">
        <ele>15.600000381469727</ele>
        <time>2014-01-03T05:57:14.000Z</time>
      </trkpt>
      <trkpt lon="35.39220342412591" lat="31.590220592916012">
        <ele>14.600000381469727</ele>
        <time>2014-01-03T05:57:23.000Z</time>
      </trkpt>
      <trkpt lon="35.39219462312758" lat="31.590213468298316">
        <ele>13.199999809265137</ele>
        <time>2014-01-03T05:57:39.000Z</time>
      </trkpt>
      <trkpt lon="35.39218154735863" lat="31.590214474126697">
        <ele>13.600000381469727</ele>
        <time>2014-01-03T05:58:01.000Z</time>
      </trkpt>
      <trkpt lon="35.39220878854394" lat="31.590213887393475">
        <ele>13.600000381469727</ele>
        <time>2014-01-03T05:58:13.000Z</time>
      </trkpt>
      <trkpt lon="35.39220971055329" lat="31.590219419449568">
        <ele>14.0</ele>
        <time>2014-01-03T05:58:23.000Z</time>
      </trkpt>
      <trkpt lon="35.39220065809786" lat="31.590224783867598">
        <ele>14.0</ele>
        <time>2014-01-03T05:58:38.000Z</time>
      </trkpt>
      <trkpt lon="35.39220929145813" lat="31.5902229398489">
        <ele>14.0</ele>
        <time>2014-01-03T05:58:58.000Z</time>
      </trkpt>
      <trkpt lon="35.39220183156431" lat="31.590212043374777">
        <ele>12.600000381469727</ele>
        <time>2014-01-03T05:59:14.000Z</time>
      </trkpt>
      <trkpt lon="35.392198814079165" lat="31.59020332619548">
        <ele>12.600000381469727</ele>
        <time>2014-01-03T05:59:29.000Z</time>
      </trkpt>
      <trkpt lon="35.39220644161105" lat="31.590204667299986">
        <ele>14.0</ele>
        <time>2014-01-03T05:59:52.000Z</time>
      </trkpt>
      <trkpt lon="35.39221021346748" lat="31.59020005725324">
        <ele>13.600000381469727</ele>
        <time>2014-01-03T05:59:59.000Z</time>
      </trkpt>
      <trkpt lon="35.392210548743606" lat="31.590210450813174">
        <ele>13.600000381469727</ele>
        <time>2014-01-03T06:00:11.000Z</time>
      </trkpt>
      <trkpt lon="35.392210464924574" lat="31.59021271392703">
        <ele>14.600000381469727</ele>
        <time>2014-01-03T06:00:22.000Z</time>
      </trkpt>
      <trkpt lon="35.39218397811055" lat="31.590220844373107">
        <ele>15.0</ele>
        <time>2014-01-03T06:00:31.000Z</time>
      </trkpt>
      <trkpt lon="35.392048275098205" lat="31.590209528803825">
        <ele>14.600000381469727</ele>
        <time>2014-01-03T06:00:39.000Z</time>
      </trkpt>
      <trkpt lon="35.391874853521585" lat="31.59021615050733">
        <ele>15.0</ele>
        <time>2014-01-03T06:00:47.000Z</time>
      </trkpt>
      <trkpt lon="35.39183353073895" lat="31.590218413621187">
        <ele>15.0</ele>
        <time>2014-01-03T06:00:49.000Z</time>
      </trkpt>
      <trkpt lon="35.391573356464505" lat="31.59024976193905">
        <ele>15.0</ele>
        <time>2014-01-03T06:01:00.000Z</time>
      </trkpt>
      <trkpt lon="35.39130689576268" lat="31.590342298150063">
        <ele>14.0</ele>
        <time>2014-01-03T06:01:10.000Z</time>
      </trkpt>
      <trkpt lon="35.39100388996303" lat="31.59046827815473">
        <ele>11.600000381469727</ele>
        <time>2014-01-03T06:01:17.000Z</time>
      </trkpt>
      <trkpt lon="35.3906340803951" lat="31.590581350028515">
        <ele>11.199999809265137</ele>
        <time>2014-01-03T06:01:25.000Z</time>
      </trkpt>
      <trkpt lon="35.390336187556386" lat="31.59062510356307">
        <ele>13.199999809265137</ele>
        <time>2014-01-03T06:01:34.000Z</time>
      </trkpt>
      <trkpt lon="35.390129489824176" lat="31.590629713609815">
        <ele>14.600000381469727</ele>
        <time>2014-01-03T06:01:41.000Z</time>
      </trkpt>
      <trkpt lon="35.38984928280115" lat="31.590634156018496">
        <ele>16.0</ele>
        <time>2014-01-03T06:01:51.000Z</time>
      </trkpt>
      <trkpt lon="35.3896445967257" lat="31.590664079412818">
        <ele>17.0</ele>
        <time>2014-01-03T06:01:59.000Z</time>
      </trkpt>
      <trkpt lon="35.38945290260017" lat="31.59075502306223">
        <ele>17.0</ele>
        <time>2014-01-03T06:02:07.000Z</time>
      </trkpt>
      <trkpt lon="35.38926623761654" lat="31.590927941724658">
        <ele>15.0</ele>
        <time>2014-01-03T06:02:14.000Z</time>
      </trkpt>
      <trkpt lon="35.388917634263635" lat="31.591147799044847">
        <ele>12.199999809265137</ele>
        <time>2014-01-03T06:02:21.000Z</time>
      </trkpt>
      <trkpt lon="35.388487139716744" lat="31.591327507048845">
        <ele>9.199999809265137</ele>
        <time>2014-01-03T06:02:29.000Z</time>
      </trkpt>
      <trkpt lon="35.38827968761325" lat="31.59140730276704">
        <ele>9.199999809265137</ele>
        <time>2014-01-03T06:02:35.000Z</time>
      </trkpt>
      <trkpt lon="35.38805102929473" lat="31.591437980532646">
        <ele>10.800000190734863</ele>
        <time>2014-01-03T06:02:43.000Z</time>
      </trkpt>
      <trkpt lon="35.38780317641795" lat="31.591421216726303">
        <ele>12.600000381469727</ele>
        <time>2014-01-03T06:02:51.000Z</time>
      </trkpt>
      <trkpt lon="35.387632604688406" lat="31.591383414343">
        <ele>15.0</ele>
        <time>2014-01-03T06:02:59.000Z</time>
      </trkpt>
      <trkpt lon="35.387492794543505" lat="31.591331781819463">
        <ele>18.0</ele>
        <time>2014-01-03T06:03:07.000Z</time>
      </trkpt>
      <trkpt lon="35.38734845817089" lat="31.591285094618797">
        <ele>19.799999237060547</ele>
        <time>2014-01-03T06:03:15.000Z</time>
      </trkpt>
      <trkpt lon="35.387172689661384" lat="31.591297835111618">
        <ele>20.799999237060547</ele>
        <time>2014-01-03T06:03:24.000Z</time>
      </trkpt>
      <trkpt lon="35.38702550344169" lat="31.591354999691248">
        <ele>20.399999618530273</ele>
        <time>2014-01-03T06:03:31.000Z</time>
      </trkpt>
      <trkpt lon="35.38679491728544" lat="31.591464718803763">
        <ele>20.399999618530273</ele>
        <time>2014-01-03T06:03:40.000Z</time>
      </trkpt>
      <trkpt lon="35.38654907606542" lat="31.591521380469203">
        <ele>19.799999237060547</ele>
        <time>2014-01-03T06:03:48.000Z</time>
      </trkpt>
      <trkpt lon="35.386404152959585" lat="31.591497575864196">
        <ele>19.799999237060547</ele>
        <time>2014-01-03T06:03:53.000Z</time>
      </trkpt>
      <trkpt lon="35.38621773943305" lat="31.59145725890994">
        <ele>20.799999237060547</ele>
        <time>2014-01-03T06:03:59.000Z</time>
      </trkpt>
      <trkpt lon="35.385938454419374" lat="31.591398334130645">
        <ele>22.799999237060547</ele>
        <time>2014-01-03T06:04:09.000Z</time>
      </trkpt>
      <trkpt lon="35.3856866620481" lat="31.591348964720964">
        <ele>23.600000381469727</ele>
        <time>2014-01-03T06:04:19.000Z</time>
      </trkpt>
      <trkpt lon="35.38549538701773" lat="31.59129163250327">
        <ele>24.600000381469727</ele>
        <time>2014-01-03T06:04:26.000Z</time>
      </trkpt>
      <trkpt lon="35.38531090132892" lat="31.591261038556695">
        <ele>25.600000381469727</ele>
        <time>2014-01-03T06:04:33.000Z</time>
      </trkpt>
      <trkpt lon="35.385074112564325" lat="31.59123782068491">
        <ele>27.0</ele>
        <time>2014-01-03T06:04:42.000Z</time>
      </trkpt>
      <trkpt lon="35.38477345369756" lat="31.59117680042982">
        <ele>28.0</ele>
        <time>2014-01-03T06:04:53.000Z</time>
      </trkpt>
      <trkpt lon="35.38456415757537" lat="31.59111510962248">
        <ele>29.0</ele>
        <time>2014-01-03T06:05:01.000Z</time>
      </trkpt>
      <trkpt lon="35.38430918008089" lat="31.591068590059876">
        <ele>30.0</ele>
        <time>2014-01-03T06:05:11.000Z</time>
      </trkpt>
      <trkpt lon="35.38411765359342" lat="31.59103464335203">
        <ele>30.399999618530273</ele>
        <time>2014-01-03T06:05:19.000Z</time>
      </trkpt>
      <trkpt lon="35.383865274488926" lat="31.59098125062883">
        <ele>32.400001525878906</ele>
        <time>2014-01-03T06:05:30.000Z</time>
      </trkpt>
      <trkpt lon="35.38359981961548" lat="31.590917380526662">
        <ele>33.20000076293945</ele>
        <time>2014-01-03T06:05:42.000Z</time>
      </trkpt>
      <trkpt lon="35.38339924067259" lat="31.59086641855538">
        <ele>35.20000076293945</ele>
        <time>2014-01-03T06:05:52.000Z</time>
      </trkpt>
      <trkpt lon="35.38324870169163" lat="31.590825682505965">
        <ele>36.20000076293945</ele>
        <time>2014-01-03T06:06:00.000Z</time>
      </trkpt>
      <trkpt lon="35.38304376415908" lat="31.59075024537742">
        <ele>38.599998474121094</ele>
        <time>2014-01-03T06:06:12.000Z</time>
      </trkpt>
      <trkpt lon="35.382902109995484" lat="31.590688219293952">
        <ele>40.599998474121094</ele>
        <time>2014-01-03T06:06:22.000Z</time>
      </trkpt>
      <trkpt lon="35.38275425322354" lat="31.590633234009147">
        <ele>42.400001525878906</ele>
        <time>2014-01-03T06:06:32.000Z</time>
      </trkpt>
      <trkpt lon="35.382612347602844" lat="31.590575650334358">
        <ele>43.79999923706055</ele>
        <time>2014-01-03T06:06:42.000Z</time>
      </trkpt>
      <trkpt lon="35.38246373645961" lat="31.59049761481583">
        <ele>46.79999923706055</ele>
        <time>2014-01-03T06:06:53.000Z</time>
      </trkpt>
      <trkpt lon="35.38230389356613" lat="31.590442629531026">
        <ele>48.599998474121094</ele>
        <time>2014-01-03T06:07:03.000Z</time>
      </trkpt>
      <trkpt lon="35.38217154331505" lat="31.590418489649892">
        <ele>49.20000076293945</ele>
        <time>2014-01-03T06:07:11.000Z</time>
      </trkpt>
      <trkpt lon="35.38212351500988" lat="31.590393595397472">
        <ele>49.20000076293945</ele>
        <time>2014-01-03T06:07:15.000Z</time>
      </trkpt>
      <trkpt lon="35.382105158641934" lat="31.590392254292965">
        <ele>49.599998474121094</ele>
        <time>2014-01-03T06:07:16.000Z</time>
      </trkpt>
      <trkpt lon="35.382083198055625" lat="31.590391919016838">
        <ele>49.599998474121094</ele>
        <time>2014-01-03T06:07:17.000Z</time>
      </trkpt>
      <trkpt lon="35.3820619918406" lat="31.590391835197806">
        <ele>49.599998474121094</ele>
        <time>2014-01-03T06:07:18.000Z</time>
      </trkpt>
      <trkpt lon="35.38204036653042" lat="31.590389404445887">
        <ele>49.599998474121094</ele>
        <time>2014-01-03T06:07:19.000Z</time>
      </trkpt>
      <trkpt lon="35.38181036710739" lat="31.59036023542285">
        <ele>50.20000076293945</ele>
        <time>2014-01-03T06:07:27.000Z</time>
      </trkpt>
      <trkpt lon="35.38138213567436" lat="31.590319834649563">
        <ele>48.599998474121094</ele>
        <time>2014-01-03T06:07:35.000Z</time>
      </trkpt>
      <trkpt lon="35.38102003745735" lat="31.590280272066593">
        <ele>47.79999923706055</ele>
        <time>2014-01-03T06:07:42.000Z</time>
      </trkpt>
      <trkpt lon="35.38084418512881" lat="31.590255796909332">
        <ele>48.599998474121094</ele>
        <time>2014-01-03T06:07:49.000Z</time>
      </trkpt>
      <trkpt lon="35.380623154342175" lat="31.590219251811504">
        <ele>49.599998474121094</ele>
        <time>2014-01-03T06:07:58.000Z</time>
      </trkpt>
      <trkpt lon="35.38036189042032" lat="31.590212630108">
        <ele>50.599998474121094</ele>
        <time>2014-01-03T06:08:09.000Z</time>
      </trkpt>
      <trkpt lon="35.38012761622667" lat="31.59024682827294">
        <ele>50.599998474121094</ele>
        <time>2014-01-03T06:08:18.000Z</time>
      </trkpt>
      <trkpt lon="35.37987305782735" lat="31.590324277058244">
        <ele>50.20000076293945</ele>
        <time>2014-01-03T06:08:27.000Z</time>
      </trkpt>
      <trkpt lon="35.379563346505165" lat="31.590405330061913">
        <ele>49.599998474121094</ele>
        <time>2014-01-03T06:08:35.000Z</time>
      </trkpt>
      <trkpt lon="35.37935405038297" lat="31.590435840189457">
        <ele>50.20000076293945</ele>
        <time>2014-01-03T06:08:43.000Z</time>
      </trkpt>
      <trkpt lon="35.37915372289717" lat="31.590487137436867">
        <ele>51.0</ele>
        <time>2014-01-03T06:08:51.000Z</time>
      </trkpt>
      <trkpt lon="35.3789415769279" lat="31.59054597839713">
        <ele>53.0</ele>
        <time>2014-01-03T06:09:00.000Z</time>
      </trkpt>
      <trkpt lon="35.37873186171055" lat="31.590611608698964">
        <ele>55.400001525878906</ele>
        <time>2014-01-03T06:09:10.000Z</time>
      </trkpt>
      <trkpt lon="35.378567576408386" lat="31.590661564841866">
        <ele>56.400001525878906</ele>
        <time>2014-01-03T06:09:18.000Z</time>
      </trkpt>
      <trkpt lon="35.378505969420075" lat="31.59068277105689">
        <ele>56.79999923706055</ele>
        <time>2014-01-03T06:09:21.000Z</time>
      </trkpt>
      <trkpt lon="35.37848534993827" lat="31.590686962008476">
        <ele>56.79999923706055</ele>
        <time>2014-01-03T06:09:22.000Z</time>
      </trkpt>
      <trkpt lon="35.37826532498002" lat="31.590751251205802">
        <ele>58.20000076293945</ele>
        <time>2014-01-03T06:09:33.000Z</time>
      </trkpt>
      <trkpt lon="35.37807245738804" lat="31.59080690704286">
        <ele>57.79999923706055</ele>
        <time>2014-01-03T06:09:42.000Z</time>
      </trkpt>
      <trkpt lon="35.377832567319274" lat="31.59086801111698">
        <ele>56.79999923706055</ele>
        <time>2014-01-03T06:09:51.000Z</time>
      </trkpt>
      <trkpt lon="35.37751472555101" lat="31.590975299477577">
        <ele>55.0</ele>
        <time>2014-01-03T06:09:58.000Z</time>
      </trkpt>
      <trkpt lon="35.3771283198148" lat="31.591122234240174">
        <ele>51.599998474121094</ele>
        <time>2014-01-03T06:10:03.000Z</time>
      </trkpt>
      <trkpt lon="35.376721965149045" lat="31.591302109882236">
        <ele>48.599998474121094</ele>
        <time>2014-01-03T06:10:08.000Z</time>
      </trkpt>
      <trkpt lon="35.3766465280205" lat="31.59131887368858">
        <ele>48.20000076293945</ele>
        <time>2014-01-03T06:10:09.000Z</time>
      </trkpt>
      <trkpt lon="35.37657662294805" lat="31.591324657201767">
        <ele>48.20000076293945</ele>
        <time>2014-01-03T06:10:10.000Z</time>
      </trkpt>
      <trkpt lon="35.37651585415006" lat="31.591329602524638">
        <ele>47.79999923706055</ele>
        <time>2014-01-03T06:10:11.000Z</time>
      </trkpt>
      <trkpt lon="35.376462964341044" lat="31.591336140409112">
        <ele>47.79999923706055</ele>
        <time>2014-01-03T06:10:12.000Z</time>
      </trkpt>
      <trkpt lon="35.37641678005457" lat="31.591341588646173">
        <ele>47.79999923706055</ele>
        <time>2014-01-03T06:10:13.000Z</time>
      </trkpt>
      <trkpt lon="35.376158114522696" lat="31.591382240876555">
        <ele>49.599998474121094</ele>
        <time>2014-01-03T06:10:20.000Z</time>
      </trkpt>
      <trkpt lon="35.3758660890162" lat="31.591411409899592">
        <ele>52.599998474121094</ele>
        <time>2014-01-03T06:10:29.000Z</time>
      </trkpt>
      <trkpt lon="35.37567322142422" lat="31.591439405456185">
        <ele>54.0</ele>
        <time>2014-01-03T06:10:37.000Z</time>
      </trkpt>
      <trkpt lon="35.37547901272774" lat="31.591469664126635">
        <ele>55.400001525878906</ele>
        <time>2014-01-03T06:10:48.000Z</time>
      </trkpt>
      <trkpt lon="35.37535345181823" lat="31.59146999940276">
        <ele>55.400001525878906</ele>
        <time>2014-01-03T06:10:57.000Z</time>
      </trkpt>
      <trkpt lon="35.37531447596848" lat="31.591476369649172">
        <ele>55.400001525878906</ele>
        <time>2014-01-03T06:11:01.000Z</time>
      </trkpt>
      <trkpt lon="35.375301986932755" lat="31.591480392962694">
        <ele>55.400001525878906</ele>
        <time>2014-01-03T06:11:02.000Z</time>
      </trkpt>
      <trkpt lon="35.375284971669316" lat="31.591482991352677">
        <ele>55.400001525878906</ele>
        <time>2014-01-03T06:11:09.000Z</time>
      </trkpt>
      <trkpt lon="35.37528614513576" lat="31.591487349942327">
        <ele>54.400001525878906</ele>
        <time>2014-01-03T06:11:20.000Z</time>
      </trkpt>
      <trkpt lon="35.375278601422906" lat="31.591475615277886">
        <ele>54.400001525878906</ele>
        <time>2014-01-03T06:11:35.000Z</time>
      </trkpt>
      <trkpt lon="35.375283379107714" lat="31.59146706573665">
        <ele>52.599998474121094</ele>
        <time>2014-01-03T06:11:48.000Z</time>
      </trkpt>
      <trkpt lon="35.375296622514725" lat="31.59147184342146">
        <ele>51.0</ele>
        <time>2014-01-03T06:12:04.000Z</time>
      </trkpt>
      <trkpt lon="35.37529041990638" lat="31.591467820107937">
        <ele>51.599998474121094</ele>
        <time>2014-01-03T06:12:20.000Z</time>
      </trkpt>
      <trkpt lon="35.375287821516395" lat="31.59146656282246">
        <ele>50.599998474121094</ele>
        <time>2014-01-03T06:12:34.000Z</time>
      </trkpt>
      <trkpt lon="35.375279020518064" lat="31.59144502133131">
        <ele>49.599998474121094</ele>
        <time>2014-01-03T06:12:44.000Z</time>
      </trkpt>
      <trkpt lon="35.37527248263359" lat="31.591447200626135">
        <ele>49.599998474121094</ele>
        <time>2014-01-03T06:13:00.000Z</time>
      </trkpt>
      <trkpt lon="35.37527290172875" lat="31.591453906148672">
        <ele>50.20000076293945</ele>
        <time>2014-01-03T06:13:22.000Z</time>
      </trkpt>
      <trkpt lon="35.37527633830905" lat="31.591463293880224">
        <ele>50.20000076293945</ele>
        <time>2014-01-03T06:13:41.000Z</time>
      </trkpt>
      <trkpt lon="35.37529586814344" lat="31.591511322185397">
        <ele>49.20000076293945</ele>
        <time>2014-01-03T06:13:49.000Z</time>
      </trkpt>
      <trkpt lon="35.37528354674578" lat="31.591530684381723">
        <ele>49.599998474121094</ele>
        <time>2014-01-03T06:13:57.000Z</time>
      </trkpt>
      <trkpt lon="35.37527130916715" lat="31.591548202559352">
        <ele>51.0</ele>
        <time>2014-01-03T06:14:15.000Z</time>
      </trkpt>
      <trkpt lon="35.375273237004876" lat="31.59156278707087">
        <ele>51.0</ele>
        <time>2014-01-03T06:14:27.000Z</time>
      </trkpt>
      <trkpt lon="35.37528874352574" lat="31.59155842848122">
        <ele>51.0</ele>
        <time>2014-01-03T06:14:38.000Z</time>
      </trkpt>
      <trkpt lon="35.37529737688601" lat="31.59157200716436">
        <ele>50.599998474121094</ele>
        <time>2014-01-03T06:14:54.000Z</time>
      </trkpt>
      <trkpt lon="35.37537172436714" lat="31.59151920117438">
        <ele>49.20000076293945</ele>
        <time>2014-01-03T06:15:01.000Z</time>
      </trkpt>
      <trkpt lon="35.375444144010544" lat="31.591494726017118">
        <ele>50.20000076293945</ele>
        <time>2014-01-03T06:15:10.000Z</time>
      </trkpt>
      <trkpt lon="35.375463841483" lat="31.59149053506553">
        <ele>53.0</ele>
        <time>2014-01-03T06:15:38.000Z</time>
      </trkpt>
      <trkpt lon="35.37545579485595" lat="31.59149095416069">
        <ele>52.599998474121094</ele>
        <time>2014-01-03T06:15:57.000Z</time>
      </trkpt>
      <trkpt lon="35.37544992752373" lat="31.591491624712944">
        <ele>51.0</ele>
        <time>2014-01-03T06:16:08.000Z</time>
      </trkpt>
      <trkpt lon="35.375432493165135" lat="31.591493217274547">
        <ele>50.20000076293945</ele>
        <time>2014-01-03T06:16:27.000Z</time>
      </trkpt>
      <trkpt lon="35.37542142905295" lat="31.591490786522627">
        <ele>49.599998474121094</ele>
        <time>2014-01-03T06:16:34.000Z</time>
      </trkpt>
      <trkpt lon="35.37539544515312" lat="31.591490199789405">
        <ele>51.599998474121094</ele>
        <time>2014-01-03T06:16:58.000Z</time>
      </trkpt>
      <trkpt lon="35.37538329139352" lat="31.59148651175201">
        <ele>51.599998474121094</ele>
        <time>2014-01-03T06:17:20.000Z</time>
      </trkpt>
      <trkpt lon="35.37540525197983" lat="31.591482907533646">
        <ele>52.0</ele>
        <time>2014-01-03T06:17:43.000Z</time>
      </trkpt>
      <trkpt lon="35.375432996079326" lat="31.59147335216403">
        <ele>50.599998474121094</ele>
        <time>2014-01-03T06:17:59.000Z</time>
      </trkpt>
      <trkpt lon="35.375432493165135" lat="31.59147243015468">
        <ele>49.20000076293945</ele>
        <time>2014-01-03T06:18:19.000Z</time>
      </trkpt>
      <trkpt lon="35.375429475679994" lat="31.59147477708757">
        <ele>49.20000076293945</ele>
        <time>2014-01-03T06:18:36.000Z</time>
      </trkpt>
      <trkpt lon="35.3754292242229" lat="31.59147771075368">
        <ele>50.20000076293945</ele>
        <time>2014-01-03T06:18:56.000Z</time>
      </trkpt>
      <trkpt lon="35.375431068241596" lat="31.591476118192077">
        <ele>51.599998474121094</ele>
        <time>2014-01-03T06:19:20.000Z</time>
      </trkpt>
      <trkpt lon="35.3754376899451" lat="31.59147243015468">
        <ele>52.0</ele>
        <time>2014-01-03T06:19:40.000Z</time>
      </trkpt>
      <trkpt lon="35.3754326608032" lat="31.591475196182728">
        <ele>52.599998474121094</ele>
        <time>2014-01-03T06:20:02.000Z</time>
      </trkpt>
      <trkpt lon="35.37544045597315" lat="31.591481482610106">
        <ele>50.599998474121094</ele>
        <time>2014-01-03T06:20:24.000Z</time>
      </trkpt>
      <trkpt lon="35.37542830221355" lat="31.591485338285565">
        <ele>50.20000076293945</ele>
        <time>2014-01-03T06:20:44.000Z</time>
      </trkpt>
      <trkpt lon="35.37542385980487" lat="31.591480560600758">
        <ele>50.599998474121094</ele>
        <time>2014-01-03T06:21:08.000Z</time>
      </trkpt>
      <trkpt lon="35.37541254423559" lat="31.59148659557104">
        <ele>50.599998474121094</ele>
        <time>2014-01-03T06:21:31.000Z</time>
      </trkpt>
      <trkpt lon="35.375424614176154" lat="31.591481314972043">
        <ele>50.20000076293945</ele>
        <time>2014-01-03T06:21:49.000Z</time>
      </trkpt>
      <trkpt lon="35.375415813177824" lat="31.591484416276217">
        <ele>50.20000076293945</ele>
        <time>2014-01-03T06:22:10.000Z</time>
      </trkpt>
      <trkpt lon="35.375416902825236" lat="31.59148315899074">
        <ele>50.599998474121094</ele>
        <time>2014-01-03T06:22:27.000Z</time>
      </trkpt>
      <trkpt lon="35.37542687729001" lat="31.591487266123295">
        <ele>50.599998474121094</ele>
        <time>2014-01-03T06:22:50.000Z</time>
      </trkpt>
      <trkpt lon="35.37543408572674" lat="31.591481901705265">
        <ele>51.0</ele>
        <time>2014-01-03T06:23:18.000Z</time>
      </trkpt>
      <trkpt lon="35.37543014623225" lat="31.59148793667555">
        <ele>52.0</ele>
        <time>2014-01-03T06:23:47.000Z</time>
      </trkpt>
      <trkpt lon="35.37542134523392" lat="31.591487266123295">
        <ele>52.0</ele>
        <time>2014-01-03T06:24:11.000Z</time>
      </trkpt>
      <trkpt lon="35.3754223510623" lat="31.591476872563362">
        <ele>52.599998474121094</ele>
        <time>2014-01-03T06:24:35.000Z</time>
      </trkpt>
      <trkpt lon="35.37541480734944" lat="31.59147972241044">
        <ele>51.599998474121094</ele>
        <time>2014-01-03T06:24:58.000Z</time>
      </trkpt>
      <trkpt lon="35.3754186630249" lat="31.591475950554013">
        <ele>50.20000076293945</ele>
        <time>2014-01-03T06:25:22.000Z</time>
      </trkpt>
      <trkpt lon="35.37542503327131" lat="31.59147477708757">
        <ele>49.20000076293945</ele>
        <time>2014-01-03T06:25:46.000Z</time>
      </trkpt>
      <trkpt lon="35.375419249758124" lat="31.59147720783949">
        <ele>49.599998474121094</ele>
        <time>2014-01-03T06:26:13.000Z</time>
      </trkpt>
      <trkpt lon="35.37541849538684" lat="31.591481985524297">
        <ele>48.599998474121094</ele>
        <time>2014-01-03T06:26:44.000Z</time>
      </trkpt>
      <trkpt lon="35.3754205070436" lat="31.591481817886233">
        <ele>48.20000076293945</ele>
        <time>2014-01-03T06:27:06.000Z</time>
      </trkpt>
      <trkpt lon="35.37542042322457" lat="31.59147586673498">
        <ele>48.599998474121094</ele>
        <time>2014-01-03T06:27:27.000Z</time>
      </trkpt>
      <trkpt lon="35.37542838603258" lat="31.5914767049253">
        <ele>49.20000076293945</ele>
        <time>2014-01-03T06:27:51.000Z</time>
      </trkpt>
      <trkpt lon="35.37542360834777" lat="31.591468574479222">
        <ele>50.20000076293945</ele>
        <time>2014-01-03T06:28:21.000Z</time>
      </trkpt>
      <trkpt lon="35.375426625832915" lat="31.591467652469873">
        <ele>50.599998474121094</ele>
        <time>2014-01-03T06:28:50.000Z</time>
      </trkpt>
      <trkpt lon="35.37542880512774" lat="31.591466395184398">
        <ele>50.20000076293945</ele>
        <time>2014-01-03T06:29:19.000Z</time>
      </trkpt>
      <trkpt lon="35.37542453035712" lat="31.59146840684116">
        <ele>49.599998474121094</ele>
        <time>2014-01-03T06:29:41.000Z</time>
      </trkpt>
      <trkpt lon="35.37542670965195" lat="31.591477040201426">
        <ele>48.599998474121094</ele>
        <time>2014-01-03T06:30:07.000Z</time>
      </trkpt>
      <trkpt lon="35.375426625832915" lat="31.59147477708757">
        <ele>48.20000076293945</ele>
        <time>2014-01-03T06:30:32.000Z</time>
      </trkpt>
      <trkpt lon="35.375424111261964" lat="31.591477459296584">
        <ele>48.20000076293945</ele>
        <time>2014-01-03T06:30:51.000Z</time>
      </trkpt>
      <trkpt lon="35.375417321920395" lat="31.591477375477552">
        <ele>47.20000076293945</ele>
        <time>2014-01-03T06:31:14.000Z</time>
      </trkpt>
      <trkpt lon="35.37540969438851" lat="31.591471005231142">
        <ele>47.79999923706055</ele>
        <time>2014-01-03T06:31:37.000Z</time>
      </trkpt>
      <trkpt lon="35.3754117898643" lat="31.59147293306887">
        <ele>47.20000076293945</ele>
        <time>2014-01-03T06:31:54.000Z</time>
      </trkpt>
      <trkpt lon="35.375412376597524" lat="31.591480392962694">
        <ele>47.79999923706055</ele>
        <time>2014-01-03T06:32:12.000Z</time>
      </trkpt>
      <trkpt lon="35.37544556893408" lat="31.59148466773331">
        <ele>50.20000076293945</ele>
        <time>2014-01-03T06:32:27.000Z</time>
      </trkpt>
      <trkpt lon="35.37544632330537" lat="31.591472262516618">
        <ele>50.599998474121094</ele>
        <time>2014-01-03T06:32:42.000Z</time>
      </trkpt>
      <trkpt lon="35.37541656754911" lat="31.591483242809772">
        <ele>49.599998474121094</ele>
        <time>2014-01-03T06:33:10.000Z</time>
      </trkpt>
      <trkpt lon="35.375418830662966" lat="31.59148416481912">
        <ele>49.20000076293945</ele>
        <time>2014-01-03T06:33:36.000Z</time>
      </trkpt>
      <trkpt lon="35.37542042322457" lat="31.59148802049458">
        <ele>49.20000076293945</ele>
        <time>2014-01-03T06:34:02.000Z</time>
      </trkpt>
      <trkpt lon="35.375416399911046" lat="31.591489613056183">
        <ele>49.599998474121094</ele>
        <time>2014-01-03T06:34:29.000Z</time>
      </trkpt>
      <trkpt lon="35.37541916593909" lat="31.591485757380724">
        <ele>49.599998474121094</ele>
        <time>2014-01-03T06:34:52.000Z</time>
      </trkpt>
      <trkpt lon="35.375415813177824" lat="31.59148600883782">
        <ele>50.20000076293945</ele>
        <time>2014-01-03T06:35:13.000Z</time>
      </trkpt>
      <trkpt lon="35.375409526750445" lat="31.591487266123295">
        <ele>49.599998474121094</ele>
        <time>2014-01-03T06:35:42.000Z</time>
      </trkpt>
      <trkpt lon="35.3754152264446" lat="31.591485841199756">
        <ele>49.599998474121094</ele>
        <time>2014-01-03T06:36:01.000Z</time>
      </trkpt>
      <trkpt lon="35.37542402744293" lat="31.591485841199756">
        <ele>50.20000076293945</ele>
        <time>2014-01-03T06:36:10.000Z</time>
      </trkpt>
      <trkpt lon="35.37542620673776" lat="31.59147335216403">
        <ele>52.599998474121094</ele>
        <time>2014-01-03T06:36:25.000Z</time>
      </trkpt>
      <trkpt lon="35.37543551065028" lat="31.591458097100258">
        <ele>54.0</ele>
        <time>2014-01-03T06:36:50.000Z</time>
      </trkpt>
      <trkpt lon="35.3754413779825" lat="31.591474693268538">
        <ele>53.0</ele>
        <time>2014-01-03T06:37:02.000Z</time>
      </trkpt>
      <trkpt lon="35.37546115927398" lat="31.59145818091929">
        <ele>52.599998474121094</ele>
        <time>2014-01-03T06:37:18.000Z</time>
      </trkpt>
      <trkpt lon="35.375488735735416" lat="31.591422809287906">
        <ele>51.599998474121094</ele>
        <time>2014-01-03T06:37:28.000Z</time>
      </trkpt>
      <trkpt lon="35.37548437714577" lat="31.5914127510041">
        <ele>50.599998474121094</ele>
        <time>2014-01-03T06:37:42.000Z</time>
      </trkpt>
      <trkpt lon="35.37548320367932" lat="31.591419456526637">
        <ele>51.0</ele>
        <time>2014-01-03T06:38:06.000Z</time>
      </trkpt>
      <trkpt lon="35.37548739463091" lat="31.591417361050844">
        <ele>51.599998474121094</ele>
        <time>2014-01-03T06:38:28.000Z</time>
      </trkpt>
      <trkpt lon="35.37546794861555" lat="31.591416271403432">
        <ele>51.599998474121094</ele>
        <time>2014-01-03T06:38:47.000Z</time>
      </trkpt>
      <trkpt lon="35.37545411847532" lat="31.591413505375385">
        <ele>50.20000076293945</ele>
        <time>2014-01-03T06:39:11.000Z</time>
      </trkpt>
      <trkpt lon="35.375467110425234" lat="31.591413337737322">
        <ele>51.599998474121094</ele>
        <time>2014-01-03T06:39:35.000Z</time>
      </trkpt>
      <trkpt lon="35.375482365489006" lat="31.591414092108607">
        <ele>52.599998474121094</ele>
        <time>2014-01-03T06:39:56.000Z</time>
      </trkpt>
      <trkpt lon="35.37548840045929" lat="31.59141710959375">
        <ele>52.599998474121094</ele>
        <time>2014-01-03T06:40:17.000Z</time>
      </trkpt>
      <trkpt lon="35.37546367384493" lat="31.591438315808773">
        <ele>51.0</ele>
        <time>2014-01-03T06:40:34.000Z</time>
      </trkpt>
      <trkpt lon="35.37541849538684" lat="31.591453570872545">
        <ele>50.20000076293945</ele>
        <time>2014-01-03T06:40:45.000Z</time>
      </trkpt>
      <trkpt lon="35.375413969159126" lat="31.591457510367036">
        <ele>50.20000076293945</ele>
        <time>2014-01-03T06:40:53.000Z</time>
      </trkpt>
      <trkpt lon="35.37540139630437" lat="31.59146446734667">
        <ele>49.599998474121094</ele>
        <time>2014-01-03T06:40:56.000Z</time>
      </trkpt>
      <trkpt lon="35.37525538355112" lat="31.591481063514948">
        <ele>49.599998474121094</ele>
        <time>2014-01-03T06:41:04.000Z</time>
      </trkpt>
      <trkpt lon="35.37498557008803" lat="31.591549711301923">
        <ele>47.79999923706055</ele>
        <time>2014-01-03T06:41:11.000Z</time>
      </trkpt>
      <trkpt lon="35.374676529318094" lat="31.591649539768696">
        <ele>47.20000076293945</ele>
        <time>2014-01-03T06:41:19.000Z</time>
      </trkpt>
      <trkpt lon="35.374304708093405" lat="31.59178851172328">
        <ele>45.400001525878906</ele>
        <time>2014-01-03T06:41:28.000Z</time>
      </trkpt>
      <trkpt lon="35.374110667034984" lat="31.591853136196733">
        <ele>43.0</ele>
        <time>2014-01-03T06:41:32.000Z</time>
      </trkpt>
      <trkpt lon="35.373712526634336" lat="31.592025216668844">
        <ele>37.599998474121094</ele>
        <time>2014-01-03T06:41:40.000Z</time>
      </trkpt>
      <trkpt lon="35.373339699581265" lat="31.592238284647465">
        <ele>33.79999923706055</ele>
        <time>2014-01-03T06:41:46.000Z</time>
      </trkpt>
      <trkpt lon="35.37300291471183" lat="31.59241153858602">
        <ele>30.799999237060547</ele>
        <time>2014-01-03T06:41:51.000Z</time>
      </trkpt>
      <trkpt lon="35.372934602200985" lat="31.592430230230093">
        <ele>30.399999618530273</ele>
        <time>2014-01-03T06:41:52.000Z</time>
      </trkpt>
      <trkpt lon="35.37286167964339" lat="31.592448754236102">
        <ele>30.0</ele>
        <time>2014-01-03T06:41:53.000Z</time>
      </trkpt>
      <trkpt lon="35.37279412150383" lat="31.59247892908752">
        <ele>29.399999618530273</ele>
        <time>2014-01-03T06:41:54.000Z</time>
      </trkpt>
      <trkpt lon="35.3727351129055" lat="31.592518324032426">
        <ele>29.0</ele>
        <time>2014-01-03T06:41:55.000Z</time>
      </trkpt>
      <trkpt lon="35.372683564201" lat="31.592561239376664">
        <ele>29.0</ele>
        <time>2014-01-03T06:41:56.000Z</time>
      </trkpt>
      <trkpt lon="35.372639475390315" lat="31.592608178034425">
        <ele>28.600000381469727</ele>
        <time>2014-01-03T06:41:57.000Z</time>
      </trkpt>
      <trkpt lon="35.372600918635726" lat="31.592656457796693">
        <ele>28.600000381469727</ele>
        <time>2014-01-03T06:41:58.000Z</time>
      </trkpt>
      <trkpt lon="35.37256630137563" lat="31.592706246301532">
        <ele>28.600000381469727</ele>
        <time>2014-01-03T06:41:59.000Z</time>
      </trkpt>
      <trkpt lon="35.37248675711453" lat="31.59278931096196">
        <ele>28.0</ele>
        <time>2014-01-03T06:42:01.000Z</time>
      </trkpt>
      <trkpt lon="35.37244484759867" lat="31.592820407822728">
        <ele>28.600000381469727</ele>
        <time>2014-01-03T06:42:02.000Z</time>
      </trkpt>
      <trkpt lon="35.37227427586913" lat="31.592957032844424">
        <ele>29.0</ele>
        <time>2014-01-03T06:42:08.000Z</time>
      </trkpt>
      <trkpt lon="35.372074618935585" lat="31.59315568394959">
        <ele>30.399999618530273</ele>
        <time>2014-01-03T06:42:18.000Z</time>
      </trkpt>
      <trkpt lon="35.37187202833593" lat="31.59335156902671">
        <ele>29.0</ele>
        <time>2014-01-03T06:42:27.000Z</time>
      </trkpt>
      <trkpt lon="35.371669605374336" lat="31.59353043884039">
        <ele>28.0</ele>
        <time>2014-01-03T06:42:34.000Z</time>
      </trkpt>
      <trkpt lon="35.371500458568335" lat="31.593681229278445">
        <ele>30.399999618530273</ele>
        <time>2014-01-03T06:42:41.000Z</time>
      </trkpt>
      <trkpt lon="35.37131857126951" lat="31.593800336122513">
        <ele>31.799999237060547</ele>
        <time>2014-01-03T06:42:49.000Z</time>
      </trkpt>
      <trkpt lon="35.3711414616555" lat="31.593954898416996">
        <ele>32.79999923706055</ele>
        <time>2014-01-03T06:42:58.000Z</time>
      </trkpt>
      <trkpt lon="35.37093727849424" lat="31.59414558671415">
        <ele>33.79999923706055</ele>
        <time>2014-01-03T06:43:08.000Z</time>
      </trkpt>
      <trkpt lon="35.37077366374433" lat="31.594299394637346">
        <ele>35.20000076293945</ele>
        <time>2014-01-03T06:43:18.000Z</time>
      </trkpt>
      <trkpt lon="35.370663944631815" lat="31.59440408460796">
        <ele>36.599998474121094</ele>
        <time>2014-01-03T06:43:26.000Z</time>
      </trkpt>
      <trkpt lon="35.370570067316294" lat="31.594460243359208">
        <ele>38.599998474121094</ele>
        <time>2014-01-03T06:43:33.000Z</time>
      </trkpt>
      <trkpt lon="35.370556488633156" lat="31.59447843208909">
        <ele>38.599998474121094</ele>
        <time>2014-01-03T06:43:35.000Z</time>
      </trkpt>
      <trkpt lon="35.37055187858641" lat="31.594491340219975">
        <ele>39.0</ele>
        <time>2014-01-03T06:43:36.000Z</time>
      </trkpt>
      <trkpt lon="35.370544670149684" lat="31.594503242522478">
        <ele>39.0</ele>
        <time>2014-01-03T06:43:37.000Z</time>
      </trkpt>
      <trkpt lon="35.370536455884576" lat="31.59451405517757">
        <ele>39.0</ele>
        <time>2014-01-03T06:43:38.000Z</time>
      </trkpt>
      <trkpt lon="35.3705267328769" lat="31.594525035470724">
        <ele>39.599998474121094</ele>
        <time>2014-01-03T06:43:39.000Z</time>
      </trkpt>
      <trkpt lon="35.37051483057439" lat="31.59453559666872">
        <ele>39.599998474121094</ele>
        <time>2014-01-03T06:43:40.000Z</time>
      </trkpt>
      <trkpt lon="35.37050359882414" lat="31.594548588618636">
        <ele>39.599998474121094</ele>
        <time>2014-01-03T06:43:41.000Z</time>
      </trkpt>
      <trkpt lon="35.3704041056335" lat="31.594698037952185">
        <ele>37.599998474121094</ele>
        <time>2014-01-03T06:43:49.000Z</time>
      </trkpt>
      <trkpt lon="35.37037242203951" lat="31.594734331592917">
        <ele>36.599998474121094</ele>
        <time>2014-01-03T06:43:50.000Z</time>
      </trkpt>
      <trkpt lon="35.37017251364887" lat="31.595008419826627">
        <ele>31.799999237060547</ele>
        <time>2014-01-03T06:43:55.000Z</time>
      </trkpt>
      <trkpt lon="35.37002264522016" lat="31.595190223306417">
        <ele>28.600000381469727</ele>
        <time>2014-01-03T06:43:59.000Z</time>
      </trkpt>
      <trkpt lon="35.36986079066992" lat="31.595357777550817">
        <ele>28.0</ele>
        <time>2014-01-03T06:44:05.000Z</time>
      </trkpt>
      <trkpt lon="35.36980966106057" lat="31.59555592574179">
        <ele>28.600000381469727</ele>
        <time>2014-01-03T06:44:12.000Z</time>
      </trkpt>
      <trkpt lon="35.36965191364288" lat="31.595705039799213">
        <ele>28.0</ele>
        <time>2014-01-03T06:44:18.000Z</time>
      </trkpt>
      <trkpt lon="35.36943926475942" lat="31.59583630040288">
        <ele>26.600000381469727</ele>
        <time>2014-01-03T06:44:24.000Z</time>
      </trkpt>
      <trkpt lon="35.36923508159816" lat="31.595900505781174">
        <ele>28.0</ele>
        <time>2014-01-03T06:44:31.000Z</time>
      </trkpt>
      <trkpt lon="35.368979685008526" lat="31.59601910971105">
        <ele>28.600000381469727</ele>
        <time>2014-01-03T06:44:40.000Z</time>
      </trkpt>
      <trkpt lon="35.36872051656246" lat="31.59618381410837">
        <ele>24.600000381469727</ele>
        <time>2014-01-03T06:44:45.000Z</time>
      </trkpt>
      <trkpt lon="35.368593111634254" lat="31.596295963972807">
        <ele>21.799999237060547</ele>
        <time>2014-01-03T06:44:48.000Z</time>
      </trkpt>
      <trkpt lon="35.368554973974824" lat="31.59633477218449">
        <ele>21.200000762939453</ele>
        <time>2014-01-03T06:44:49.000Z</time>
      </trkpt>
      <trkpt lon="35.3685060236603" lat="31.596369640901685">
        <ele>20.799999237060547</ele>
        <time>2014-01-03T06:44:50.000Z</time>
      </trkpt>
      <trkpt lon="35.3684507869184" lat="31.59639528952539">
        <ele>20.799999237060547</ele>
        <time>2014-01-03T06:44:51.000Z</time>
      </trkpt>
      <trkpt lon="35.36839102394879" lat="31.596413729712367">
        <ele>20.399999618530273</ele>
        <time>2014-01-03T06:44:52.000Z</time>
      </trkpt>
      <trkpt lon="35.36833059042692" lat="31.59642848186195">
        <ele>20.399999618530273</ele>
        <time>2014-01-03T06:44:53.000Z</time>
      </trkpt>
      <trkpt lon="35.36814400926232" lat="31.59648271277547">
        <ele>19.799999237060547</ele>
        <time>2014-01-03T06:44:56.000Z</time>
      </trkpt>
      <trkpt lon="35.36809095181525" lat="31.59650618210435">
        <ele>19.799999237060547</ele>
        <time>2014-01-03T06:44:57.000Z</time>
      </trkpt>
      <trkpt lon="35.367816193029284" lat="31.596702486276627">
        <ele>21.200000762939453</ele>
        <time>2014-01-03T06:45:04.000Z</time>
      </trkpt>
      <trkpt lon="35.36754344590008" lat="31.59691127948463">
        <ele>23.200000762939453</ele>
        <time>2014-01-03T06:45:12.000Z</time>
      </trkpt>
      <trkpt lon="35.36732794716954" lat="31.597050838172436">
        <ele>24.600000381469727</ele>
        <time>2014-01-03T06:45:21.000Z</time>
      </trkpt>
      <trkpt lon="35.36716315895319" lat="31.597241861745715">
        <ele>21.200000762939453</ele>
        <time>2014-01-03T06:45:27.000Z</time>
      </trkpt>
      <trkpt lon="35.367021253332496" lat="31.597524750977755">
        <ele>17.0</ele>
        <time>2014-01-03T06:45:33.000Z</time>
      </trkpt>
      <trkpt lon="35.36694590002298" lat="31.59782700240612">
        <ele>11.600000381469727</ele>
        <time>2014-01-03T06:45:38.000Z</time>
      </trkpt>
      <trkpt lon="35.366904493421316" lat="31.59794862382114">
        <ele>10.800000190734863</ele>
        <time>2014-01-03T06:45:40.000Z</time>
      </trkpt>
      <trkpt lon="35.36687138490379" lat="31.598001094534993">
        <ele>10.800000190734863</ele>
        <time>2014-01-03T06:45:41.000Z</time>
      </trkpt>
      <trkpt lon="35.366832157596946" lat="31.598049625754356">
        <ele>10.800000190734863</ele>
        <time>2014-01-03T06:45:42.000Z</time>
      </trkpt>
      <trkpt lon="35.36678312346339" lat="31.598090445622802">
        <ele>10.800000190734863</ele>
        <time>2014-01-03T06:45:43.000Z</time>
      </trkpt>
      <trkpt lon="35.36672838963568" lat="31.59812263213098">
        <ele>10.199999809265137</ele>
        <time>2014-01-03T06:45:44.000Z</time>
      </trkpt>
      <trkpt lon="35.366671895608306" lat="31.59814802929759">
        <ele>9.800000190734863</ele>
        <time>2014-01-03T06:45:45.000Z</time>
      </trkpt>
      <trkpt lon="35.366615233942866" lat="31.59817149862647">
        <ele>9.800000190734863</ele>
        <time>2014-01-03T06:45:46.000Z</time>
      </trkpt>
      <trkpt lon="35.366425132378936" lat="31.598290437832475">
        <ele>10.800000190734863</ele>
        <time>2014-01-03T06:45:51.000Z</time>
      </trkpt>
      <trkpt lon="35.366202341392636" lat="31.598456064239144">
        <ele>10.800000190734863</ele>
        <time>2014-01-03T06:45:59.000Z</time>
      </trkpt>
      <trkpt lon="35.36608030088246" lat="31.598560167476535">
        <ele>13.199999809265137</ele>
        <time>2014-01-03T06:46:05.000Z</time>
      </trkpt>
      <trkpt lon="35.365972677245736" lat="31.598608195781708">
        <ele>14.600000381469727</ele>
        <time>2014-01-03T06:46:13.000Z</time>
      </trkpt>
      <trkpt lon="35.36587117239833" lat="31.5987968724221">
        <ele>11.199999809265137</ele>
        <time>2014-01-03T06:46:21.000Z</time>
      </trkpt>
      <trkpt lon="35.36580386571586" lat="31.598964342847466">
        <ele>7.800000190734863</ele>
        <time>2014-01-03T06:46:25.000Z</time>
      </trkpt>
      <trkpt lon="35.365706384181976" lat="31.59920683130622">
        <ele>4.0</ele>
        <time>2014-01-03T06:46:29.000Z</time>
      </trkpt>
      <trkpt lon="35.36562415771186" lat="31.599357537925243">
        <ele>2.0</ele>
        <time>2014-01-03T06:46:32.000Z</time>
      </trkpt>
      <trkpt lon="35.3656118363142" lat="31.59940766170621">
        <ele>1.600000023841858</ele>
        <time>2014-01-03T06:46:33.000Z</time>
      </trkpt>
      <trkpt lon="35.36560580134392" lat="31.59945853985846">
        <ele>1.2000000476837158</ele>
        <time>2014-01-03T06:46:34.000Z</time>
      </trkpt>
      <trkpt lon="35.365605214610696" lat="31.599508076906204">
        <ele>0.20000000298023224</ele>
        <time>2014-01-03T06:46:35.000Z</time>
      </trkpt>
      <trkpt lon="35.36561669781804" lat="31.59955476410687">
        <ele>-0.4000000059604645</ele>
        <time>2014-01-03T06:46:36.000Z</time>
      </trkpt>
      <trkpt lon="35.365634467452765" lat="31.599598433822393">
        <ele>-0.4000000059604645</ele>
        <time>2014-01-03T06:46:37.000Z</time>
      </trkpt>
      <trkpt lon="35.36565416492522" lat="31.599634224548936">
        <ele>-0.800000011920929</ele>
        <time>2014-01-03T06:46:38.000Z</time>
      </trkpt>
      <trkpt lon="35.36567914299667" lat="31.59966473467648">
        <ele>-0.800000011920929</ele>
        <time>2014-01-03T06:46:39.000Z</time>
      </trkpt>
      <trkpt lon="35.365705378353596" lat="31.59969256259501">
        <ele>-0.800000011920929</ele>
        <time>2014-01-03T06:46:40.000Z</time>
      </trkpt>
      <trkpt lon="35.36573044024408" lat="31.59971988759935">
        <ele>-1.2000000476837158</ele>
        <time>2014-01-03T06:46:41.000Z</time>
      </trkpt>
      <trkpt lon="35.36578475497663" lat="31.599770095199347">
        <ele>-1.7999999523162842</ele>
        <time>2014-01-03T06:46:43.000Z</time>
      </trkpt>
      <trkpt lon="35.3658520616591" lat="31.5997932292521">
        <ele>-2.799999952316284</ele>
        <time>2014-01-03T06:46:45.000Z</time>
      </trkpt>
      <trkpt lon="35.365887098014355" lat="31.599813597276807">
        <ele>-3.200000047683716</ele>
        <time>2014-01-03T06:46:46.000Z</time>
      </trkpt>
      <trkpt lon="35.36591970361769" lat="31.599845783784986">
        <ele>-3.799999952316284</ele>
        <time>2014-01-03T06:46:47.000Z</time>
      </trkpt>
      <trkpt lon="35.36594686098397" lat="31.59988853149116">
        <ele>-4.199999809265137</ele>
        <time>2014-01-03T06:46:48.000Z</time>
      </trkpt>
      <trkpt lon="35.36596018821001" lat="31.599940080195665">
        <ele>-4.599999904632568</ele>
        <time>2014-01-03T06:46:49.000Z</time>
      </trkpt>
      <trkpt lon="35.36595616489649" lat="31.599999340251088">
        <ele>-4.599999904632568</ele>
        <time>2014-01-03T06:46:50.000Z</time>
      </trkpt>
      <trkpt lon="35.36593780852854" lat="31.60005658864975">
        <ele>-5.199999809265137</ele>
        <time>2014-01-03T06:46:51.000Z</time>
      </trkpt>
      <trkpt lon="35.36591065116227" lat="31.600108053535223">
        <ele>-5.599999904632568</ele>
        <time>2014-01-03T06:46:52.000Z</time>
      </trkpt>
      <trkpt lon="35.36587854847312" lat="31.6001558303833">
        <ele>-5.599999904632568</ele>
        <time>2014-01-03T06:46:53.000Z</time>
      </trkpt>
      <trkpt lon="35.365753239020705" lat="31.600322294980288">
        <ele>-4.599999904632568</ele>
        <time>2014-01-03T06:46:58.000Z</time>
      </trkpt>
      <trkpt lon="35.365458112210035" lat="31.60048021003604">
        <ele>-3.200000047683716</ele>
        <time>2014-01-03T06:47:08.000Z</time>
      </trkpt>
      <trkpt lon="35.365251917392015" lat="31.600535279139876">
        <ele>-3.200000047683716</ele>
        <time>2014-01-03T06:47:16.000Z</time>
      </trkpt>
      <trkpt lon="35.36508419550955" lat="31.600531423464417">
        <ele>-3.799999952316284</ele>
        <time>2014-01-03T06:47:24.000Z</time>
      </trkpt>
      <trkpt lon="35.3649437148124" lat="31.6005134023726">
        <ele>-4.599999904632568</ele>
        <time>2014-01-03T06:47:28.000Z</time>
      </trkpt>
      <trkpt lon="35.36489929072559" lat="31.60048616118729">
        <ele>-5.199999809265137</ele>
        <time>2014-01-03T06:47:29.000Z</time>
      </trkpt>
      <trkpt lon="35.36485327407718" lat="31.600455148145556">
        <ele>-6.199999809265137</ele>
        <time>2014-01-03T06:47:30.000Z</time>
      </trkpt>
      <trkpt lon="35.364807173609734" lat="31.600432014092803">
        <ele>-6.599999904632568</ele>
        <time>2014-01-03T06:47:31.000Z</time>
      </trkpt>
      <trkpt lon="35.36477213725448" lat="31.600417932495475">
        <ele>-6.599999904632568</ele>
        <time>2014-01-03T06:47:32.000Z</time>
      </trkpt>
      <trkpt lon="35.36475067958236" lat="31.600410975515842">
        <ele>-6.199999809265137</ele>
        <time>2014-01-03T06:47:33.000Z</time>
      </trkpt>
      <trkpt lon="35.36473458632827" lat="31.60040351562202">
        <ele>-6.199999809265137</ele>
        <time>2014-01-03T06:47:34.000Z</time>
      </trkpt>
      <trkpt lon="35.36461933515966" lat="31.6003683116287">
        <ele>-3.799999952316284</ele>
        <time>2014-01-03T06:47:41.000Z</time>
      </trkpt>
      <trkpt lon="35.364471059292555" lat="31.600391194224358">
        <ele>-0.4000000059604645</ele>
        <time>2014-01-03T06:47:49.000Z</time>
      </trkpt>
      <trkpt lon="35.36433971486986" lat="31.600408796221018">
        <ele>2.0</ele>
        <time>2014-01-03T06:47:56.000Z</time>
      </trkpt>
      <trkpt lon="35.36420535296202" lat="31.600395468994975">
        <ele>4.0</ele>
        <time>2014-01-03T06:48:04.000Z</time>
      </trkpt>
      <trkpt lon="35.364036709070206" lat="31.600345261394978">
        <ele>6.0</ele>
        <time>2014-01-03T06:48:14.000Z</time>
      </trkpt>
      <trkpt lon="35.36393285728991" lat="31.60027116537094">
        <ele>8.399999618530273</ele>
        <time>2014-01-03T06:48:22.000Z</time>
      </trkpt>
      <trkpt lon="35.36389329470694" lat="31.60014116205275">
        <ele>9.800000190734863</ele>
        <time>2014-01-03T06:48:31.000Z</time>
      </trkpt>
      <trkpt lon="35.363888684660196" lat="31.60003454424441">
        <ele>10.800000190734863</ele>
        <time>2014-01-03T06:48:40.000Z</time>
      </trkpt>
      <trkpt lon="35.363949704915285" lat="31.599878054112196">
        <ele>10.800000190734863</ele>
        <time>2014-01-03T06:48:46.000Z</time>
      </trkpt>
      <trkpt lon="35.36410577595234" lat="31.599586699157953">
        <ele>9.199999809265137</ele>
        <time>2014-01-03T06:48:52.000Z</time>
      </trkpt>
      <trkpt lon="35.364299565553665" lat="31.59923424012959">
        <ele>7.800000190734863</ele>
        <time>2014-01-03T06:48:58.000Z</time>
      </trkpt>
      <trkpt lon="35.36436092108488" lat="31.599122174084187">
        <ele>7.800000190734863</ele>
        <time>2014-01-03T06:49:00.000Z</time>
      </trkpt>
      <trkpt lon="35.36439126357436" lat="31.59907397814095">
        <ele>7.800000190734863</ele>
        <time>2014-01-03T06:49:01.000Z</time>
      </trkpt>
      <trkpt lon="35.36445228382945" lat="31.598901646211743">
        <ele>9.199999809265137</ele>
        <time>2014-01-03T06:49:06.000Z</time>
      </trkpt>
      <trkpt lon="35.36441666074097" lat="31.59871774725616">
        <ele>9.199999809265137</ele>
        <time>2014-01-03T06:49:12.000Z</time>
      </trkpt>
      <trkpt lon="35.36433091387153" lat="31.598414657637477">
        <ele>7.800000190734863</ele>
        <time>2014-01-03T06:49:17.000Z</time>
      </trkpt>
      <trkpt lon="35.36429185420275" lat="31.598295215517282">
        <ele>8.399999618530273</ele>
        <time>2014-01-03T06:49:21.000Z</time>
      </trkpt>
      <trkpt lon="35.36425966769457" lat="31.598161021247506">
        <ele>8.800000190734863</ele>
        <time>2014-01-03T06:49:28.000Z</time>
      </trkpt>
      <trkpt lon="35.36424885503948" lat="31.5981319360435">
        <ele>9.199999809265137</ele>
        <time>2014-01-03T06:49:30.000Z</time>
      </trkpt>
      <trkpt lon="35.364238042384386" lat="31.598118441179395">
        <ele>9.199999809265137</ele>
        <time>2014-01-03T06:49:31.000Z</time>
      </trkpt>
      <trkpt lon="35.36414693109691" lat="31.598004028201103">
        <ele>9.199999809265137</ele>
        <time>2014-01-03T06:49:41.000Z</time>
      </trkpt>
      <trkpt lon="35.36402472294867" lat="31.597923645749688">
        <ele>7.800000190734863</ele>
        <time>2014-01-03T06:49:49.000Z</time>
      </trkpt>
      <trkpt lon="35.36388399079442" lat="31.597807640209794">
        <ele>6.0</ele>
        <time>2014-01-03T06:49:57.000Z</time>
      </trkpt>
      <trkpt lon="35.363702522590756" lat="31.597624495625496">
        <ele>5.0</ele>
        <time>2014-01-03T06:50:07.000Z</time>
      </trkpt>
      <trkpt lon="35.36359875462949" lat="31.59750354476273">
        <ele>6.0</ele>
        <time>2014-01-03T06:50:14.000Z</time>
      </trkpt>
      <trkpt lon="35.363469924777746" lat="31.597340181469917">
        <ele>6.0</ele>
        <time>2014-01-03T06:50:22.000Z</time>
      </trkpt>
      <trkpt lon="35.3632840141654" lat="31.59718830138445">
        <ele>6.0</ele>
        <time>2014-01-03T06:50:29.000Z</time>
      </trkpt>
      <trkpt lon="35.36309818737209" lat="31.597130885347724">
        <ele>6.400000095367432</ele>
        <time>2014-01-03T06:50:34.000Z</time>
      </trkpt>
      <trkpt lon="35.36296826787293" lat="31.59703533165157">
        <ele>6.800000190734863</ele>
        <time>2014-01-03T06:50:39.000Z</time>
      </trkpt>
      <trkpt lon="35.36291747353971" lat="31.59691815264523">
        <ele>6.400000095367432</ele>
        <time>2014-01-03T06:50:44.000Z</time>
      </trkpt>
      <trkpt lon="35.36294530145824" lat="31.596673736348748">
        <ele>7.400000095367432</ele>
        <time>2014-01-03T06:50:53.000Z</time>
      </trkpt>
      <trkpt lon="35.362973883748055" lat="31.596547923982143">
        <ele>8.800000190734863</ele>
        <time>2014-01-03T06:50:59.000Z</time>
      </trkpt>
      <trkpt lon="35.36298000253737" lat="31.59633234143257">
        <ele>11.600000381469727</ele>
        <time>2014-01-03T06:51:08.000Z</time>
      </trkpt>
      <trkpt lon="35.362989977002144" lat="31.596160931512713">
        <ele>13.600000381469727</ele>
        <time>2014-01-03T06:51:16.000Z</time>
      </trkpt>
      <trkpt lon="35.36293666809797" lat="31.59596974030137">
        <ele>15.0</ele>
        <time>2014-01-03T06:51:25.000Z</time>
      </trkpt>
      <trkpt lon="35.36286215297878" lat="31.59576782025397">
        <ele>16.0</ele>
        <time>2014-01-03T06:51:35.000Z</time>
      </trkpt>
      <trkpt lon="35.362803898751736" lat="31.5956418402493">
        <ele>16.399999618530273</ele>
        <time>2014-01-03T06:51:43.000Z</time>
      </trkpt>
      <trkpt lon="35.36275763064623" lat="31.595521476119757">
        <ele>18.399999618530273</ele>
        <time>2014-01-03T06:51:52.000Z</time>
      </trkpt>
      <trkpt lon="35.36268697120249" lat="31.595404548570514">
        <ele>21.799999237060547</ele>
        <time>2014-01-03T06:52:02.000Z</time>
      </trkpt>
      <trkpt lon="35.36260658875108" lat="31.595334392040968">
        <ele>21.799999237060547</ele>
        <time>2014-01-03T06:52:09.000Z</time>
      </trkpt>
      <trkpt lon="35.362457390874624" lat="31.59522995352745">
        <ele>20.799999237060547</ele>
        <time>2014-01-03T06:52:15.000Z</time>
      </trkpt>
      <trkpt lon="35.36218263208866" lat="31.595097603276372">
        <ele>20.799999237060547</ele>
        <time>2014-01-03T06:52:23.000Z</time>
      </trkpt>
      <trkpt lon="35.36207911558449" lat="31.594976987689734">
        <ele>19.799999237060547</ele>
        <time>2014-01-03T06:52:27.000Z</time>
      </trkpt>
      <trkpt lon="35.362009797245264" lat="31.59479208290577">
        <ele>18.799999237060547</ele>
        <time>2014-01-03T06:52:31.000Z</time>
      </trkpt>
      <trkpt lon="35.36200032569468" lat="31.594741037115455">
        <ele>18.399999618530273</ele>
        <time>2014-01-03T06:52:32.000Z</time>
      </trkpt>
      <trkpt lon="35.36197920329869" lat="31.594642214477062">
        <ele>18.399999618530273</ele>
        <time>2014-01-03T06:52:34.000Z</time>
      </trkpt>
      <trkpt lon="35.3619578294456" lat="31.594600891694427">
        <ele>18.399999618530273</ele>
        <time>2014-01-03T06:52:35.000Z</time>
      </trkpt>
      <trkpt lon="35.361931594088674" lat="31.594559652730823">
        <ele>18.399999618530273</ele>
        <time>2014-01-03T06:52:36.000Z</time>
      </trkpt>
      <trkpt lon="35.361895551905036" lat="31.59452185034752">
        <ele>18.399999618530273</ele>
        <time>2014-01-03T06:52:37.000Z</time>
      </trkpt>
      <trkpt lon="35.36184484139085" lat="31.594491843134165">
        <ele>18.399999618530273</ele>
        <time>2014-01-03T06:52:38.000Z</time>
      </trkpt>
      <trkpt lon="35.36178784444928" lat="31.59447055310011">
        <ele>18.399999618530273</ele>
        <time>2014-01-03T06:52:39.000Z</time>
      </trkpt>
      <trkpt lon="35.361724477261305" lat="31.59445647150278">
        <ele>18.0</ele>
        <time>2014-01-03T06:52:40.000Z</time>
      </trkpt>
      <trkpt lon="35.36166169680655" lat="31.594451861456037">
        <ele>18.0</ele>
        <time>2014-01-03T06:52:41.000Z</time>
      </trkpt>
      <trkpt lon="35.36159615032375" lat="31.594453370198607">
        <ele>17.399999618530273</ele>
        <time>2014-01-03T06:52:42.000Z</time>
      </trkpt>
      <trkpt lon="35.3614606987685" lat="31.594454376026988">
        <ele>17.0</ele>
        <time>2014-01-03T06:52:44.000Z</time>
      </trkpt>
      <trkpt lon="35.36139397881925" lat="31.594453621655703">
        <ele>16.399999618530273</ele>
        <time>2014-01-03T06:52:45.000Z</time>
      </trkpt>
      <trkpt lon="35.36133136600256" lat="31.59443937242031">
        <ele>16.399999618530273</ele>
        <time>2014-01-03T06:52:46.000Z</time>
      </trkpt>
      <trkpt lon="35.36127462051809" lat="31.594418920576572">
        <ele>16.399999618530273</ele>
        <time>2014-01-03T06:52:47.000Z</time>
      </trkpt>
      <trkpt lon="35.36122055724263" lat="31.59440701827407">
        <ele>16.399999618530273</ele>
        <time>2014-01-03T06:52:48.000Z</time>
      </trkpt>
      <trkpt lon="35.36117680370808" lat="31.594400396570563">
        <ele>16.399999618530273</ele>
        <time>2014-01-03T06:52:49.000Z</time>
      </trkpt>
      <trkpt lon="35.36114864051342" lat="31.5943967923522">
        <ele>17.0</ele>
        <time>2014-01-03T06:52:50.000Z</time>
      </trkpt>
      <trkpt lon="35.36112307570875" lat="31.594392014667392">
        <ele>17.0</ele>
        <time>2014-01-03T06:52:51.000Z</time>
      </trkpt>
      <trkpt lon="35.36110170185566" lat="31.59438748843968">
        <ele>17.399999618530273</ele>
        <time>2014-01-03T06:52:52.000Z</time>
      </trkpt>
      <trkpt lon="35.36086860112846" lat="31.59432797692716">
        <ele>19.799999237060547</ele>
        <time>2014-01-03T06:53:02.000Z</time>
      </trkpt>
      <trkpt lon="35.360703729093075" lat="31.594193195924163">
        <ele>21.799999237060547</ele>
        <time>2014-01-03T06:53:12.000Z</time>
      </trkpt>
      <trkpt lon="35.36059493198991" lat="31.594085237011313">
        <ele>22.799999237060547</ele>
        <time>2014-01-03T06:53:20.000Z</time>
      </trkpt>
      <trkpt lon="35.360449170693755" lat="31.593963615596294">
        <ele>24.200000762939453</ele>
        <time>2014-01-03T06:53:29.000Z</time>
      </trkpt>
      <trkpt lon="35.36031296476722" lat="31.593853225931525">
        <ele>25.200000762939453</ele>
        <time>2014-01-03T06:53:38.000Z</time>
      </trkpt>
      <trkpt lon="35.36017617210746" lat="31.593724815174937">
        <ele>25.600000381469727</ele>
        <time>2014-01-03T06:53:47.000Z</time>
      </trkpt>
      <trkpt lon="35.3599807061255" lat="31.593548376113176">
        <ele>25.600000381469727</ele>
        <time>2014-01-03T06:53:58.000Z</time>
      </trkpt>
      <trkpt lon="35.3598612640053" lat="31.593412589281797">
        <ele>26.600000381469727</ele>
        <time>2014-01-03T06:54:06.000Z</time>
      </trkpt>
      <trkpt lon="35.359704522415996" lat="31.59324562177062">
        <ele>29.0</ele>
        <time>2014-01-03T06:54:17.000Z</time>
      </trkpt>
      <trkpt lon="35.359578961506486" lat="31.59308343194425">
        <ele>29.399999618530273</ele>
        <time>2014-01-03T06:54:27.000Z</time>
      </trkpt>
      <trkpt lon="35.35948969423771" lat="31.59298854880035">
        <ele>28.600000381469727</ele>
        <time>2014-01-03T06:54:35.000Z</time>
      </trkpt>
      <trkpt lon="35.35938031040132" lat="31.59285183995962">
        <ele>27.600000381469727</ele>
        <time>2014-01-03T06:54:42.000Z</time>
      </trkpt>
      <trkpt lon="35.35927067510784" lat="31.592703983187675">
        <ele>28.0</ele>
        <time>2014-01-03T06:54:50.000Z</time>
      </trkpt>
      <trkpt lon="35.35915936343372" lat="31.592585379257798">
        <ele>29.399999618530273</ele>
        <time>2014-01-03T06:54:58.000Z</time>
      </trkpt>
      <trkpt lon="35.35903665237129" lat="31.592469289898872">
        <ele>31.399999618530273</ele>
        <time>2014-01-03T06:55:07.000Z</time>
      </trkpt>
      <trkpt lon="35.35901930183172" lat="31.59244674257934">
        <ele>31.799999237060547</ele>
        <time>2014-01-03T06:55:09.000Z</time>
      </trkpt>
      <trkpt lon="35.35900597460568" lat="31.592437271028757">
        <ele>31.799999237060547</ele>
        <time>2014-01-03T06:55:10.000Z</time>
      </trkpt>
      <trkpt lon="35.358990048989654" lat="31.592430481687188">
        <ele>31.799999237060547</ele>
        <time>2014-01-03T06:55:11.000Z</time>
      </trkpt>
      <trkpt lon="35.3589737880975" lat="31.592421932145953">
        <ele>32.400001525878906</ele>
        <time>2014-01-03T06:55:12.000Z</time>
      </trkpt>
      <trkpt lon="35.35895995795727" lat="31.592413131147623">
        <ele>32.400001525878906</ele>
        <time>2014-01-03T06:55:13.000Z</time>
      </trkpt>
      <trkpt lon="35.35894487053156" lat="31.59240122884512">
        <ele>32.400001525878906</ele>
        <time>2014-01-03T06:55:14.000Z</time>
      </trkpt>
      <trkpt lon="35.35884680226445" lat="31.592296371236444">
        <ele>34.79999923706055</ele>
        <time>2014-01-03T06:55:23.000Z</time>
      </trkpt>
      <trkpt lon="35.35880380310118" lat="31.59220626577735">
        <ele>36.20000076293945</ele>
        <time>2014-01-03T06:55:32.000Z</time>
      </trkpt>
      <trkpt lon="35.35877094604075" lat="31.592171480879188">
        <ele>37.20000076293945</ele>
        <time>2014-01-03T06:55:36.000Z</time>
      </trkpt>
      <trkpt lon="35.358766335994005" lat="31.592159578576684">
        <ele>37.20000076293945</ele>
        <time>2014-01-03T06:55:37.000Z</time>
      </trkpt>
      <trkpt lon="35.35875820554793" lat="31.592148514464498">
        <ele>37.20000076293945</ele>
        <time>2014-01-03T06:55:38.000Z</time>
      </trkpt>
      <trkpt lon="35.358749656006694" lat="31.59213736653328">
        <ele>37.20000076293945</ele>
        <time>2014-01-03T06:55:39.000Z</time>
      </trkpt>
      <trkpt lon="35.35874018445611" lat="31.5921276435256">
        <ele>37.599998474121094</ele>
        <time>2014-01-03T06:55:40.000Z</time>
      </trkpt>
      <trkpt lon="35.35864521749318" lat="31.592065701261163">
        <ele>39.0</ele>
        <time>2014-01-03T06:55:48.000Z</time>
      </trkpt>
      <trkpt lon="35.358549328520894" lat="31.592001663520932">
        <ele>41.0</ele>
        <time>2014-01-03T06:55:56.000Z</time>
      </trkpt>
      <trkpt lon="35.358455535024405" lat="31.591939888894558">
        <ele>42.0</ele>
        <time>2014-01-03T06:56:04.000Z</time>
      </trkpt>
      <trkpt lon="35.35834740847349" lat="31.59187157638371">
        <ele>43.400001525878906</ele>
        <time>2014-01-03T06:56:13.000Z</time>
      </trkpt>
      <trkpt lon="35.358213717117906" lat="31.591764874756336">
        <ele>45.400001525878906</ele>
        <time>2014-01-03T06:56:25.000Z</time>
      </trkpt>
      <trkpt lon="35.358127132058144" lat="31.591695807874203">
        <ele>47.20000076293945</ele>
        <time>2014-01-03T06:56:33.000Z</time>
      </trkpt>
      <trkpt lon="35.35805798135698" lat="31.591610396280885">
        <ele>49.20000076293945</ele>
        <time>2014-01-03T06:56:43.000Z</time>
      </trkpt>
      <trkpt lon="35.357999727129936" lat="31.591525990515947">
        <ele>49.599998474121094</ele>
        <time>2014-01-03T06:56:52.000Z</time>
      </trkpt>
      <trkpt lon="35.35792630165815" lat="31.5914473682642">
        <ele>49.599998474121094</ele>
        <time>2014-01-03T06:57:02.000Z</time>
      </trkpt>
      <trkpt lon="35.357834016904235" lat="31.591335888952017">
        <ele>49.20000076293945</ele>
        <time>2014-01-03T06:57:10.000Z</time>
      </trkpt>
      <trkpt lon="35.35772563889623" lat="31.591133549809456">
        <ele>48.599998474121094</ele>
        <time>2014-01-03T06:57:15.000Z</time>
      </trkpt>
      <trkpt lon="35.35769118927419" lat="31.59100136719644">
        <ele>48.20000076293945</ele>
        <time>2014-01-03T06:57:17.000Z</time>
      </trkpt>
      <trkpt lon="35.35760561004281" lat="31.590715628117323">
        <ele>46.20000076293945</ele>
        <time>2014-01-03T06:57:21.000Z</time>
      </trkpt>
      <trkpt lon="35.35756495781243" lat="31.59065544605255">
        <ele>45.79999923706055</ele>
        <time>2014-01-03T06:57:22.000Z</time>
      </trkpt>
      <trkpt lon="35.35733110271394" lat="31.59039108082652">
        <ele>43.79999923706055</ele>
        <time>2014-01-03T06:57:28.000Z</time>
      </trkpt>
      <trkpt lon="35.357295060530305" lat="31.59035830758512">
        <ele>43.400001525878906</ele>
        <time>2014-01-03T06:57:29.000Z</time>
      </trkpt>
      <trkpt lon="35.35726974718273" lat="31.590321343392134">
        <ele>43.0</ele>
        <time>2014-01-03T06:57:30.000Z</time>
      </trkpt>
      <trkpt lon="35.357248624786735" lat="31.590283876284957">
        <ele>43.0</ele>
        <time>2014-01-03T06:57:31.000Z</time>
      </trkpt>
      <trkpt lon="35.357224233448505" lat="31.59025085158646">
        <ele>43.0</ele>
        <time>2014-01-03T06:57:32.000Z</time>
      </trkpt>
      <trkpt lon="35.35719548352063" lat="31.59021749161184">
        <ele>42.400001525878906</ele>
        <time>2014-01-03T06:57:33.000Z</time>
      </trkpt>
      <trkpt lon="35.35694402642548" lat="31.589987324550748">
        <ele>40.599998474121094</ele>
        <time>2014-01-03T06:57:39.000Z</time>
      </trkpt>
      <trkpt lon="35.35684738308191" lat="31.589914485812187">
        <ele>40.0</ele>
        <time>2014-01-03T06:57:41.000Z</time>
      </trkpt>
      <trkpt lon="35.35679256543517" lat="31.589888585731387">
        <ele>39.599998474121094</ele>
        <time>2014-01-03T06:57:42.000Z</time>
      </trkpt>
      <trkpt lon="35.35673288628459" lat="31.58986972644925">
        <ele>39.0</ele>
        <time>2014-01-03T06:57:43.000Z</time>
      </trkpt>
      <trkpt lon="35.35641395486891" lat="31.589772664010525">
        <ele>37.20000076293945</ele>
        <time>2014-01-03T06:57:48.000Z</time>
      </trkpt>
      <trkpt lon="35.355996284633875" lat="31.589577784761786">
        <ele>36.599998474121094</ele>
        <time>2014-01-03T06:57:56.000Z</time>
      </trkpt>
      <trkpt lon="35.35591263324022" lat="31.589510813355446">
        <ele>37.20000076293945</ele>
        <time>2014-01-03T06:58:02.000Z</time>
      </trkpt>
      <trkpt lon="35.35583124496043" lat="31.589443003758788">
        <ele>36.599998474121094</ele>
        <time>2014-01-03T06:58:11.000Z</time>
      </trkpt>
      <trkpt lon="35.35583904013038" lat="31.589436968788505">
        <ele>37.20000076293945</ele>
        <time>2014-01-03T06:58:25.000Z</time>
      </trkpt>
      <trkpt lon="35.35584071651101" lat="31.589433616027236">
        <ele>36.599998474121094</ele>
        <time>2014-01-03T06:58:41.000Z</time>
      </trkpt>
      <trkpt lon="35.35584205761552" lat="31.589435124769807">
        <ele>36.20000076293945</ele>
        <time>2014-01-03T06:59:00.000Z</time>
      </trkpt>
      <trkpt lon="35.355845829471946" lat="31.589445937424898">
        <ele>35.79999923706055</ele>
        <time>2014-01-03T06:59:18.000Z</time>
      </trkpt>
      <trkpt lon="35.35584004595876" lat="31.589444931596518">
        <ele>35.20000076293945</ele>
        <time>2014-01-03T06:59:37.000Z</time>
      </trkpt>
      <trkpt lon="35.35583954304457" lat="31.589445769786835">
        <ele>34.79999923706055</ele>
        <time>2014-01-03T06:59:53.000Z</time>
      </trkpt>
      <trkpt lon="35.35584214143455" lat="31.5894475299865">
        <ele>34.79999923706055</ele>
        <time>2014-01-03T07:00:10.000Z</time>
      </trkpt>
      <trkpt lon="35.35583476535976" lat="31.589439315721393">
        <ele>33.79999923706055</ele>
        <time>2014-01-03T07:00:30.000Z</time>
      </trkpt>
      <trkpt lon="35.3558359388262" lat="31.58943529240787">
        <ele>32.79999923706055</ele>
        <time>2014-01-03T07:00:50.000Z</time>
      </trkpt>
      <trkpt lon="35.35584507510066" lat="31.589443422853947">
        <ele>33.79999923706055</ele>
        <time>2014-01-03T07:01:13.000Z</time>
      </trkpt>
      <trkpt lon="35.355831664055586" lat="31.589413667097688">
        <ele>33.79999923706055</ele>
        <time>2014-01-03T07:01:17.000Z</time>
      </trkpt>
      <trkpt lon="35.35582353360951" lat="31.58939966931939">
        <ele>33.79999923706055</ele>
        <time>2014-01-03T07:01:18.000Z</time>
      </trkpt>
      <trkpt lon="35.35570425912738" lat="31.589230857789516">
        <ele>34.20000076293945</ele>
        <time>2014-01-03T07:01:26.000Z</time>
      </trkpt>
      <trkpt lon="35.35556101240218" lat="31.588975377380848">
        <ele>33.79999923706055</ele>
        <time>2014-01-03T07:01:34.000Z</time>
      </trkpt>
      <trkpt lon="35.35541617311537" lat="31.588690308853984">
        <ele>33.79999923706055</ele>
        <time>2014-01-03T07:01:44.000Z</time>
      </trkpt>
      <trkpt lon="35.35537979565561" lat="31.588549576699734">
        <ele>33.20000076293945</ele>
        <time>2014-01-03T07:01:48.000Z</time>
      </trkpt>
      <trkpt lon="35.35537392832339" lat="31.588347405195236">
        <ele>32.79999923706055</ele>
        <time>2014-01-03T07:01:53.000Z</time>
      </trkpt>
      <trkpt lon="35.35539438016713" lat="31.588255539536476">
        <ele>32.400001525878906</ele>
        <time>2014-01-03T07:01:55.000Z</time>
      </trkpt>
      <trkpt lon="35.355413826182485" lat="31.588209941983223">
        <ele>31.799999237060547</ele>
        <time>2014-01-03T07:01:56.000Z</time>
      </trkpt>
      <trkpt lon="35.35560032352805" lat="31.5878848079592">
        <ele>30.799999237060547</ele>
        <time>2014-01-03T07:02:04.000Z</time>
      </trkpt>
      <trkpt lon="35.35572404041886" lat="31.587635362520814">
        <ele>30.0</ele>
        <time>2014-01-03T07:02:10.000Z</time>
      </trkpt>
      <trkpt lon="35.355836944654584" lat="31.58725750632584">
        <ele>28.600000381469727</ele>
        <time>2014-01-03T07:02:17.000Z</time>
      </trkpt>
      <trkpt lon="35.35583811812103" lat="31.587139070034027">
        <ele>28.0</ele>
        <time>2014-01-03T07:02:19.000Z</time>
      </trkpt>
      <trkpt lon="35.355793526396155" lat="31.586793065071106">
        <ele>26.600000381469727</ele>
        <time>2014-01-03T07:02:24.000Z</time>
      </trkpt>
      <trkpt lon="35.35576846450567" lat="31.586725171655416">
        <ele>26.600000381469727</ele>
        <time>2014-01-03T07:02:25.000Z</time>
      </trkpt>
      <trkpt lon="35.355733931064606" lat="31.586663564667106">
        <ele>26.0</ele>
        <time>2014-01-03T07:02:26.000Z</time>
      </trkpt>
      <trkpt lon="35.355689926072955" lat="31.586610674858093">
        <ele>25.600000381469727</ele>
        <time>2014-01-03T07:02:27.000Z</time>
      </trkpt>
      <trkpt lon="35.355637706816196" lat="31.586566334590316">
        <ele>25.600000381469727</ele>
        <time>2014-01-03T07:02:28.000Z</time>
      </trkpt>
      <trkpt lon="35.35557760857046" lat="31.58653129823506">
        <ele>25.200000762939453</ele>
        <time>2014-01-03T07:02:29.000Z</time>
      </trkpt>
      <trkpt lon="35.35551415756345" lat="31.586508248001337">
        <ele>24.600000381469727</ele>
        <time>2014-01-03T07:02:30.000Z</time>
      </trkpt>
      <trkpt lon="35.355444252491" lat="31.586493412032723">
        <ele>24.200000762939453</ele>
        <time>2014-01-03T07:02:31.000Z</time>
      </trkpt>
      <trkpt lon="35.35537510178983" lat="31.58647899515927">
        <ele>23.600000381469727</ele>
        <time>2014-01-03T07:02:32.000Z</time>
      </trkpt>
      <trkpt lon="35.355243254452944" lat="31.58646097406745">
        <ele>22.799999237060547</ele>
        <time>2014-01-03T07:02:34.000Z</time>
      </trkpt>
      <trkpt lon="35.35517795942724" lat="31.58646290190518">
        <ele>22.200000762939453</ele>
        <time>2014-01-03T07:02:35.000Z</time>
      </trkpt>
      <trkpt lon="35.3551091440022" lat="31.586471367627382">
        <ele>21.799999237060547</ele>
        <time>2014-01-03T07:02:36.000Z</time>
      </trkpt>
      <trkpt lon="35.354713601991534" lat="31.586565412580967">
        <ele>16.399999618530273</ele>
        <time>2014-01-03T07:02:42.000Z</time>
      </trkpt>
      <trkpt lon="35.35465911962092" lat="31.586585277691483">
        <ele>16.0</ele>
        <time>2014-01-03T07:02:43.000Z</time>
      </trkpt>
      <trkpt lon="35.35455409437418" lat="31.58662911504507">
        <ele>14.600000381469727</ele>
        <time>2014-01-03T07:02:45.000Z</time>
      </trkpt>
      <trkpt lon="35.354502545669675" lat="31.58664420247078">
        <ele>14.0</ele>
        <time>2014-01-03T07:02:46.000Z</time>
      </trkpt>
      <trkpt lon="35.35445191897452" lat="31.586651662364602">
        <ele>13.600000381469727</ele>
        <time>2014-01-03T07:02:47.000Z</time>
      </trkpt>
      <trkpt lon="35.354402801021934" lat="31.58665794879198">
        <ele>13.199999809265137</ele>
        <time>2014-01-03T07:02:48.000Z</time>
      </trkpt>
      <trkpt lon="35.35435535944998" lat="31.586669012904167">
        <ele>12.199999809265137</ele>
        <time>2014-01-03T07:02:49.000Z</time>
      </trkpt>
      <trkpt lon="35.35425008274615" lat="31.586697762832046">
        <ele>11.199999809265137</ele>
        <time>2014-01-03T07:02:51.000Z</time>
      </trkpt>
      <trkpt lon="35.35419585183263" lat="31.58671846613288">
        <ele>10.199999809265137</ele>
        <time>2014-01-03T07:02:52.000Z</time>
      </trkpt>
      <trkpt lon="35.35414430312812" lat="31.586745204403996">
        <ele>9.800000190734863</ele>
        <time>2014-01-03T07:02:53.000Z</time>
      </trkpt>
      <trkpt lon="35.35409811884165" lat="31.586777390912175">
        <ele>9.199999809265137</ele>
        <time>2014-01-03T07:02:54.000Z</time>
      </trkpt>
      <trkpt lon="35.354052521288395" lat="31.58680588938296">
        <ele>8.800000190734863</ele>
        <time>2014-01-03T07:02:55.000Z</time>
      </trkpt>
      <trkpt lon="35.3539988771081" lat="31.586828771978617">
        <ele>7.800000190734863</ele>
        <time>2014-01-03T07:02:56.000Z</time>
      </trkpt>
      <trkpt lon="35.35394053906202" lat="31.586848720908165">
        <ele>7.400000095367432</ele>
        <time>2014-01-03T07:02:57.000Z</time>
      </trkpt>
      <trkpt lon="35.35381833091378" lat="31.58688065595925">
        <ele>6.400000095367432</ele>
        <time>2014-01-03T07:02:59.000Z</time>
      </trkpt>
      <trkpt lon="35.353755885735154" lat="31.586876213550568">
        <ele>6.0</ele>
        <time>2014-01-03T07:03:00.000Z</time>
      </trkpt>
      <trkpt lon="35.3537034150213" lat="31.586852744221687">
        <ele>5.400000095367432</ele>
        <time>2014-01-03T07:03:01.000Z</time>
      </trkpt>
      <trkpt lon="35.35367156378925" lat="31.586814019829035">
        <ele>4.400000095367432</ele>
        <time>2014-01-03T07:03:02.000Z</time>
      </trkpt>
      <trkpt lon="35.353720765560865" lat="31.58667697571218">
        <ele>2.0</ele>
        <time>2014-01-03T07:03:05.000Z</time>
      </trkpt>
      <trkpt lon="35.353764770552516" lat="31.586636155843735">
        <ele>1.2000000476837158</ele>
        <time>2014-01-03T07:03:06.000Z</time>
      </trkpt>
      <trkpt lon="35.35381690599024" lat="31.586600113660097">
        <ele>0.6000000238418579</ele>
        <time>2014-01-03T07:03:07.000Z</time>
      </trkpt>
      <trkpt lon="35.353871220722795" lat="31.58656356856227">
        <ele>-0.4000000059604645</ele>
        <time>2014-01-03T07:03:08.000Z</time>
      </trkpt>
      <trkpt lon="35.353927966207266" lat="31.58653238788247">
        <ele>-0.800000011920929</ele>
        <time>2014-01-03T07:03:09.000Z</time>
      </trkpt>
      <trkpt lon="35.35404413938522" lat="31.586474301293492">
        <ele>-2.200000047683716</ele>
        <time>2014-01-03T07:03:11.000Z</time>
      </trkpt>
      <trkpt lon="35.354166934266686" lat="31.586420657113194">
        <ele>-3.200000047683716</ele>
        <time>2014-01-03T07:03:13.000Z</time>
      </trkpt>
      <trkpt lon="35.35422334447503" lat="31.58638863824308">
        <ele>-3.799999952316284</ele>
        <time>2014-01-03T07:03:14.000Z</time>
      </trkpt>
      <trkpt lon="35.3545359056443" lat="31.586158303543925">
        <ele>-5.199999809265137</ele>
        <time>2014-01-03T07:03:21.000Z</time>
      </trkpt>
      <trkpt lon="35.35457119345665" lat="31.58612770959735">
        <ele>-5.599999904632568</ele>
        <time>2014-01-03T07:03:22.000Z</time>
      </trkpt>
      <trkpt lon="35.35460002720356" lat="31.58609502017498">
        <ele>-5.599999904632568</ele>
        <time>2014-01-03T07:03:23.000Z</time>
      </trkpt>
      <trkpt lon="35.3546136058867" lat="31.58606023527682">
        <ele>-6.199999809265137</ele>
        <time>2014-01-03T07:03:24.000Z</time>
      </trkpt>
      <trkpt lon="35.35459659062326" lat="31.585987396538258">
        <ele>-6.599999904632568</ele>
        <time>2014-01-03T07:03:26.000Z</time>
      </trkpt>
      <trkpt lon="35.35456482321024" lat="31.58595864661038">
        <ele>-6.599999904632568</ele>
        <time>2014-01-03T07:03:27.000Z</time>
      </trkpt>
      <trkpt lon="35.354519644752145" lat="31.585936099290848">
        <ele>-7.0</ele>
        <time>2014-01-03T07:03:28.000Z</time>
      </trkpt>
      <trkpt lon="35.354471700266004" lat="31.585919503122568">
        <ele>-7.0</ele>
        <time>2014-01-03T07:03:29.000Z</time>
      </trkpt>
      <trkpt lon="35.35441931337118" lat="31.58591330051422">
        <ele>-7.599999904632568</ele>
        <time>2014-01-03T07:03:30.000Z</time>
      </trkpt>
      <trkpt lon="35.354366758838296" lat="31.58591321669519">
        <ele>-8.0</ele>
        <time>2014-01-03T07:03:31.000Z</time>
      </trkpt>
      <trkpt lon="35.35431479103863" lat="31.585921682417393">
        <ele>-8.600000381469727</ele>
        <time>2014-01-03T07:03:32.000Z</time>
      </trkpt>
      <trkpt lon="35.35426466725767" lat="31.585942218080163">
        <ele>-9.0</ele>
        <time>2014-01-03T07:03:33.000Z</time>
      </trkpt>
      <trkpt lon="35.354211777448654" lat="31.585966274142265">
        <ele>-9.399999618530273</ele>
        <time>2014-01-03T07:03:34.000Z</time>
      </trkpt>
      <trkpt lon="35.354158552363515" lat="31.58599535934627">
        <ele>-10.0</ele>
        <time>2014-01-03T07:03:35.000Z</time>
      </trkpt>
      <trkpt lon="35.354105746373534" lat="31.586024360731244">
        <ele>-11.0</ele>
        <time>2014-01-03T07:03:36.000Z</time>
      </trkpt>
      <trkpt lon="35.35365714691579" lat="31.58623818308115">
        <ele>-13.800000190734863</ele>
        <time>2014-01-03T07:03:44.000Z</time>
      </trkpt>
      <trkpt lon="35.35341314971447" lat="31.586393751204014">
        <ele>-15.199999809265137</ele>
        <time>2014-01-03T07:03:50.000Z</time>
      </trkpt>
      <trkpt lon="35.35330577753484" lat="31.586501877754927">
        <ele>-15.800000190734863</ele>
        <time>2014-01-03T07:03:55.000Z</time>
      </trkpt>
      <trkpt lon="35.35329680889845" lat="31.586501793935895">
        <ele>-15.800000190734863</ele>
        <time>2014-01-03T07:04:00.000Z</time>
      </trkpt>
      <trkpt lon="35.353261437267065" lat="31.58650740981102">
        <ele>-15.800000190734863</ele>
        <time>2014-01-03T07:04:04.000Z</time>
      </trkpt>
      <trkpt lon="35.35324861295521" lat="31.586510259658098">
        <ele>-15.800000190734863</ele>
        <time>2014-01-03T07:04:05.000Z</time>
      </trkpt>
      <trkpt lon="35.3532025963068" lat="31.58655082806945">
        <ele>-16.200000762939453</ele>
        <time>2014-01-03T07:04:12.000Z</time>
      </trkpt>
      <trkpt lon="35.353171499446034" lat="31.58658309839666">
        <ele>-15.800000190734863</ele>
        <time>2014-01-03T07:04:18.000Z</time>
      </trkpt>
      <trkpt lon="35.353117268532515" lat="31.586634311825037">
        <ele>-16.600000381469727</ele>
        <time>2014-01-03T07:04:26.000Z</time>
      </trkpt>
      <trkpt lon="35.353061109781265" lat="31.586692482233047">
        <ele>-17.200000762939453</ele>
        <time>2014-01-03T07:04:35.000Z</time>
      </trkpt>
      <trkpt lon="35.352978464215994" lat="31.586738666519523">
        <ele>-15.800000190734863</ele>
        <time>2014-01-03T07:04:45.000Z</time>
      </trkpt>
      <trkpt lon="35.35291559994221" lat="31.586750987917185">
        <ele>-15.199999809265137</ele>
        <time>2014-01-03T07:04:53.000Z</time>
      </trkpt>
      <trkpt lon="35.352877378463745" lat="31.586720142513514">
        <ele>-15.199999809265137</ele>
        <time>2014-01-03T07:05:02.000Z</time>
      </trkpt>
      <trkpt lon="35.35285416059196" lat="31.586703127250075">
        <ele>-14.800000190734863</ele>
        <time>2014-01-03T07:05:10.000Z</time>
      </trkpt>
      <trkpt lon="35.3528640512377" lat="31.586702121421695">
        <ele>-13.800000190734863</ele>
        <time>2014-01-03T07:05:27.000Z</time>
      </trkpt>
      <trkpt lon="35.352848963811994" lat="31.5866862796247">
        <ele>-15.800000190734863</ele>
        <time>2014-01-03T07:05:49.000Z</time>
      </trkpt>
      <trkpt lon="35.35284544341266" lat="31.586620146408677">
        <ele>-14.199999809265137</ele>
        <time>2014-01-03T07:05:59.000Z</time>
      </trkpt>
      <trkpt lon="35.35285960882902" lat="31.58657480031252">
        <ele>-13.399999618530273</ele>
        <time>2014-01-03T07:06:08.000Z</time>
      </trkpt>
      <trkpt lon="35.35286488942802" lat="31.586564406752586">
        <ele>-13.800000190734863</ele>
        <time>2014-01-03T07:06:18.000Z</time>
      </trkpt>
      <trkpt lon="35.35291777923703" lat="31.586430966854095">
        <ele>-13.399999618530273</ele>
        <time>2014-01-03T07:06:27.000Z</time>
      </trkpt>
      <trkpt lon="35.352923311293125" lat="31.586415460333228">
        <ele>-13.399999618530273</ele>
        <time>2014-01-03T07:06:28.000Z</time>
      </trkpt>
      <trkpt lon="35.352933118119836" lat="31.58640188165009">
        <ele>-12.800000190734863</ele>
        <time>2014-01-03T07:06:29.000Z</time>
      </trkpt>
      <trkpt lon="35.35301207564771" lat="31.586302053183317">
        <ele>-11.399999618530273</ele>
        <time>2014-01-03T07:06:37.000Z</time>
      </trkpt>
      <trkpt lon="35.3531214594841" lat="31.58617716282606">
        <ele>-9.399999618530273</ele>
        <time>2014-01-03T07:06:48.000Z</time>
      </trkpt>
      <trkpt lon="35.35322422161698" lat="31.586065515875816">
        <ele>-8.600000381469727</ele>
        <time>2014-01-03T07:06:58.000Z</time>
      </trkpt>
      <trkpt lon="35.3533426579088" lat="31.585956132039428">
        <ele>-6.599999904632568</ele>
        <time>2014-01-03T07:07:09.000Z</time>
      </trkpt>
      <trkpt lon="35.35343318246305" lat="31.58586342819035">
        <ele>-5.599999904632568</ele>
        <time>2014-01-03T07:07:19.000Z</time>
      </trkpt>
      <trkpt lon="35.35357332788408" lat="31.58573878929019">
        <ele>-5.199999809265137</ele>
        <time>2014-01-03T07:07:32.000Z</time>
      </trkpt>
      <trkpt lon="35.353675335645676" lat="31.585652204230428">
        <ele>-3.799999952316284</ele>
        <time>2014-01-03T07:07:41.000Z</time>
      </trkpt>
      <trkpt lon="35.35376007668674" lat="31.585539551451802">
        <ele>-3.200000047683716</ele>
        <time>2014-01-03T07:07:51.000Z</time>
      </trkpt>
      <trkpt lon="35.35385764203966" lat="31.585459588095546">
        <ele>-2.200000047683716</ele>
        <time>2014-01-03T07:08:00.000Z</time>
      </trkpt>
      <trkpt lon="35.353950429707766" lat="31.585364872589707">
        <ele>-0.4000000059604645</ele>
        <time>2014-01-03T07:08:10.000Z</time>
      </trkpt>
      <trkpt lon="35.35396861843765" lat="31.585330422967672">
        <ele>0.20000000298023224</ele>
        <time>2014-01-03T07:08:13.000Z</time>
      </trkpt>
      <trkpt lon="35.35411345772445" lat="31.585260098800063">
        <ele>1.2000000476837158</ele>
        <time>2014-01-03T07:08:24.000Z</time>
      </trkpt>
      <trkpt lon="35.35412737168372" lat="31.585254399105906">
        <ele>1.2000000476837158</ele>
        <time>2014-01-03T07:08:25.000Z</time>
      </trkpt>
      <trkpt lon="35.35414178855717" lat="31.585249286144972">
        <ele>1.2000000476837158</ele>
        <time>2014-01-03T07:08:26.000Z</time>
      </trkpt>
      <trkpt lon="35.35434831865132" lat="31.585211399942636">
        <ele>3.5999999046325684</ele>
        <time>2014-01-03T07:08:38.000Z</time>
      </trkpt>
      <trkpt lon="35.354518219828606" lat="31.585202431306243">
        <ele>4.400000095367432</ele>
        <time>2014-01-03T07:08:49.000Z</time>
      </trkpt>
      <trkpt lon="35.3546979278326" lat="31.585234198719263">
        <ele>6.400000095367432</ele>
        <time>2014-01-03T07:09:01.000Z</time>
      </trkpt>
      <trkpt lon="35.35471083596349" lat="31.58523595891893">
        <ele>6.400000095367432</ele>
        <time>2014-01-03T07:09:02.000Z</time>
      </trkpt>
      <trkpt lon="35.35472466610372" lat="31.58524576574564">
        <ele>6.400000095367432</ele>
        <time>2014-01-03T07:09:03.000Z</time>
      </trkpt>
      <trkpt lon="35.3547396697104" lat="31.58525800332427">
        <ele>6.0</ele>
        <time>2014-01-03T07:09:04.000Z</time>
      </trkpt>
      <trkpt lon="35.35475643351674" lat="31.58526772633195">
        <ele>6.0</ele>
        <time>2014-01-03T07:09:05.000Z</time>
      </trkpt>
      <trkpt lon="35.354773281142116" lat="31.585276359692216">
        <ele>6.400000095367432</ele>
        <time>2014-01-03T07:09:06.000Z</time>
      </trkpt>
      <trkpt lon="35.35493723116815" lat="31.585287423804402">
        <ele>7.400000095367432</ele>
        <time>2014-01-03T07:09:15.000Z</time>
      </trkpt>
      <trkpt lon="35.355053655803204" lat="31.585264541208744">
        <ele>8.399999618530273</ele>
        <time>2014-01-03T07:09:22.000Z</time>
      </trkpt>
      <trkpt lon="35.35520578734577" lat="31.585245011374354">
        <ele>9.800000190734863</ele>
        <time>2014-01-03T07:09:32.000Z</time>
      </trkpt>
      <trkpt lon="35.355223221704364" lat="31.585245681926608">
        <ele>10.199999809265137</ele>
        <time>2014-01-03T07:09:33.000Z</time>
      </trkpt>
      <trkpt lon="35.355238979682326" lat="31.58524375408888">
        <ele>10.199999809265137</ele>
        <time>2014-01-03T07:09:34.000Z</time>
      </trkpt>
      <trkpt lon="35.35529337823391" lat="31.585235791280866">
        <ele>11.199999809265137</ele>
        <time>2014-01-03T07:09:38.000Z</time>
      </trkpt>
      <trkpt lon="35.355428494513035" lat="31.585161443799734">
        <ele>13.600000381469727</ele>
        <time>2014-01-03T07:09:49.000Z</time>
      </trkpt>
      <trkpt lon="35.35555338487029" lat="31.585098914802074">
        <ele>15.600000381469727</ele>
        <time>2014-01-03T07:09:59.000Z</time>
      </trkpt>
      <trkpt lon="35.355613147839904" lat="31.585020879283547">
        <ele>17.0</ele>
        <time>2014-01-03T07:10:07.000Z</time>
      </trkpt>
      <trkpt lon="35.35562178120017" lat="31.584964552894235">
        <ele>18.399999618530273</ele>
        <time>2014-01-03T07:10:12.000Z</time>
      </trkpt>
      <trkpt lon="35.35561641678214" lat="31.58495114184916">
        <ele>18.399999618530273</ele>
        <time>2014-01-03T07:10:13.000Z</time>
      </trkpt>
      <trkpt lon="35.35561239346862" lat="31.584935635328293">
        <ele>18.799999237060547</ele>
        <time>2014-01-03T07:10:14.000Z</time>
      </trkpt>
      <trkpt lon="35.35560258664191" lat="31.5849179495126">
        <ele>18.799999237060547</ele>
        <time>2014-01-03T07:10:15.000Z</time>
      </trkpt>
      <trkpt lon="35.35559537820518" lat="31.58490177243948">
        <ele>19.399999618530273</ele>
        <time>2014-01-03T07:10:16.000Z</time>
      </trkpt>
      <trkpt lon="35.3555890917778" lat="31.584884589537978">
        <ele>19.399999618530273</ele>
        <time>2014-01-03T07:10:17.000Z</time>
      </trkpt>
      <trkpt lon="35.35551315173507" lat="31.584778558462858">
        <ele>20.799999237060547</ele>
        <time>2014-01-03T07:10:26.000Z</time>
      </trkpt>
      <trkpt lon="35.35540980286896" lat="31.584688620641828">
        <ele>21.799999237060547</ele>
        <time>2014-01-03T07:10:35.000Z</time>
      </trkpt>
      <trkpt lon="35.3552748542279" lat="31.58462718129158">
        <ele>21.799999237060547</ele>
        <time>2014-01-03T07:10:45.000Z</time>
      </trkpt>
      <trkpt lon="35.35520830191672" lat="31.584597676992416">
        <ele>22.200000762939453</ele>
        <time>2014-01-03T07:10:50.000Z</time>
      </trkpt>
      <trkpt lon="35.355194890871644" lat="31.584592815488577">
        <ele>22.799999237060547</ele>
        <time>2014-01-03T07:10:51.000Z</time>
      </trkpt>
      <trkpt lon="35.35517695359886" lat="31.584589798003435">
        <ele>22.799999237060547</ele>
        <time>2014-01-03T07:10:52.000Z</time>
      </trkpt>
      <trkpt lon="35.355161782354116" lat="31.584588373079896">
        <ele>22.799999237060547</ele>
        <time>2014-01-03T07:10:53.000Z</time>
      </trkpt>
      <trkpt lon="35.35514929331839" lat="31.584584349766374">
        <ele>22.799999237060547</ele>
        <time>2014-01-03T07:10:54.000Z</time>
      </trkpt>
      <trkpt lon="35.35513797774911" lat="31.584579488262534">
        <ele>22.799999237060547</ele>
        <time>2014-01-03T07:10:55.000Z</time>
      </trkpt>
      <trkpt lon="35.35512582398951" lat="31.58457395620644">
        <ele>22.799999237060547</ele>
        <time>2014-01-03T07:10:56.000Z</time>
      </trkpt>
      <trkpt lon="35.35511014983058" lat="31.584569681435823">
        <ele>22.799999237060547</ele>
        <time>2014-01-03T07:10:57.000Z</time>
      </trkpt>
      <trkpt lon="35.35509120672941" lat="31.5845709387213">
        <ele>22.799999237060547</ele>
        <time>2014-01-03T07:10:58.000Z</time>
      </trkpt>
      <trkpt lon="35.35507435910404" lat="31.58457051962614">
        <ele>22.799999237060547</ele>
        <time>2014-01-03T07:10:59.000Z</time>
      </trkpt>
      <trkpt lon="35.35505985841155" lat="31.584564987570047">
        <ele>22.799999237060547</ele>
        <time>2014-01-03T07:11:00.000Z</time>
      </trkpt>
      <trkpt lon="35.35493513569236" lat="31.584547217935324">
        <ele>24.600000381469727</ele>
        <time>2014-01-03T07:11:09.000Z</time>
      </trkpt>
      <trkpt lon="35.354812340810895" lat="31.584594324231148">
        <ele>25.600000381469727</ele>
        <time>2014-01-03T07:11:17.000Z</time>
      </trkpt>
      <trkpt lon="35.354649648070335" lat="31.58467646688223">
        <ele>28.0</ele>
        <time>2014-01-03T07:11:25.000Z</time>
      </trkpt>
      <trkpt lon="35.354491733014584" lat="31.584771433845162">
        <ele>29.399999618530273</ele>
        <time>2014-01-03T07:11:34.000Z</time>
      </trkpt>
      <trkpt lon="35.35435661673546" lat="31.584811666980386">
        <ele>29.0</ele>
        <time>2014-01-03T07:11:41.000Z</time>
      </trkpt>
      <trkpt lon="35.354278748854995" lat="31.58476883545518">
        <ele>29.0</ele>
        <time>2014-01-03T07:11:45.000Z</time>
      </trkpt>
      <trkpt lon="35.354272378608584" lat="31.584749557077885">
        <ele>29.0</ele>
        <time>2014-01-03T07:11:46.000Z</time>
      </trkpt>
      <trkpt lon="35.35427271388471" lat="31.584729943424463">
        <ele>29.399999618530273</ele>
        <time>2014-01-03T07:11:47.000Z</time>
      </trkpt>
      <trkpt lon="35.35427858121693" lat="31.584709659218788">
        <ele>29.399999618530273</ele>
        <time>2014-01-03T07:11:48.000Z</time>
      </trkpt>
      <trkpt lon="35.35428629256785" lat="31.58469113521278">
        <ele>29.399999618530273</ele>
        <time>2014-01-03T07:11:49.000Z</time>
      </trkpt>
      <trkpt lon="35.35429425537586" lat="31.584674371406436">
        <ele>29.399999618530273</ele>
        <time>2014-01-03T07:11:50.000Z</time>
      </trkpt>
      <trkpt lon="35.35430640913546" lat="31.584658278152347">
        <ele>30.0</ele>
        <time>2014-01-03T07:11:51.000Z</time>
      </trkpt>
      <trkpt lon="35.35432484932244" lat="31.58464721404016">
        <ele>30.0</ele>
        <time>2014-01-03T07:11:52.000Z</time>
      </trkpt>
      <trkpt lon="35.35434144549072" lat="31.58463698811829">
        <ele>30.0</ele>
        <time>2014-01-03T07:11:53.000Z</time>
      </trkpt>
      <trkpt lon="35.35435577854514" lat="31.58462709747255">
        <ele>30.399999618530273</ele>
        <time>2014-01-03T07:11:54.000Z</time>
      </trkpt>
      <trkpt lon="35.354375476017594" lat="31.58462181687355">
        <ele>29.399999618530273</ele>
        <time>2014-01-03T07:11:55.000Z</time>
      </trkpt>
      <trkpt lon="35.35439634695649" lat="31.584615781903267">
        <ele>29.399999618530273</ele>
        <time>2014-01-03T07:11:56.000Z</time>
      </trkpt>
      <trkpt lon="35.354412104934454" lat="31.584610166028142">
        <ele>29.399999618530273</ele>
        <time>2014-01-03T07:11:57.000Z</time>
      </trkpt>
      <trkpt lon="35.35443012602627" lat="31.584604801610112">
        <ele>29.399999618530273</ele>
        <time>2014-01-03T07:11:58.000Z</time>
      </trkpt>
      <trkpt lon="35.35444705747068" lat="31.58460086211562">
        <ele>29.399999618530273</ele>
        <time>2014-01-03T07:11:59.000Z</time>
      </trkpt>
      <trkpt lon="35.35446549765766" lat="31.584596587345004">
        <ele>29.399999618530273</ele>
        <time>2014-01-03T07:12:00.000Z</time>
      </trkpt>
      <trkpt lon="35.354484021663666" lat="31.584592144936323">
        <ele>30.0</ele>
        <time>2014-01-03T07:12:01.000Z</time>
      </trkpt>
      <trkpt lon="35.35460505634546" lat="31.5845484752208">
        <ele>30.399999618530273</ele>
        <time>2014-01-03T07:12:09.000Z</time>
      </trkpt>
      <trkpt lon="35.354693066328764" lat="31.584491729736328">
        <ele>31.799999237060547</ele>
        <time>2014-01-03T07:12:17.000Z</time>
      </trkpt>
      <trkpt lon="35.35476481541991" lat="31.584372874349356">
        <ele>33.79999923706055</ele>
        <time>2014-01-03T07:12:29.000Z</time>
      </trkpt>
      <trkpt lon="35.35484955646098" lat="31.58429735340178">
        <ele>34.20000076293945</ele>
        <time>2014-01-03T07:12:38.000Z</time>
      </trkpt>
      <trkpt lon="35.35498023033142" lat="31.584272040054202">
        <ele>35.20000076293945</ele>
        <time>2014-01-03T07:12:46.000Z</time>
      </trkpt>
      <trkpt lon="35.35510864108801" lat="31.58424597233534">
        <ele>36.599998474121094</ele>
        <time>2014-01-03T07:12:55.000Z</time>
      </trkpt>
      <trkpt lon="35.35523822531104" lat="31.584157710894942">
        <ele>38.599998474121094</ele>
        <time>2014-01-03T07:13:07.000Z</time>
      </trkpt>
      <trkpt lon="35.35528692416847" lat="31.584118315950036">
        <ele>39.0</ele>
        <time>2014-01-03T07:13:12.000Z</time>
      </trkpt>
      <trkpt lon="35.355290193110704" lat="31.58410582691431">
        <ele>39.0</ele>
        <time>2014-01-03T07:13:13.000Z</time>
      </trkpt>
      <trkpt lon="35.35537652671337" lat="31.584013793617487">
        <ele>41.400001525878906</ele>
        <time>2014-01-03T07:13:23.000Z</time>
      </trkpt>
      <trkpt lon="35.35548297688365" lat="31.583932572975755">
        <ele>43.0</ele>
        <time>2014-01-03T07:13:32.000Z</time>
      </trkpt>
      <trkpt lon="35.35560107789934" lat="31.583863086998463">
        <ele>43.400001525878906</ele>
        <time>2014-01-03T07:13:42.000Z</time>
      </trkpt>
      <trkpt lon="35.35569260828197" lat="31.583752278238535">
        <ele>44.79999923706055</ele>
        <time>2014-01-03T07:13:53.000Z</time>
      </trkpt>
      <trkpt lon="35.355825293809175" lat="31.5836660284549">
        <ele>46.79999923706055</ele>
        <time>2014-01-03T07:14:05.000Z</time>
      </trkpt>
      <trkpt lon="35.35585203208029" lat="31.583645241335034">
        <ele>46.79999923706055</ele>
        <time>2014-01-03T07:14:08.000Z</time>
      </trkpt>
      <trkpt lon="35.35586443729699" lat="31.583639960736036">
        <ele>46.79999923706055</ele>
        <time>2014-01-03T07:14:09.000Z</time>
      </trkpt>
      <trkpt lon="35.35587533377111" lat="31.583632417023182">
        <ele>47.20000076293945</ele>
        <time>2014-01-03T07:14:10.000Z</time>
      </trkpt>
      <trkpt lon="35.356024112552404" lat="31.58356150612235">
        <ele>48.599998474121094</ele>
        <time>2014-01-03T07:14:22.000Z</time>
      </trkpt>
      <trkpt lon="35.35613173618913" lat="31.583506437018514">
        <ele>49.599998474121094</ele>
        <time>2014-01-03T07:14:30.000Z</time>
      </trkpt>
      <trkpt lon="35.356167778372765" lat="31.583383306860924">
        <ele>53.0</ele>
        <time>2014-01-03T07:14:40.000Z</time>
      </trkpt>
      <trkpt lon="35.35614212974906" lat="31.58326981589198">
        <ele>55.79999923706055</ele>
        <time>2014-01-03T07:14:49.000Z</time>
      </trkpt>
      <trkpt lon="35.35611757077277" lat="31.58322379924357">
        <ele>57.400001525878906</ele>
        <time>2014-01-03T07:14:53.000Z</time>
      </trkpt>
      <trkpt lon="35.35599913448095" lat="31.583124976605177">
        <ele>60.79999923706055</ele>
        <time>2014-01-03T07:15:04.000Z</time>
      </trkpt>
      <trkpt lon="35.35585572011769" lat="31.583055490627885">
        <ele>63.599998474121094</ele>
        <time>2014-01-03T07:15:15.000Z</time>
      </trkpt>
      <trkpt lon="35.35573652945459" lat="31.58301081508398">
        <ele>65.5999984741211</ele>
        <time>2014-01-03T07:15:24.000Z</time>
      </trkpt>
      <trkpt lon="35.35560426302254" lat="31.58295256085694">
        <ele>68.0</ele>
        <time>2014-01-03T07:15:34.000Z</time>
      </trkpt>
      <trkpt lon="35.355460261926055" lat="31.582886762917042">
        <ele>69.80000305175781</ele>
        <time>2014-01-03T07:15:45.000Z</time>
      </trkpt>
      <trkpt lon="35.35530938766897" lat="31.58282607793808">
        <ele>71.80000305175781</ele>
        <time>2014-01-03T07:15:56.000Z</time>
      </trkpt>
      <trkpt lon="35.35520981065929" lat="31.58275030553341">
        <ele>74.19999694824219</ele>
        <time>2014-01-03T07:16:06.000Z</time>
      </trkpt>
      <trkpt lon="35.35507000051439" lat="31.582670425996184">
        <ele>75.19999694824219</ele>
        <time>2014-01-03T07:16:18.000Z</time>
      </trkpt>
      <trkpt lon="35.35498400218785" lat="31.58261745236814">
        <ele>76.5999984741211</ele>
        <time>2014-01-03T07:16:27.000Z</time>
      </trkpt>
      <trkpt lon="35.35488149151206" lat="31.58255886286497">
        <ele>77.5999984741211</ele>
        <time>2014-01-03T07:16:36.000Z</time>
      </trkpt>
      <trkpt lon="35.35475643351674" lat="31.58246741630137">
        <ele>79.4000015258789</ele>
        <time>2014-01-03T07:16:47.000Z</time>
      </trkpt>
      <trkpt lon="35.35463958978653" lat="31.58237705938518">
        <ele>80.80000305175781</ele>
        <time>2014-01-03T07:16:58.000Z</time>
      </trkpt>
      <trkpt lon="35.354537246748805" lat="31.582300448790193">
        <ele>81.80000305175781</ele>
        <time>2014-01-03T07:17:07.000Z</time>
      </trkpt>
      <trkpt lon="35.35451419651508" lat="31.582282930612564">
        <ele>82.4000015258789</ele>
        <time>2014-01-03T07:17:09.000Z</time>
      </trkpt>
      <trkpt lon="35.35450195893645" lat="31.58227639272809">
        <ele>82.4000015258789</ele>
        <time>2014-01-03T07:17:10.000Z</time>
      </trkpt>
      <trkpt lon="35.35448905080557" lat="31.582268681377172">
        <ele>82.4000015258789</ele>
        <time>2014-01-03T07:17:11.000Z</time>
      </trkpt>
      <trkpt lon="35.35447656176984" lat="31.582262478768826">
        <ele>82.4000015258789</ele>
        <time>2014-01-03T07:17:12.000Z</time>
      </trkpt>
      <trkpt lon="35.35446365363896" lat="31.582258623093367">
        <ele>82.4000015258789</ele>
        <time>2014-01-03T07:17:13.000Z</time>
      </trkpt>
      <trkpt lon="35.354447895660996" lat="31.582251749932766">
        <ele>82.4000015258789</ele>
        <time>2014-01-03T07:17:14.000Z</time>
      </trkpt>
      <trkpt lon="35.35443473607302" lat="31.58224613405764">
        <ele>82.80000305175781</ele>
        <time>2014-01-03T07:17:15.000Z</time>
      </trkpt>
      <trkpt lon="35.35442325286567" lat="31.582240099087358">
        <ele>82.80000305175781</ele>
        <time>2014-01-03T07:17:16.000Z</time>
      </trkpt>
      <trkpt lon="35.354413613677025" lat="31.582232639193535">
        <ele>83.19999694824219</ele>
        <time>2014-01-03T07:17:17.000Z</time>
      </trkpt>
      <trkpt lon="35.35440313629806" lat="31.58222367055714">
        <ele>83.19999694824219</ele>
        <time>2014-01-03T07:17:18.000Z</time>
      </trkpt>
      <trkpt lon="35.354392156004906" lat="31.58221327699721">
        <ele>83.80000305175781</ele>
        <time>2014-01-03T07:17:19.000Z</time>
      </trkpt>
      <trkpt lon="35.35438469611108" lat="31.582203302532434">
        <ele>84.19999694824219</ele>
        <time>2014-01-03T07:17:20.000Z</time>
      </trkpt>
      <trkpt lon="35.35437564365566" lat="31.58219374716282">
        <ele>84.19999694824219</ele>
        <time>2014-01-03T07:17:21.000Z</time>
      </trkpt>
      <trkpt lon="35.354366675019264" lat="31.58218544907868">
        <ele>84.19999694824219</ele>
        <time>2014-01-03T07:17:22.000Z</time>
      </trkpt>
      <trkpt lon="35.35435653291643" lat="31.582175474613905">
        <ele>84.19999694824219</ele>
        <time>2014-01-03T07:17:23.000Z</time>
      </trkpt>
      <trkpt lon="35.35424790345132" lat="31.582105653360486">
        <ele>84.80000305175781</ele>
        <time>2014-01-03T07:17:32.000Z</time>
      </trkpt>
      <trkpt lon="35.354139022529125" lat="31.582021163776517">
        <ele>85.5999984741211</ele>
        <time>2014-01-03T07:17:42.000Z</time>
      </trkpt>
      <trkpt lon="35.3540332429111" lat="31.581941954791546">
        <ele>87.19999694824219</ele>
        <time>2014-01-03T07:17:52.000Z</time>
      </trkpt>
      <trkpt lon="35.35402142442763" lat="31.581934997811913">
        <ele>87.19999694824219</ele>
        <time>2014-01-03T07:17:53.000Z</time>
      </trkpt>
      <trkpt lon="35.35400399006903" lat="31.58193181268871">
        <ele>87.5999984741211</ele>
        <time>2014-01-03T07:17:54.000Z</time>
      </trkpt>
      <trkpt lon="35.35398521460593" lat="31.58193038776517">
        <ele>87.5999984741211</ele>
        <time>2014-01-03T07:17:55.000Z</time>
      </trkpt>
      <trkpt lon="35.353855127468705" lat="31.581866685301065">
        <ele>88.5999984741211</ele>
        <time>2014-01-03T07:18:04.000Z</time>
      </trkpt>
      <trkpt lon="35.35373660735786" lat="31.58173601143062">
        <ele>90.5999984741211</ele>
        <time>2014-01-03T07:18:15.000Z</time>
      </trkpt>
      <trkpt lon="35.3536912612617" lat="31.581615563482046">
        <ele>91.4000015258789</ele>
        <time>2014-01-03T07:18:24.000Z</time>
      </trkpt>
      <trkpt lon="35.353642143309116" lat="31.58148388378322">
        <ele>92.4000015258789</ele>
        <time>2014-01-03T07:18:32.000Z</time>
      </trkpt>
      <trkpt lon="35.353575674816966" lat="31.581320520490408">
        <ele>93.80000305175781</ele>
        <time>2014-01-03T07:18:42.000Z</time>
      </trkpt>
      <trkpt lon="35.353529658168554" lat="31.581129832193255">
        <ele>95.4000015258789</ele>
        <time>2014-01-03T07:18:53.000Z</time>
      </trkpt>
      <trkpt lon="35.35352588631213" lat="31.581010138615966">
        <ele>96.80000305175781</ele>
        <time>2014-01-03T07:19:01.000Z</time>
      </trkpt>
      <trkpt lon="35.353480791673064" lat="31.58087980002165">
        <ele>98.19999694824219</ele>
        <time>2014-01-03T07:19:11.000Z</time>
      </trkpt>
      <trkpt lon="35.35347626544535" lat="31.580864628776908">
        <ele>98.5999984741211</ele>
        <time>2014-01-03T07:19:12.000Z</time>
      </trkpt>
      <trkpt lon="35.35347626544535" lat="31.58085105009377">
        <ele>99.19999694824219</ele>
        <time>2014-01-03T07:19:13.000Z</time>
      </trkpt>
      <trkpt lon="35.35347727127373" lat="31.580838477239013">
        <ele>99.19999694824219</ele>
        <time>2014-01-03T07:19:14.000Z</time>
      </trkpt>
      <trkpt lon="35.35347567871213" lat="31.580826407298446">
        <ele>99.19999694824219</ele>
        <time>2014-01-03T07:19:15.000Z</time>
      </trkpt>
      <trkpt lon="35.35347358323634" lat="31.580813247710466">
        <ele>99.5999984741211</ele>
        <time>2014-01-03T07:19:16.000Z</time>
      </trkpt>
      <trkpt lon="35.35347132012248" lat="31.58066581003368">
        <ele>101.0</ele>
        <time>2014-01-03T07:19:25.000Z</time>
      </trkpt>
      <trkpt lon="35.353481294587255" lat="31.5805162768811">
        <ele>103.4000015258789</ele>
        <time>2014-01-03T07:19:34.000Z</time>
      </trkpt>
      <trkpt lon="35.35353099927306" lat="31.580387111753225">
        <ele>105.0</ele>
        <time>2014-01-03T07:19:43.000Z</time>
      </trkpt>
      <trkpt lon="35.353528652340174" lat="31.58037126995623">
        <ele>105.4000015258789</ele>
        <time>2014-01-03T07:19:44.000Z</time>
      </trkpt>
      <trkpt lon="35.35353141836822" lat="31.580354003235698">
        <ele>105.4000015258789</ele>
        <time>2014-01-03T07:19:45.000Z</time>
      </trkpt>
      <trkpt lon="35.35358724184334" lat="31.580204302445054">
        <ele>106.80000305175781</ele>
        <time>2014-01-03T07:19:56.000Z</time>
      </trkpt>
      <trkpt lon="35.35361632704735" lat="31.580077735707164">
        <ele>107.80000305175781</ele>
        <time>2014-01-03T07:20:05.000Z</time>
      </trkpt>
      <trkpt lon="35.353647423908114" lat="31.57995938323438">
        <ele>109.19999694824219</ele>
        <time>2014-01-03T07:20:14.000Z</time>
      </trkpt>
      <trkpt lon="35.35365999676287" lat="31.579847233369946">
        <ele>109.80000305175781</ele>
        <time>2014-01-03T07:20:22.000Z</time>
      </trkpt>
      <trkpt lon="35.35367743112147" lat="31.579794427379966">
        <ele>110.19999694824219</ele>
        <time>2014-01-03T07:20:26.000Z</time>
      </trkpt>
      <trkpt lon="35.353678772225976" lat="31.579780681058764">
        <ele>110.19999694824219</ele>
        <time>2014-01-03T07:20:27.000Z</time>
      </trkpt>
      <trkpt lon="35.3536791075021" lat="31.579767437651753">
        <ele>110.19999694824219</ele>
        <time>2014-01-03T07:20:28.000Z</time>
      </trkpt>
      <trkpt lon="35.35368246026337" lat="31.57975260168314">
        <ele>110.19999694824219</ele>
        <time>2014-01-03T07:20:29.000Z</time>
      </trkpt>
      <trkpt lon="35.35368589684367" lat="31.579740280285478">
        <ele>110.19999694824219</ele>
        <time>2014-01-03T07:20:30.000Z</time>
      </trkpt>
      <trkpt lon="35.353684136644006" lat="31.579726533964276">
        <ele>110.5999984741211</ele>
        <time>2014-01-03T07:20:31.000Z</time>
      </trkpt>
      <trkpt lon="35.35365018993616" lat="31.579576078802347">
        <ele>111.5999984741211</ele>
        <time>2014-01-03T07:20:40.000Z</time>
      </trkpt>
      <trkpt lon="35.353485234081745" lat="31.579442722722888">
        <ele>112.19999694824219</ele>
        <time>2014-01-03T07:20:51.000Z</time>
      </trkpt>
      <trkpt lon="35.35329597070813" lat="31.579324789345264">
        <ele>111.19999694824219</ele>
        <time>2014-01-03T07:20:58.000Z</time>
      </trkpt>
      <trkpt lon="35.35302188247442" lat="31.579140471294522">
        <ele>109.80000305175781</ele>
        <time>2014-01-03T07:21:06.000Z</time>
      </trkpt>
      <trkpt lon="35.352844689041376" lat="31.579005690291524">
        <ele>109.80000305175781</ele>
        <time>2014-01-03T07:21:13.000Z</time>
      </trkpt>
      <trkpt lon="35.35283748060465" lat="31.578985322266817">
        <ele>110.19999694824219</ele>
        <time>2014-01-03T07:21:14.000Z</time>
      </trkpt>
      <trkpt lon="35.35281443037093" lat="31.578787341713905">
        <ele>111.19999694824219</ele>
        <time>2014-01-03T07:21:23.000Z</time>
      </trkpt>
      <trkpt lon="35.35283354111016" lat="31.578562036156654">
        <ele>111.5999984741211</ele>
        <time>2014-01-03T07:21:31.000Z</time>
      </trkpt>
      <trkpt lon="35.35298961214721" lat="31.578287947922945">
        <ele>111.19999694824219</ele>
        <time>2014-01-03T07:21:38.000Z</time>
      </trkpt>
      <trkpt lon="35.353108048439026" lat="31.578025510534644">
        <ele>110.5999984741211</ele>
        <time>2014-01-03T07:21:43.000Z</time>
      </trkpt>
      <trkpt lon="35.353118693456054" lat="31.577970357611775">
        <ele>110.19999694824219</ele>
        <time>2014-01-03T07:21:44.000Z</time>
      </trkpt>
      <trkpt lon="35.353132439777255" lat="31.57791537232697">
        <ele>110.19999694824219</ele>
        <time>2014-01-03T07:21:45.000Z</time>
      </trkpt>
      <trkpt lon="35.3531579207629" lat="31.57786214724183">
        <ele>110.19999694824219</ele>
        <time>2014-01-03T07:21:46.000Z</time>
      </trkpt>
      <trkpt lon="35.353182815015316" lat="31.57780984416604">
        <ele>110.5999984741211</ele>
        <time>2014-01-03T07:21:47.000Z</time>
      </trkpt>
      <trkpt lon="35.353262359276414" lat="31.577668776735663">
        <ele>110.5999984741211</ele>
        <time>2014-01-03T07:21:50.000Z</time>
      </trkpt>
      <trkpt lon="35.35328255966306" lat="31.57762560993433">
        <ele>110.5999984741211</ele>
        <time>2014-01-03T07:21:51.000Z</time>
      </trkpt>
      <trkpt lon="35.35336193628609" lat="31.57736510038376">
        <ele>112.19999694824219</ele>
        <time>2014-01-03T07:21:58.000Z</time>
      </trkpt>
      <trkpt lon="35.35344474948943" lat="31.577140716835856">
        <ele>113.0</ele>
        <time>2014-01-03T07:22:06.000Z</time>
      </trkpt>
      <trkpt lon="35.35352705977857" lat="31.57701037824154">
        <ele>114.0</ele>
        <time>2014-01-03T07:22:14.000Z</time>
      </trkpt>
      <trkpt lon="35.35355530679226" lat="31.5769674628973">
        <ele>114.0</ele>
        <time>2014-01-03T07:22:17.000Z</time>
      </trkpt>
      <trkpt lon="35.35355480387807" lat="31.576952459290624">
        <ele>114.5999984741211</ele>
        <time>2014-01-03T07:22:18.000Z</time>
      </trkpt>
      <trkpt lon="35.35359528847039" lat="31.576833939179778">
        <ele>115.5999984741211</ele>
        <time>2014-01-03T07:22:26.000Z</time>
      </trkpt>
      <trkpt lon="35.353692937642336" lat="31.576694967225194">
        <ele>116.0</ele>
        <time>2014-01-03T07:22:35.000Z</time>
      </trkpt>
      <trkpt lon="35.35373711027205" lat="31.57654141075909">
        <ele>116.0</ele>
        <time>2014-01-03T07:22:43.000Z</time>
      </trkpt>
      <trkpt lon="35.35377482883632" lat="31.576406210660934">
        <ele>117.0</ele>
        <time>2014-01-03T07:22:50.000Z</time>
      </trkpt>
      <trkpt lon="35.35385915078223" lat="31.57625206746161">
        <ele>117.4000015258789</ele>
        <time>2014-01-03T07:22:59.000Z</time>
      </trkpt>
      <trkpt lon="35.35396099090576" lat="31.576095074415207">
        <ele>118.4000015258789</ele>
        <time>2014-01-03T07:23:09.000Z</time>
      </trkpt>
      <trkpt lon="35.354051515460014" lat="31.575903967022896">
        <ele>119.4000015258789</ele>
        <time>2014-01-03T07:23:17.000Z</time>
      </trkpt>
      <trkpt lon="35.35411077551544" lat="31.575756026431918">
        <ele>120.80000305175781</ele>
        <time>2014-01-03T07:23:25.000Z</time>
      </trkpt>
      <trkpt lon="35.35420037806034" lat="31.57559593208134">
        <ele>121.80000305175781</ele>
        <time>2014-01-03T07:23:36.000Z</time>
      </trkpt>
      <trkpt lon="35.3542800899595" lat="31.575390826910734">
        <ele>122.19999694824219</ele>
        <time>2014-01-03T07:23:46.000Z</time>
      </trkpt>
      <trkpt lon="35.35442115738988" lat="31.57522981055081">
        <ele>123.19999694824219</ele>
        <time>2014-01-03T07:23:55.000Z</time>
      </trkpt>
      <trkpt lon="35.35455803386867" lat="31.57506954856217">
        <ele>123.19999694824219</ele>
        <time>2014-01-03T07:24:02.000Z</time>
      </trkpt>
      <trkpt lon="35.354792727157474" lat="31.574823707342148">
        <ele>122.80000305175781</ele>
        <time>2014-01-03T07:24:10.000Z</time>
      </trkpt>
      <trkpt lon="35.35486430861056" lat="31.57476134598255">
        <ele>123.19999694824219</ele>
        <time>2014-01-03T07:24:12.000Z</time>
      </trkpt>
      <trkpt lon="35.35490093752742" lat="31.574735278263688">
        <ele>123.19999694824219</ele>
        <time>2014-01-03T07:24:13.000Z</time>
      </trkpt>
      <trkpt lon="35.35493924282491" lat="31.574708875268698">
        <ele>123.19999694824219</ele>
        <time>2014-01-03T07:24:14.000Z</time>
      </trkpt>
      <trkpt lon="35.354979475960135" lat="31.574682723730803">
        <ele>123.19999694824219</ele>
        <time>2014-01-03T07:24:15.000Z</time>
      </trkpt>
      <trkpt lon="35.355019541457295" lat="31.57466009259224">
        <ele>123.5999984741211</ele>
        <time>2014-01-03T07:24:16.000Z</time>
      </trkpt>
      <trkpt lon="35.355350375175476" lat="31.57446814700961">
        <ele>122.80000305175781</ele>
        <time>2014-01-03T07:24:24.000Z</time>
      </trkpt>
      <trkpt lon="35.35539295524359" lat="31.574432272464037">
        <ele>122.80000305175781</ele>
        <time>2014-01-03T07:24:25.000Z</time>
      </trkpt>
      <trkpt lon="35.35543997772038" lat="31.574403857812285">
        <ele>122.80000305175781</ele>
        <time>2014-01-03T07:24:26.000Z</time>
      </trkpt>
      <trkpt lon="35.35548582673073" lat="31.5743875131011">
        <ele>122.80000305175781</ele>
        <time>2014-01-03T07:24:27.000Z</time>
      </trkpt>
      <trkpt lon="35.35552807152271" lat="31.57437963411212">
        <ele>122.80000305175781</ele>
        <time>2014-01-03T07:24:28.000Z</time>
      </trkpt>
      <trkpt lon="35.35556788556278" lat="31.574376365169883">
        <ele>123.19999694824219</ele>
        <time>2014-01-03T07:24:29.000Z</time>
      </trkpt>
      <trkpt lon="35.35574398934841" lat="31.574329091235995">
        <ele>125.19999694824219</ele>
        <time>2014-01-03T07:24:35.000Z</time>
      </trkpt>
      <trkpt lon="35.35594875924289" lat="31.574225910007954">
        <ele>127.0</ele>
        <time>2014-01-03T07:24:44.000Z</time>
      </trkpt>
      <trkpt lon="35.356161408126354" lat="31.574079729616642">
        <ele>128.0</ele>
        <time>2014-01-03T07:24:53.000Z</time>
      </trkpt>
      <trkpt lon="35.35622385330498" lat="31.574007226154208">
        <ele>128.39999389648438</ele>
        <time>2014-01-03T07:24:56.000Z</time>
      </trkpt>
      <trkpt lon="35.356251848861575" lat="31.573995323851705">
        <ele>128.39999389648438</ele>
        <time>2014-01-03T07:24:57.000Z</time>
      </trkpt>
      <trkpt lon="35.356282694265246" lat="31.57398585230112">
        <ele>128.39999389648438</ele>
        <time>2014-01-03T07:24:58.000Z</time>
      </trkpt>
      <trkpt lon="35.35631379112601" lat="31.573978811502457">
        <ele>129.0</ele>
        <time>2014-01-03T07:24:59.000Z</time>
      </trkpt>
      <trkpt lon="35.35634874366224" lat="31.57397705130279">
        <ele>129.0</ele>
        <time>2014-01-03T07:25:00.000Z</time>
      </trkpt>
      <trkpt lon="35.35638461820781" lat="31.573975710198283">
        <ele>129.39999389648438</ele>
        <time>2014-01-03T07:25:01.000Z</time>
      </trkpt>
      <trkpt lon="35.35641923546791" lat="31.573972357437015">
        <ele>129.39999389648438</ele>
        <time>2014-01-03T07:25:02.000Z</time>
      </trkpt>
      <trkpt lon="35.35667957738042" lat="31.573910415172577">
        <ele>130.39999389648438</ele>
        <time>2014-01-03T07:25:10.000Z</time>
      </trkpt>
      <trkpt lon="35.35692231729627" lat="31.573836905881763">
        <ele>131.8000030517578</ele>
        <time>2014-01-03T07:25:19.000Z</time>
      </trkpt>
      <trkpt lon="35.357119627296925" lat="31.5737072378397">
        <ele>132.39999389648438</ele>
        <time>2014-01-03T07:25:29.000Z</time>
      </trkpt>
      <trkpt lon="35.35731526091695" lat="31.573621910065413">
        <ele>132.8000030517578</ele>
        <time>2014-01-03T07:25:38.000Z</time>
      </trkpt>
      <trkpt lon="35.35753771662712" lat="31.573526272550225">
        <ele>133.1999969482422</ele>
        <time>2014-01-03T07:25:48.000Z</time>
      </trkpt>
      <trkpt lon="35.357732344418764" lat="31.573411021381617">
        <ele>134.1999969482422</ele>
        <time>2014-01-03T07:25:57.000Z</time>
      </trkpt>
      <trkpt lon="35.35792957060039" lat="31.57328504137695">
        <ele>134.8000030517578</ele>
        <time>2014-01-03T07:26:06.000Z</time>
      </trkpt>
      <trkpt lon="35.35811615176499" lat="31.57319669611752">
        <ele>135.1999969482422</ele>
        <time>2014-01-03T07:26:14.000Z</time>
      </trkpt>
      <trkpt lon="35.35833994857967" lat="31.57309502363205">
        <ele>136.1999969482422</ele>
        <time>2014-01-03T07:26:24.000Z</time>
      </trkpt>
      <trkpt lon="35.358481435105205" lat="31.57300315797329">
        <ele>138.0</ele>
        <time>2014-01-03T07:26:30.000Z</time>
      </trkpt>
      <trkpt lon="35.35861219279468" lat="31.572937862947583">
        <ele>138.0</ele>
        <time>2014-01-03T07:26:36.000Z</time>
      </trkpt>
      <trkpt lon="35.35874169319868" lat="31.57285613939166">
        <ele>139.0</ele>
        <time>2014-01-03T07:26:43.000Z</time>
      </trkpt>
      <trkpt lon="35.35890723578632" lat="31.572765363380313">
        <ele>141.39999389648438</ele>
        <time>2014-01-03T07:26:53.000Z</time>
      </trkpt>
      <trkpt lon="35.35905282944441" lat="31.572674000635743">
        <ele>142.8000030517578</ele>
        <time>2014-01-03T07:27:02.000Z</time>
      </trkpt>
      <trkpt lon="35.3592174500227" lat="31.57255657017231">
        <ele>143.39999389648438</ele>
        <time>2014-01-03T07:27:14.000Z</time>
      </trkpt>
      <trkpt lon="35.35937377251685" lat="31.5724241361022">
        <ele>144.39999389648438</ele>
        <time>2014-01-03T07:27:26.000Z</time>
      </trkpt>
      <trkpt lon="35.35945440642536" lat="31.572298742830753">
        <ele>143.8000030517578</ele>
        <time>2014-01-03T07:27:35.000Z</time>
      </trkpt>
      <trkpt lon="35.3595314361155" lat="31.572186592966318">
        <ele>143.8000030517578</ele>
        <time>2014-01-03T07:27:43.000Z</time>
      </trkpt>
      <trkpt lon="35.35963243804872" lat="31.5720684081316">
        <ele>143.8000030517578</ele>
        <time>2014-01-03T07:27:52.000Z</time>
      </trkpt>
      <trkpt lon="35.35974324680865" lat="31.571958856657147">
        <ele>144.8000030517578</ele>
        <time>2014-01-03T07:28:01.000Z</time>
      </trkpt>
      <trkpt lon="35.359932174906135" lat="31.57180454581976">
        <ele>146.1999969482422</ele>
        <time>2014-01-03T07:28:13.000Z</time>
      </trkpt>
      <trkpt lon="35.360078271478415" lat="31.571732880547643">
        <ele>149.1999969482422</ele>
        <time>2014-01-03T07:28:21.000Z</time>
      </trkpt>
      <trkpt lon="35.36025680601597" lat="31.571657275781035">
        <ele>151.0</ele>
        <time>2014-01-03T07:28:31.000Z</time>
      </trkpt>
      <trkpt lon="35.36031506024301" lat="31.571645373478532">
        <ele>151.0</ele>
        <time>2014-01-03T07:28:34.000Z</time>
      </trkpt>
      <trkpt lon="35.36033375188708" lat="31.571638332679868">
        <ele>151.0</ele>
        <time>2014-01-03T07:28:35.000Z</time>
      </trkpt>
      <trkpt lon="35.360380690544844" lat="31.57161394134164">
        <ele>151.60000610351562</ele>
        <time>2014-01-03T07:28:38.000Z</time>
      </trkpt>
      <trkpt lon="35.36039661616087" lat="31.57160765491426">
        <ele>151.60000610351562</ele>
        <time>2014-01-03T07:28:39.000Z</time>
      </trkpt>
      <trkpt lon="35.360548831522465" lat="31.571557950228453">
        <ele>153.0</ele>
        <time>2014-01-03T07:28:48.000Z</time>
      </trkpt>
      <trkpt lon="35.36075008101761" lat="31.571428449824452">
        <ele>152.60000610351562</ele>
        <time>2014-01-03T07:28:57.000Z</time>
      </trkpt>
      <trkpt lon="35.36088586784899" lat="31.571271372959018">
        <ele>151.60000610351562</ele>
        <time>2014-01-03T07:29:02.000Z</time>
      </trkpt>
      <trkpt lon="35.36111234687269" lat="31.571005331352353">
        <ele>150.60000610351562</ele>
        <time>2014-01-03T07:29:10.000Z</time>
      </trkpt>
      <trkpt lon="35.36141292192042" lat="31.570708779618144">
        <ele>152.0</ele>
        <time>2014-01-03T07:29:21.000Z</time>
      </trkpt>
      <trkpt lon="35.36158894188702" lat="31.570548433810472">
        <ele>155.0</ele>
        <time>2014-01-03T07:29:29.000Z</time>
      </trkpt>
      <trkpt lon="35.36176923662424" lat="31.570391859859228">
        <ele>158.1999969482422</ele>
        <time>2014-01-03T07:29:39.000Z</time>
      </trkpt>
      <trkpt lon="35.36189882084727" lat="31.570263700559735">
        <ele>160.1999969482422</ele>
        <time>2014-01-03T07:29:49.000Z</time>
      </trkpt>
      <trkpt lon="35.36204181611538" lat="31.570098577067256">
        <ele>160.60000610351562</ele>
        <time>2014-01-03T07:29:59.000Z</time>
      </trkpt>
      <trkpt lon="35.36214248277247" lat="31.569933956488967">
        <ele>162.1999969482422</ele>
        <time>2014-01-03T07:30:08.000Z</time>
      </trkpt>
      <trkpt lon="35.362284388393164" lat="31.569792553782463">
        <ele>162.60000610351562</ele>
        <time>2014-01-03T07:30:17.000Z</time>
      </trkpt>
      <trkpt lon="35.36247826181352" lat="31.569566912949085">
        <ele>164.0</ele>
        <time>2014-01-03T07:30:30.000Z</time>
      </trkpt>
      <trkpt lon="35.36260097287595" lat="31.56941176392138">
        <ele>165.0</ele>
        <time>2014-01-03T07:30:39.000Z</time>
      </trkpt>
      <trkpt lon="35.362697364762425" lat="31.56929408200085">
        <ele>166.0</ele>
        <time>2014-01-03T07:30:46.000Z</time>
      </trkpt>
      <trkpt lon="35.36284069530666" lat="31.56912107951939">
        <ele>167.39999389648438</ele>
        <time>2014-01-03T07:30:57.000Z</time>
      </trkpt>
      <trkpt lon="35.3630128595978" lat="31.568929385393858">
        <ele>168.39999389648438</ele>
        <time>2014-01-03T07:31:10.000Z</time>
      </trkpt>
      <trkpt lon="35.3631442040205" lat="31.568771889433265">
        <ele>169.8000030517578</ele>
        <time>2014-01-03T07:31:20.000Z</time>
      </trkpt>
      <trkpt lon="35.36327579990029" lat="31.568672312423587">
        <ele>170.1999969482422</ele>
        <time>2014-01-03T07:31:27.000Z</time>
      </trkpt>
      <trkpt lon="35.36338132806122" lat="31.568556390702724">
        <ele>172.1999969482422</ele>
        <time>2014-01-03T07:31:34.000Z</time>
      </trkpt>
      <trkpt lon="35.363499680534005" lat="31.568439714610577">
        <ele>175.60000610351562</ele>
        <time>2014-01-03T07:31:43.000Z</time>
      </trkpt>
      <trkpt lon="35.36356673575938" lat="31.568362852558494">
        <ele>177.60000610351562</ele>
        <time>2014-01-03T07:31:50.000Z</time>
      </trkpt>
      <trkpt lon="35.36357285454869" lat="31.56834952533245">
        <ele>177.60000610351562</ele>
        <time>2014-01-03T07:31:51.000Z</time>
      </trkpt>
      <trkpt lon="35.36357746459544" lat="31.56833435408771">
        <ele>178.0</ele>
        <time>2014-01-03T07:31:52.000Z</time>
      </trkpt>
      <trkpt lon="35.363584673032165" lat="31.568318009376526">
        <ele>178.39999389648438</ele>
        <time>2014-01-03T07:31:53.000Z</time>
      </trkpt>
      <trkpt lon="35.36359313875437" lat="31.568303173407912">
        <ele>179.0</ele>
        <time>2014-01-03T07:31:54.000Z</time>
      </trkpt>
      <trkpt lon="35.36360495723784" lat="31.568188089877367">
        <ele>180.8000030517578</ele>
        <time>2014-01-03T07:32:02.000Z</time>
      </trkpt>
      <trkpt lon="35.36360487341881" lat="31.56805573962629">
        <ele>183.1999969482422</ele>
        <time>2014-01-03T07:32:11.000Z</time>
      </trkpt>
      <trkpt lon="35.363620799034834" lat="31.567922718822956">
        <ele>185.1999969482422</ele>
        <time>2014-01-03T07:32:20.000Z</time>
      </trkpt>
      <trkpt lon="35.36366798914969" lat="31.567802103236318">
        <ele>187.60000610351562</ele>
        <time>2014-01-03T07:32:29.000Z</time>
      </trkpt>
      <trkpt lon="35.36369003355503" lat="31.567693138495088">
        <ele>189.60000610351562</ele>
        <time>2014-01-03T07:32:37.000Z</time>
      </trkpt>
      <trkpt lon="35.36371937021613" lat="31.567588448524475">
        <ele>191.39999389648438</ele>
        <time>2014-01-03T07:32:45.000Z</time>
      </trkpt>
      <trkpt lon="35.36372708156705" lat="31.567577552050352">
        <ele>192.0</ele>
        <time>2014-01-03T07:32:46.000Z</time>
      </trkpt>
      <trkpt lon="35.36373529583216" lat="31.56756615266204">
        <ele>192.0</ele>
        <time>2014-01-03T07:32:47.000Z</time>
      </trkpt>
      <trkpt lon="35.363745437934995" lat="31.567555172368884">
        <ele>192.39999389648438</ele>
        <time>2014-01-03T07:32:48.000Z</time>
      </trkpt>
      <trkpt lon="35.36375449039042" lat="31.567543605342507">
        <ele>192.39999389648438</ele>
        <time>2014-01-03T07:32:49.000Z</time>
      </trkpt>
      <trkpt lon="35.36380637437105" lat="31.567440927028656">
        <ele>194.39999389648438</ele>
        <time>2014-01-03T07:32:57.000Z</time>
      </trkpt>
      <trkpt lon="35.36387560889125" lat="31.567334728315473">
        <ele>195.8000030517578</ele>
        <time>2014-01-03T07:33:06.000Z</time>
      </trkpt>
      <trkpt lon="35.36390628665686" lat="31.567270439118147">
        <ele>196.1999969482422</ele>
        <time>2014-01-03T07:33:12.000Z</time>
      </trkpt>
      <trkpt lon="35.363913075998425" lat="31.567259710282087">
        <ele>196.1999969482422</ele>
        <time>2014-01-03T07:33:13.000Z</time>
      </trkpt>
      <trkpt lon="35.36392254754901" lat="31.56724805943668">
        <ele>196.8000030517578</ele>
        <time>2014-01-03T07:33:14.000Z</time>
      </trkpt>
      <trkpt lon="35.363982394337654" lat="31.567140854895115">
        <ele>197.1999969482422</ele>
        <time>2014-01-03T07:33:22.000Z</time>
      </trkpt>
      <trkpt lon="35.36399186588824" lat="31.567101627588272">
        <ele>196.8000030517578</ele>
        <time>2014-01-03T07:33:25.000Z</time>
      </trkpt>
      <trkpt lon="35.364022543653846" lat="31.566954106092453">
        <ele>196.8000030517578</ele>
        <time>2014-01-03T07:33:34.000Z</time>
      </trkpt>
      <trkpt lon="35.364083731547" lat="31.566819408908486">
        <ele>196.1999969482422</ele>
        <time>2014-01-03T07:33:42.000Z</time>
      </trkpt>
      <trkpt lon="35.36412429995835" lat="31.566707426682115">
        <ele>195.8000030517578</ele>
        <time>2014-01-03T07:33:48.000Z</time>
      </trkpt>
      <trkpt lon="35.36420459859073" lat="31.566611034795642">
        <ele>196.1999969482422</ele>
        <time>2014-01-03T07:33:55.000Z</time>
      </trkpt>
      <trkpt lon="35.364221362397075" lat="31.566607849672437">
        <ele>196.8000030517578</ele>
        <time>2014-01-03T07:34:01.000Z</time>
      </trkpt>
      <trkpt lon="35.36423519253731" lat="31.566613633185625">
        <ele>197.1999969482422</ele>
        <time>2014-01-03T07:34:13.000Z</time>
      </trkpt>
      <trkpt lon="35.36424214951694" lat="31.56661338172853">
        <ele>198.60000610351562</ele>
        <time>2014-01-03T07:34:30.000Z</time>
      </trkpt>
      <trkpt lon="35.36425329744816" lat="31.566615058109164">
        <ele>199.60000610351562</ele>
        <time>2014-01-03T07:34:46.000Z</time>
      </trkpt>
      <trkpt lon="35.364261008799076" lat="31.5666148904711">
        <ele>200.0</ele>
        <time>2014-01-03T07:34:54.000Z</time>
      </trkpt>
      <trkpt lon="35.364239886403084" lat="31.566603742539883">
        <ele>198.60000610351562</ele>
        <time>2014-01-03T07:35:13.000Z</time>
      </trkpt>
      <trkpt lon="35.36425095051527" lat="31.566606676205993">
        <ele>199.1999969482422</ele>
        <time>2014-01-03T07:35:22.000Z</time>
      </trkpt>
      <trkpt lon="35.36424835212529" lat="31.566611118614674">
        <ele>199.60000610351562</ele>
        <time>2014-01-03T07:35:40.000Z</time>
      </trkpt>
      <trkpt lon="35.364246340468526" lat="31.56661237590015">
        <ele>199.60000610351562</ele>
        <time>2014-01-03T07:36:03.000Z</time>
      </trkpt>
      <trkpt lon="35.36424550227821" lat="31.56660843640566">
        <ele>200.0</ele>
        <time>2014-01-03T07:36:24.000Z</time>
      </trkpt>
      <trkpt lon="35.36425053142011" lat="31.566610196605325">
        <ele>200.0</ele>
        <time>2014-01-03T07:36:43.000Z</time>
      </trkpt>
      <trkpt lon="35.36425061523914" lat="31.56660315580666">
        <ele>201.60000610351562</ele>
        <time>2014-01-03T07:37:01.000Z</time>
      </trkpt>
      <trkpt lon="35.36424935795367" lat="31.566607179120183">
        <ele>201.60000610351562</ele>
        <time>2014-01-03T07:37:22.000Z</time>
      </trkpt>
      <trkpt lon="35.36424994468689" lat="31.566607765853405">
        <ele>201.60000610351562</ele>
        <time>2014-01-03T07:37:38.000Z</time>
      </trkpt>
      <trkpt lon="35.36424692720175" lat="31.566612543538213">
        <ele>201.0</ele>
        <time>2014-01-03T07:37:58.000Z</time>
      </trkpt>
      <trkpt lon="35.36424659192562" lat="31.566610783338547">
        <ele>199.60000610351562</ele>
        <time>2014-01-03T07:38:12.000Z</time>
      </trkpt>
      <trkpt lon="35.364237455651164" lat="31.56661245971918">
        <ele>199.60000610351562</ele>
        <time>2014-01-03T07:38:33.000Z</time>
      </trkpt>
      <trkpt lon="35.36423879675567" lat="31.566612627357244">
        <ele>199.1999969482422</ele>
        <time>2014-01-03T07:38:42.000Z</time>
      </trkpt>
      <trkpt lon="35.364223876968026" lat="31.566594522446394">
        <ele>200.0</ele>
        <time>2014-01-03T07:38:59.000Z</time>
      </trkpt>
      <trkpt lon="35.364225218072534" lat="31.566565688699484">
        <ele>204.0</ele>
        <time>2014-01-03T07:39:21.000Z</time>
      </trkpt>
      <trkpt lon="35.36421289667487" lat="31.56655873171985">
        <ele>204.39999389648438</ele>
        <time>2014-01-03T07:39:41.000Z</time>
      </trkpt>
      <trkpt lon="35.36422605626285" lat="31.566568203270435">
        <ele>199.1999969482422</ele>
        <time>2014-01-03T07:40:03.000Z</time>
      </trkpt>
      <trkpt lon="35.36421809345484" lat="31.566594438627362">
        <ele>193.8000030517578</ele>
        <time>2014-01-03T07:40:27.000Z</time>
      </trkpt>
      <trkpt lon="35.364222284406424" lat="31.566580357030034">
        <ele>193.39999389648438</ele>
        <time>2014-01-03T07:40:46.000Z</time>
      </trkpt>
      <trkpt lon="35.36419873125851" lat="31.566575495526195">
        <ele>194.39999389648438</ele>
        <time>2014-01-03T07:41:03.000Z</time>
      </trkpt>
      <trkpt lon="35.36419336684048" lat="31.566557809710503">
        <ele>196.1999969482422</ele>
        <time>2014-01-03T07:41:23.000Z</time>
      </trkpt>
      <trkpt lon="35.3641994856298" lat="31.56655613332987">
        <ele>196.8000030517578</ele>
        <time>2014-01-03T07:41:41.000Z</time>
      </trkpt>
      <trkpt lon="35.36420535296202" lat="31.566568035632372">
        <ele>196.8000030517578</ele>
        <time>2014-01-03T07:42:04.000Z</time>
      </trkpt>
      <trkpt lon="35.3641976416111" lat="31.566569125279784">
        <ele>197.1999969482422</ele>
        <time>2014-01-03T07:42:26.000Z</time>
      </trkpt>
      <trkpt lon="35.36419822834432" lat="31.566554540768266">
        <ele>198.1999969482422</ele>
        <time>2014-01-03T07:42:47.000Z</time>
      </trkpt>
      <trkpt lon="35.364209627732635" lat="31.566569209098816">
        <ele>197.1999969482422</ele>
        <time>2014-01-03T07:43:04.000Z</time>
      </trkpt>
      <trkpt lon="35.36421926692128" lat="31.56657633371651">
        <ele>196.1999969482422</ele>
        <time>2014-01-03T07:43:23.000Z</time>
      </trkpt>
      <trkpt lon="35.36421708762646" lat="31.566590750589967">
        <ele>195.1999969482422</ele>
        <time>2014-01-03T07:43:36.000Z</time>
      </trkpt>
      <trkpt lon="35.36423670127988" lat="31.56660122796893">
        <ele>191.0</ele>
        <time>2014-01-03T07:44:00.000Z</time>
      </trkpt>
      <trkpt lon="35.36423477344215" lat="31.56659385189414">
        <ele>190.0</ele>
        <time>2014-01-03T07:44:12.000Z</time>
      </trkpt>
      <trkpt lon="35.36424055695534" lat="31.56659192405641">
        <ele>190.0</ele>
        <time>2014-01-03T07:44:34.000Z</time>
      </trkpt>
      <trkpt lon="35.364235611632466" lat="31.56658203341067">
        <ele>191.0</ele>
        <time>2014-01-03T07:44:52.000Z</time>
      </trkpt>
      <trkpt lon="35.36423083394766" lat="31.56657239422202">
        <ele>192.0</ele>
        <time>2014-01-03T07:45:05.000Z</time>
      </trkpt>
      <trkpt lon="35.36423712037504" lat="31.56655579805374">
        <ele>191.39999389648438</ele>
        <time>2014-01-03T07:45:14.000Z</time>
      </trkpt>
      <trkpt lon="35.36423938348889" lat="31.566535849124193">
        <ele>192.39999389648438</ele>
        <time>2014-01-03T07:45:22.000Z</time>
      </trkpt>
      <trkpt lon="35.36423980258405" lat="31.566525036469102">
        <ele>192.39999389648438</ele>
        <time>2014-01-03T07:45:23.000Z</time>
      </trkpt>
      <trkpt lon="35.364244328811765" lat="31.566485641524196">
        <ele>192.39999389648438</ele>
        <time>2014-01-03T07:45:27.000Z</time>
      </trkpt>
      <trkpt lon="35.3642460051924" lat="31.566467452794313">
        <ele>192.39999389648438</ele>
        <time>2014-01-03T07:45:28.000Z</time>
      </trkpt>
      <trkpt lon="35.36424617283046" lat="31.56644926406443">
        <ele>192.39999389648438</ele>
        <time>2014-01-03T07:45:29.000Z</time>
      </trkpt>
      <trkpt lon="35.3642460051924" lat="31.56643107533455">
        <ele>192.39999389648438</ele>
        <time>2014-01-03T07:45:30.000Z</time>
      </trkpt>
      <trkpt lon="35.36424692720175" lat="31.56641053967178">
        <ele>192.39999389648438</ele>
        <time>2014-01-03T07:45:31.000Z</time>
      </trkpt>
      <trkpt lon="35.364212058484554" lat="31.56622203066945">
        <ele>192.39999389648438</ele>
        <time>2014-01-03T07:45:38.000Z</time>
      </trkpt>
      <trkpt lon="35.36414064466953" lat="31.565880551934242">
        <ele>191.39999389648438</ele>
        <time>2014-01-03T07:45:46.000Z</time>
      </trkpt>
      <trkpt lon="35.36407803185284" lat="31.56574367545545">
        <ele>191.0</ele>
        <time>2014-01-03T07:45:49.000Z</time>
      </trkpt>
      <trkpt lon="35.36407417617738" lat="31.565699921920896">
        <ele>191.0</ele>
        <time>2014-01-03T07:45:50.000Z</time>
      </trkpt>
      <trkpt lon="35.36407811567187" lat="31.565362382680178">
        <ele>190.39999389648438</ele>
        <time>2014-01-03T07:45:58.000Z</time>
      </trkpt>
      <trkpt lon="35.364038133993745" lat="31.56497455202043">
        <ele>190.0</ele>
        <time>2014-01-03T07:46:07.000Z</time>
      </trkpt>
      <trkpt lon="35.364088928326964" lat="31.564566185697913">
        <ele>189.0</ele>
        <time>2014-01-03T07:46:15.000Z</time>
      </trkpt>
      <trkpt lon="35.364089012145996" lat="31.56451958231628">
        <ele>189.0</ele>
        <time>2014-01-03T07:46:16.000Z</time>
      </trkpt>
      <trkpt lon="35.364079624414444" lat="31.564476834610105">
        <ele>188.60000610351562</ele>
        <time>2014-01-03T07:46:17.000Z</time>
      </trkpt>
      <trkpt lon="35.36406118422747" lat="31.564434003084898">
        <ele>188.60000610351562</ele>
        <time>2014-01-03T07:46:18.000Z</time>
      </trkpt>
      <trkpt lon="35.36399295553565" lat="31.56430567614734">
        <ele>188.60000610351562</ele>
        <time>2014-01-03T07:46:21.000Z</time>
      </trkpt>
      <trkpt lon="35.363983316347" lat="31.56426058150828">
        <ele>188.0</ele>
        <time>2014-01-03T07:46:22.000Z</time>
      </trkpt>
      <trkpt lon="35.36398373544216" lat="31.56422001309693">
        <ele>188.60000610351562</ele>
        <time>2014-01-03T07:46:23.000Z</time>
      </trkpt>
      <trkpt lon="35.363994212821126" lat="31.564189419150352">
        <ele>188.0</ele>
        <time>2014-01-03T07:46:24.000Z</time>
      </trkpt>
      <trkpt lon="35.36400812678039" lat="31.56416536308825">
        <ele>188.0</ele>
        <time>2014-01-03T07:46:25.000Z</time>
      </trkpt>
      <trkpt lon="35.36402145400643" lat="31.564144995063543">
        <ele>188.0</ele>
        <time>2014-01-03T07:46:26.000Z</time>
      </trkpt>
      <trkpt lon="35.36403385922313" lat="31.564122950658202">
        <ele>188.0</ele>
        <time>2014-01-03T07:46:27.000Z</time>
      </trkpt>
      <trkpt lon="35.36410158500075" lat="31.563969226554036">
        <ele>188.0</ele>
        <time>2014-01-03T07:46:32.000Z</time>
      </trkpt>
      <trkpt lon="35.36403997801244" lat="31.56376806087792">
        <ele>188.0</ele>
        <time>2014-01-03T07:46:38.000Z</time>
      </trkpt>
      <trkpt lon="35.363950124010444" lat="31.563676111400127">
        <ele>188.60000610351562</ele>
        <time>2014-01-03T07:46:41.000Z</time>
      </trkpt>
      <trkpt lon="35.363798160105944" lat="31.563523644581437">
        <ele>189.0</ele>
        <time>2014-01-03T07:46:46.000Z</time>
      </trkpt>
      <trkpt lon="35.36378919146955" lat="31.563487518578768">
        <ele>189.0</ele>
        <time>2014-01-03T07:46:47.000Z</time>
      </trkpt>
      <trkpt lon="35.363690787926316" lat="31.563255256041884">
        <ele>189.60000610351562</ele>
        <time>2014-01-03T07:46:54.000Z</time>
      </trkpt>
      <trkpt lon="35.36345785483718" lat="31.563007067888975">
        <ele>189.60000610351562</ele>
        <time>2014-01-03T07:47:03.000Z</time>
      </trkpt>
      <trkpt lon="35.363220730796456" lat="31.56273323111236">
        <ele>192.0</ele>
        <time>2014-01-03T07:47:13.000Z</time>
      </trkpt>
      <trkpt lon="35.36301428452134" lat="31.56245168298483">
        <ele>192.39999389648438</ele>
        <time>2014-01-03T07:47:23.000Z</time>
      </trkpt>
      <trkpt lon="35.362881598994136" lat="31.562345819547772">
        <ele>192.0</ele>
        <time>2014-01-03T07:47:27.000Z</time>
      </trkpt>
      <trkpt lon="35.36280842497945" lat="31.562290582805872">
        <ele>192.0</ele>
        <time>2014-01-03T07:47:29.000Z</time>
      </trkpt>
      <trkpt lon="35.362778166309" lat="31.562259821221232">
        <ele>191.39999389648438</ele>
        <time>2014-01-03T07:47:30.000Z</time>
      </trkpt>
      <trkpt lon="35.36275276914239" lat="31.562228137627244">
        <ele>191.39999389648438</ele>
        <time>2014-01-03T07:47:31.000Z</time>
      </trkpt>
      <trkpt lon="35.36272753961384" lat="31.56219226308167">
        <ele>191.39999389648438</ele>
        <time>2014-01-03T07:47:32.000Z</time>
      </trkpt>
      <trkpt lon="35.362701220437884" lat="31.562152449041605">
        <ele>191.0</ele>
        <time>2014-01-03T07:47:33.000Z</time>
      </trkpt>
      <trkpt lon="35.362672889605165" lat="31.56211791560054">
        <ele>191.0</ele>
        <time>2014-01-03T07:47:34.000Z</time>
      </trkpt>
      <trkpt lon="35.362641206011176" lat="31.56208623200655">
        <ele>191.0</ele>
        <time>2014-01-03T07:47:35.000Z</time>
      </trkpt>
      <trkpt lon="35.3626071754843" lat="31.562050860375166">
        <ele>190.39999389648438</ele>
        <time>2014-01-03T07:47:36.000Z</time>
      </trkpt>
      <trkpt lon="35.36258085630834" lat="31.562019931152463">
        <ele>190.39999389648438</ele>
        <time>2014-01-03T07:47:37.000Z</time>
      </trkpt>
      <trkpt lon="35.36256124265492" lat="31.561993695795536">
        <ele>190.39999389648438</ele>
        <time>2014-01-03T07:47:38.000Z</time>
      </trkpt>
      <trkpt lon="35.3624863922596" lat="31.561842570081353">
        <ele>192.0</ele>
        <time>2014-01-03T07:47:44.000Z</time>
      </trkpt>
      <trkpt lon="35.36244347691536" lat="31.561666214838624">
        <ele>192.39999389648438</ele>
        <time>2014-01-03T07:47:51.000Z</time>
      </trkpt>
      <trkpt lon="35.362354880198836" lat="31.56150092370808">
        <ele>194.39999389648438</ele>
        <time>2014-01-03T07:47:59.000Z</time>
      </trkpt>
      <trkpt lon="35.36213703453541" lat="31.56141676940024">
        <ele>193.8000030517578</ele>
        <time>2014-01-03T07:48:06.000Z</time>
      </trkpt>
      <trkpt lon="35.36189873702824" lat="31.561269415542483">
        <ele>195.1999969482422</ele>
        <time>2014-01-03T07:48:15.000Z</time>
      </trkpt>
      <trkpt lon="35.361675191670656" lat="31.561156762763858">
        <ele>196.1999969482422</ele>
        <time>2014-01-03T07:48:23.000Z</time>
      </trkpt>
      <trkpt lon="35.361422477290034" lat="31.561068166047335">
        <ele>197.1999969482422</ele>
        <time>2014-01-03T07:48:31.000Z</time>
      </trkpt>
      <trkpt lon="35.36119658499956" lat="31.561011001467705">
        <ele>197.60000610351562</ele>
        <time>2014-01-03T07:48:39.000Z</time>
      </trkpt>
      <trkpt lon="35.3610703535378" lat="31.560924164950848">
        <ele>198.1999969482422</ele>
        <time>2014-01-03T07:48:45.000Z</time>
      </trkpt>
      <trkpt lon="35.36105149425566" lat="31.560911256819963">
        <ele>198.1999969482422</ele>
        <time>2014-01-03T07:48:46.000Z</time>
      </trkpt>
      <trkpt lon="35.36102777346969" lat="31.560903880745173">
        <ele>198.1999969482422</ele>
        <time>2014-01-03T07:48:47.000Z</time>
      </trkpt>
      <trkpt lon="35.360999861732125" lat="31.56089683994651">
        <ele>198.1999969482422</ele>
        <time>2014-01-03T07:48:48.000Z</time>
      </trkpt>
      <trkpt lon="35.36069140769541" lat="31.56081142835319">
        <ele>199.1999969482422</ele>
        <time>2014-01-03T07:48:59.000Z</time>
      </trkpt>
      <trkpt lon="35.36037163808942" lat="31.560730878263712">
        <ele>199.1999969482422</ele>
        <time>2014-01-03T07:49:10.000Z</time>
      </trkpt>
      <trkpt lon="35.3601223602891" lat="31.560694836080074">
        <ele>199.60000610351562</ele>
        <time>2014-01-03T07:49:18.000Z</time>
      </trkpt>
      <trkpt lon="35.359871657565236" lat="31.560645047575235">
        <ele>201.0</ele>
        <time>2014-01-03T07:49:26.000Z</time>
      </trkpt>
      <trkpt lon="35.35959186963737" lat="31.560591319575906">
        <ele>202.39999389648438</ele>
        <time>2014-01-03T07:49:35.000Z</time>
      </trkpt>
      <trkpt lon="35.35936840809882" lat="31.560558127239347">
        <ele>203.39999389648438</ele>
        <time>2014-01-03T07:49:43.000Z</time>
      </trkpt>
      <trkpt lon="35.35915307700634" lat="31.56054312363267">
        <ele>204.0</ele>
        <time>2014-01-03T07:49:50.000Z</time>
      </trkpt>
      <trkpt lon="35.35888041369617" lat="31.56052954494953">
        <ele>204.0</ele>
        <time>2014-01-03T07:49:59.000Z</time>
      </trkpt>
      <trkpt lon="35.35860825330019" lat="31.56054119579494">
        <ele>203.0</ele>
        <time>2014-01-03T07:50:06.000Z</time>
      </trkpt>
      <trkpt lon="35.358221009373665" lat="31.560555277392268">
        <ele>200.60000610351562</ele>
        <time>2014-01-03T07:50:12.000Z</time>
      </trkpt>
      <trkpt lon="35.35815680399537" lat="31.560542285442352">
        <ele>200.0</ele>
        <time>2014-01-03T07:50:13.000Z</time>
      </trkpt>
      <trkpt lon="35.35810014232993" lat="31.56052409671247">
        <ele>200.0</ele>
        <time>2014-01-03T07:50:14.000Z</time>
      </trkpt>
      <trkpt lon="35.358050521463156" lat="31.560505824163556">
        <ele>200.60000610351562</ele>
        <time>2014-01-03T07:50:15.000Z</time>
      </trkpt>
      <trkpt lon="35.35800416953862" lat="31.56049333512783">
        <ele>200.0</ele>
        <time>2014-01-03T07:50:16.000Z</time>
      </trkpt>
      <trkpt lon="35.35796175710857" lat="31.5604845341295">
        <ele>200.0</ele>
        <time>2014-01-03T07:50:17.000Z</time>
      </trkpt>
      <trkpt lon="35.35792068578303" lat="31.560479756444693">
        <ele>200.0</ele>
        <time>2014-01-03T07:50:18.000Z</time>
      </trkpt>
      <trkpt lon="35.35787676461041" lat="31.56047724187374">
        <ele>199.60000610351562</ele>
        <time>2014-01-03T07:50:19.000Z</time>
      </trkpt>
      <trkpt lon="35.35783099941909" lat="31.56048260629177">
        <ele>199.1999969482422</ele>
        <time>2014-01-03T07:50:20.000Z</time>
      </trkpt>
      <trkpt lon="35.35779093392193" lat="31.560492077842355">
        <ele>199.1999969482422</ele>
        <time>2014-01-03T07:50:21.000Z</time>
      </trkpt>
      <trkpt lon="35.3576320130378" lat="31.56050942838192">
        <ele>199.1999969482422</ele>
        <time>2014-01-03T07:50:26.000Z</time>
      </trkpt>
      <trkpt lon="35.357433864846826" lat="31.560509344562888">
        <ele>200.0</ele>
        <time>2014-01-03T07:50:32.000Z</time>
      </trkpt>
      <trkpt lon="35.35722247324884" lat="31.560440864413977">
        <ele>202.39999389648438</ele>
        <time>2014-01-03T07:50:40.000Z</time>
      </trkpt>
      <trkpt lon="35.35703002475202" lat="31.56034665182233">
        <ele>204.8000030517578</ele>
        <time>2014-01-03T07:50:47.000Z</time>
      </trkpt>
      <trkpt lon="35.35692407749593" lat="31.56025235541165">
        <ele>206.39999389648438</ele>
        <time>2014-01-03T07:50:53.000Z</time>
      </trkpt>
      <trkpt lon="35.35677404142916" lat="31.560163088142872">
        <ele>207.8000030517578</ele>
        <time>2014-01-03T07:51:01.000Z</time>
      </trkpt>
      <trkpt lon="35.35657715052366" lat="31.560025960206985">
        <ele>210.1999969482422</ele>
        <time>2014-01-03T07:51:12.000Z</time>
      </trkpt>
      <trkpt lon="35.35632686689496" lat="31.559885311871767">
        <ele>211.1999969482422</ele>
        <time>2014-01-03T07:51:23.000Z</time>
      </trkpt>
      <trkpt lon="35.35604791715741" lat="31.559802666306496">
        <ele>211.1999969482422</ele>
        <time>2014-01-03T07:51:32.000Z</time>
      </trkpt>
      <trkpt lon="35.35573024302721" lat="31.55980233103037">
        <ele>209.1999969482422</ele>
        <time>2014-01-03T07:51:41.000Z</time>
      </trkpt>
      <trkpt lon="35.355470571666956" lat="31.55978623777628">
        <ele>209.1999969482422</ele>
        <time>2014-01-03T07:51:50.000Z</time>
      </trkpt>
      <trkpt lon="35.35517410375178" lat="31.559762936085463">
        <ele>211.1999969482422</ele>
        <time>2014-01-03T07:52:01.000Z</time>
      </trkpt>
      <trkpt lon="35.35492264665663" lat="31.55977643094957">
        <ele>213.60000610351562</ele>
        <time>2014-01-03T07:52:10.000Z</time>
      </trkpt>
      <trkpt lon="35.354787446558475" lat="31.55979797244072">
        <ele>214.60000610351562</ele>
        <time>2014-01-03T07:52:15.000Z</time>
      </trkpt>
      <trkpt lon="35.354440016672015" lat="31.559778191149235">
        <ele>214.60000610351562</ele>
        <time>2014-01-03T07:52:25.000Z</time>
      </trkpt>
      <trkpt lon="35.3541489969939" lat="31.55973879620433">
        <ele>216.0</ele>
        <time>2014-01-03T07:52:34.000Z</time>
      </trkpt>
      <trkpt lon="35.353864347562194" lat="31.55969738960266">
        <ele>216.39999389648438</ele>
        <time>2014-01-03T07:52:43.000Z</time>
      </trkpt>
      <trkpt lon="35.35352496430278" lat="31.55965531244874">
        <ele>215.39999389648438</ele>
        <time>2014-01-03T07:52:52.000Z</time>
      </trkpt>
      <trkpt lon="35.35347182303667" lat="31.5596557315439">
        <ele>215.0</ele>
        <time>2014-01-03T07:52:53.000Z</time>
      </trkpt>
      <trkpt lon="35.353415412828326" lat="31.559658916667104">
        <ele>215.0</ele>
        <time>2014-01-03T07:52:54.000Z</time>
      </trkpt>
      <trkpt lon="35.3532300889492" lat="31.559689342975616">
        <ele>214.0</ele>
        <time>2014-01-03T07:52:57.000Z</time>
      </trkpt>
      <trkpt lon="35.353170577436686" lat="31.559715243056417">
        <ele>214.0</ele>
        <time>2014-01-03T07:52:58.000Z</time>
      </trkpt>
      <trkpt lon="35.35311173647642" lat="31.55974131077528">
        <ele>213.60000610351562</ele>
        <time>2014-01-03T07:52:59.000Z</time>
      </trkpt>
      <trkpt lon="35.352651150897145" lat="31.55991774983704">
        <ele>212.1999969482422</ele>
        <time>2014-01-03T07:53:07.000Z</time>
      </trkpt>
      <trkpt lon="35.35255232825875" lat="31.55996502377093">
        <ele>211.60000610351562</ele>
        <time>2014-01-03T07:53:09.000Z</time>
      </trkpt>
      <trkpt lon="35.35250882618129" lat="31.55999972485006">
        <ele>211.1999969482422</ele>
        <time>2014-01-03T07:53:10.000Z</time>
      </trkpt>
      <trkpt lon="35.3524652402848" lat="31.56003543175757">
        <ele>211.1999969482422</ele>
        <time>2014-01-03T07:53:11.000Z</time>
      </trkpt>
      <trkpt lon="35.352416541427374" lat="31.560060745105147">
        <ele>210.60000610351562</ele>
        <time>2014-01-03T07:53:12.000Z</time>
      </trkpt>
      <trkpt lon="35.35236205905676" lat="31.560081196948886">
        <ele>210.60000610351562</ele>
        <time>2014-01-03T07:53:13.000Z</time>
      </trkpt>
      <trkpt lon="35.352310007438064" lat="31.560100726783276">
        <ele>210.1999969482422</ele>
        <time>2014-01-03T07:53:14.000Z</time>
      </trkpt>
      <trkpt lon="35.352075565606356" lat="31.560159232467413">
        <ele>210.60000610351562</ele>
        <time>2014-01-03T07:53:20.000Z</time>
      </trkpt>
      <trkpt lon="35.35183534026146" lat="31.560219079256058">
        <ele>212.1999969482422</ele>
        <time>2014-01-03T07:53:28.000Z</time>
      </trkpt>
      <trkpt lon="35.35165596753359" lat="31.560288816690445">
        <ele>213.60000610351562</ele>
        <time>2014-01-03T07:53:35.000Z</time>
      </trkpt>
      <trkpt lon="35.35141767002642" lat="31.560462070629">
        <ele>215.39999389648438</ele>
        <time>2014-01-03T07:53:45.000Z</time>
      </trkpt>
      <trkpt lon="35.3512357827276" lat="31.56059936620295">
        <ele>216.39999389648438</ele>
        <time>2014-01-03T07:53:52.000Z</time>
      </trkpt>
      <trkpt lon="35.3509974014014" lat="31.560760382562876">
        <ele>217.39999389648438</ele>
        <time>2014-01-03T07:54:02.000Z</time>
      </trkpt>
      <trkpt lon="35.35076874308288" lat="31.560906311497092">
        <ele>217.39999389648438</ele>
        <time>2014-01-03T07:54:11.000Z</time>
      </trkpt>
      <trkpt lon="35.350561207160354" lat="31.560995997861028">
        <ele>217.8000030517578</ele>
        <time>2014-01-03T07:54:20.000Z</time>
      </trkpt>
      <trkpt lon="35.350291058421135" lat="31.56108065508306">
        <ele>219.39999389648438</ele>
        <time>2014-01-03T07:54:29.000Z</time>
      </trkpt>
      <trkpt lon="35.34994295798242" lat="31.561088114976883">
        <ele>219.8000030517578</ele>
        <time>2014-01-03T07:54:39.000Z</time>
      </trkpt>
      <trkpt lon="35.34968202933669" lat="31.561086270958185">
        <ele>219.39999389648438</ele>
        <time>2014-01-03T07:54:47.000Z</time>
      </trkpt>
      <trkpt lon="35.349386064335704" lat="31.561053078621626">
        <ele>220.1999969482422</ele>
        <time>2014-01-03T07:54:56.000Z</time>
      </trkpt>
      <trkpt lon="35.349059756845236" lat="31.560996500775218">
        <ele>221.8000030517578</ele>
        <time>2014-01-03T07:55:06.000Z</time>
      </trkpt>
      <trkpt lon="35.34882330335677" lat="31.56097412109375">
        <ele>222.60000610351562</ele>
        <time>2014-01-03T07:55:14.000Z</time>
      </trkpt>
      <trkpt lon="35.34860637970269" lat="31.56098392792046">
        <ele>222.1999969482422</ele>
        <time>2014-01-03T07:55:21.000Z</time>
      </trkpt>
      <trkpt lon="35.34839163534343" lat="31.560951406136155">
        <ele>221.1999969482422</ele>
        <time>2014-01-03T07:55:26.000Z</time>
      </trkpt>
      <trkpt lon="35.348274540156126" lat="31.560968589037657">
        <ele>220.1999969482422</ele>
        <time>2014-01-03T07:55:28.000Z</time>
      </trkpt>
      <trkpt lon="35.348213855177164" lat="31.560968589037657">
        <ele>219.8000030517578</ele>
        <time>2014-01-03T07:55:29.000Z</time>
      </trkpt>
      <trkpt lon="35.34801688045263" lat="31.560970097780228">
        <ele>219.8000030517578</ele>
        <time>2014-01-03T07:55:34.000Z</time>
      </trkpt>
      <trkpt lon="35.347779504954815" lat="31.560991387814283">
        <ele>221.8000030517578</ele>
        <time>2014-01-03T07:55:43.000Z</time>
      </trkpt>
      <trkpt lon="35.347551349550486" lat="31.56099080108106">
        <ele>223.60000610351562</ele>
        <time>2014-01-03T07:55:52.000Z</time>
      </trkpt>
      <trkpt lon="35.34728371538222" lat="31.56103086657822">
        <ele>225.60000610351562</ele>
        <time>2014-01-03T07:56:01.000Z</time>
      </trkpt>
      <trkpt lon="35.347051955759525" lat="31.561051486060023">
        <ele>226.0</ele>
        <time>2014-01-03T07:56:09.000Z</time>
      </trkpt>
      <trkpt lon="35.34685581922531" lat="31.561009995639324">
        <ele>226.60000610351562</ele>
        <time>2014-01-03T07:56:16.000Z</time>
      </trkpt>
      <trkpt lon="35.346665466204286" lat="31.560853086411953">
        <ele>226.60000610351562</ele>
        <time>2014-01-03T07:56:24.000Z</time>
      </trkpt>
      <trkpt lon="35.346461618319154" lat="31.560640772804618">
        <ele>226.60000610351562</ele>
        <time>2014-01-03T07:56:32.000Z</time>
      </trkpt>
      <trkpt lon="35.346122067421675" lat="31.560476571321487">
        <ele>227.0</ele>
        <time>2014-01-03T07:56:41.000Z</time>
      </trkpt>
      <trkpt lon="35.34573624841869" lat="31.56037305481732">
        <ele>228.0</ele>
        <time>2014-01-03T07:56:50.000Z</time>
      </trkpt>
      <trkpt lon="35.345275830477476" lat="31.56027976423502">
        <ele>229.39999389648438</ele>
        <time>2014-01-03T07:57:01.000Z</time>
      </trkpt>
      <trkpt lon="35.344890179112554" lat="31.560195107012987">
        <ele>230.8000030517578</ele>
        <time>2014-01-03T07:57:10.000Z</time>
      </trkpt>
      <trkpt lon="35.34466948360205" lat="31.560152359306812">
        <ele>230.39999389648438</ele>
        <time>2014-01-03T07:57:17.000Z</time>
      </trkpt>
      <trkpt lon="35.344417272135615" lat="31.560104163363576">
        <ele>230.8000030517578</ele>
        <time>2014-01-03T07:57:25.000Z</time>
      </trkpt>
      <trkpt lon="35.344058107584715" lat="31.560035599395633">
        <ele>230.39999389648438</ele>
        <time>2014-01-03T07:57:35.000Z</time>
      </trkpt>
      <trkpt lon="35.34378410317004" lat="31.559955468401313">
        <ele>231.39999389648438</ele>
        <time>2014-01-03T07:57:43.000Z</time>
      </trkpt>
      <trkpt lon="35.343475732952356" lat="31.559855807572603">
        <ele>230.8000030517578</ele>
        <time>2014-01-03T07:57:51.000Z</time>
      </trkpt>
      <trkpt lon="35.34320818260312" lat="31.55970275402069">
        <ele>230.39999389648438</ele>
        <time>2014-01-03T07:57:58.000Z</time>
      </trkpt>
      <trkpt lon="35.343102151528" lat="31.559612983837724">
        <ele>229.8000030517578</ele>
        <time>2014-01-03T07:58:01.000Z</time>
      </trkpt>
      <trkpt lon="35.34306728281081" lat="31.559582222253084">
        <ele>229.8000030517578</ele>
        <time>2014-01-03T07:58:02.000Z</time>
      </trkpt>
      <trkpt lon="35.343029983341694" lat="31.559554897248745">
        <ele>229.39999389648438</ele>
        <time>2014-01-03T07:58:03.000Z</time>
      </trkpt>
      <trkpt lon="35.34299025312066" lat="31.559529080986977">
        <ele>229.39999389648438</ele>
        <time>2014-01-03T07:58:04.000Z</time>
      </trkpt>
      <trkpt lon="35.342950858175755" lat="31.55950142070651">
        <ele>229.0</ele>
        <time>2014-01-03T07:58:05.000Z</time>
      </trkpt>
      <trkpt lon="35.342910289764404" lat="31.559477699920535">
        <ele>229.0</ele>
        <time>2014-01-03T07:58:06.000Z</time>
      </trkpt>
      <trkpt lon="35.342700658366084" lat="31.559396479278803">
        <ele>229.0</ele>
        <time>2014-01-03T07:58:12.000Z</time>
      </trkpt>
      <trkpt lon="35.34255716018379" lat="31.559350211173296">
        <ele>229.39999389648438</ele>
        <time>2014-01-03T07:58:19.000Z</time>
      </trkpt>
      <trkpt lon="35.34246428869665" lat="31.559231523424387">
        <ele>229.39999389648438</ele>
        <time>2014-01-03T07:58:26.000Z</time>
      </trkpt>
      <trkpt lon="35.34248046576977" lat="31.55918483622372">
        <ele>229.39999389648438</ele>
        <time>2014-01-03T07:58:29.000Z</time>
      </trkpt>
      <trkpt lon="35.342459762468934" lat="31.559122139588">
        <ele>229.8000030517578</ele>
        <time>2014-01-03T07:58:34.000Z</time>
      </trkpt>
      <trkpt lon="35.34242724068463" lat="31.559118535369635">
        <ele>229.8000030517578</ele>
        <time>2014-01-03T07:58:35.000Z</time>
      </trkpt>
      <trkpt lon="35.34239295870066" lat="31.55911434441805">
        <ele>229.8000030517578</ele>
        <time>2014-01-03T07:58:36.000Z</time>
      </trkpt>
      <trkpt lon="35.34236705861986" lat="31.559106968343258">
        <ele>230.39999389648438</ele>
        <time>2014-01-03T07:58:37.000Z</time>
      </trkpt>
      <trkpt lon="35.34234333783388" lat="31.559103028848767">
        <ele>230.39999389648438</ele>
        <time>2014-01-03T07:58:38.000Z</time>
      </trkpt>
      <trkpt lon="35.342282485216856" lat="31.559088611975312">
        <ele>231.8000030517578</ele>
        <time>2014-01-03T07:58:41.000Z</time>
      </trkpt>
      <trkpt lon="35.34226354211569" lat="31.55907972715795">
        <ele>231.8000030517578</ele>
        <time>2014-01-03T07:58:42.000Z</time>
      </trkpt>
      <trkpt lon="35.342108476907015" lat="31.558991968631744">
        <ele>232.8000030517578</ele>
        <time>2014-01-03T07:58:51.000Z</time>
      </trkpt>
      <trkpt lon="35.34194653853774" lat="31.558929355815053">
        <ele>234.1999969482422</ele>
        <time>2014-01-03T07:59:00.000Z</time>
      </trkpt>
      <trkpt lon="35.341808907687664" lat="31.55887495726347">
        <ele>234.60000610351562</ele>
        <time>2014-01-03T07:59:07.000Z</time>
      </trkpt>
      <trkpt lon="35.341606149449944" lat="31.55876993201673">
        <ele>235.60000610351562</ele>
        <time>2014-01-03T07:59:17.000Z</time>
      </trkpt>
      <trkpt lon="35.34142627380788" lat="31.558678150177002">
        <ele>236.60000610351562</ele>
        <time>2014-01-03T07:59:26.000Z</time>
      </trkpt>
      <trkpt lon="35.34133021719754" lat="31.558570694178343">
        <ele>236.60000610351562</ele>
        <time>2014-01-03T07:59:34.000Z</time>
      </trkpt>
      <trkpt lon="35.34120029769838" lat="31.55846298672259">
        <ele>237.60000610351562</ele>
        <time>2014-01-03T07:59:42.000Z</time>
      </trkpt>
      <trkpt lon="35.341051602736115" lat="31.558325104415417">
        <ele>239.0</ele>
        <time>2014-01-03T07:59:52.000Z</time>
      </trkpt>
      <trkpt lon="35.34101648256183" lat="31.558246901258826">
        <ele>239.0</ele>
        <time>2014-01-03T07:59:57.000Z</time>
      </trkpt>
      <trkpt lon="35.341002736240625" lat="31.55823684297502">
        <ele>239.0</ele>
        <time>2014-01-03T07:59:58.000Z</time>
      </trkpt>
      <trkpt lon="35.34099091775715" lat="31.558225359767675">
        <ele>239.0</ele>
        <time>2014-01-03T07:59:59.000Z</time>
      </trkpt>
      <trkpt lon="35.34097700379789" lat="31.558215050026774">
        <ele>239.60000610351562</ele>
        <time>2014-01-03T08:00:00.000Z</time>
      </trkpt>
      <trkpt lon="35.34096132963896" lat="31.558204405009747">
        <ele>239.60000610351562</ele>
        <time>2014-01-03T08:00:01.000Z</time>
      </trkpt>
      <trkpt lon="35.34085152670741" lat="31.55810927040875">
        <ele>241.0</ele>
        <time>2014-01-03T08:00:10.000Z</time>
      </trkpt>
      <trkpt lon="35.340707525610924" lat="31.55801539309323">
        <ele>240.39999389648438</ele>
        <time>2014-01-03T08:00:15.000Z</time>
      </trkpt>
      <trkpt lon="35.34056846983731" lat="31.55795043334365">
        <ele>242.0</ele>
        <time>2014-01-03T08:00:23.000Z</time>
      </trkpt>
      <trkpt lon="35.34037132747471" lat="31.557873990386724">
        <ele>242.8000030517578</ele>
        <time>2014-01-03T08:00:32.000Z</time>
      </trkpt>
      <trkpt lon="35.34014979377389" lat="31.557743065059185">
        <ele>242.8000030517578</ele>
        <time>2014-01-03T08:00:40.000Z</time>
      </trkpt>
      <trkpt lon="35.340001014992595" lat="31.557647930458188">
        <ele>242.8000030517578</ele>
        <time>2014-01-03T08:00:47.000Z</time>
      </trkpt>
      <trkpt lon="35.339785013347864" lat="31.557467468082905">
        <ele>243.39999389648438</ele>
        <time>2014-01-03T08:00:59.000Z</time>
      </trkpt>
      <trkpt lon="35.339609161019325" lat="31.557265045121312">
        <ele>244.39999389648438</ele>
        <time>2014-01-03T08:01:08.000Z</time>
      </trkpt>
      <trkpt lon="35.33944386988878" lat="31.557058515027165">
        <ele>245.8000030517578</ele>
        <time>2014-01-03T08:01:17.000Z</time>
      </trkpt>
      <trkpt lon="35.33936181105673" lat="31.556945191696286">
        <ele>246.8000030517578</ele>
        <time>2014-01-03T08:01:25.000Z</time>
      </trkpt>
      <trkpt lon="35.33927313052118" lat="31.556846369057894">
        <ele>246.1999969482422</ele>
        <time>2014-01-03T08:01:33.000Z</time>
      </trkpt>
      <trkpt lon="35.33924639225006" lat="31.55682901851833">
        <ele>244.39999389648438</ele>
        <time>2014-01-03T08:01:40.000Z</time>
      </trkpt>
      <trkpt lon="35.339252008125186" lat="31.556827509775758">
        <ele>244.39999389648438</ele>
        <time>2014-01-03T08:01:54.000Z</time>
      </trkpt>
      <trkpt lon="35.33924496732652" lat="31.556794568896294">
        <ele>243.8000030517578</ele>
        <time>2014-01-03T08:02:04.000Z</time>
      </trkpt>
      <trkpt lon="35.33924580551684" lat="31.556760286912322">
        <ele>242.8000030517578</ele>
        <time>2014-01-03T08:02:13.000Z</time>
      </trkpt>
      <trkpt lon="35.339242704212666" lat="31.556733213365078">
        <ele>241.0</ele>
        <time>2014-01-03T08:02:21.000Z</time>
      </trkpt>
      <trkpt lon="35.33924479968846" lat="31.556693902239203">
        <ele>239.60000610351562</ele>
        <time>2014-01-03T08:02:28.000Z</time>
      </trkpt>
      <trkpt lon="35.339228035882115" lat="31.556640341877937">
        <ele>238.60000610351562</ele>
        <time>2014-01-03T08:02:35.000Z</time>
      </trkpt>
      <trkpt lon="35.339132314547896" lat="31.55662047676742">
        <ele>238.60000610351562</ele>
        <time>2014-01-03T08:02:45.000Z</time>
      </trkpt>
      <trkpt lon="35.33904757350683" lat="31.556638916954398">
        <ele>238.0</ele>
        <time>2014-01-03T08:02:54.000Z</time>
      </trkpt>
      <trkpt lon="35.33896191045642" lat="31.556648639962077">
        <ele>236.60000610351562</ele>
        <time>2014-01-03T08:03:04.000Z</time>
      </trkpt>
      <trkpt lon="35.33893324434757" lat="31.556600611656904">
        <ele>237.60000610351562</ele>
        <time>2014-01-03T08:03:13.000Z</time>
      </trkpt>
      <trkpt lon="35.338937267661095" lat="31.556564485654235">
        <ele>238.0</ele>
        <time>2014-01-03T08:03:20.000Z</time>
      </trkpt>
      <trkpt lon="35.338901141658425" lat="31.556510170921683">
        <ele>239.0</ele>
        <time>2014-01-03T08:03:28.000Z</time>
      </trkpt>
      <trkpt lon="35.338863506913185" lat="31.556461891159415">
        <ele>239.60000610351562</ele>
        <time>2014-01-03T08:03:36.000Z</time>
      </trkpt>
      <trkpt lon="35.33882704563439" lat="31.55641176737845">
        <ele>241.0</ele>
        <time>2014-01-03T08:03:45.000Z</time>
      </trkpt>
      <trkpt lon="35.33880852162838" lat="31.556384777650237">
        <ele>242.39999389648438</ele>
        <time>2014-01-03T08:03:53.000Z</time>
      </trkpt>
      <trkpt lon="35.33876979723573" lat="31.55636290088296">
        <ele>243.39999389648438</ele>
        <time>2014-01-03T08:04:02.000Z</time>
      </trkpt>
      <trkpt lon="35.33871212974191" lat="31.556313782930374">
        <ele>244.39999389648438</ele>
        <time>2014-01-03T08:04:10.000Z</time>
      </trkpt>
      <trkpt lon="35.3387382812798" lat="31.556312441825867">
        <ele>246.8000030517578</ele>
        <time>2014-01-03T08:04:26.000Z</time>
      </trkpt>
      <trkpt lon="35.338723696768284" lat="31.556306993588805">
        <ele>249.1999969482422</ele>
        <time>2014-01-03T08:04:46.000Z</time>
      </trkpt>
      <trkpt lon="35.33872151747346" lat="31.55633356422186">
        <ele>251.0</ele>
        <time>2014-01-03T08:05:05.000Z</time>
      </trkpt>
      <trkpt lon="35.338715482503176" lat="31.556333983317018">
        <ele>251.0</ele>
        <time>2014-01-03T08:05:22.000Z</time>
      </trkpt>
      <trkpt lon="35.338739370927215" lat="31.556311435997486">
        <ele>250.0</ele>
        <time>2014-01-03T08:05:44.000Z</time>
      </trkpt>
      <trkpt lon="35.33872537314892" lat="31.556308334693313">
        <ele>249.1999969482422</ele>
        <time>2014-01-03T08:06:05.000Z</time>
      </trkpt>
      <trkpt lon="35.338703244924545" lat="31.556312693282962">
        <ele>251.60000610351562</ele>
        <time>2014-01-03T08:06:27.000Z</time>
      </trkpt>
      <trkpt lon="35.33872403204441" lat="31.556336414068937">
        <ele>253.0</ele>
        <time>2014-01-03T08:06:46.000Z</time>
      </trkpt>
      <trkpt lon="35.33874951303005" lat="31.556307496502995">
        <ele>250.60000610351562</ele>
        <time>2014-01-03T08:07:03.000Z</time>
      </trkpt>
      <trkpt lon="35.33874322660267" lat="31.556342113763094">
        <ele>249.1999969482422</ele>
        <time>2014-01-03T08:07:17.000Z</time>
      </trkpt>
      <trkpt lon="35.338746244087815" lat="31.556329457089305">
        <ele>249.60000610351562</ele>
        <time>2014-01-03T08:07:36.000Z</time>
      </trkpt>
      <trkpt lon="35.33874222077429" lat="31.556302634999156">
        <ele>251.60000610351562</ele>
        <time>2014-01-03T08:07:53.000Z</time>
      </trkpt>
      <trkpt lon="35.33863543532789" lat="31.556220157071948">
        <ele>251.0</ele>
        <time>2014-01-03T08:08:01.000Z</time>
      </trkpt>
      <trkpt lon="35.33843904733658" lat="31.556032318621874">
        <ele>250.0</ele>
        <time>2014-01-03T08:08:12.000Z</time>
      </trkpt>
      <trkpt lon="35.33831113949418" lat="31.55594657175243">
        <ele>249.60000610351562</ele>
        <time>2014-01-03T08:08:20.000Z</time>
      </trkpt>
      <trkpt lon="35.33818641677499" lat="31.555728977546096">
        <ele>250.60000610351562</ele>
        <time>2014-01-03T08:08:33.000Z</time>
      </trkpt>
      <trkpt lon="35.338134448975325" lat="31.555513981729746">
        <ele>250.0</ele>
        <time>2014-01-03T08:08:43.000Z</time>
      </trkpt>
      <trkpt lon="35.33803663216531" lat="31.555441729724407">
        <ele>250.60000610351562</ele>
        <time>2014-01-03T08:08:49.000Z</time>
      </trkpt>
      <trkpt lon="35.337906293570995" lat="31.55529672279954">
        <ele>252.0</ele>
        <time>2014-01-03T08:08:59.000Z</time>
      </trkpt>
      <trkpt lon="35.33785709179938" lat="31.555192368105054">
        <ele>252.39999389648438</ele>
        <time>2014-01-03T08:09:07.000Z</time>
      </trkpt>
      <trkpt lon="35.33780009485781" lat="31.55503294430673">
        <ele>254.0</ele>
        <time>2014-01-03T08:09:18.000Z</time>
      </trkpt>
      <trkpt lon="35.33774251118302" lat="31.55488634482026">
        <ele>254.8000030517578</ele>
        <time>2014-01-03T08:09:28.000Z</time>
      </trkpt>
      <trkpt lon="35.337744103744626" lat="31.55473144724965">
        <ele>255.39999389648438</ele>
        <time>2014-01-03T08:09:38.000Z</time>
      </trkpt>
      <trkpt lon="35.33769238740206" lat="31.554608568549156">
        <ele>255.8000030517578</ele>
        <time>2014-01-03T08:09:47.000Z</time>
      </trkpt>
      <trkpt lon="35.33763237297535" lat="31.554463310167193">
        <ele>256.3999938964844</ele>
        <time>2014-01-03T08:09:56.000Z</time>
      </trkpt>
      <trkpt lon="35.337582752108574" lat="31.554343616589904">
        <ele>256.79998779296875</ele>
        <time>2014-01-03T08:10:05.000Z</time>
      </trkpt>
      <trkpt lon="35.337529024109244" lat="31.554186958819628">
        <ele>258.20001220703125</ele>
        <time>2014-01-03T08:10:17.000Z</time>
      </trkpt>
      <trkpt lon="35.33749231137335" lat="31.554067181423306">
        <ele>258.79998779296875</ele>
        <time>2014-01-03T08:10:26.000Z</time>
      </trkpt>
      <trkpt lon="35.3374451212585" lat="31.55394514091313">
        <ele>259.6000061035156</ele>
        <time>2014-01-03T08:10:35.000Z</time>
      </trkpt>
      <trkpt lon="35.33743145875633" lat="31.553852688521147">
        <ele>260.20001220703125</ele>
        <time>2014-01-03T08:10:42.000Z</time>
      </trkpt>
      <trkpt lon="35.337403547018766" lat="31.553734419867396">
        <ele>260.6000061035156</ele>
        <time>2014-01-03T08:10:51.000Z</time>
      </trkpt>
      <trkpt lon="35.33739432692528" lat="31.55364473350346">
        <ele>261.6000061035156</ele>
        <time>2014-01-03T08:10:58.000Z</time>
      </trkpt>
      <trkpt lon="35.33739457838237" lat="31.55363291501999">
        <ele>261.6000061035156</ele>
        <time>2014-01-03T08:10:59.000Z</time>
      </trkpt>
      <trkpt lon="35.33739265054464" lat="31.55362227000296">
        <ele>261.6000061035156</ele>
        <time>2014-01-03T08:11:00.000Z</time>
      </trkpt>
      <trkpt lon="35.337394662201405" lat="31.55361045151949">
        <ele>261.6000061035156</ele>
        <time>2014-01-03T08:11:01.000Z</time>
      </trkpt>
      <trkpt lon="35.33739583566785" lat="31.553600057959557">
        <ele>262.20001220703125</ele>
        <time>2014-01-03T08:11:02.000Z</time>
      </trkpt>
      <trkpt lon="35.33740748651326" lat="31.55351120978594">
        <ele>263.6000061035156</ele>
        <time>2014-01-03T08:11:09.000Z</time>
      </trkpt>
      <trkpt lon="35.337404888123274" lat="31.553501319140196">
        <ele>263.6000061035156</ele>
        <time>2014-01-03T08:11:10.000Z</time>
      </trkpt>
      <trkpt lon="35.33740874379873" lat="31.55348975211382">
        <ele>263.6000061035156</ele>
        <time>2014-01-03T08:11:11.000Z</time>
      </trkpt>
      <trkpt lon="35.33741251565516" lat="31.5534751676023">
        <ele>263.6000061035156</ele>
        <time>2014-01-03T08:11:12.000Z</time>
      </trkpt>
      <trkpt lon="35.33741410821676" lat="31.55345949344337">
        <ele>264.0</ele>
        <time>2014-01-03T08:11:13.000Z</time>
      </trkpt>
      <trkpt lon="35.33741511404514" lat="31.5534458309412">
        <ele>264.6000061035156</ele>
        <time>2014-01-03T08:11:14.000Z</time>
      </trkpt>
      <trkpt lon="35.33741729333997" lat="31.553434180095792">
        <ele>265.0</ele>
        <time>2014-01-03T08:11:15.000Z</time>
      </trkpt>
      <trkpt lon="35.337427938356996" lat="31.553329741582274">
        <ele>266.3999938964844</ele>
        <time>2014-01-03T08:11:24.000Z</time>
      </trkpt>
      <trkpt lon="35.33744419924915" lat="31.553262937813997">
        <ele>267.3999938964844</ele>
        <time>2014-01-03T08:11:31.000Z</time>
      </trkpt>
      <trkpt lon="35.337448390200734" lat="31.553241396322846">
        <ele>267.3999938964844</ele>
        <time>2014-01-03T08:11:33.000Z</time>
      </trkpt>
      <trkpt lon="35.33745350316167" lat="31.55323083512485">
        <ele>267.3999938964844</ele>
        <time>2014-01-03T08:11:34.000Z</time>
      </trkpt>
      <trkpt lon="35.337459202855825" lat="31.553223710507154">
        <ele>267.3999938964844</ele>
        <time>2014-01-03T08:11:35.000Z</time>
      </trkpt>
      <trkpt lon="35.3374604601413" lat="31.553212981671095">
        <ele>267.79998779296875</ele>
        <time>2014-01-03T08:11:36.000Z</time>
      </trkpt>
      <trkpt lon="35.33745995722711" lat="31.553201666101813">
        <ele>267.79998779296875</ele>
        <time>2014-01-03T08:11:37.000Z</time>
      </trkpt>
      <trkpt lon="35.33747370354831" lat="31.55312237329781">
        <ele>268.79998779296875</ele>
        <time>2014-01-03T08:11:45.000Z</time>
      </trkpt>
      <trkpt lon="35.33747018314898" lat="31.553114242851734">
        <ele>268.79998779296875</ele>
        <time>2014-01-03T08:11:46.000Z</time>
      </trkpt>
      <trkpt lon="35.337473368272185" lat="31.553103597834706">
        <ele>269.3999938964844</ele>
        <time>2014-01-03T08:11:47.000Z</time>
      </trkpt>
      <trkpt lon="35.33747839741409" lat="31.55309404246509">
        <ele>269.3999938964844</ele>
        <time>2014-01-03T08:11:48.000Z</time>
      </trkpt>
      <trkpt lon="35.33749314956367" lat="31.55300703831017">
        <ele>270.79998779296875</ele>
        <time>2014-01-03T08:11:57.000Z</time>
      </trkpt>
      <trkpt lon="35.33747278153896" lat="31.55292447656393">
        <ele>272.20001220703125</ele>
        <time>2014-01-03T08:12:06.000Z</time>
      </trkpt>
      <trkpt lon="35.33747127279639" lat="31.552914921194315">
        <ele>272.20001220703125</ele>
        <time>2014-01-03T08:12:07.000Z</time>
      </trkpt>
      <trkpt lon="35.33743632026017" lat="31.552809309214354">
        <ele>273.20001220703125</ele>
        <time>2014-01-03T08:12:17.000Z</time>
      </trkpt>
      <trkpt lon="35.33735677599907" lat="31.552723981440067">
        <ele>274.20001220703125</ele>
        <time>2014-01-03T08:12:26.000Z</time>
      </trkpt>
      <trkpt lon="35.33725845627487" lat="31.552686598151922">
        <ele>274.6000061035156</ele>
        <time>2014-01-03T08:12:36.000Z</time>
      </trkpt>
      <trkpt lon="35.33725912682712" lat="31.552686849609017">
        <ele>272.6000061035156</ele>
        <time>2014-01-03T08:12:59.000Z</time>
      </trkpt>
      <trkpt lon="35.33726206049323" lat="31.55270596034825">
        <ele>273.6000061035156</ele>
        <time>2014-01-03T08:13:28.000Z</time>
      </trkpt>
      <trkpt lon="35.33725225366652" lat="31.55269481241703">
        <ele>274.6000061035156</ele>
        <time>2014-01-03T08:13:50.000Z</time>
      </trkpt>
      <trkpt lon="35.33726155757904" lat="31.55270746909082">
        <ele>274.6000061035156</ele>
        <time>2014-01-03T08:14:11.000Z</time>
      </trkpt>
      <trkpt lon="35.33726742491126" lat="31.55271735973656">
        <ele>275.0</ele>
        <time>2014-01-03T08:14:35.000Z</time>
      </trkpt>
      <trkpt lon="35.337252924218774" lat="31.552700260654092">
        <ele>275.0</ele>
        <time>2014-01-03T08:14:52.000Z</time>
      </trkpt>
      <trkpt lon="35.337264658883214" lat="31.55271442607045">
        <ele>275.0</ele>
        <time>2014-01-03T08:15:11.000Z</time>
      </trkpt>
      <trkpt lon="35.33725845627487" lat="31.55270989984274">
        <ele>275.0</ele>
        <time>2014-01-03T08:15:28.000Z</time>
      </trkpt>
      <trkpt lon="35.33723666332662" lat="31.552711240947247">
        <ele>275.0</ele>
        <time>2014-01-03T08:15:35.000Z</time>
      </trkpt>
      <trkpt lon="35.33721948042512" lat="31.552717108279467">
        <ele>275.6000061035156</ele>
        <time>2014-01-03T08:15:36.000Z</time>
      </trkpt>
      <trkpt lon="35.337196849286556" lat="31.552715180441737">
        <ele>275.6000061035156</ele>
        <time>2014-01-03T08:15:37.000Z</time>
      </trkpt>
      <trkpt lon="35.33717656508088" lat="31.55271685682237">
        <ele>275.6000061035156</ele>
        <time>2014-01-03T08:15:38.000Z</time>
      </trkpt>
      <trkpt lon="35.33715954981744" lat="31.552717611193657">
        <ele>275.6000061035156</ele>
        <time>2014-01-03T08:15:39.000Z</time>
      </trkpt>
      <trkpt lon="35.33714320510626" lat="31.552714928984642">
        <ele>275.6000061035156</ele>
        <time>2014-01-03T08:15:40.000Z</time>
      </trkpt>
      <trkpt lon="35.33700414933264" lat="31.552700428292155">
        <ele>276.0</ele>
        <time>2014-01-03T08:15:48.000Z</time>
      </trkpt>
      <trkpt lon="35.3368060849607" lat="31.552708139643073">
        <ele>275.6000061035156</ele>
        <time>2014-01-03T08:15:57.000Z</time>
      </trkpt>
      <trkpt lon="35.33661556430161" lat="31.552750635892153">
        <ele>275.6000061035156</ele>
        <time>2014-01-03T08:16:04.000Z</time>
      </trkpt>
      <trkpt lon="35.33659452572465" lat="31.552754240110517">
        <ele>275.6000061035156</ele>
        <time>2014-01-03T08:16:05.000Z</time>
      </trkpt>
      <trkpt lon="35.33657155930996" lat="31.55275390483439">
        <ele>275.6000061035156</ele>
        <time>2014-01-03T08:16:06.000Z</time>
      </trkpt>
      <trkpt lon="35.336302584037185" lat="31.5527758654207">
        <ele>275.0</ele>
        <time>2014-01-03T08:16:15.000Z</time>
      </trkpt>
      <trkpt lon="35.3361308388412" lat="31.55275926925242">
        <ele>273.6000061035156</ele>
        <time>2014-01-03T08:16:19.000Z</time>
      </trkpt>
      <trkpt lon="35.33608105033636" lat="31.552759688347578">
        <ele>273.6000061035156</ele>
        <time>2014-01-03T08:16:20.000Z</time>
      </trkpt>
      <trkpt lon="35.336025981232524" lat="31.55276563949883">
        <ele>273.20001220703125</ele>
        <time>2014-01-03T08:16:21.000Z</time>
      </trkpt>
      <trkpt lon="35.335794892162085" lat="31.552811237052083">
        <ele>272.20001220703125</ele>
        <time>2014-01-03T08:16:25.000Z</time>
      </trkpt>
      <trkpt lon="35.33573957160115" lat="31.552813835442066">
        <ele>272.20001220703125</ele>
        <time>2014-01-03T08:16:26.000Z</time>
      </trkpt>
      <trkpt lon="35.33568676561117" lat="31.55281165614724">
        <ele>271.79998779296875</ele>
        <time>2014-01-03T08:16:27.000Z</time>
      </trkpt>
      <trkpt lon="35.335638569667935" lat="31.552801094949245">
        <ele>271.20001220703125</ele>
        <time>2014-01-03T08:16:28.000Z</time>
      </trkpt>
      <trkpt lon="35.33559716306627" lat="31.552782068029046">
        <ele>271.20001220703125</ele>
        <time>2014-01-03T08:16:29.000Z</time>
      </trkpt>
      <trkpt lon="35.335568245500326" lat="31.552756000310183">
        <ele>271.20001220703125</ele>
        <time>2014-01-03T08:16:30.000Z</time>
      </trkpt>
      <trkpt lon="35.33555240370333" lat="31.55272758565843">
        <ele>270.79998779296875</ele>
        <time>2014-01-03T08:16:31.000Z</time>
      </trkpt>
      <trkpt lon="35.33556170761585" lat="31.55265038833022">
        <ele>271.20001220703125</ele>
        <time>2014-01-03T08:16:36.000Z</time>
      </trkpt>
      <trkpt lon="35.335580399259925" lat="31.552653405815363">
        <ele>270.79998779296875</ele>
        <time>2014-01-03T08:16:52.000Z</time>
      </trkpt>
      <trkpt lon="35.335584757849574" lat="31.552655333653092">
        <ele>270.79998779296875</ele>
        <time>2014-01-03T08:17:15.000Z</time>
      </trkpt>
      <trkpt lon="35.335579980164766" lat="31.552652064710855">
        <ele>271.20001220703125</ele>
        <time>2014-01-03T08:17:37.000Z</time>
      </trkpt>
      <trkpt lon="35.33558408729732" lat="31.552642341703176">
        <ele>271.79998779296875</ele>
        <time>2014-01-03T08:17:49.000Z</time>
      </trkpt>
      <trkpt lon="35.335583835840225" lat="31.552640832960606">
        <ele>272.20001220703125</ele>
        <time>2014-01-03T08:18:03.000Z</time>
      </trkpt>
      <trkpt lon="35.33558978699148" lat="31.552635803818703">
        <ele>272.6000061035156</ele>
        <time>2014-01-03T08:18:25.000Z</time>
      </trkpt>
      <trkpt lon="35.335599007084966" lat="31.552647789940238">
        <ele>271.79998779296875</ele>
        <time>2014-01-03T08:18:45.000Z</time>
      </trkpt>
      <trkpt lon="35.335601940751076" lat="31.552632870152593">
        <ele>271.79998779296875</ele>
        <time>2014-01-03T08:19:02.000Z</time>
      </trkpt>
      <trkpt lon="35.335584338754416" lat="31.55249976553023">
        <ele>272.20001220703125</ele>
        <time>2014-01-03T08:19:11.000Z</time>
      </trkpt>
      <trkpt lon="35.335579980164766" lat="31.55232349410653">
        <ele>272.20001220703125</ele>
        <time>2014-01-03T08:19:20.000Z</time>
      </trkpt>
      <trkpt lon="35.33564502373338" lat="31.55214219354093">
        <ele>272.20001220703125</ele>
        <time>2014-01-03T08:19:27.000Z</time>
      </trkpt>
      <trkpt lon="35.33576781861484" lat="31.551977656781673">
        <ele>272.20001220703125</ele>
        <time>2014-01-03T08:19:34.000Z</time>
      </trkpt>
      <trkpt lon="35.33583923242986" lat="31.5517570450902">
        <ele>271.20001220703125</ele>
        <time>2014-01-03T08:19:40.000Z</time>
      </trkpt>
      <trkpt lon="35.33586119301617" lat="31.55157582834363">
        <ele>269.79998779296875</ele>
        <time>2014-01-03T08:19:43.000Z</time>
      </trkpt>
      <trkpt lon="35.335813164711" lat="31.55126988887787">
        <ele>268.79998779296875</ele>
        <time>2014-01-03T08:19:48.000Z</time>
      </trkpt>
      <trkpt lon="35.33575700595975" lat="31.550873341038823">
        <ele>268.3999938964844</ele>
        <time>2014-01-03T08:19:56.000Z</time>
      </trkpt>
      <trkpt lon="35.33574091270566" lat="31.55077594332397">
        <ele>268.3999938964844</ele>
        <time>2014-01-03T08:19:59.000Z</time>
      </trkpt>
      <trkpt lon="35.33560470677912" lat="31.550617525354028">
        <ele>268.3999938964844</ele>
        <time>2014-01-03T08:20:08.000Z</time>
      </trkpt>
      <trkpt lon="35.33548241481185" lat="31.550432620570064">
        <ele>269.3999938964844</ele>
        <time>2014-01-03T08:20:18.000Z</time>
      </trkpt>
      <trkpt lon="35.33536422997713" lat="31.55025266110897">
        <ele>270.20001220703125</ele>
        <time>2014-01-03T08:20:27.000Z</time>
      </trkpt>
      <trkpt lon="35.33527479507029" lat="31.550085609778762">
        <ele>270.79998779296875</ele>
        <time>2014-01-03T08:20:35.000Z</time>
      </trkpt>
      <trkpt lon="35.335162561386824" lat="31.549940099939704">
        <ele>271.20001220703125</ele>
        <time>2014-01-03T08:20:43.000Z</time>
      </trkpt>
      <trkpt lon="35.33508511260152" lat="31.549827782437205">
        <ele>271.79998779296875</ele>
        <time>2014-01-03T08:20:51.000Z</time>
      </trkpt>
      <trkpt lon="35.33500783145428" lat="31.549716722220182">
        <ele>271.20001220703125</ele>
        <time>2014-01-03T08:20:57.000Z</time>
      </trkpt>
      <trkpt lon="35.335020404309034" lat="31.54964824207127">
        <ele>270.20001220703125</ele>
        <time>2014-01-03T08:21:02.000Z</time>
      </trkpt>
      <trkpt lon="35.33499676734209" lat="31.549618570134044">
        <ele>271.20001220703125</ele>
        <time>2014-01-03T08:21:08.000Z</time>
      </trkpt>
      <trkpt lon="35.33495904877782" lat="31.54956358484924">
        <ele>271.20001220703125</ele>
        <time>2014-01-03T08:21:14.000Z</time>
      </trkpt>
      <trkpt lon="35.334903644397855" lat="31.549463756382465">
        <ele>271.79998779296875</ele>
        <time>2014-01-03T08:21:22.000Z</time>
      </trkpt>
      <trkpt lon="35.33489945344627" lat="31.549432827159762">
        <ele>271.20001220703125</ele>
        <time>2014-01-03T08:21:28.000Z</time>
      </trkpt>
      <trkpt lon="35.33489350229502" lat="31.549376836046576">
        <ele>270.79998779296875</ele>
        <time>2014-01-03T08:21:37.000Z</time>
      </trkpt>
      <trkpt lon="35.3348841983825" lat="31.54932671226561">
        <ele>270.20001220703125</ele>
        <time>2014-01-03T08:21:44.000Z</time>
      </trkpt>
      <trkpt lon="35.33489459194243" lat="31.54931548051536">
        <ele>269.3999938964844</ele>
        <time>2014-01-03T08:21:55.000Z</time>
      </trkpt>
      <trkpt lon="35.33493222668767" lat="31.54929779469967">
        <ele>267.3999938964844</ele>
        <time>2014-01-03T08:22:05.000Z</time>
      </trkpt>
      <trkpt lon="35.33490791916847" lat="31.549290921539068">
        <ele>266.79998779296875</ele>
        <time>2014-01-03T08:22:14.000Z</time>
      </trkpt>
      <trkpt lon="35.33492744900286" lat="31.54928656294942">
        <ele>268.79998779296875</ele>
        <time>2014-01-03T08:22:29.000Z</time>
      </trkpt>
      <trkpt lon="35.33495569601655" lat="31.549211209639907">
        <ele>268.3999938964844</ele>
        <time>2014-01-03T08:22:40.000Z</time>
      </trkpt>
      <trkpt lon="35.33499852754176" lat="31.549136694520712">
        <ele>268.79998779296875</ele>
        <time>2014-01-03T08:22:51.000Z</time>
      </trkpt>
      <trkpt lon="35.33497606404126" lat="31.549088917672634">
        <ele>268.79998779296875</ele>
        <time>2014-01-03T08:22:58.000Z</time>
      </trkpt>
      <trkpt lon="35.334993079304695" lat="31.549047427251935">
        <ele>268.79998779296875</ele>
        <time>2014-01-03T08:23:05.000Z</time>
      </trkpt>
      <trkpt lon="35.33498645760119" lat="31.549026472494006">
        <ele>268.79998779296875</ele>
        <time>2014-01-03T08:23:12.000Z</time>
      </trkpt>
      <trkpt lon="35.33492526970804" lat="31.54890652745962">
        <ele>269.79998779296875</ele>
        <time>2014-01-03T08:23:20.000Z</time>
      </trkpt>
      <trkpt lon="35.33481638878584" lat="31.548763113096356">
        <ele>270.20001220703125</ele>
        <time>2014-01-03T08:23:26.000Z</time>
      </trkpt>
      <trkpt lon="35.33471723087132" lat="31.54861475341022">
        <ele>270.20001220703125</ele>
        <time>2014-01-03T08:23:34.000Z</time>
      </trkpt>
      <trkpt lon="35.334708681330085" lat="31.548560354858637">
        <ele>270.20001220703125</ele>
        <time>2014-01-03T08:23:37.000Z</time>
      </trkpt>
      <trkpt lon="35.33460524864495" lat="31.548414509743452">
        <ele>270.79998779296875</ele>
        <time>2014-01-03T08:23:44.000Z</time>
      </trkpt>
      <trkpt lon="35.33449796028435" lat="31.548280231654644">
        <ele>270.79998779296875</ele>
        <time>2014-01-03T08:23:51.000Z</time>
      </trkpt>
      <trkpt lon="35.334363263100386" lat="31.548106893897057">
        <ele>271.79998779296875</ele>
        <time>2014-01-03T08:23:59.000Z</time>
      </trkpt>
      <trkpt lon="35.33432688564062" lat="31.547945458441973">
        <ele>271.20001220703125</ele>
        <time>2014-01-03T08:24:06.000Z</time>
      </trkpt>
      <trkpt lon="35.334338787943125" lat="31.54789793305099">
        <ele>270.79998779296875</ele>
        <time>2014-01-03T08:24:11.000Z</time>
      </trkpt>
      <trkpt lon="35.33435354009271" lat="31.547855269163847">
        <ele>271.79998779296875</ele>
        <time>2014-01-03T08:24:17.000Z</time>
      </trkpt>
      <trkpt lon="35.33435370773077" lat="31.54777622781694">
        <ele>272.6000061035156</ele>
        <time>2014-01-03T08:24:25.000Z</time>
      </trkpt>
      <trkpt lon="35.334363682195544" lat="31.54775527305901">
        <ele>272.20001220703125</ele>
        <time>2014-01-03T08:24:32.000Z</time>
      </trkpt>
      <trkpt lon="35.334377847611904" lat="31.547692073509097">
        <ele>272.20001220703125</ele>
        <time>2014-01-03T08:24:38.000Z</time>
      </trkpt>
      <trkpt lon="35.334449177607894" lat="31.547455871477723">
        <ele>272.20001220703125</ele>
        <time>2014-01-03T08:24:48.000Z</time>
      </trkpt>
      <trkpt lon="35.33453140407801" lat="31.547250179573894">
        <ele>273.20001220703125</ele>
        <time>2014-01-03T08:24:57.000Z</time>
      </trkpt>
      <trkpt lon="35.334635423496366" lat="31.54707063920796">
        <ele>273.6000061035156</ele>
        <time>2014-01-03T08:25:05.000Z</time>
      </trkpt>
      <trkpt lon="35.3347906563431" lat="31.546872071921825">
        <ele>274.20001220703125</ele>
        <time>2014-01-03T08:25:15.000Z</time>
      </trkpt>
      <trkpt lon="35.334871876984835" lat="31.546693118289113">
        <ele>275.0</ele>
        <time>2014-01-03T08:25:24.000Z</time>
      </trkpt>
      <trkpt lon="35.33495552837849" lat="31.546431770548224">
        <ele>275.6000061035156</ele>
        <time>2014-01-03T08:25:35.000Z</time>
      </trkpt>
      <trkpt lon="35.335089303553104" lat="31.54623806476593">
        <ele>276.0</ele>
        <time>2014-01-03T08:25:44.000Z</time>
      </trkpt>
      <trkpt lon="35.33509190194309" lat="31.546062799170613">
        <ele>276.6000061035156</ele>
        <time>2014-01-03T08:25:53.000Z</time>
      </trkpt>
      <trkpt lon="35.33517697826028" lat="31.54597671702504">
        <ele>276.6000061035156</ele>
        <time>2014-01-03T08:26:00.000Z</time>
      </trkpt>
      <trkpt lon="35.33534947782755" lat="31.5458856895566">
        <ele>278.3999938964844</ele>
        <time>2014-01-03T08:26:08.000Z</time>
      </trkpt>
      <trkpt lon="35.33544762991369" lat="31.545802541077137">
        <ele>279.0</ele>
        <time>2014-01-03T08:26:14.000Z</time>
      </trkpt>
      <trkpt lon="35.335513930767775" lat="31.545683350414038">
        <ele>280.3999938964844</ele>
        <time>2014-01-03T08:26:21.000Z</time>
      </trkpt>
      <trkpt lon="35.33552264794707" lat="31.54551286250353">
        <ele>280.79998779296875</ele>
        <time>2014-01-03T08:26:30.000Z</time>
      </trkpt>
      <trkpt lon="35.33550839871168" lat="31.545439772307873">
        <ele>280.3999938964844</ele>
        <time>2014-01-03T08:26:37.000Z</time>
      </trkpt>
      <trkpt lon="35.33552449196577" lat="31.54542149975896">
        <ele>280.3999938964844</ele>
        <time>2014-01-03T08:26:44.000Z</time>
      </trkpt>
      <trkpt lon="35.335514517501" lat="31.545409513637424">
        <ele>282.20001220703125</ele>
        <time>2014-01-03T08:26:59.000Z</time>
      </trkpt>
      <trkpt lon="35.33551627770066" lat="31.54540490359068">
        <ele>284.6000061035156</ele>
        <time>2014-01-03T08:27:14.000Z</time>
      </trkpt>
      <trkpt lon="35.335502782836556" lat="31.545407082885504">
        <ele>286.6000061035156</ele>
        <time>2014-01-03T08:27:27.000Z</time>
      </trkpt>
      <trkpt lon="35.33550538122654" lat="31.5454142075032">
        <ele>287.0</ele>
        <time>2014-01-03T08:27:48.000Z</time>
      </trkpt>
      <trkpt lon="35.33550085499883" lat="31.54541035182774">
        <ele>283.20001220703125</ele>
        <time>2014-01-03T08:28:09.000Z</time>
      </trkpt>
      <trkpt lon="35.335536897182465" lat="31.54539216309786">
        <ele>285.20001220703125</ele>
        <time>2014-01-03T08:28:26.000Z</time>
      </trkpt>
      <trkpt lon="35.335536394268274" lat="31.545394090935588">
        <ele>284.20001220703125</ele>
        <time>2014-01-03T08:28:49.000Z</time>
      </trkpt>
      <trkpt lon="35.335519379004836" lat="31.545384200289845">
        <ele>287.6000061035156</ele>
        <time>2014-01-03T08:29:04.000Z</time>
      </trkpt>
      <trkpt lon="35.335495406761765" lat="31.545359389856458">
        <ele>289.0</ele>
        <time>2014-01-03T08:29:21.000Z</time>
      </trkpt>
      <trkpt lon="35.33549557439983" lat="31.545358635485172">
        <ele>285.20001220703125</ele>
        <time>2014-01-03T08:29:39.000Z</time>
      </trkpt>
      <trkpt lon="35.33556170761585" lat="31.545392079278827">
        <ele>284.20001220703125</ele>
        <time>2014-01-03T08:29:49.000Z</time>
      </trkpt>
      <trkpt lon="35.33559766598046" lat="31.54538495466113">
        <ele>284.20001220703125</ele>
        <time>2014-01-03T08:29:57.000Z</time>
      </trkpt>
      <trkpt lon="35.33560604788363" lat="31.54537464492023">
        <ele>283.20001220703125</ele>
        <time>2014-01-03T08:30:09.000Z</time>
      </trkpt>
      <trkpt lon="35.33561727963388" lat="31.545370453968644">
        <ele>284.20001220703125</ele>
        <time>2014-01-03T08:30:23.000Z</time>
      </trkpt>
      <trkpt lon="35.33561183139682" lat="31.54537129215896">
        <ele>282.79998779296875</ele>
        <time>2014-01-03T08:30:37.000Z</time>
      </trkpt>
      <trkpt lon="35.33561862073839" lat="31.545366095378995">
        <ele>283.79998779296875</ele>
        <time>2014-01-03T08:30:49.000Z</time>
      </trkpt>
      <trkpt lon="35.335623398423195" lat="31.54536827467382">
        <ele>285.20001220703125</ele>
        <time>2014-01-03T08:31:02.000Z</time>
      </trkpt>
      <trkpt lon="35.335636055096984" lat="31.54536098241806">
        <ele>284.6000061035156</ele>
        <time>2014-01-03T08:31:18.000Z</time>
      </trkpt>
      <trkpt lon="35.33564284443855" lat="31.545359389856458">
        <ele>284.20001220703125</ele>
        <time>2014-01-03T08:31:28.000Z</time>
      </trkpt>
      <trkpt lon="35.3356316126883" lat="31.54536542482674">
        <ele>282.79998779296875</ele>
        <time>2014-01-03T08:31:42.000Z</time>
      </trkpt>
      <trkpt lon="35.335645861923695" lat="31.54536626301706">
        <ele>281.3999938964844</ele>
        <time>2014-01-03T08:31:52.000Z</time>
      </trkpt>
      <trkpt lon="35.335645359009504" lat="31.545363245531917">
        <ele>279.79998779296875</ele>
        <time>2014-01-03T08:32:03.000Z</time>
      </trkpt>
      <trkpt lon="35.33565726131201" lat="31.545358132570982">
        <ele>279.79998779296875</ele>
        <time>2014-01-03T08:32:10.000Z</time>
      </trkpt>
      <trkpt lon="35.335662458091974" lat="31.545348493382335">
        <ele>279.79998779296875</ele>
        <time>2014-01-03T08:32:23.000Z</time>
      </trkpt>
      <trkpt lon="35.335597498342395" lat="31.54536441899836">
        <ele>280.3999938964844</ele>
        <time>2014-01-03T08:32:37.000Z</time>
      </trkpt>
      <trkpt lon="35.33557419665158" lat="31.54536341316998">
        <ele>280.79998779296875</ele>
        <time>2014-01-03T08:32:55.000Z</time>
      </trkpt>
      <trkpt lon="35.33555198460817" lat="31.54540448449552">
        <ele>281.3999938964844</ele>
        <time>2014-01-03T08:33:18.000Z</time>
      </trkpt>
      <trkpt lon="35.33556640148163" lat="31.545381685718894">
        <ele>282.79998779296875</ele>
        <time>2014-01-03T08:33:41.000Z</time>
      </trkpt>
      <trkpt lon="35.33555902540684" lat="31.54537900350988">
        <ele>282.79998779296875</ele>
        <time>2014-01-03T08:33:58.000Z</time>
      </trkpt>
      <trkpt lon="35.335498256608844" lat="31.5454038977623">
        <ele>283.79998779296875</ele>
        <time>2014-01-03T08:34:10.000Z</time>
      </trkpt>
      <trkpt lon="35.33543220721185" lat="31.545406999066472">
        <ele>282.79998779296875</ele>
        <time>2014-01-03T08:34:20.000Z</time>
      </trkpt>
      <trkpt lon="35.33536087721586" lat="31.545424852520227">
        <ele>282.79998779296875</ele>
        <time>2014-01-03T08:34:30.000Z</time>
      </trkpt>
      <trkpt lon="35.33529222942889" lat="31.545452177524567">
        <ele>283.79998779296875</ele>
        <time>2014-01-03T08:34:39.000Z</time>
      </trkpt>
      <trkpt lon="35.33527865074575" lat="31.545478077605367">
        <ele>283.79998779296875</ele>
        <time>2014-01-03T08:34:47.000Z</time>
      </trkpt>
      <trkpt lon="35.335226682946086" lat="31.545497607439756">
        <ele>283.79998779296875</ele>
        <time>2014-01-03T08:34:56.000Z</time>
      </trkpt>
      <trkpt lon="35.335149904713035" lat="31.545512191951275">
        <ele>283.79998779296875</ele>
        <time>2014-01-03T08:35:06.000Z</time>
      </trkpt>
      <trkpt lon="35.33507052809" lat="31.54554278589785">
        <ele>284.20001220703125</ele>
        <time>2014-01-03T08:35:16.000Z</time>
      </trkpt>
      <trkpt lon="35.33503289334476" lat="31.545541947707534">
        <ele>286.20001220703125</ele>
        <time>2014-01-03T08:35:23.000Z</time>
      </trkpt>
      <trkpt lon="35.33489216119051" lat="31.545535158365965">
        <ele>287.6000061035156</ele>
        <time>2014-01-03T08:35:32.000Z</time>
      </trkpt>
      <trkpt lon="35.33477389253676" lat="31.545485034585">
        <ele>289.3999938964844</ele>
        <time>2014-01-03T08:35:40.000Z</time>
      </trkpt>
      <trkpt lon="35.334641709923744" lat="31.545395012944937">
        <ele>292.3999938964844</ele>
        <time>2014-01-03T08:35:49.000Z</time>
      </trkpt>
      <trkpt lon="35.334520088508725" lat="31.54526718892157">
        <ele>293.79998779296875</ele>
        <time>2014-01-03T08:35:59.000Z</time>
      </trkpt>
      <trkpt lon="35.33439410850406" lat="31.545141208916903">
        <ele>295.20001220703125</ele>
        <time>2014-01-03T08:36:08.000Z</time>
      </trkpt>
      <trkpt lon="35.33426142297685" lat="31.544963931664824">
        <ele>296.20001220703125</ele>
        <time>2014-01-03T08:36:18.000Z</time>
      </trkpt>
      <trkpt lon="35.334077356383204" lat="31.544820936396718">
        <ele>297.20001220703125</ele>
        <time>2014-01-03T08:36:28.000Z</time>
      </trkpt>
      <trkpt lon="35.33393695950508" lat="31.544732842594385">
        <ele>297.20001220703125</ele>
        <time>2014-01-03T08:36:35.000Z</time>
      </trkpt>
      <trkpt lon="35.33385490067303" lat="31.544675678014755">
        <ele>296.20001220703125</ele>
        <time>2014-01-03T08:36:40.000Z</time>
      </trkpt>
      <trkpt lon="35.33371031284332" lat="31.544602504000068">
        <ele>295.79998779296875</ele>
        <time>2014-01-03T08:36:48.000Z</time>
      </trkpt>
      <trkpt lon="35.33369128592312" lat="31.544594708830118">
        <ele>295.79998779296875</ele>
        <time>2014-01-03T08:36:49.000Z</time>
      </trkpt>
      <trkpt lon="35.33356245607138" lat="31.54447945766151">
        <ele>296.20001220703125</ele>
        <time>2014-01-03T08:36:58.000Z</time>
      </trkpt>
      <trkpt lon="35.33353102393448" lat="31.5444540604949">
        <ele>296.79998779296875</ele>
        <time>2014-01-03T08:37:00.000Z</time>
      </trkpt>
      <trkpt lon="35.333401188254356" lat="31.544344928115606">
        <ele>296.79998779296875</ele>
        <time>2014-01-03T08:37:09.000Z</time>
      </trkpt>
      <trkpt lon="35.33339741639793" lat="31.54433771967888">
        <ele>296.79998779296875</ele>
        <time>2014-01-03T08:37:14.000Z</time>
      </trkpt>
      <trkpt lon="35.333400182425976" lat="31.544335624203086">
        <ele>297.6000061035156</ele>
        <time>2014-01-03T08:37:31.000Z</time>
      </trkpt>
      <trkpt lon="35.33338878303766" lat="31.54433436691761">
        <ele>299.20001220703125</ele>
        <time>2014-01-03T08:37:48.000Z</time>
      </trkpt>
      <trkpt lon="35.333376210182905" lat="31.54432891868055">
        <ele>299.6000061035156</ele>
        <time>2014-01-03T08:37:59.000Z</time>
      </trkpt>
      <trkpt lon="35.33337612636387" lat="31.544321877881885">
        <ele>300.0</ele>
        <time>2014-01-03T08:38:13.000Z</time>
      </trkpt>
      <trkpt lon="35.333385011181235" lat="31.544328331947327">
        <ele>299.20001220703125</ele>
        <time>2014-01-03T08:38:25.000Z</time>
      </trkpt>
      <trkpt lon="35.33337453380227" lat="31.544327912852168">
        <ele>300.6000061035156</ele>
        <time>2014-01-03T08:38:45.000Z</time>
      </trkpt>
      <trkpt lon="35.333358105272055" lat="31.544334534555674">
        <ele>301.0</ele>
        <time>2014-01-03T08:39:02.000Z</time>
      </trkpt>
      <trkpt lon="35.33335978165269" lat="31.544325398281217">
        <ele>300.6000061035156</ele>
        <time>2014-01-03T08:39:14.000Z</time>
      </trkpt>
      <trkpt lon="35.33334234729409" lat="31.54430989176035">
        <ele>300.6000061035156</ele>
        <time>2014-01-03T08:39:29.000Z</time>
      </trkpt>
      <trkpt lon="35.33329959958792" lat="31.5442796330899">
        <ele>300.6000061035156</ele>
        <time>2014-01-03T08:39:33.000Z</time>
      </trkpt>
      <trkpt lon="35.33312425017357" lat="31.54414518736303">
        <ele>299.20001220703125</ele>
        <time>2014-01-03T08:39:42.000Z</time>
      </trkpt>
      <trkpt lon="35.332927191630006" lat="31.544010238721967">
        <ele>297.6000061035156</ele>
        <time>2014-01-03T08:39:50.000Z</time>
      </trkpt>
      <trkpt lon="35.332735162228346" lat="31.543888868764043">
        <ele>296.79998779296875</ele>
        <time>2014-01-03T08:39:58.000Z</time>
      </trkpt>
      <trkpt lon="35.33252812922001" lat="31.543787363916636">
        <ele>296.79998779296875</ele>
        <time>2014-01-03T08:40:05.000Z</time>
      </trkpt>
      <trkpt lon="35.3322141431272" lat="31.543663311749697">
        <ele>296.79998779296875</ele>
        <time>2014-01-03T08:40:14.000Z</time>
      </trkpt>
      <trkpt lon="35.33190074376762" lat="31.543562225997448">
        <ele>297.6000061035156</ele>
        <time>2014-01-03T08:40:24.000Z</time>
      </trkpt>
      <trkpt lon="35.33176889643073" lat="31.543511180207133">
        <ele>297.6000061035156</ele>
        <time>2014-01-03T08:40:29.000Z</time>
      </trkpt>
      <trkpt lon="35.33158516511321" lat="31.543492572382092">
        <ele>295.20001220703125</ele>
        <time>2014-01-03T08:40:34.000Z</time>
      </trkpt>
      <trkpt lon="35.331317614763975" lat="31.54347136616707">
        <ele>291.79998779296875</ele>
        <time>2014-01-03T08:40:40.000Z</time>
      </trkpt>
      <trkpt lon="35.331069426611066" lat="31.543529955670238">
        <ele>287.6000061035156</ele>
        <time>2014-01-03T08:40:50.000Z</time>
      </trkpt>
      <trkpt lon="35.33091377466917" lat="31.543528027832508">
        <ele>287.0</ele>
        <time>2014-01-03T08:40:56.000Z</time>
      </trkpt>
      <trkpt lon="35.330753177404404" lat="31.543541941791773">
        <ele>284.20001220703125</ele>
        <time>2014-01-03T08:41:03.000Z</time>
      </trkpt>
      <trkpt lon="35.330570032820106" lat="31.54357949271798">
        <ele>283.20001220703125</ele>
        <time>2014-01-03T08:41:11.000Z</time>
      </trkpt>
      <trkpt lon="35.33039191737771" lat="31.543606566265225">
        <ele>284.20001220703125</ele>
        <time>2014-01-03T08:41:18.000Z</time>
      </trkpt>
      <trkpt lon="35.330187398940325" lat="31.54363959096372">
        <ele>283.79998779296875</ele>
        <time>2014-01-03T08:41:26.000Z</time>
      </trkpt>
      <trkpt lon="35.32997349277139" lat="31.54368342831731">
        <ele>284.20001220703125</ele>
        <time>2014-01-03T08:41:34.000Z</time>
      </trkpt>
      <trkpt lon="35.32972731627524" lat="31.54371963813901">
        <ele>285.20001220703125</ele>
        <time>2014-01-03T08:41:42.000Z</time>
      </trkpt>
      <trkpt lon="35.32947435043752" lat="31.54375333338976">
        <ele>284.6000061035156</ele>
        <time>2014-01-03T08:41:50.000Z</time>
      </trkpt>
      <trkpt lon="35.32921903766692" lat="31.54373824596405">
        <ele>286.20001220703125</ele>
        <time>2014-01-03T08:41:58.000Z</time>
      </trkpt>
      <trkpt lon="35.32892097719014" lat="31.54370849020779">
        <ele>288.0</ele>
        <time>2014-01-03T08:42:07.000Z</time>
      </trkpt>
      <trkpt lon="35.328719057142735" lat="31.54368636198342">
        <ele>287.0</ele>
        <time>2014-01-03T08:42:14.000Z</time>
      </trkpt>
      <trkpt lon="35.328601878136396" lat="31.543669514358044">
        <ele>287.0</ele>
        <time>2014-01-03T08:42:19.000Z</time>
      </trkpt>
      <trkpt lon="35.328440107405186" lat="31.543669598177075">
        <ele>289.0</ele>
        <time>2014-01-03T08:42:26.000Z</time>
      </trkpt>
      <trkpt lon="35.32835687510669" lat="31.54368300922215">
        <ele>289.0</ele>
        <time>2014-01-03T08:42:31.000Z</time>
      </trkpt>
      <trkpt lon="35.328180184587836" lat="31.54375484213233">
        <ele>290.0</ele>
        <time>2014-01-03T08:42:40.000Z</time>
      </trkpt>
      <trkpt lon="35.328027633950114" lat="31.54385844245553">
        <ele>288.6000061035156</ele>
        <time>2014-01-03T08:42:49.000Z</time>
      </trkpt>
      <trkpt lon="35.32781397923827" lat="31.543951397761703">
        <ele>287.0</ele>
        <time>2014-01-03T08:42:56.000Z</time>
      </trkpt>
      <trkpt lon="35.3277831338346" lat="31.543956929817796">
        <ele>287.0</ele>
        <time>2014-01-03T08:42:57.000Z</time>
      </trkpt>
      <trkpt lon="35.32764181494713" lat="31.54394594952464">
        <ele>289.0</ele>
        <time>2014-01-03T08:43:03.000Z</time>
      </trkpt>
      <trkpt lon="35.32746437005699" lat="31.543943770229816">
        <ele>291.0</ele>
        <time>2014-01-03T08:43:12.000Z</time>
      </trkpt>
      <trkpt lon="35.3273116517812" lat="31.54393563978374">
        <ele>292.3999938964844</ele>
        <time>2014-01-03T08:43:20.000Z</time>
      </trkpt>
      <trkpt lon="35.32709523104131" lat="31.54394050128758">
        <ele>293.79998779296875</ele>
        <time>2014-01-03T08:43:31.000Z</time>
      </trkpt>
      <trkpt lon="35.32690605148673" lat="31.543964808806777">
        <ele>294.79998779296875</ele>
        <time>2014-01-03T08:43:40.000Z</time>
      </trkpt>
      <trkpt lon="35.32670262269676" lat="31.543982326984406">
        <ele>297.20001220703125</ele>
        <time>2014-01-03T08:43:49.000Z</time>
      </trkpt>
      <trkpt lon="35.3264722879976" lat="31.54398542828858">
        <ele>298.6000061035156</ele>
        <time>2014-01-03T08:43:58.000Z</time>
      </trkpt>
      <trkpt lon="35.32618872821331" lat="31.543972184881568">
        <ele>299.6000061035156</ele>
        <time>2014-01-03T08:44:08.000Z</time>
      </trkpt>
      <trkpt lon="35.325913885608315" lat="31.54397419653833">
        <ele>299.6000061035156</ele>
        <time>2014-01-03T08:44:16.000Z</time>
      </trkpt>
      <trkpt lon="35.3256263025105" lat="31.5439117513597">
        <ele>300.0</ele>
        <time>2014-01-03T08:44:26.000Z</time>
      </trkpt>
      <trkpt lon="35.32540585845709" lat="31.54384033754468">
        <ele>300.6000061035156</ele>
        <time>2014-01-03T08:44:32.000Z</time>
      </trkpt>
      <trkpt lon="35.32528239302337" lat="31.54372315853834">
        <ele>303.3999938964844</ele>
        <time>2014-01-03T08:44:38.000Z</time>
      </trkpt>
      <trkpt lon="35.325094973668456" lat="31.543606901541352">
        <ele>305.79998779296875</ele>
        <time>2014-01-03T08:44:45.000Z</time>
      </trkpt>
      <trkpt lon="35.325002521276474" lat="31.543566836044192">
        <ele>307.20001220703125</ele>
        <time>2014-01-03T08:44:52.000Z</time>
      </trkpt>
      <trkpt lon="35.32492255792022" lat="31.543473629280925">
        <ele>308.79998779296875</ele>
        <time>2014-01-03T08:44:58.000Z</time>
      </trkpt>
      <trkpt lon="35.324822813272476" lat="31.543423673138022">
        <ele>310.20001220703125</ele>
        <time>2014-01-03T08:45:05.000Z</time>
      </trkpt>
      <trkpt lon="35.324774449691176" lat="31.54340699315071">
        <ele>310.20001220703125</ele>
        <time>2014-01-03T08:45:08.000Z</time>
      </trkpt>
      <trkpt lon="35.324707394465804" lat="31.54336240142584">
        <ele>311.20001220703125</ele>
        <time>2014-01-03T08:45:13.000Z</time>
      </trkpt>
      <trkpt lon="35.32460345886648" lat="31.543330550193787">
        <ele>312.6000061035156</ele>
        <time>2014-01-03T08:45:21.000Z</time>
      </trkpt>
      <trkpt lon="35.324554927647114" lat="31.543246898800135">
        <ele>312.6000061035156</ele>
        <time>2014-01-03T08:45:28.000Z</time>
      </trkpt>
      <trkpt lon="35.324464570730925" lat="31.543188728392124">
        <ele>313.6000061035156</ele>
        <time>2014-01-03T08:45:36.000Z</time>
      </trkpt>
      <trkpt lon="35.324453841894865" lat="31.54318210668862">
        <ele>313.6000061035156</ele>
        <time>2014-01-03T08:45:37.000Z</time>
      </trkpt>
      <trkpt lon="35.32443908974528" lat="31.54309912584722">
        <ele>312.6000061035156</ele>
        <time>2014-01-03T08:45:43.000Z</time>
      </trkpt>
      <trkpt lon="35.324461134150624" lat="31.543012792244554">
        <ele>310.6000061035156</ele>
        <time>2014-01-03T08:45:47.000Z</time>
      </trkpt>
      <trkpt lon="35.3244087472558" lat="31.542872060090303">
        <ele>310.20001220703125</ele>
        <time>2014-01-03T08:45:56.000Z</time>
      </trkpt>
      <trkpt lon="35.324338087812066" lat="31.54275421053171">
        <ele>310.20001220703125</ele>
        <time>2014-01-03T08:46:04.000Z</time>
      </trkpt>
      <trkpt lon="35.32422794960439" lat="31.542585315182805">
        <ele>310.6000061035156</ele>
        <time>2014-01-03T08:46:14.000Z</time>
      </trkpt>
      <trkpt lon="35.324127953499556" lat="31.542438212782145">
        <ele>311.6000061035156</ele>
        <time>2014-01-03T08:46:21.000Z</time>
      </trkpt>
      <trkpt lon="35.323937851935625" lat="31.542231012135744">
        <ele>312.0</ele>
        <time>2014-01-03T08:46:30.000Z</time>
      </trkpt>
      <trkpt lon="35.323825450614095" lat="31.54205834493041">
        <ele>312.6000061035156</ele>
        <time>2014-01-03T08:46:38.000Z</time>
      </trkpt>
      <trkpt lon="35.323794689029455" lat="31.541923144832253">
        <ele>312.6000061035156</ele>
        <time>2014-01-03T08:46:45.000Z</time>
      </trkpt>
      <trkpt lon="35.323749175295234" lat="31.541749387979507">
        <ele>312.0</ele>
        <time>2014-01-03T08:46:53.000Z</time>
      </trkpt>
      <trkpt lon="35.32366300933063" lat="31.541619887575507">
        <ele>312.0</ele>
        <time>2014-01-03T08:47:01.000Z</time>
      </trkpt>
      <trkpt lon="35.3235815372318" lat="31.541523998603225">
        <ele>312.0</ele>
        <time>2014-01-03T08:47:09.000Z</time>
      </trkpt>
      <trkpt lon="35.32355991192162" lat="31.541493572294712">
        <ele>312.6000061035156</ele>
        <time>2014-01-03T08:47:14.000Z</time>
      </trkpt>
      <trkpt lon="35.32354767434299" lat="31.541464738547802">
        <ele>312.6000061035156</ele>
        <time>2014-01-03T08:47:20.000Z</time>
      </trkpt>
      <trkpt lon="35.32354264520109" lat="31.5414269361645">
        <ele>311.6000061035156</ele>
        <time>2014-01-03T08:47:27.000Z</time>
      </trkpt>
      <trkpt lon="35.32357390969992" lat="31.541402461007237">
        <ele>311.20001220703125</ele>
        <time>2014-01-03T08:47:35.000Z</time>
      </trkpt>
      <trkpt lon="35.32362286001444" lat="31.541385613381863">
        <ele>309.20001220703125</ele>
        <time>2014-01-03T08:47:49.000Z</time>
      </trkpt>
      <trkpt lon="35.32359654083848" lat="31.541357953101397">
        <ele>308.79998779296875</ele>
        <time>2014-01-03T08:47:56.000Z</time>
      </trkpt>
      <trkpt lon="35.323583045974374" lat="31.541305063292384">
        <ele>308.20001220703125</ele>
        <time>2014-01-03T08:48:04.000Z</time>
      </trkpt>
      <trkpt lon="35.32362294383347" lat="31.541271284222603">
        <ele>307.20001220703125</ele>
        <time>2014-01-03T08:48:13.000Z</time>
      </trkpt>
      <trkpt lon="35.32362814061344" lat="31.541258208453655">
        <ele>306.3999938964844</ele>
        <time>2014-01-03T08:48:20.000Z</time>
      </trkpt>
      <trkpt lon="35.32363409176469" lat="31.54125602915883">
        <ele>304.79998779296875</ele>
        <time>2014-01-03T08:48:28.000Z</time>
      </trkpt>
      <trkpt lon="35.323638366535306" lat="31.541218478232622">
        <ele>305.3999938964844</ele>
        <time>2014-01-03T08:48:32.000Z</time>
      </trkpt>
      <trkpt lon="35.323679856956005" lat="31.54107028618455">
        <ele>308.20001220703125</ele>
        <time>2014-01-03T08:48:40.000Z</time>
      </trkpt>
      <trkpt lon="35.32367373816669" lat="31.540899882093072">
        <ele>313.0</ele>
        <time>2014-01-03T08:48:48.000Z</time>
      </trkpt>
      <trkpt lon="35.32360886223614" lat="31.540767112746835">
        <ele>314.0</ele>
        <time>2014-01-03T08:48:54.000Z</time>
      </trkpt>
      <trkpt lon="35.32345287501812" lat="31.540611209347844">
        <ele>315.0</ele>
        <time>2014-01-03T08:49:02.000Z</time>
      </trkpt>
      <trkpt lon="35.323216589167714" lat="31.540423287078738">
        <ele>315.0</ele>
        <time>2014-01-03T08:49:10.000Z</time>
      </trkpt>
      <trkpt lon="35.32300528138876" lat="31.540241232141852">
        <ele>316.3999938964844</ele>
        <time>2014-01-03T08:49:18.000Z</time>
      </trkpt>
      <trkpt lon="35.32282046042383" lat="31.540060434490442">
        <ele>317.3999938964844</ele>
        <time>2014-01-03T08:49:25.000Z</time>
      </trkpt>
      <trkpt lon="35.32261250540614" lat="31.539949541911483">
        <ele>317.79998779296875</ele>
        <time>2014-01-03T08:49:33.000Z</time>
      </trkpt>
      <trkpt lon="35.32245769165456" lat="31.539810234680772">
        <ele>318.3999938964844</ele>
        <time>2014-01-03T08:49:40.000Z</time>
      </trkpt>
      <trkpt lon="35.32241276465356" lat="31.539579732343554">
        <ele>316.3999938964844</ele>
        <time>2014-01-03T08:49:49.000Z</time>
      </trkpt>
      <trkpt lon="35.32245609909296" lat="31.53933028690517">
        <ele>315.0</ele>
        <time>2014-01-03T08:49:58.000Z</time>
      </trkpt>
      <trkpt lon="35.32250010408461" lat="31.53914077207446">
        <ele>315.0</ele>
        <time>2014-01-03T08:50:06.000Z</time>
      </trkpt>
      <trkpt lon="35.32257981598377" lat="31.538961566984653">
        <ele>314.3999938964844</ele>
        <time>2014-01-03T08:50:14.000Z</time>
      </trkpt>
      <trkpt lon="35.32266028225422" lat="31.53875377960503">
        <ele>313.6000061035156</ele>
        <time>2014-01-03T08:50:22.000Z</time>
      </trkpt>
      <trkpt lon="35.32277997583151" lat="31.538547165691853">
        <ele>312.0</ele>
        <time>2014-01-03T08:50:30.000Z</time>
      </trkpt>
      <trkpt lon="35.32290503382683" lat="31.53835547156632">
        <ele>312.6000061035156</ele>
        <time>2014-01-03T08:50:40.000Z</time>
      </trkpt>
      <trkpt lon="35.32297200523317" lat="31.538168052211404">
        <ele>313.0</ele>
        <time>2014-01-03T08:50:48.000Z</time>
      </trkpt>
      <trkpt lon="35.32302011735737" lat="31.5380041860044">
        <ele>314.0</ele>
        <time>2014-01-03T08:50:56.000Z</time>
      </trkpt>
      <trkpt lon="35.32310544513166" lat="31.537842247635126">
        <ele>313.6000061035156</ele>
        <time>2014-01-03T08:51:04.000Z</time>
      </trkpt>
      <trkpt lon="35.323199573904276" lat="31.537668155506253">
        <ele>313.6000061035156</ele>
        <time>2014-01-03T08:51:13.000Z</time>
      </trkpt>
      <trkpt lon="35.32328029163182" lat="31.537490375339985">
        <ele>313.0</ele>
        <time>2014-01-03T08:51:22.000Z</time>
      </trkpt>
      <trkpt lon="35.32338850200176" lat="31.537292562425137">
        <ele>312.0</ele>
        <time>2014-01-03T08:51:31.000Z</time>
      </trkpt>
      <trkpt lon="35.32353384420276" lat="31.53705032542348">
        <ele>312.0</ele>
        <time>2014-01-03T08:51:42.000Z</time>
      </trkpt>
      <trkpt lon="35.32360006123781" lat="31.53690028935671">
        <ele>312.0</ele>
        <time>2014-01-03T08:51:50.000Z</time>
      </trkpt>
      <trkpt lon="35.323707265779376" lat="31.53670348227024">
        <ele>312.0</ele>
        <time>2014-01-03T08:51:59.000Z</time>
      </trkpt>
      <trkpt lon="35.323839113116264" lat="31.536495527252555">
        <ele>313.0</ele>
        <time>2014-01-03T08:52:09.000Z</time>
      </trkpt>
      <trkpt lon="35.32390491105616" lat="31.536348843947053">
        <ele>314.0</ele>
        <time>2014-01-03T08:52:18.000Z</time>
      </trkpt>
      <trkpt lon="35.32390968874097" lat="31.536350017413497">
        <ele>314.0</ele>
        <time>2014-01-03T08:52:28.000Z</time>
      </trkpt>
      <trkpt lon="35.32392159104347" lat="31.53631506487727">
        <ele>315.0</ele>
        <time>2014-01-03T08:52:34.000Z</time>
      </trkpt>
      <trkpt lon="35.32393433153629" lat="31.536274161189795">
        <ele>315.3999938964844</ele>
        <time>2014-01-03T08:52:42.000Z</time>
      </trkpt>
      <trkpt lon="35.323928631842136" lat="31.53625873848796">
        <ele>314.0</ele>
        <time>2014-01-03T08:52:53.000Z</time>
      </trkpt>
      <trkpt lon="35.32392544671893" lat="31.5362514462322">
        <ele>314.0</ele>
        <time>2014-01-03T08:53:02.000Z</time>
      </trkpt>
      <trkpt lon="35.32394916750491" lat="31.536230156198144">
        <ele>314.3999938964844</ele>
        <time>2014-01-03T08:53:21.000Z</time>
      </trkpt>
      <trkpt lon="35.3239443898201" lat="31.53623493388295">
        <ele>313.6000061035156</ele>
        <time>2014-01-03T08:53:36.000Z</time>
      </trkpt>
      <trkpt lon="35.32392821274698" lat="31.536242477595806">
        <ele>313.0</ele>
        <time>2014-01-03T08:53:51.000Z</time>
      </trkpt>
      <trkpt lon="35.323935337364674" lat="31.536243064329028">
        <ele>313.0</ele>
        <time>2014-01-03T08:54:01.000Z</time>
      </trkpt>
      <trkpt lon="35.32394791021943" lat="31.536247925832868">
        <ele>314.3999938964844</ele>
        <time>2014-01-03T08:54:12.000Z</time>
      </trkpt>
      <trkpt lon="35.32396358437836" lat="31.53624901548028">
        <ele>318.3999938964844</ele>
        <time>2014-01-03T08:54:26.000Z</time>
      </trkpt>
      <trkpt lon="35.32396953552961" lat="31.53624415397644">
        <ele>321.20001220703125</ele>
        <time>2014-01-03T08:54:38.000Z</time>
      </trkpt>
      <trkpt lon="35.3239737264812" lat="31.536238370463252">
        <ele>321.79998779296875</ele>
        <time>2014-01-03T08:54:52.000Z</time>
      </trkpt>
      <trkpt lon="35.323974564671516" lat="31.536222780123353">
        <ele>316.3999938964844</ele>
        <time>2014-01-03T08:55:11.000Z</time>
      </trkpt>
      <trkpt lon="35.32397724688053" lat="31.536231329664588">
        <ele>320.79998779296875</ele>
        <time>2014-01-03T08:55:31.000Z</time>
      </trkpt>
      <trkpt lon="35.323976492509246" lat="31.536237448453903">
        <ele>320.20001220703125</ele>
        <time>2014-01-03T08:55:47.000Z</time>
      </trkpt>
      <trkpt lon="35.323955873027444" lat="31.536253122612834">
        <ele>318.3999938964844</ele>
        <time>2014-01-03T08:56:04.000Z</time>
      </trkpt>
      <trkpt lon="35.32395092770457" lat="31.536241890862584">
        <ele>318.3999938964844</ele>
        <time>2014-01-03T08:56:21.000Z</time>
      </trkpt>
      <trkpt lon="35.32395528629422" lat="31.536237616091967">
        <ele>317.3999938964844</ele>
        <time>2014-01-03T08:56:36.000Z</time>
      </trkpt>
      <trkpt lon="35.32396534457803" lat="31.536240968853235">
        <ele>316.0</ele>
        <time>2014-01-03T08:56:58.000Z</time>
      </trkpt>
      <trkpt lon="35.32396257854998" lat="31.53623786754906">
        <ele>315.3999938964844</ele>
        <time>2014-01-03T08:57:17.000Z</time>
      </trkpt>
      <trkpt lon="35.32397607341409" lat="31.536235436797142">
        <ele>318.3999938964844</ele>
        <time>2014-01-03T08:57:36.000Z</time>
      </trkpt>
      <trkpt lon="35.32398898154497" lat="31.536221019923687">
        <ele>320.20001220703125</ele>
        <time>2014-01-03T08:57:55.000Z</time>
      </trkpt>
      <trkpt lon="35.32397825270891" lat="31.53623183257878">
        <ele>321.79998779296875</ele>
        <time>2014-01-03T08:58:14.000Z</time>
      </trkpt>
      <trkpt lon="35.323959393426776" lat="31.536235436797142">
        <ele>319.20001220703125</ele>
        <time>2014-01-03T08:58:31.000Z</time>
      </trkpt>
      <trkpt lon="35.32395553775132" lat="31.536238370463252">
        <ele>316.79998779296875</ele>
        <time>2014-01-03T08:58:49.000Z</time>
      </trkpt>
      <trkpt lon="35.32394723966718" lat="31.53623786754906">
        <ele>314.0</ele>
        <time>2014-01-03T08:59:04.000Z</time>
      </trkpt>
      <trkpt lon="35.323964171111584" lat="31.536242393776774">
        <ele>314.0</ele>
        <time>2014-01-03T08:59:23.000Z</time>
      </trkpt>
      <trkpt lon="35.323988143354654" lat="31.536235017701983">
        <ele>313.6000061035156</ele>
        <time>2014-01-03T08:59:40.000Z</time>
      </trkpt>
      <trkpt lon="35.32395612448454" lat="31.53622353449464">
        <ele>313.6000061035156</ele>
        <time>2014-01-03T08:59:55.000Z</time>
      </trkpt>
      <trkpt lon="35.323915388435125" lat="31.53624021448195">
        <ele>311.20001220703125</ele>
        <time>2014-01-03T09:00:18.000Z</time>
      </trkpt>
      <trkpt lon="35.32393609173596" lat="31.53625186532736">
        <ele>311.20001220703125</ele>
        <time>2014-01-03T09:00:32.000Z</time>
      </trkpt>
      <trkpt lon="35.323962327092886" lat="31.536247674375772">
        <ele>312.0</ele>
        <time>2014-01-03T09:00:41.000Z</time>
      </trkpt>
      <trkpt lon="35.32397179864347" lat="31.536261336877942">
        <ele>314.3999938964844</ele>
        <time>2014-01-03T09:00:58.000Z</time>
      </trkpt>
      <trkpt lon="35.32397313974798" lat="31.536265360191464">
        <ele>313.6000061035156</ele>
        <time>2014-01-03T09:01:11.000Z</time>
      </trkpt>
      <trkpt lon="35.32396039925516" lat="31.536275250837207">
        <ele>308.79998779296875</ele>
        <time>2014-01-03T09:01:28.000Z</time>
      </trkpt>
      <trkpt lon="35.3239721339196" lat="31.53627005405724">
        <ele>307.79998779296875</ele>
        <time>2014-01-03T09:01:41.000Z</time>
      </trkpt>
      <trkpt lon="35.32396970316768" lat="31.536244405433536">
        <ele>306.79998779296875</ele>
        <time>2014-01-03T09:01:57.000Z</time>
      </trkpt>
      <trkpt lon="35.32398068346083" lat="31.536251278594136">
        <ele>309.20001220703125</ele>
        <time>2014-01-03T09:02:14.000Z</time>
      </trkpt>
      <trkpt lon="35.323974983766675" lat="31.536263348534703">
        <ele>305.79998779296875</ele>
        <time>2014-01-03T09:02:28.000Z</time>
      </trkpt>
      <trkpt lon="35.323994094505906" lat="31.536264438182116">
        <ele>305.3999938964844</ele>
        <time>2014-01-03T09:02:44.000Z</time>
      </trkpt>
      <trkpt lon="35.323979929089546" lat="31.5362411364913">
        <ele>303.0</ele>
        <time>2014-01-03T09:03:02.000Z</time>
      </trkpt>
      <trkpt lon="35.32398881390691" lat="31.53624415397644">
        <ele>304.79998779296875</ele>
        <time>2014-01-03T09:03:20.000Z</time>
      </trkpt>
      <trkpt lon="35.324001302942634" lat="31.53622755780816">
        <ele>304.0</ele>
        <time>2014-01-03T09:03:42.000Z</time>
      </trkpt>
      <trkpt lon="35.324019491672516" lat="31.536228815093637">
        <ele>302.0</ele>
        <time>2014-01-03T09:03:57.000Z</time>
      </trkpt>
      <trkpt lon="35.32399283722043" lat="31.53624809347093">
        <ele>305.3999938964844</ele>
        <time>2014-01-03T09:04:14.000Z</time>
      </trkpt>
      <trkpt lon="35.32400373369455" lat="31.536245243623853">
        <ele>306.3999938964844</ele>
        <time>2014-01-03T09:04:28.000Z</time>
      </trkpt>
      <trkpt lon="35.32403818331659" lat="31.536225210875273">
        <ele>307.79998779296875</ele>
        <time>2014-01-03T09:04:37.000Z</time>
      </trkpt>
      <trkpt lon="35.32404128462076" lat="31.536210626363754">
        <ele>308.79998779296875</ele>
        <time>2014-01-03T09:04:44.000Z</time>
      </trkpt>
      <trkpt lon="35.32404941506684" lat="31.536204675212502">
        <ele>311.20001220703125</ele>
        <time>2014-01-03T09:04:49.000Z</time>
      </trkpt>
      <trkpt lon="35.324094258248806" lat="31.536163352429867">
        <ele>311.20001220703125</ele>
        <time>2014-01-03T09:04:54.000Z</time>
      </trkpt>
      <trkpt lon="35.32423867844045" lat="31.53604776598513">
        <ele>312.0</ele>
        <time>2014-01-03T09:05:04.000Z</time>
      </trkpt>
      <trkpt lon="35.32437647692859" lat="31.535900244489312">
        <ele>313.0</ele>
        <time>2014-01-03T09:05:14.000Z</time>
      </trkpt>
      <trkpt lon="35.324439173564315" lat="31.535768900066614">
        <ele>314.0</ele>
        <time>2014-01-03T09:05:21.000Z</time>
      </trkpt>
      <trkpt lon="35.32453020103276" lat="31.53561090119183">
        <ele>315.3999938964844</ele>
        <time>2014-01-03T09:05:31.000Z</time>
      </trkpt>
      <trkpt lon="35.32454344443977" lat="31.535457680001855">
        <ele>314.0</ele>
        <time>2014-01-03T09:05:39.000Z</time>
      </trkpt>
      <trkpt lon="35.32448695041239" lat="31.535312924534082">
        <ele>312.0</ele>
        <time>2014-01-03T09:05:47.000Z</time>
      </trkpt>
      <trkpt lon="35.324427941814065" lat="31.535152662545443">
        <ele>310.6000061035156</ele>
        <time>2014-01-03T09:05:55.000Z</time>
      </trkpt>
      <trkpt lon="35.32436943612993" lat="31.534992652013898">
        <ele>311.20001220703125</ele>
        <time>2014-01-03T09:06:03.000Z</time>
      </trkpt>
      <trkpt lon="35.324249574914575" lat="31.534853596240282">
        <ele>310.6000061035156</ele>
        <time>2014-01-03T09:06:12.000Z</time>
      </trkpt>
      <trkpt lon="35.32411294989288" lat="31.53472392819822">
        <ele>311.6000061035156</ele>
        <time>2014-01-03T09:06:20.000Z</time>
      </trkpt>
      <trkpt lon="35.32401219941676" lat="31.534605911001563">
        <ele>314.0</ele>
        <time>2014-01-03T09:06:27.000Z</time>
      </trkpt>
      <trkpt lon="35.32396308146417" lat="31.534448079764843">
        <ele>315.0</ele>
        <time>2014-01-03T09:06:35.000Z</time>
      </trkpt>
      <trkpt lon="35.32394874840975" lat="31.53427449055016">
        <ele>315.3999938964844</ele>
        <time>2014-01-03T09:06:43.000Z</time>
      </trkpt>
      <trkpt lon="35.32392184250057" lat="31.534102074801922">
        <ele>316.79998779296875</ele>
        <time>2014-01-03T09:06:52.000Z</time>
      </trkpt>
      <trkpt lon="35.323902145028114" lat="31.53394323773682">
        <ele>319.79998779296875</ele>
        <time>2014-01-03T09:07:01.000Z</time>
      </trkpt>
      <trkpt lon="35.32396559603512" lat="31.53382010757923">
        <ele>322.20001220703125</ele>
        <time>2014-01-03T09:07:08.000Z</time>
      </trkpt>
      <trkpt lon="35.32407397404313" lat="31.53369546867907">
        <ele>324.20001220703125</ele>
        <time>2014-01-03T09:07:16.000Z</time>
      </trkpt>
      <trkpt lon="35.32422685995698" lat="31.533581642434">
        <ele>326.6000061035156</ele>
        <time>2014-01-03T09:07:24.000Z</time>
      </trkpt>
      <trkpt lon="35.32434890046716" lat="31.533461529761553">
        <ele>329.79998779296875</ele>
        <time>2014-01-03T09:07:35.000Z</time>
      </trkpt>
      <trkpt lon="35.32440070062876" lat="31.5333313588053">
        <ele>331.3999938964844</ele>
        <time>2014-01-03T09:07:44.000Z</time>
      </trkpt>
      <trkpt lon="35.32447228208184" lat="31.533161709085107">
        <ele>333.79998779296875</ele>
        <time>2014-01-03T09:07:55.000Z</time>
      </trkpt>
      <trkpt lon="35.324527099728584" lat="31.533000525087118">
        <ele>335.6000061035156</ele>
        <time>2014-01-03T09:08:06.000Z</time>
      </trkpt>
      <trkpt lon="35.324562555179" lat="31.532849231734872">
        <ele>338.0</ele>
        <time>2014-01-03T09:08:17.000Z</time>
      </trkpt>
      <trkpt lon="35.3245575260371" lat="31.532705733552575">
        <ele>340.0</ele>
        <time>2014-01-03T09:08:26.000Z</time>
      </trkpt>
      <trkpt lon="35.324535481631756" lat="31.532550752162933">
        <ele>340.3999938964844</ele>
        <time>2014-01-03T09:08:35.000Z</time>
      </trkpt>
      <trkpt lon="35.324477814137936" lat="31.532374816015363">
        <ele>341.3999938964844</ele>
        <time>2014-01-03T09:08:44.000Z</time>
      </trkpt>
      <trkpt lon="35.324411261826754" lat="31.532201394438744">
        <ele>341.3999938964844</ele>
        <time>2014-01-03T09:08:52.000Z</time>
      </trkpt>
      <trkpt lon="35.32436524517834" lat="31.532048089429736">
        <ele>342.79998779296875</ele>
        <time>2014-01-03T09:09:00.000Z</time>
      </trkpt>
      <trkpt lon="35.32429777085781" lat="31.53190551325679">
        <ele>342.79998779296875</ele>
        <time>2014-01-03T09:09:07.000Z</time>
      </trkpt>
      <trkpt lon="35.324243204668164" lat="31.531761679798365">
        <ele>341.79998779296875</ele>
        <time>2014-01-03T09:09:10.000Z</time>
      </trkpt>
      <trkpt lon="35.32404312863946" lat="31.5316061116755">
        <ele>340.0</ele>
        <time>2014-01-03T09:09:14.000Z</time>
      </trkpt>
      <trkpt lon="35.32396090216935" lat="31.531568225473166">
        <ele>339.3999938964844</ele>
        <time>2014-01-03T09:09:17.000Z</time>
      </trkpt>
      <trkpt lon="35.32374280504882" lat="31.531425900757313">
        <ele>337.6000061035156</ele>
        <time>2014-01-03T09:09:23.000Z</time>
      </trkpt>
      <trkpt lon="35.323664685711265" lat="31.531345266848803">
        <ele>337.6000061035156</ele>
        <time>2014-01-03T09:09:26.000Z</time>
      </trkpt>
      <trkpt lon="35.32357751391828" lat="31.53116329573095">
        <ele>339.0</ele>
        <time>2014-01-03T09:09:33.000Z</time>
      </trkpt>
      <trkpt lon="35.32346955500543" lat="31.530863726511598">
        <ele>340.3999938964844</ele>
        <time>2014-01-03T09:09:43.000Z</time>
      </trkpt>
      <trkpt lon="35.323400823399425" lat="31.530591314658523">
        <ele>341.0</ele>
        <time>2014-01-03T09:09:51.000Z</time>
      </trkpt>
      <trkpt lon="35.32340744510293" lat="31.53052627108991">
        <ele>340.3999938964844</ele>
        <time>2014-01-03T09:09:54.000Z</time>
      </trkpt>
      <trkpt lon="35.32334877178073" lat="31.53031161054969">
        <ele>338.0</ele>
        <time>2014-01-03T09:09:58.000Z</time>
      </trkpt>
      <trkpt lon="35.32336352393031" lat="31.530190743505955">
        <ele>340.0</ele>
        <time>2014-01-03T09:10:03.000Z</time>
      </trkpt>
      <trkpt lon="35.3234781883657" lat="31.530015226453543">
        <ele>341.79998779296875</ele>
        <time>2014-01-03T09:10:11.000Z</time>
      </trkpt>
      <trkpt lon="35.32358036376536" lat="31.52974591590464">
        <ele>343.3999938964844</ele>
        <time>2014-01-03T09:10:20.000Z</time>
      </trkpt>
      <trkpt lon="35.3237231913954" lat="31.52952061034739">
        <ele>344.79998779296875</ele>
        <time>2014-01-03T09:10:29.000Z</time>
      </trkpt>
      <trkpt lon="35.32386953942478" lat="31.529312068596482">
        <ele>345.79998779296875</ele>
        <time>2014-01-03T09:10:37.000Z</time>
      </trkpt>
      <trkpt lon="35.32407866790891" lat="31.529116267338395">
        <ele>347.6000061035156</ele>
        <time>2014-01-03T09:10:46.000Z</time>
      </trkpt>
      <trkpt lon="35.32421302981675" lat="31.528980480507016">
        <ele>348.6000061035156</ele>
        <time>2014-01-03T09:10:54.000Z</time>
      </trkpt>
      <trkpt lon="35.32437605783343" lat="31.528849387541413">
        <ele>349.20001220703125</ele>
        <time>2014-01-03T09:11:02.000Z</time>
      </trkpt>
      <trkpt lon="35.3245226573199" lat="31.528771771118045">
        <ele>350.0</ele>
        <time>2014-01-03T09:11:10.000Z</time>
      </trkpt>
      <trkpt lon="35.32452198676765" lat="31.528772357851267">
        <ele>348.20001220703125</ele>
        <time>2014-01-03T09:11:17.000Z</time>
      </trkpt>
      <trkpt lon="35.32454361207783" lat="31.528780153021216">
        <ele>347.20001220703125</ele>
        <time>2014-01-03T09:11:37.000Z</time>
      </trkpt>
      <trkpt lon="35.32458543777466" lat="31.528791468590498">
        <ele>348.6000061035156</ele>
        <time>2014-01-03T09:11:59.000Z</time>
      </trkpt>
      <trkpt lon="35.32459038309753" lat="31.52880228124559">
        <ele>345.79998779296875</ele>
        <time>2014-01-03T09:12:22.000Z</time>
      </trkpt>
      <trkpt lon="35.324583845213056" lat="31.52881493791938">
        <ele>343.3999938964844</ele>
        <time>2014-01-03T09:12:43.000Z</time>
      </trkpt>
      <trkpt lon="35.3245834261179" lat="31.528821056708694">
        <ele>342.79998779296875</ele>
        <time>2014-01-03T09:13:06.000Z</time>
      </trkpt>
      <trkpt lon="35.324610248208046" lat="31.52882675640285">
        <ele>342.79998779296875</ele>
        <time>2014-01-03T09:13:23.000Z</time>
      </trkpt>
      <trkpt lon="35.324603877961636" lat="31.528835222125053">
        <ele>340.3999938964844</ele>
        <time>2014-01-03T09:13:36.000Z</time>
      </trkpt>
      <trkpt lon="35.324607314541936" lat="31.528845950961113">
        <ele>338.0</ele>
        <time>2014-01-03T09:13:53.000Z</time>
      </trkpt>
      <trkpt lon="35.32459155656397" lat="31.528827007859945">
        <ele>339.3999938964844</ele>
        <time>2014-01-03T09:14:08.000Z</time>
      </trkpt>
      <trkpt lon="35.324555430561304" lat="31.528821978718042">
        <ele>343.3999938964844</ele>
        <time>2014-01-03T09:14:24.000Z</time>
      </trkpt>
      <trkpt lon="35.32453925348818" lat="31.52880957350135">
        <ele>344.20001220703125</ele>
        <time>2014-01-03T09:14:43.000Z</time>
      </trkpt>
      <trkpt lon="35.32455182634294" lat="31.528801610693336">
        <ele>345.79998779296875</ele>
        <time>2014-01-03T09:15:02.000Z</time>
      </trkpt>
      <trkpt lon="35.324547132477164" lat="31.52879356406629">
        <ele>347.20001220703125</ele>
        <time>2014-01-03T09:15:21.000Z</time>
      </trkpt>
      <trkpt lon="35.324536487460136" lat="31.528776129707694">
        <ele>347.20001220703125</ele>
        <time>2014-01-03T09:15:38.000Z</time>
      </trkpt>
      <trkpt lon="35.32454629428685" lat="31.528787864372134">
        <ele>351.0</ele>
        <time>2014-01-03T09:16:03.000Z</time>
      </trkpt>
      <trkpt lon="35.32455115579069" lat="31.52878233231604">
        <ele>354.79998779296875</ele>
        <time>2014-01-03T09:16:22.000Z</time>
      </trkpt>
      <trkpt lon="35.324562303721905" lat="31.52874511666596">
        <ele>355.3999938964844</ele>
        <time>2014-01-03T09:16:41.000Z</time>
      </trkpt>
      <trkpt lon="35.32455995678902" lat="31.52871586382389">
        <ele>355.3999938964844</ele>
        <time>2014-01-03T09:16:44.000Z</time>
      </trkpt>
      <trkpt lon="35.32454101368785" lat="31.528553506359458">
        <ele>354.3999938964844</ele>
        <time>2014-01-03T09:16:51.000Z</time>
      </trkpt>
      <trkpt lon="35.32455610111356" lat="31.52836248278618">
        <ele>353.79998779296875</ele>
        <time>2014-01-03T09:16:57.000Z</time>
      </trkpt>
      <trkpt lon="35.3245073184371" lat="31.528189312666655">
        <ele>353.79998779296875</ele>
        <time>2014-01-03T09:17:03.000Z</time>
      </trkpt>
      <trkpt lon="35.32445853576064" lat="31.528019411489367">
        <ele>353.79998779296875</ele>
        <time>2014-01-03T09:17:11.000Z</time>
      </trkpt>
      <trkpt lon="35.32437044195831" lat="31.52775856666267">
        <ele>353.79998779296875</ele>
        <time>2014-01-03T09:17:21.000Z</time>
      </trkpt>
      <trkpt lon="35.3243173006922" lat="31.527528818696737">
        <ele>355.3999938964844</ele>
        <time>2014-01-03T09:17:30.000Z</time>
      </trkpt>
      <trkpt lon="35.324257453903556" lat="31.52723142877221">
        <ele>358.20001220703125</ele>
        <time>2014-01-03T09:17:41.000Z</time>
      </trkpt>
      <trkpt lon="35.32422250136733" lat="31.526980474591255">
        <ele>360.6000061035156</ele>
        <time>2014-01-03T09:17:50.000Z</time>
      </trkpt>
      <trkpt lon="35.32422392629087" lat="31.52670605108142">
        <ele>361.20001220703125</ele>
        <time>2014-01-03T09:17:59.000Z</time>
      </trkpt>
      <trkpt lon="35.324219232425094" lat="31.526537658646703">
        <ele>361.6000061035156</ele>
        <time>2014-01-03T09:18:06.000Z</time>
      </trkpt>
      <trkpt lon="35.32419559545815" lat="31.52634252794087">
        <ele>362.0</ele>
        <time>2014-01-03T09:18:16.000Z</time>
      </trkpt>
      <trkpt lon="35.324170952662826" lat="31.52629374526441">
        <ele>361.20001220703125</ele>
        <time>2014-01-03T09:18:20.000Z</time>
      </trkpt>
      <trkpt lon="35.32413491047919" lat="31.526224594563246">
        <ele>360.6000061035156</ele>
        <time>2014-01-03T09:18:23.000Z</time>
      </trkpt>
      <trkpt lon="35.32416776753962" lat="31.526072965934873">
        <ele>362.0</ele>
        <time>2014-01-03T09:18:30.000Z</time>
      </trkpt>
      <trkpt lon="35.32418469898403" lat="31.526035582646728">
        <ele>364.0</ele>
        <time>2014-01-03T09:18:33.000Z</time>
      </trkpt>
      <trkpt lon="35.32419299706817" lat="31.525957798585296">
        <ele>365.0</ele>
        <time>2014-01-03T09:18:37.000Z</time>
      </trkpt>
      <trkpt lon="35.3241619002074" lat="31.525719668716192">
        <ele>366.79998779296875</ele>
        <time>2014-01-03T09:18:48.000Z</time>
      </trkpt>
      <trkpt lon="35.32414119690657" lat="31.52545664459467">
        <ele>366.79998779296875</ele>
        <time>2014-01-03T09:18:57.000Z</time>
      </trkpt>
      <trkpt lon="35.32413407228887" lat="31.52527048252523">
        <ele>367.3999938964844</ele>
        <time>2014-01-03T09:19:04.000Z</time>
      </trkpt>
      <trkpt lon="35.32406953163445" lat="31.525132935494184">
        <ele>366.3999938964844</ele>
        <time>2014-01-03T09:19:08.000Z</time>
      </trkpt>
      <trkpt lon="35.32402745448053" lat="31.52503302320838">
        <ele>367.3999938964844</ele>
        <time>2014-01-03T09:19:12.000Z</time>
      </trkpt>
      <trkpt lon="35.323962243273854" lat="31.52488114312291">
        <ele>369.20001220703125</ele>
        <time>2014-01-03T09:19:20.000Z</time>
      </trkpt>
      <trkpt lon="35.32391622662544" lat="31.524726497009397">
        <ele>369.79998779296875</ele>
        <time>2014-01-03T09:19:29.000Z</time>
      </trkpt>
      <trkpt lon="35.32386031933129" lat="31.524548465386033">
        <ele>368.3999938964844</ele>
        <time>2014-01-03T09:19:34.000Z</time>
      </trkpt>
      <trkpt lon="35.32383056357503" lat="31.524453917518258">
        <ele>367.79998779296875</ele>
        <time>2014-01-03T09:19:36.000Z</time>
      </trkpt>
      <trkpt lon="35.32378857024014" lat="31.524213021621108">
        <ele>367.79998779296875</ele>
        <time>2014-01-03T09:19:43.000Z</time>
      </trkpt>
      <trkpt lon="35.32379820942879" lat="31.52391605079174">
        <ele>369.79998779296875</ele>
        <time>2014-01-03T09:19:53.000Z</time>
      </trkpt>
      <trkpt lon="35.32389619387686" lat="31.523681106045842">
        <ele>370.20001220703125</ele>
        <time>2014-01-03T09:20:00.000Z</time>
      </trkpt>
      <trkpt lon="35.32398152165115" lat="31.523489747196436">
        <ele>371.6000061035156</ele>
        <time>2014-01-03T09:20:07.000Z</time>
      </trkpt>
      <trkpt lon="35.324147986248136" lat="31.523224795237184">
        <ele>373.6000061035156</ele>
        <time>2014-01-03T09:20:16.000Z</time>
      </trkpt>
      <trkpt lon="35.32422107644379" lat="31.522992197424173">
        <ele>373.6000061035156</ele>
        <time>2014-01-03T09:20:23.000Z</time>
      </trkpt>
      <trkpt lon="35.32425368204713" lat="31.52282397262752">
        <ele>374.0</ele>
        <time>2014-01-03T09:20:28.000Z</time>
      </trkpt>
      <trkpt lon="35.32430640421808" lat="31.522619035094976">
        <ele>377.0</ele>
        <time>2014-01-03T09:20:38.000Z</time>
      </trkpt>
      <trkpt lon="35.324317552149296" lat="31.522445026785135">
        <ele>378.0</ele>
        <time>2014-01-03T09:20:47.000Z</time>
      </trkpt>
      <trkpt lon="35.32431134954095" lat="31.522291721776128">
        <ele>378.3999938964844</ele>
        <time>2014-01-03T09:20:55.000Z</time>
      </trkpt>
      <trkpt lon="35.32431336119771" lat="31.52216523885727">
        <ele>380.3999938964844</ele>
        <time>2014-01-03T09:21:03.000Z</time>
      </trkpt>
      <trkpt lon="35.32424345612526" lat="31.521970946341753">
        <ele>380.79998779296875</ele>
        <time>2014-01-03T09:21:13.000Z</time>
      </trkpt>
      <trkpt lon="35.3241204097867" lat="31.521738432347775">
        <ele>379.79998779296875</ele>
        <time>2014-01-03T09:21:23.000Z</time>
      </trkpt>
      <trkpt lon="35.324099622666836" lat="31.52170456945896">
        <ele>379.3999938964844</ele>
        <time>2014-01-03T09:21:24.000Z</time>
      </trkpt>
      <trkpt lon="35.32394137233496" lat="31.5214728936553">
        <ele>376.3999938964844</ele>
        <time>2014-01-03T09:21:29.000Z</time>
      </trkpt>
      <trkpt lon="35.32387658022344" lat="31.521317325532436">
        <ele>375.6000061035156</ele>
        <time>2014-01-03T09:21:34.000Z</time>
      </trkpt>
      <trkpt lon="35.32387163490057" lat="31.521204505115747">
        <ele>374.0</ele>
        <time>2014-01-03T09:21:41.000Z</time>
      </trkpt>
      <trkpt lon="35.323821511119604" lat="31.521010464057326">
        <ele>372.20001220703125</ele>
        <time>2014-01-03T09:21:49.000Z</time>
      </trkpt>
      <trkpt lon="35.3238114528358" lat="31.520861769095063">
        <ele>371.6000061035156</ele>
        <time>2014-01-03T09:21:55.000Z</time>
      </trkpt>
      <trkpt lon="35.323764933273196" lat="31.52073847129941">
        <ele>372.20001220703125</ele>
        <time>2014-01-03T09:22:02.000Z</time>
      </trkpt>
      <trkpt lon="35.32362788915634" lat="31.520539904013276">
        <ele>372.6000061035156</ele>
        <time>2014-01-03T09:22:13.000Z</time>
      </trkpt>
      <trkpt lon="35.323521271348" lat="31.520382659509778">
        <ele>371.20001220703125</ele>
        <time>2014-01-03T09:22:20.000Z</time>
      </trkpt>
      <trkpt lon="35.3235143981874" lat="31.52035097591579">
        <ele>371.20001220703125</ele>
        <time>2014-01-03T09:22:21.000Z</time>
      </trkpt>
      <trkpt lon="35.32353023998439" lat="31.52020529843867">
        <ele>373.20001220703125</ele>
        <time>2014-01-03T09:22:27.000Z</time>
      </trkpt>
      <trkpt lon="35.323509788140655" lat="31.520007653161883">
        <ele>374.6000061035156</ele>
        <time>2014-01-03T09:22:36.000Z</time>
      </trkpt>
      <trkpt lon="35.323507860302925" lat="31.519960965961218">
        <ele>375.0</ele>
        <time>2014-01-03T09:22:41.000Z</time>
      </trkpt>
      <trkpt lon="35.323542477563024" lat="31.520002959296107">
        <ele>377.3999938964844</ele>
        <time>2014-01-03T09:22:49.000Z</time>
      </trkpt>
      <trkpt lon="35.32357977703214" lat="31.52002559043467">
        <ele>382.20001220703125</ele>
        <time>2014-01-03T09:23:06.000Z</time>
      </trkpt>
      <trkpt lon="35.323591344058514" lat="31.52002559043467">
        <ele>385.20001220703125</ele>
        <time>2014-01-03T09:23:27.000Z</time>
      </trkpt>
      <trkpt lon="35.3236145619303" lat="31.520021064206958">
        <ele>390.0</ele>
        <time>2014-01-03T09:23:53.000Z</time>
      </trkpt>
      <trkpt lon="35.323631996288896" lat="31.52001335285604">
        <ele>393.79998779296875</ele>
        <time>2014-01-03T09:24:14.000Z</time>
      </trkpt>
      <trkpt lon="35.323612969368696" lat="31.520000277087092">
        <ele>391.3999938964844</ele>
        <time>2014-01-03T09:24:34.000Z</time>
      </trkpt>
      <trkpt lon="35.32358631491661" lat="31.519966246560216">
        <ele>388.6000061035156</ele>
        <time>2014-01-03T09:24:57.000Z</time>
      </trkpt>
      <trkpt lon="35.32357365824282" lat="31.519952416419983">
        <ele>389.3999938964844</ele>
        <time>2014-01-03T09:25:15.000Z</time>
      </trkpt>
      <trkpt lon="35.32357801683247" lat="31.51993808336556">
        <ele>391.0</ele>
        <time>2014-01-03T09:25:37.000Z</time>
      </trkpt>
      <trkpt lon="35.32357634045184" lat="31.519949482753873">
        <ele>388.6000061035156</ele>
        <time>2014-01-03T09:25:52.000Z</time>
      </trkpt>
      <trkpt lon="35.323584135621786" lat="31.519936406984925">
        <ele>390.3999938964844</ele>
        <time>2014-01-03T09:26:08.000Z</time>
      </trkpt>
      <trkpt lon="35.323579190298915" lat="31.519932048395276">
        <ele>391.3999938964844</ele>
        <time>2014-01-03T09:26:22.000Z</time>
      </trkpt>
      <trkpt lon="35.32357893884182" lat="31.519923247396946">
        <ele>391.79998779296875</ele>
        <time>2014-01-03T09:26:38.000Z</time>
      </trkpt>
      <trkpt lon="35.32356192357838" lat="31.519914865493774">
        <ele>391.0</ele>
        <time>2014-01-03T09:27:01.000Z</time>
      </trkpt>
      <trkpt lon="35.32354088500142" lat="31.519893407821655">
        <ele>390.3999938964844</ele>
        <time>2014-01-03T09:27:17.000Z</time>
      </trkpt>
      <trkpt lon="35.32352169044316" lat="31.519775390625">
        <ele>390.0</ele>
        <time>2014-01-03T09:27:24.000Z</time>
      </trkpt>
      <trkpt lon="35.323442397639155" lat="31.51958386413753">
        <ele>389.0</ele>
        <time>2014-01-03T09:27:33.000Z</time>
      </trkpt>
      <trkpt lon="35.32337282784283" lat="31.51937758550048">
        <ele>387.6000061035156</ele>
        <time>2014-01-03T09:27:41.000Z</time>
      </trkpt>
      <trkpt lon="35.32338556833565" lat="31.519325114786625">
        <ele>388.0</ele>
        <time>2014-01-03T09:27:47.000Z</time>
      </trkpt>
      <trkpt lon="35.32341331243515" lat="31.519332323223352">
        <ele>392.3999938964844</ele>
        <time>2014-01-03T09:28:01.000Z</time>
      </trkpt>
      <trkpt lon="35.32344348728657" lat="31.519360654056072">
        <ele>394.79998779296875</ele>
        <time>2014-01-03T09:28:19.000Z</time>
      </trkpt>
      <trkpt lon="35.32343870960176" lat="31.519346488639712">
        <ele>395.20001220703125</ele>
        <time>2014-01-03T09:28:27.000Z</time>
      </trkpt>
      <trkpt lon="35.32337266020477" lat="31.51925252750516">
        <ele>394.79998779296875</ele>
        <time>2014-01-03T09:28:35.000Z</time>
      </trkpt>
      <trkpt lon="35.32328934408724" lat="31.519073490053415">
        <ele>395.20001220703125</ele>
        <time>2014-01-03T09:28:45.000Z</time>
      </trkpt>
      <trkpt lon="35.32319395802915" lat="31.518861008808017">
        <ele>394.79998779296875</ele>
        <time>2014-01-03T09:28:54.000Z</time>
      </trkpt>
      <trkpt lon="35.32303403131664" lat="31.518583986908197">
        <ele>396.6000061035156</ele>
        <time>2014-01-03T09:29:02.000Z</time>
      </trkpt>
      <trkpt lon="35.32292917370796" lat="31.518378797918558">
        <ele>398.20001220703125</ele>
        <time>2014-01-03T09:29:09.000Z</time>
      </trkpt>
      <trkpt lon="35.32288994640112" lat="31.51824493892491">
        <ele>399.0</ele>
        <time>2014-01-03T09:29:15.000Z</time>
      </trkpt>
      <trkpt lon="35.32284342683852" lat="31.518185259774327">
        <ele>397.20001220703125</ele>
        <time>2014-01-03T09:29:19.000Z</time>
      </trkpt>
      <trkpt lon="35.32278265804052" lat="31.51808953844011">
        <ele>395.20001220703125</ele>
        <time>2014-01-03T09:29:28.000Z</time>
      </trkpt>
      <trkpt lon="35.32270135357976" lat="31.517998594790697">
        <ele>396.20001220703125</ele>
        <time>2014-01-03T09:29:37.000Z</time>
      </trkpt>
      <trkpt lon="35.322694061324" lat="31.517875883728266">
        <ele>396.6000061035156</ele>
        <time>2014-01-03T09:29:46.000Z</time>
      </trkpt>
      <trkpt lon="35.32270076684654" lat="31.517851995304227">
        <ele>396.6000061035156</ele>
        <time>2014-01-03T09:29:48.000Z</time>
      </trkpt>
      <trkpt lon="35.3226837515831" lat="31.517762057483196">
        <ele>397.6000061035156</ele>
        <time>2014-01-03T09:29:53.000Z</time>
      </trkpt>
      <trkpt lon="35.32268467359245" lat="31.51774705387652">
        <ele>398.20001220703125</ele>
        <time>2014-01-03T09:29:54.000Z</time>
      </trkpt>
      <trkpt lon="35.322691295295954" lat="31.517639933153987">
        <ele>398.20001220703125</ele>
        <time>2014-01-03T09:30:02.000Z</time>
      </trkpt>
      <trkpt lon="35.322674280032516" lat="31.517596682533622">
        <ele>398.20001220703125</ele>
        <time>2014-01-03T09:30:06.000Z</time>
      </trkpt>
      <trkpt lon="35.3226853441447" lat="31.517463410273194">
        <ele>398.6000061035156</ele>
        <time>2014-01-03T09:30:16.000Z</time>
      </trkpt>
      <trkpt lon="35.322714345529675" lat="31.517344806343317">
        <ele>398.20001220703125</ele>
        <time>2014-01-03T09:30:24.000Z</time>
      </trkpt>
      <trkpt lon="35.32273949123919" lat="31.517301639541984">
        <ele>398.6000061035156</ele>
        <time>2014-01-03T09:30:27.000Z</time>
      </trkpt>
      <trkpt lon="35.32280897721648" lat="31.517295017838478">
        <ele>400.0</ele>
        <time>2014-01-03T09:30:31.000Z</time>
      </trkpt>
      <trkpt lon="35.32288156449795" lat="31.517174234613776">
        <ele>400.6000061035156</ele>
        <time>2014-01-03T09:30:40.000Z</time>
      </trkpt>
      <trkpt lon="35.32288894057274" lat="31.51716275140643">
        <ele>400.6000061035156</ele>
        <time>2014-01-03T09:30:41.000Z</time>
      </trkpt>
      <trkpt lon="35.32305766828358" lat="31.51707474142313">
        <ele>400.6000061035156</ele>
        <time>2014-01-03T09:30:50.000Z</time>
      </trkpt>
      <trkpt lon="35.32321969047189" lat="31.51700483635068">
        <ele>400.0</ele>
        <time>2014-01-03T09:30:55.000Z</time>
      </trkpt>
      <trkpt lon="35.32337031327188" lat="31.517013385891914">
        <ele>398.6000061035156</ele>
        <time>2014-01-03T09:31:02.000Z</time>
      </trkpt>
      <trkpt lon="35.32353795133531" lat="31.51702495291829">
        <ele>396.6000061035156</ele>
        <time>2014-01-03T09:31:11.000Z</time>
      </trkpt>
      <trkpt lon="35.323661752045155" lat="31.51698438450694">
        <ele>393.3999938964844</ele>
        <time>2014-01-03T09:31:20.000Z</time>
      </trkpt>
      <trkpt lon="35.323780523613095" lat="31.516928309574723">
        <ele>392.3999938964844</ele>
        <time>2014-01-03T09:31:27.000Z</time>
      </trkpt>
      <trkpt lon="35.3238994628191" lat="31.51675036177039">
        <ele>391.79998779296875</ele>
        <time>2014-01-03T09:31:38.000Z</time>
      </trkpt>
      <trkpt lon="35.32394899986684" lat="31.51661055162549">
        <ele>392.79998779296875</ele>
        <time>2014-01-03T09:31:46.000Z</time>
      </trkpt>
      <trkpt lon="35.32398705370724" lat="31.51641701348126">
        <ele>391.3999938964844</ele>
        <time>2014-01-03T09:31:54.000Z</time>
      </trkpt>
      <trkpt lon="35.32395268790424" lat="31.51626856997609">
        <ele>391.0</ele>
        <time>2014-01-03T09:32:00.000Z</time>
      </trkpt>
      <trkpt lon="35.32388135790825" lat="31.516136974096298">
        <ele>390.3999938964844</ele>
        <time>2014-01-03T09:32:07.000Z</time>
      </trkpt>
      <trkpt lon="35.3238545358181" lat="31.51601694524288">
        <ele>391.79998779296875</ele>
        <time>2014-01-03T09:32:15.000Z</time>
      </trkpt>
      <trkpt lon="35.32368740066886" lat="31.51585324667394">
        <ele>383.79998779296875</ele>
        <time>2014-01-03T09:32:25.000Z</time>
      </trkpt>
      <trkpt lon="35.32355337403715" lat="31.5156861115247">
        <ele>380.3999938964844</ele>
        <time>2014-01-03T09:32:32.000Z</time>
      </trkpt>
      <trkpt lon="35.323462430387735" lat="31.515516797080636">
        <ele>379.79998779296875</ele>
        <time>2014-01-03T09:32:40.000Z</time>
      </trkpt>
      <trkpt lon="35.32337844371796" lat="31.515281768515706">
        <ele>380.3999938964844</ele>
        <time>2014-01-03T09:32:49.000Z</time>
      </trkpt>
      <trkpt lon="35.32330644316971" lat="31.515147825703025">
        <ele>380.79998779296875</ele>
        <time>2014-01-03T09:32:55.000Z</time>
      </trkpt>
      <trkpt lon="35.32325631938875" lat="31.51495269499719">
        <ele>382.20001220703125</ele>
        <time>2014-01-03T09:33:05.000Z</time>
      </trkpt>
      <trkpt lon="35.32318649813533" lat="31.514694532379508">
        <ele>383.20001220703125</ele>
        <time>2014-01-03T09:33:17.000Z</time>
      </trkpt>
      <trkpt lon="35.323115419596434" lat="31.51449185796082">
        <ele>384.20001220703125</ele>
        <time>2014-01-03T09:33:26.000Z</time>
      </trkpt>
      <trkpt lon="35.3230273257941" lat="31.51424794457853">
        <ele>384.6000061035156</ele>
        <time>2014-01-03T09:33:36.000Z</time>
      </trkpt>
      <trkpt lon="35.32294576987624" lat="31.514077205210924">
        <ele>384.20001220703125</ele>
        <time>2014-01-03T09:33:43.000Z</time>
      </trkpt>
      <trkpt lon="35.322794895619154" lat="31.513915015384555">
        <ele>383.20001220703125</ele>
        <time>2014-01-03T09:33:52.000Z</time>
      </trkpt>
      <trkpt lon="35.322654414922" lat="31.513750813901424">
        <ele>383.20001220703125</ele>
        <time>2014-01-03T09:33:59.000Z</time>
      </trkpt>
      <trkpt lon="35.32253312878311" lat="31.513591893017292">
        <ele>383.20001220703125</ele>
        <time>2014-01-03T09:34:07.000Z</time>
      </trkpt>
      <trkpt lon="35.32247571274638" lat="31.513454597443342">
        <ele>385.20001220703125</ele>
        <time>2014-01-03T09:34:15.000Z</time>
      </trkpt>
      <trkpt lon="35.32237580046058" lat="31.513331551104784">
        <ele>384.6000061035156</ele>
        <time>2014-01-03T09:34:23.000Z</time>
      </trkpt>
      <trkpt lon="35.32219039276242" lat="31.513185035437346">
        <ele>382.79998779296875</ele>
        <time>2014-01-03T09:34:29.000Z</time>
      </trkpt>
      <trkpt lon="35.32198847271502" lat="31.51298386976123">
        <ele>382.79998779296875</ele>
        <time>2014-01-03T09:34:36.000Z</time>
      </trkpt>
      <trkpt lon="35.32184447161853" lat="31.512851770967245">
        <ele>382.79998779296875</ele>
        <time>2014-01-03T09:34:43.000Z</time>
      </trkpt>
      <trkpt lon="35.32175621017814" lat="31.51273760944605">
        <ele>382.79998779296875</ele>
        <time>2014-01-03T09:34:51.000Z</time>
      </trkpt>
      <trkpt lon="35.32167440280318" lat="31.512578018009663">
        <ele>384.20001220703125</ele>
        <time>2014-01-03T09:35:00.000Z</time>
      </trkpt>
      <trkpt lon="35.321586141362786" lat="31.512461258098483">
        <ele>384.20001220703125</ele>
        <time>2014-01-03T09:35:07.000Z</time>
      </trkpt>
      <trkpt lon="35.32143820077181" lat="31.512347515672445">
        <ele>384.6000061035156</ele>
        <time>2014-01-03T09:35:16.000Z</time>
      </trkpt>
      <trkpt lon="35.32134692184627" lat="31.51224173605442">
        <ele>385.20001220703125</ele>
        <time>2014-01-03T09:35:23.000Z</time>
      </trkpt>
      <trkpt lon="35.32126092351973" lat="31.51212640106678">
        <ele>385.20001220703125</ele>
        <time>2014-01-03T09:35:30.000Z</time>
      </trkpt>
      <trkpt lon="35.321171237155795" lat="31.512027075514197">
        <ele>386.6000061035156</ele>
        <time>2014-01-03T09:35:38.000Z</time>
      </trkpt>
      <trkpt lon="35.3210742585361" lat="31.511906795203686">
        <ele>387.0</ele>
        <time>2014-01-03T09:35:46.000Z</time>
      </trkpt>
      <trkpt lon="35.320922043174505" lat="31.511726500466466">
        <ele>388.6000061035156</ele>
        <time>2014-01-03T09:35:56.000Z</time>
      </trkpt>
      <trkpt lon="35.320802349597216" lat="31.511550396680832">
        <ele>389.3999938964844</ele>
        <time>2014-01-03T09:36:05.000Z</time>
      </trkpt>
      <trkpt lon="35.320726158097386" lat="31.5113587025553">
        <ele>390.3999938964844</ele>
        <time>2014-01-03T09:36:14.000Z</time>
      </trkpt>
      <trkpt lon="35.32073277980089" lat="31.511205732822418">
        <ele>390.3999938964844</ele>
        <time>2014-01-03T09:36:20.000Z</time>
      </trkpt>
      <trkpt lon="35.32082129269838" lat="31.510950084775686">
        <ele>390.3999938964844</ele>
        <time>2014-01-03T09:36:29.000Z</time>
      </trkpt>
      <trkpt lon="35.32097845338285" lat="31.510758558288217">
        <ele>393.3999938964844</ele>
        <time>2014-01-03T09:36:36.000Z</time>
      </trkpt>
      <trkpt lon="35.32113620080054" lat="31.510548759251833">
        <ele>394.79998779296875</ele>
        <time>2014-01-03T09:36:42.000Z</time>
      </trkpt>
      <trkpt lon="35.32124960795045" lat="31.51044557802379">
        <ele>397.6000061035156</ele>
        <time>2014-01-03T09:36:48.000Z</time>
      </trkpt>
      <trkpt lon="35.32134558074176" lat="31.510343067348003">
        <ele>401.0</ele>
        <time>2014-01-03T09:36:54.000Z</time>
      </trkpt>
      <trkpt lon="35.321469297632575" lat="31.510252375155687">
        <ele>402.3999938964844</ele>
        <time>2014-01-03T09:37:00.000Z</time>
      </trkpt>
      <trkpt lon="35.32162352465093" lat="31.510147349908948">
        <ele>402.3999938964844</ele>
        <time>2014-01-03T09:37:05.000Z</time>
      </trkpt>
      <trkpt lon="35.32167607918382" lat="31.509994799271226">
        <ele>403.0</ele>
        <time>2014-01-03T09:37:12.000Z</time>
      </trkpt>
      <trkpt lon="35.32158781774342" lat="31.509786592796445">
        <ele>402.0</ele>
        <time>2014-01-03T09:37:18.000Z</time>
      </trkpt>
      <trkpt lon="35.321555798873305" lat="31.509669749066234">
        <ele>401.3999938964844</ele>
        <time>2014-01-03T09:37:22.000Z</time>
      </trkpt>
      <trkpt lon="35.32153777778149" lat="31.509575536474586">
        <ele>402.0</ele>
        <time>2014-01-03T09:37:26.000Z</time>
      </trkpt>
      <trkpt lon="35.321567030623555" lat="31.509491801261902">
        <ele>402.3999938964844</ele>
        <time>2014-01-03T09:37:29.000Z</time>
      </trkpt>
      <trkpt lon="35.32168538309634" lat="31.509463554248214">
        <ele>405.3999938964844</ele>
        <time>2014-01-03T09:37:34.000Z</time>
      </trkpt>
      <trkpt lon="35.32177406363189" lat="31.509444108232856">
        <ele>405.79998779296875</ele>
        <time>2014-01-03T09:37:39.000Z</time>
      </trkpt>
      <trkpt lon="35.3218515124172" lat="31.509310333058238">
        <ele>405.79998779296875</ele>
        <time>2014-01-03T09:37:47.000Z</time>
      </trkpt>
      <trkpt lon="35.32198989763856" lat="31.50915903970599">
        <ele>405.3999938964844</ele>
        <time>2014-01-03T09:37:56.000Z</time>
      </trkpt>
      <trkpt lon="35.322102131322026" lat="31.508995844051242">
        <ele>404.79998779296875</ele>
        <time>2014-01-03T09:38:04.000Z</time>
      </trkpt>
      <trkpt lon="35.32216960564256" lat="31.50883600115776">
        <ele>406.20001220703125</ele>
        <time>2014-01-03T09:38:12.000Z</time>
      </trkpt>
      <trkpt lon="35.322189470753074" lat="31.508683366701007">
        <ele>405.79998779296875</ele>
        <time>2014-01-03T09:38:20.000Z</time>
      </trkpt>
      <trkpt lon="35.322179328650236" lat="31.5085197519511">
        <ele>406.79998779296875</ele>
        <time>2014-01-03T09:38:27.000Z</time>
      </trkpt>
      <trkpt lon="35.32220589928329" lat="31.50834490545094">
        <ele>406.79998779296875</ele>
        <time>2014-01-03T09:38:35.000Z</time>
      </trkpt>
      <trkpt lon="35.32223238609731" lat="31.5081553068012">
        <ele>407.79998779296875</ele>
        <time>2014-01-03T09:38:45.000Z</time>
      </trkpt>
      <trkpt lon="35.322215370833874" lat="31.508017759770155">
        <ele>409.20001220703125</ele>
        <time>2014-01-03T09:38:52.000Z</time>
      </trkpt>
      <trkpt lon="35.32211294397712" lat="31.5078151691705">
        <ele>409.20001220703125</ele>
        <time>2014-01-03T09:39:02.000Z</time>
      </trkpt>
      <trkpt lon="35.32200657762587" lat="31.507673766463995">
        <ele>408.20001220703125</ele>
        <time>2014-01-03T09:39:10.000Z</time>
      </trkpt>
      <trkpt lon="35.321910018101335" lat="31.50750302709639">
        <ele>407.79998779296875</ele>
        <time>2014-01-03T09:39:19.000Z</time>
      </trkpt>
      <trkpt lon="35.3218877222389" lat="31.507380232214928">
        <ele>404.79998779296875</ele>
        <time>2014-01-03T09:39:26.000Z</time>
      </trkpt>
      <trkpt lon="35.32187514938414" lat="31.507260957732797">
        <ele>403.0</ele>
        <time>2014-01-03T09:39:34.000Z</time>
      </trkpt>
      <trkpt lon="35.321920327842236" lat="31.507170936092734">
        <ele>403.3999938964844</ele>
        <time>2014-01-03T09:39:39.000Z</time>
      </trkpt>
      <trkpt lon="35.32200817018747" lat="31.507022324949503">
        <ele>405.3999938964844</ele>
        <time>2014-01-03T09:39:49.000Z</time>
      </trkpt>
      <trkpt lon="35.322093330323696" lat="31.506968261674047">
        <ele>408.20001220703125</ele>
        <time>2014-01-03T09:39:57.000Z</time>
      </trkpt>
      <trkpt lon="35.32210422679782" lat="31.506861308589578">
        <ele>409.20001220703125</ele>
        <time>2014-01-03T09:40:06.000Z</time>
      </trkpt>
      <trkpt lon="35.322108417749405" lat="31.506829289719462">
        <ele>409.20001220703125</ele>
        <time>2014-01-03T09:40:09.000Z</time>
      </trkpt>
      <trkpt lon="35.32213909551501" lat="31.506809340789914">
        <ele>412.6000061035156</ele>
        <time>2014-01-03T09:40:17.000Z</time>
      </trkpt>
      <trkpt lon="35.322173880413175" lat="31.50684244930744">
        <ele>413.0</ele>
        <time>2014-01-03T09:40:38.000Z</time>
      </trkpt>
      <trkpt lon="35.32219332642853" lat="31.50683549232781">
        <ele>411.20001220703125</ele>
        <time>2014-01-03T09:41:02.000Z</time>
      </trkpt>
      <trkpt lon="35.32219374552369" lat="31.506843036040664">
        <ele>411.20001220703125</ele>
        <time>2014-01-03T09:41:22.000Z</time>
      </trkpt>
      <trkpt lon="35.32217455096543" lat="31.5068497415632">
        <ele>409.6000061035156</ele>
        <time>2014-01-03T09:41:50.000Z</time>
      </trkpt>
      <trkpt lon="35.32217798754573" lat="31.506855692714453">
        <ele>406.79998779296875</ele>
        <time>2014-01-03T09:42:16.000Z</time>
      </trkpt>
      <trkpt lon="35.32218737527728" lat="31.506857872009277">
        <ele>406.79998779296875</ele>
        <time>2014-01-03T09:42:17.000Z</time>
      </trkpt>
      <trkpt lon="35.32235258258879" lat="31.506846891716123">
        <ele>406.79998779296875</ele>
        <time>2014-01-03T09:42:25.000Z</time>
      </trkpt>
      <trkpt lon="35.32242273911834" lat="31.506849825382233">
        <ele>406.20001220703125</ele>
        <time>2014-01-03T09:42:27.000Z</time>
      </trkpt>
      <trkpt lon="35.32265583984554" lat="31.506821159273386">
        <ele>404.79998779296875</ele>
        <time>2014-01-03T09:42:32.000Z</time>
      </trkpt>
      <trkpt lon="35.322984997183084" lat="31.50674463249743">
        <ele>405.3999938964844</ele>
        <time>2014-01-03T09:42:42.000Z</time>
      </trkpt>
      <trkpt lon="35.323112485930324" lat="31.50670012459159">
        <ele>406.20001220703125</ele>
        <time>2014-01-03T09:42:48.000Z</time>
      </trkpt>
      <trkpt lon="35.323326056823134" lat="31.506613036617637">
        <ele>408.79998779296875</ele>
        <time>2014-01-03T09:42:57.000Z</time>
      </trkpt>
      <trkpt lon="35.32345237210393" lat="31.50658638216555">
        <ele>408.79998779296875</ele>
        <time>2014-01-03T09:43:02.000Z</time>
      </trkpt>
      <trkpt lon="35.32364699989557" lat="31.506513208150864">
        <ele>410.20001220703125</ele>
        <time>2014-01-03T09:43:11.000Z</time>
      </trkpt>
      <trkpt lon="35.323859229683876" lat="31.5065286308527">
        <ele>411.20001220703125</ele>
        <time>2014-01-03T09:43:20.000Z</time>
      </trkpt>
      <trkpt lon="35.32406467013061" lat="31.506637008860707">
        <ele>408.79998779296875</ele>
        <time>2014-01-03T09:43:29.000Z</time>
      </trkpt>
      <trkpt lon="35.32420649193227" lat="31.506767431274056">
        <ele>409.20001220703125</ele>
        <time>2014-01-03T09:43:38.000Z</time>
      </trkpt>
      <trkpt lon="35.324372285977006" lat="31.506856279447675">
        <ele>408.79998779296875</ele>
        <time>2014-01-03T09:43:48.000Z</time>
      </trkpt>
      <trkpt lon="35.32451142556965" lat="31.506927609443665">
        <ele>410.20001220703125</ele>
        <time>2014-01-03T09:43:56.000Z</time>
      </trkpt>
      <trkpt lon="35.324651738628745" lat="31.50701771490276">
        <ele>410.6000061035156</ele>
        <time>2014-01-03T09:44:05.000Z</time>
      </trkpt>
      <trkpt lon="35.32473002560437" lat="31.50711787864566">
        <ele>412.6000061035156</ele>
        <time>2014-01-03T09:44:14.000Z</time>
      </trkpt>
      <trkpt lon="35.32473983243108" lat="31.50716288946569">
        <ele>412.0</ele>
        <time>2014-01-03T09:44:18.000Z</time>
      </trkpt>
      <trkpt lon="35.32483035698533" lat="31.50725190527737">
        <ele>413.0</ele>
        <time>2014-01-03T09:44:27.000Z</time>
      </trkpt>
      <trkpt lon="35.324840331450105" lat="31.507262466475368">
        <ele>413.0</ele>
        <time>2014-01-03T09:44:28.000Z</time>
      </trkpt>
      <trkpt lon="35.324870171025395" lat="31.50731099769473">
        <ele>413.0</ele>
        <time>2014-01-03T09:44:32.000Z</time>
      </trkpt>
      <trkpt lon="35.32496924512088" lat="31.50742289610207">
        <ele>414.0</ele>
        <time>2014-01-03T09:44:43.000Z</time>
      </trkpt>
      <trkpt lon="35.32504820264876" lat="31.50754543952644">
        <ele>414.3999938964844</ele>
        <time>2014-01-03T09:44:52.000Z</time>
      </trkpt>
      <trkpt lon="35.32515540719032" lat="31.507661947980523">
        <ele>414.3999938964844</ele>
        <time>2014-01-03T09:45:00.000Z</time>
      </trkpt>
      <trkpt lon="35.32526034861803" lat="31.507732020691037">
        <ele>415.0</ele>
        <time>2014-01-03T09:45:08.000Z</time>
      </trkpt>
      <trkpt lon="35.32534684985876" lat="31.507823718711734">
        <ele>415.3999938964844</ele>
        <time>2014-01-03T09:45:16.000Z</time>
      </trkpt>
      <trkpt lon="35.325437458232045" lat="31.5079446695745">
        <ele>416.0</ele>
        <time>2014-01-03T09:45:25.000Z</time>
      </trkpt>
      <trkpt lon="35.325545500963926" lat="31.50813778862357">
        <ele>417.3999938964844</ele>
        <time>2014-01-03T09:45:36.000Z</time>
      </trkpt>
      <trkpt lon="35.32564541324973" lat="31.50829025544226">
        <ele>418.79998779296875</ele>
        <time>2014-01-03T09:45:45.000Z</time>
      </trkpt>
      <trkpt lon="35.32578019425273" lat="31.50846074335277">
        <ele>421.20001220703125</ele>
        <time>2014-01-03T09:45:56.000Z</time>
      </trkpt>
      <trkpt lon="35.32581020146608" lat="31.508510699495673">
        <ele>420.79998779296875</ele>
        <time>2014-01-03T09:46:00.000Z</time>
      </trkpt>
      <trkpt lon="35.3258543740958" lat="31.508550429716706">
        <ele>421.6000061035156</ele>
        <time>2014-01-03T09:46:04.000Z</time>
      </trkpt>
      <trkpt lon="35.326037518680096" lat="31.50867917574942">
        <ele>421.6000061035156</ele>
        <time>2014-01-03T09:46:14.000Z</time>
      </trkpt>
      <trkpt lon="35.326128378510475" lat="31.508770873770118">
        <ele>422.20001220703125</ele>
        <time>2014-01-03T09:46:19.000Z</time>
      </trkpt>
      <trkpt lon="35.32630121335387" lat="31.508889477699995">
        <ele>423.20001220703125</ele>
        <time>2014-01-03T09:46:28.000Z</time>
      </trkpt>
      <trkpt lon="35.32648385502398" lat="31.508996346965432">
        <ele>423.6000061035156</ele>
        <time>2014-01-03T09:46:37.000Z</time>
      </trkpt>
      <trkpt lon="35.32662500627339" lat="31.509052757173777">
        <ele>424.6000061035156</ele>
        <time>2014-01-03T09:46:44.000Z</time>
      </trkpt>
      <trkpt lon="35.32678577117622" lat="31.509102545678616">
        <ele>425.6000061035156</ele>
        <time>2014-01-03T09:46:51.000Z</time>
      </trkpt>
      <trkpt lon="35.32687537372112" lat="31.509143952280283">
        <ele>425.0</ele>
        <time>2014-01-03T09:46:55.000Z</time>
      </trkpt>
      <trkpt lon="35.327060613781214" lat="31.50921469554305">
        <ele>423.6000061035156</ele>
        <time>2014-01-03T09:47:03.000Z</time>
      </trkpt>
      <trkpt lon="35.32732422463596" lat="31.50930656120181">
        <ele>423.20001220703125</ele>
        <time>2014-01-03T09:47:10.000Z</time>
      </trkpt>
      <trkpt lon="35.327486246824265" lat="31.509376298636198">
        <ele>422.20001220703125</ele>
        <time>2014-01-03T09:47:14.000Z</time>
      </trkpt>
      <trkpt lon="35.32769210636616" lat="31.50947269052267">
        <ele>423.6000061035156</ele>
        <time>2014-01-03T09:47:23.000Z</time>
      </trkpt>
      <trkpt lon="35.32791364006698" lat="31.509622558951378">
        <ele>425.0</ele>
        <time>2014-01-03T09:47:32.000Z</time>
      </trkpt>
      <trkpt lon="35.32811597920954" lat="31.509717106819153">
        <ele>426.0</ele>
        <time>2014-01-03T09:47:40.000Z</time>
      </trkpt>
      <trkpt lon="35.32828705385327" lat="31.509807044640183">
        <ele>426.3999938964844</ele>
        <time>2014-01-03T09:47:48.000Z</time>
      </trkpt>
      <trkpt lon="35.328457625582814" lat="31.509915255010128">
        <ele>427.0</ele>
        <time>2014-01-03T09:47:56.000Z</time>
      </trkpt>
      <trkpt lon="35.328647308051586" lat="31.510061686858535">
        <ele>428.3999938964844</ele>
        <time>2014-01-03T09:48:06.000Z</time>
      </trkpt>
      <trkpt lon="35.32881720922887" lat="31.510200910270214">
        <ele>429.79998779296875</ele>
        <time>2014-01-03T09:48:14.000Z</time>
      </trkpt>
      <trkpt lon="35.32890949398279" lat="31.510283555835485">
        <ele>430.3999938964844</ele>
        <time>2014-01-03T09:48:21.000Z</time>
      </trkpt>
      <trkpt lon="35.329034216701984" lat="31.510405344888568">
        <ele>430.79998779296875</ele>
        <time>2014-01-03T09:48:29.000Z</time>
      </trkpt>
      <trkpt lon="35.32915516756475" lat="31.51050944812596">
        <ele>430.3999938964844</ele>
        <time>2014-01-03T09:48:36.000Z</time>
      </trkpt>
      <trkpt lon="35.32931040041149" lat="31.510634422302246">
        <ele>430.3999938964844</ele>
        <time>2014-01-03T09:48:44.000Z</time>
      </trkpt>
      <trkpt lon="35.32946093939245" lat="31.510755121707916">
        <ele>429.79998779296875</ele>
        <time>2014-01-03T09:48:51.000Z</time>
      </trkpt>
      <trkpt lon="35.32964299432933" lat="31.510916221886873">
        <ele>430.3999938964844</ele>
        <time>2014-01-03T09:48:59.000Z</time>
      </trkpt>
      <trkpt lon="35.329701667651534" lat="31.510976068675518">
        <ele>428.3999938964844</ele>
        <time>2014-01-03T09:49:05.000Z</time>
      </trkpt>
      <trkpt lon="35.32971725799143" lat="31.510987803339958">
        <ele>428.3999938964844</ele>
        <time>2014-01-03T09:49:26.000Z</time>
      </trkpt>
      <trkpt lon="35.32972203567624" lat="31.510983696207404">
        <ele>430.3999938964844</ele>
        <time>2014-01-03T09:49:54.000Z</time>
      </trkpt>
      <trkpt lon="35.329730501398444" lat="31.510980846360326">
        <ele>430.3999938964844</ele>
        <time>2014-01-03T09:50:08.000Z</time>
      </trkpt>
      <trkpt lon="35.32988229766488" lat="31.511044800281525">
        <ele>429.3999938964844</ele>
        <time>2014-01-03T09:50:16.000Z</time>
      </trkpt>
      <trkpt lon="35.33005186356604" lat="31.511140437796712">
        <ele>426.0</ele>
        <time>2014-01-03T09:50:22.000Z</time>
      </trkpt>
      <trkpt lon="35.33020759932697" lat="31.511297095566988">
        <ele>421.6000061035156</ele>
        <time>2014-01-03T09:50:30.000Z</time>
      </trkpt>
      <trkpt lon="35.33030156046152" lat="31.511429278180003">
        <ele>417.79998779296875</ele>
        <time>2014-01-03T09:50:37.000Z</time>
      </trkpt>
      <trkpt lon="35.330386217683554" lat="31.51150530204177">
        <ele>415.3999938964844</ele>
        <time>2014-01-03T09:50:42.000Z</time>
      </trkpt>
      <trkpt lon="35.33059358596802" lat="31.5115727763623">
        <ele>411.6000061035156</ele>
        <time>2014-01-03T09:50:50.000Z</time>
      </trkpt>
      <trkpt lon="35.330815287306905" lat="31.511696660891175">
        <ele>406.79998779296875</ele>
        <time>2014-01-03T09:50:57.000Z</time>
      </trkpt>
      <trkpt lon="35.33109390176833" lat="31.511787436902523">
        <ele>401.3999938964844</ele>
        <time>2014-01-03T09:51:05.000Z</time>
      </trkpt>
      <trkpt lon="35.331399757415056" lat="31.511875530704856">
        <ele>397.6000061035156</ele>
        <time>2014-01-03T09:51:14.000Z</time>
      </trkpt>
      <trkpt lon="35.33166102133691" lat="31.511981477960944">
        <ele>392.3999938964844</ele>
        <time>2014-01-03T09:51:23.000Z</time>
      </trkpt>
      <trkpt lon="35.33185690641403" lat="31.512163281440735">
        <ele>386.6000061035156</ele>
        <time>2014-01-03T09:51:30.000Z</time>
      </trkpt>
      <trkpt lon="35.33190082758665" lat="31.51227987371385">
        <ele>384.20001220703125</ele>
        <time>2014-01-03T09:51:33.000Z</time>
      </trkpt>
      <trkpt lon="35.33193049952388" lat="31.512442734092474">
        <ele>379.79998779296875</ele>
        <time>2014-01-03T09:51:37.000Z</time>
      </trkpt>
      <trkpt lon="35.33217692747712" lat="31.512693352997303">
        <ele>376.3999938964844</ele>
        <time>2014-01-03T09:51:45.000Z</time>
      </trkpt>
      <trkpt lon="35.332421427592635" lat="31.512793013826013">
        <ele>375.6000061035156</ele>
        <time>2014-01-03T09:51:51.000Z</time>
      </trkpt>
      <trkpt lon="35.332637848332524" lat="31.512884041294456">
        <ele>374.0</ele>
        <time>2014-01-03T09:51:57.000Z</time>
      </trkpt>
      <trkpt lon="35.332987206056714" lat="31.51302653364837">
        <ele>370.20001220703125</ele>
        <time>2014-01-03T09:52:06.000Z</time>
      </trkpt>
      <trkpt lon="35.33318770118058" lat="31.513083949685097">
        <ele>366.3999938964844</ele>
        <time>2014-01-03T09:52:11.000Z</time>
      </trkpt>
      <trkpt lon="35.33355566672981" lat="31.51321353390813">
        <ele>362.0</ele>
        <time>2014-01-03T09:52:17.000Z</time>
      </trkpt>
      <trkpt lon="35.33394425176084" lat="31.513405395671725">
        <ele>357.20001220703125</ele>
        <time>2014-01-03T09:52:22.000Z</time>
      </trkpt>
      <trkpt lon="35.33422579988837" lat="31.513623241335154">
        <ele>353.0</ele>
        <time>2014-01-03T09:52:28.000Z</time>
      </trkpt>
      <trkpt lon="35.33444372937083" lat="31.513801524415612">
        <ele>347.6000061035156</ele>
        <time>2014-01-03T09:52:34.000Z</time>
      </trkpt>
      <trkpt lon="35.3345422167331" lat="31.513860365375876">
        <ele>346.6000061035156</ele>
        <time>2014-01-03T09:52:36.000Z</time>
      </trkpt>
      <trkpt lon="35.33481756225228" lat="31.513902274891734">
        <ele>343.79998779296875</ele>
        <time>2014-01-03T09:52:42.000Z</time>
      </trkpt>
      <trkpt lon="35.33499131910503" lat="31.513902358710766">
        <ele>344.79998779296875</ele>
        <time>2014-01-03T09:52:48.000Z</time>
      </trkpt>
      <trkpt lon="35.33518334850669" lat="31.51394359767437">
        <ele>344.79998779296875</ele>
        <time>2014-01-03T09:52:53.000Z</time>
      </trkpt>
      <trkpt lon="35.33553798682988" lat="31.514116767793894">
        <ele>343.79998779296875</ele>
        <time>2014-01-03T09:53:01.000Z</time>
      </trkpt>
      <trkpt lon="35.33569833263755" lat="31.514175860211253">
        <ele>343.3999938964844</ele>
        <time>2014-01-03T09:53:04.000Z</time>
      </trkpt>
      <trkpt lon="35.33598122186959" lat="31.51423579081893">
        <ele>342.3999938964844</ele>
        <time>2014-01-03T09:53:09.000Z</time>
      </trkpt>
      <trkpt lon="35.33627416938543" lat="31.51436973363161">
        <ele>341.3999938964844</ele>
        <time>2014-01-03T09:53:16.000Z</time>
      </trkpt>
      <trkpt lon="35.33642487600446" lat="31.514584980905056">
        <ele>341.0</ele>
        <time>2014-01-03T09:53:23.000Z</time>
      </trkpt>
      <trkpt lon="35.336481453850865" lat="31.514696292579174">
        <ele>340.3999938964844</ele>
        <time>2014-01-03T09:53:26.000Z</time>
      </trkpt>
      <trkpt lon="35.33656192012131" lat="31.514809196814895">
        <ele>340.3999938964844</ele>
        <time>2014-01-03T09:53:29.000Z</time>
      </trkpt>
      <trkpt lon="35.33675830811262" lat="31.514971302822232">
        <ele>339.3999938964844</ele>
        <time>2014-01-03T09:53:34.000Z</time>
      </trkpt>
      <trkpt lon="35.33707246184349" lat="31.51512117125094">
        <ele>338.0</ele>
        <time>2014-01-03T09:53:40.000Z</time>
      </trkpt>
      <trkpt lon="35.33713339827955" lat="31.515135671943426">
        <ele>337.6000061035156</ele>
        <time>2014-01-03T09:53:41.000Z</time>
      </trkpt>
      <trkpt lon="35.33738410100341" lat="31.515200464054942">
        <ele>337.0</ele>
        <time>2014-01-03T09:53:45.000Z</time>
      </trkpt>
      <trkpt lon="35.33771803602576" lat="31.51523902080953">
        <ele>335.6000061035156</ele>
        <time>2014-01-03T09:53:51.000Z</time>
      </trkpt>
      <trkpt lon="35.338006960228086" lat="31.515258215367794">
        <ele>334.6000061035156</ele>
        <time>2014-01-03T09:53:56.000Z</time>
      </trkpt>
      <trkpt lon="35.33822790719569" lat="31.515267184004188">
        <ele>335.20001220703125</ele>
        <time>2014-01-03T09:54:01.000Z</time>
      </trkpt>
      <trkpt lon="35.33844843506813" lat="31.51535226032138">
        <ele>335.20001220703125</ele>
        <time>2014-01-03T09:54:06.000Z</time>
      </trkpt>
      <trkpt lon="35.33861121162772" lat="31.515513779595494">
        <ele>335.6000061035156</ele>
        <time>2014-01-03T09:54:11.000Z</time>
      </trkpt>
      <trkpt lon="35.33883014693856" lat="31.515853414312005">
        <ele>336.20001220703125</ele>
        <time>2014-01-03T09:54:19.000Z</time>
      </trkpt>
      <trkpt lon="35.33891488797963" lat="31.51599238626659">
        <ele>335.20001220703125</ele>
        <time>2014-01-03T09:54:22.000Z</time>
      </trkpt>
      <trkpt lon="35.33916575834155" lat="31.516259936615825">
        <ele>333.20001220703125</ele>
        <time>2014-01-03T09:54:28.000Z</time>
      </trkpt>
      <trkpt lon="35.339497262611985" lat="31.516522206366062">
        <ele>332.79998779296875</ele>
        <time>2014-01-03T09:54:35.000Z</time>
      </trkpt>
      <trkpt lon="35.33996203914285" lat="31.51664382778108">
        <ele>328.0</ele>
        <time>2014-01-03T09:54:41.000Z</time>
      </trkpt>
      <trkpt lon="35.340274684131145" lat="31.516706440597773">
        <ele>326.0</ele>
        <time>2014-01-03T09:54:45.000Z</time>
      </trkpt>
      <trkpt lon="35.34044969826937" lat="31.51673410087824">
        <ele>325.6000061035156</ele>
        <time>2014-01-03T09:54:48.000Z</time>
      </trkpt>
      <trkpt lon="35.34063351340592" lat="31.516738962382078">
        <ele>324.20001220703125</ele>
        <time>2014-01-03T09:54:51.000Z</time>
      </trkpt>
      <trkpt lon="35.34087206237018" lat="31.516798976808786">
        <ele>324.6000061035156</ele>
        <time>2014-01-03T09:54:57.000Z</time>
      </trkpt>
      <trkpt lon="35.34100801683962" lat="31.516813477501273">
        <ele>326.0</ele>
        <time>2014-01-03T09:55:03.000Z</time>
      </trkpt>
      <trkpt lon="35.34123164601624" lat="31.516785146668553">
        <ele>328.3999938964844</ele>
        <time>2014-01-03T09:55:09.000Z</time>
      </trkpt>
      <trkpt lon="35.341451251879334" lat="31.516804173588753">
        <ele>329.79998779296875</ele>
        <time>2014-01-03T09:55:15.000Z</time>
      </trkpt>
      <trkpt lon="35.34171251580119" lat="31.516886986792088">
        <ele>329.3999938964844</ele>
        <time>2014-01-03T09:55:20.000Z</time>
      </trkpt>
      <trkpt lon="35.342196486890316" lat="31.517218155786395">
        <ele>327.0</ele>
        <time>2014-01-03T09:55:29.000Z</time>
      </trkpt>
      <trkpt lon="35.34240033477545" lat="31.517403731122613">
        <ele>327.0</ele>
        <time>2014-01-03T09:55:34.000Z</time>
      </trkpt>
      <trkpt lon="35.34273259341717" lat="31.517530968412757">
        <ele>325.6000061035156</ele>
        <time>2014-01-03T09:55:41.000Z</time>
      </trkpt>
      <trkpt lon="35.34325738437474" lat="31.517598778009415">
        <ele>321.20001220703125</ele>
        <time>2014-01-03T09:55:49.000Z</time>
      </trkpt>
      <trkpt lon="35.343428794294596" lat="31.517632137984037">
        <ele>318.3999938964844</ele>
        <time>2014-01-03T09:55:53.000Z</time>
      </trkpt>
      <trkpt lon="35.343447318300605" lat="31.517640436068177">
        <ele>317.79998779296875</ele>
        <time>2014-01-03T09:55:54.000Z</time>
      </trkpt>
      <trkpt lon="35.343601293861866" lat="31.517653595656157">
        <ele>316.0</ele>
        <time>2014-01-03T09:55:59.000Z</time>
      </trkpt>
      <trkpt lon="35.34373330883682" lat="31.51765426620841">
        <ele>316.3999938964844</ele>
        <time>2014-01-03T09:56:04.000Z</time>
      </trkpt>
      <trkpt lon="35.34396708011627" lat="31.517624761909246">
        <ele>316.79998779296875</ele>
        <time>2014-01-03T09:56:10.000Z</time>
      </trkpt>
      <trkpt lon="35.34404603764415" lat="31.517590396106243">
        <ele>317.3999938964844</ele>
        <time>2014-01-03T09:56:12.000Z</time>
      </trkpt>
      <trkpt lon="35.34439883194864" lat="31.51745201088488">
        <ele>317.79998779296875</ele>
        <time>2014-01-03T09:56:19.000Z</time>
      </trkpt>
      <trkpt lon="35.34452757798135" lat="31.517405156046152">
        <ele>317.79998779296875</ele>
        <time>2014-01-03T09:56:21.000Z</time>
      </trkpt>
      <trkpt lon="35.34488514997065" lat="31.517325695604086">
        <ele>317.79998779296875</ele>
        <time>2014-01-03T09:56:26.000Z</time>
      </trkpt>
      <trkpt lon="35.34510483965278" lat="31.5173146314919">
        <ele>316.79998779296875</ele>
        <time>2014-01-03T09:56:29.000Z</time>
      </trkpt>
      <trkpt lon="35.345590403303504" lat="31.51739384047687">
        <ele>316.3999938964844</ele>
        <time>2014-01-03T09:56:36.000Z</time>
      </trkpt>
      <trkpt lon="35.34603229723871" lat="31.51755561120808">
        <ele>314.3999938964844</ele>
        <time>2014-01-03T09:56:42.000Z</time>
      </trkpt>
      <trkpt lon="35.3461726102978" lat="31.517613446339965">
        <ele>314.0</ele>
        <time>2014-01-03T09:56:44.000Z</time>
      </trkpt>
      <trkpt lon="35.346371764317155" lat="31.517722913995385">
        <ele>313.6000061035156</ele>
        <time>2014-01-03T09:56:47.000Z</time>
      </trkpt>
      <trkpt lon="35.346660101786256" lat="31.517815114930272">
        <ele>312.6000061035156</ele>
        <time>2014-01-03T09:56:51.000Z</time>
      </trkpt>
      <trkpt lon="35.34684559330344" lat="31.517929695546627">
        <ele>309.6000061035156</ele>
        <time>2014-01-03T09:56:55.000Z</time>
      </trkpt>
      <trkpt lon="35.346932765096426" lat="31.518022483214736">
        <ele>308.79998779296875</ele>
        <time>2014-01-03T09:56:57.000Z</time>
      </trkpt>
      <trkpt lon="35.34709160216153" lat="31.518186684697866">
        <ele>304.79998779296875</ele>
        <time>2014-01-03T09:57:03.000Z</time>
      </trkpt>
      <trkpt lon="35.34721976146102" lat="31.51825038716197">
        <ele>304.79998779296875</ele>
        <time>2014-01-03T09:57:08.000Z</time>
      </trkpt>
      <trkpt lon="35.34727114252746" lat="31.518300594761968">
        <ele>304.79998779296875</ele>
        <time>2014-01-03T09:57:10.000Z</time>
      </trkpt>
      <trkpt lon="35.347527880221605" lat="31.518450630828738">
        <ele>305.3999938964844</ele>
        <time>2014-01-03T09:57:17.000Z</time>
      </trkpt>
      <trkpt lon="35.34772058017552" lat="31.518639475107193">
        <ele>305.79998779296875</ele>
        <time>2014-01-03T09:57:24.000Z</time>
      </trkpt>
      <trkpt lon="35.34783197566867" lat="31.518746092915535">
        <ele>304.3999938964844</ele>
        <time>2014-01-03T09:57:27.000Z</time>
      </trkpt>
      <trkpt lon="35.34798000007868" lat="31.518966369330883">
        <ele>303.0</ele>
        <time>2014-01-03T09:57:32.000Z</time>
      </trkpt>
      <trkpt lon="35.348370764404535" lat="31.519281277433038">
        <ele>300.6000061035156</ele>
        <time>2014-01-03T09:57:40.000Z</time>
      </trkpt>
      <trkpt lon="35.348607720807195" lat="31.51941086165607">
        <ele>300.0</ele>
        <time>2014-01-03T09:57:44.000Z</time>
      </trkpt>
      <trkpt lon="35.34891500137746" lat="31.519586965441704">
        <ele>299.20001220703125</ele>
        <time>2014-01-03T09:57:50.000Z</time>
      </trkpt>
      <trkpt lon="35.3491947054863" lat="31.519681178033352">
        <ele>298.6000061035156</ele>
        <time>2014-01-03T09:57:55.000Z</time>
      </trkpt>
      <trkpt lon="35.34977573901415" lat="31.519799698144197">
        <ele>298.20001220703125</ele>
        <time>2014-01-03T09:58:05.000Z</time>
      </trkpt>
      <trkpt lon="35.35000389441848" lat="31.51988443918526">
        <ele>296.79998779296875</ele>
        <time>2014-01-03T09:58:11.000Z</time>
      </trkpt>
      <trkpt lon="35.350059382617474" lat="31.519906148314476">
        <ele>295.20001220703125</ele>
        <time>2014-01-03T09:58:16.000Z</time>
      </trkpt>
      <trkpt lon="35.350148901343346" lat="31.519973538815975">
        <ele>292.3999938964844</ele>
        <time>2014-01-03T09:58:21.000Z</time>
      </trkpt>
      <trkpt lon="35.35021360963583" lat="31.520062889903784">
        <ele>294.20001220703125</ele>
        <time>2014-01-03T09:58:26.000Z</time>
      </trkpt>
      <trkpt lon="35.35026557743549" lat="31.520198341459036">
        <ele>295.79998779296875</ele>
        <time>2014-01-03T09:58:36.000Z</time>
      </trkpt>
      <trkpt lon="35.3503343090415" lat="31.520347790792584">
        <ele>296.79998779296875</ele>
        <time>2014-01-03T09:58:43.000Z</time>
      </trkpt>
      <trkpt lon="35.35050085745752" lat="31.52054250240326">
        <ele>296.79998779296875</ele>
        <time>2014-01-03T09:58:51.000Z</time>
      </trkpt>
      <trkpt lon="35.35067453049123" lat="31.520622968673706">
        <ele>297.20001220703125</ele>
        <time>2014-01-03T09:58:57.000Z</time>
      </trkpt>
      <trkpt lon="35.35098918713629" lat="31.52063788846135">
        <ele>295.79998779296875</ele>
        <time>2014-01-03T09:59:04.000Z</time>
      </trkpt>
      <trkpt lon="35.351035790517926" lat="31.520628416910768">
        <ele>295.79998779296875</ele>
        <time>2014-01-03T09:59:05.000Z</time>
      </trkpt>
      <trkpt lon="35.351258581504226" lat="31.520552895963192">
        <ele>295.20001220703125</ele>
        <time>2014-01-03T09:59:09.000Z</time>
      </trkpt>
      <trkpt lon="35.351762333884835" lat="31.520293056964874">
        <ele>295.20001220703125</ele>
        <time>2014-01-03T09:59:18.000Z</time>
      </trkpt>
      <trkpt lon="35.35236021503806" lat="31.52012374252081">
        <ele>293.3999938964844</ele>
        <time>2014-01-03T09:59:26.000Z</time>
      </trkpt>
      <trkpt lon="35.35279858857393" lat="31.520005306228995">
        <ele>292.79998779296875</ele>
        <time>2014-01-03T09:59:32.000Z</time>
      </trkpt>
      <trkpt lon="35.35321298986673" lat="31.51998753659427">
        <ele>291.3999938964844</ele>
        <time>2014-01-03T09:59:38.000Z</time>
      </trkpt>
      <trkpt lon="35.35327635705471" lat="31.519972952082753">
        <ele>291.0</ele>
        <time>2014-01-03T09:59:39.000Z</time>
      </trkpt>
      <trkpt lon="35.35351926460862" lat="31.51986289769411">
        <ele>291.0</ele>
        <time>2014-01-03T09:59:43.000Z</time>
      </trkpt>
      <trkpt lon="35.35401991568506" lat="31.519756698980927">
        <ele>290.3999938964844</ele>
        <time>2014-01-03T09:59:50.000Z</time>
      </trkpt>
      <trkpt lon="35.35425150766969" lat="31.519756112247705">
        <ele>290.3999938964844</ele>
        <time>2014-01-03T09:59:53.000Z</time>
      </trkpt>
      <trkpt lon="35.354614444077015" lat="31.51978461071849">
        <ele>288.0</ele>
        <time>2014-01-03T09:59:58.000Z</time>
      </trkpt>
      <trkpt lon="35.35506815649569" lat="31.5197582077235">
        <ele>286.6000061035156</ele>
        <time>2014-01-03T10:00:05.000Z</time>
      </trkpt>
      <trkpt lon="35.355210145935416" lat="31.51975435204804">
        <ele>286.20001220703125</ele>
        <time>2014-01-03T10:00:07.000Z</time>
      </trkpt>
      <trkpt lon="35.3553766105324" lat="31.519800201058388">
        <ele>286.6000061035156</ele>
        <time>2014-01-03T10:00:12.000Z</time>
      </trkpt>
      <trkpt lon="35.35542908124626" lat="31.519953925162554">
        <ele>286.20001220703125</ele>
        <time>2014-01-03T10:00:20.000Z</time>
      </trkpt>
      <trkpt lon="35.35542715340853" lat="31.519975047558546">
        <ele>286.6000061035156</ele>
        <time>2014-01-03T10:00:21.000Z</time>
      </trkpt>
      <trkpt lon="35.355438217520714" lat="31.520167160779238">
        <ele>287.0</ele>
        <time>2014-01-03T10:00:29.000Z</time>
      </trkpt>
      <trkpt lon="35.355466632172465" lat="31.52040428481996">
        <ele>288.0</ele>
        <time>2014-01-03T10:00:37.000Z</time>
      </trkpt>
      <trkpt lon="35.3556099627167" lat="31.52047217823565">
        <ele>287.6000061035156</ele>
        <time>2014-01-03T10:00:41.000Z</time>
      </trkpt>
      <trkpt lon="35.35576603375375" lat="31.520516853779554">
        <ele>288.0</ele>
        <time>2014-01-03T10:00:45.000Z</time>
      </trkpt>
      <trkpt lon="35.35593149252236" lat="31.520573096349835">
        <ele>291.0</ele>
        <time>2014-01-03T10:00:52.000Z</time>
      </trkpt>
      <trkpt lon="35.35601363517344" lat="31.520598074421287">
        <ele>291.0</ele>
        <time>2014-01-03T10:00:55.000Z</time>
      </trkpt>
      <trkpt lon="35.35628587938845" lat="31.520548537373543">
        <ele>289.3999938964844</ele>
        <time>2014-01-03T10:01:00.000Z</time>
      </trkpt>
      <trkpt lon="35.3564940020442" lat="31.520367488265038">
        <ele>288.6000061035156</ele>
        <time>2014-01-03T10:01:04.000Z</time>
      </trkpt>
      <trkpt lon="35.35654865205288" lat="31.520165987312794">
        <ele>289.3999938964844</ele>
        <time>2014-01-03T10:01:08.000Z</time>
      </trkpt>
      <trkpt lon="35.3565354924649" lat="31.520048305392265">
        <ele>289.0</ele>
        <time>2014-01-03T10:01:10.000Z</time>
      </trkpt>
      <trkpt lon="35.356649570167065" lat="31.519876392558217">
        <ele>289.0</ele>
        <time>2014-01-03T10:01:15.000Z</time>
      </trkpt>
      <trkpt lon="35.356740932911634" lat="31.519856862723827">
        <ele>289.0</ele>
        <time>2014-01-03T10:01:17.000Z</time>
      </trkpt>
      <trkpt lon="35.35718249157071" lat="31.519750831648707">
        <ele>287.0</ele>
        <time>2014-01-03T10:01:25.000Z</time>
      </trkpt>
      <trkpt lon="35.357639975845814" lat="31.51966349221766">
        <ele>285.6000061035156</ele>
        <time>2014-01-03T10:01:31.000Z</time>
      </trkpt>
      <trkpt lon="35.35793334245682" lat="31.519669191911817">
        <ele>282.79998779296875</ele>
        <time>2014-01-03T10:01:36.000Z</time>
      </trkpt>
      <trkpt lon="35.358169209212065" lat="31.519701713696122">
        <ele>280.3999938964844</ele>
        <time>2014-01-03T10:01:43.000Z</time>
      </trkpt>
      <trkpt lon="35.35817809402943" lat="31.519705317914486">
        <ele>279.0</ele>
        <time>2014-01-03T10:01:50.000Z</time>
      </trkpt>
      <trkpt lon="35.35821489058435" lat="31.51972107589245">
        <ele>278.3999938964844</ele>
        <time>2014-01-03T10:02:02.000Z</time>
      </trkpt>
      <trkpt lon="35.358353946357965" lat="31.519735492765903">
        <ele>278.0</ele>
        <time>2014-01-03T10:02:07.000Z</time>
      </trkpt>
      <trkpt lon="35.358578246086836" lat="31.519801458343863">
        <ele>277.3999938964844</ele>
        <time>2014-01-03T10:02:13.000Z</time>
      </trkpt>
      <trkpt lon="35.35877044312656" lat="31.519897766411304">
        <ele>276.6000061035156</ele>
        <time>2014-01-03T10:02:20.000Z</time>
      </trkpt>
      <trkpt lon="35.35886758938432" lat="31.51998309418559">
        <ele>276.0</ele>
        <time>2014-01-03T10:02:27.000Z</time>
      </trkpt>
      <trkpt lon="35.35886415280402" lat="31.520013688132167">
        <ele>275.0</ele>
        <time>2014-01-03T10:02:33.000Z</time>
      </trkpt>
      <trkpt lon="35.35885493271053" lat="31.520003210753202">
        <ele>274.20001220703125</ele>
        <time>2014-01-03T10:02:48.000Z</time>
      </trkpt>
      <trkpt lon="35.358872786164284" lat="31.51999231427908">
        <ele>272.20001220703125</ele>
        <time>2014-01-03T10:03:07.000Z</time>
      </trkpt>
      <trkpt lon="35.358881084248424" lat="31.519994409754872">
        <ele>271.20001220703125</ele>
        <time>2014-01-03T10:03:31.000Z</time>
      </trkpt>
      <trkpt lon="35.35888183861971" lat="31.519997511059046">
        <ele>270.79998779296875</ele>
        <time>2014-01-03T10:03:53.000Z</time>
      </trkpt>
      <trkpt lon="35.35888720303774" lat="31.519998013973236">
        <ele>270.79998779296875</ele>
        <time>2014-01-03T10:04:24.000Z</time>
      </trkpt>
      <trkpt lon="35.35888812504709" lat="31.51999960653484">
        <ele>271.20001220703125</ele>
        <time>2014-01-03T10:04:48.000Z</time>
      </trkpt>
      <trkpt lon="35.358890891075134" lat="31.519992984831333">
        <ele>272.20001220703125</ele>
        <time>2014-01-03T10:05:03.000Z</time>
      </trkpt>
      <trkpt lon="35.358897261321545" lat="31.51999575085938">
        <ele>273.20001220703125</ele>
        <time>2014-01-03T10:05:30.000Z</time>
      </trkpt>
      <trkpt lon="35.3588976804167" lat="31.519999438896775">
        <ele>272.6000061035156</ele>
        <time>2014-01-03T10:06:00.000Z</time>
      </trkpt>
      <trkpt lon="35.35890279337764" lat="31.52000840753317">
        <ele>273.20001220703125</ele>
        <time>2014-01-03T10:06:28.000Z</time>
      </trkpt>
      <trkpt lon="35.35889592021704" lat="31.520013185217977">
        <ele>272.6000061035156</ele>
        <time>2014-01-03T10:06:44.000Z</time>
      </trkpt>
      <trkpt lon="35.35884671844542" lat="31.520023914054036">
        <ele>272.20001220703125</ele>
        <time>2014-01-03T10:06:55.000Z</time>
      </trkpt>
      <trkpt lon="35.358848394826055" lat="31.520045371726155">
        <ele>272.6000061035156</ele>
        <time>2014-01-03T10:07:09.000Z</time>
      </trkpt>
      <trkpt lon="35.35885887220502" lat="31.520067332312465">
        <ele>272.6000061035156</ele>
        <time>2014-01-03T10:07:12.000Z</time>
      </trkpt>
      <trkpt lon="35.3589185513556" lat="31.520106978714466">
        <ele>273.6000061035156</ele>
        <time>2014-01-03T10:07:16.000Z</time>
      </trkpt>
      <trkpt lon="35.359064396470785" lat="31.520266737788916">
        <ele>274.6000061035156</ele>
        <time>2014-01-03T10:07:24.000Z</time>
      </trkpt>
      <trkpt lon="35.359166571870446" lat="31.520354663953185">
        <ele>275.6000061035156</ele>
        <time>2014-01-03T10:07:28.000Z</time>
      </trkpt>
      <trkpt lon="35.35925776697695" lat="31.52039447799325">
        <ele>277.0</ele>
        <time>2014-01-03T10:07:33.000Z</time>
      </trkpt>
      <trkpt lon="35.359410820528865" lat="31.520537557080388">
        <ele>279.3999938964844</ele>
        <time>2014-01-03T10:07:44.000Z</time>
      </trkpt>
      <trkpt lon="35.359564293175936" lat="31.52069002389908">
        <ele>279.3999938964844</ele>
        <time>2014-01-03T10:07:51.000Z</time>
      </trkpt>
      <trkpt lon="35.359703516587615" lat="31.520845340564847">
        <ele>281.3999938964844</ele>
        <time>2014-01-03T10:08:00.000Z</time>
      </trkpt>
      <trkpt lon="35.35977518185973" lat="31.520954808220267">
        <ele>282.79998779296875</ele>
        <time>2014-01-03T10:08:09.000Z</time>
      </trkpt>
      <trkpt lon="35.359826227650046" lat="31.521075339987874">
        <ele>284.20001220703125</ele>
        <time>2014-01-03T10:08:16.000Z</time>
      </trkpt>
      <trkpt lon="35.359840812161565" lat="31.52112001553178">
        <ele>284.6000061035156</ele>
        <time>2014-01-03T10:08:19.000Z</time>
      </trkpt>
      <trkpt lon="35.359876519069076" lat="31.52123157866299">
        <ele>287.0</ele>
        <time>2014-01-03T10:08:29.000Z</time>
      </trkpt>
      <trkpt lon="35.35991817712784" lat="31.521328557282686">
        <ele>288.6000061035156</ele>
        <time>2014-01-03T10:08:38.000Z</time>
      </trkpt>
      <trkpt lon="35.3599822986871" lat="31.52143383398652">
        <ele>290.0</ele>
        <time>2014-01-03T10:08:48.000Z</time>
      </trkpt>
      <trkpt lon="35.360034266486764" lat="31.52150214649737">
        <ele>289.0</ele>
        <time>2014-01-03T10:08:51.000Z</time>
      </trkpt>
      <trkpt lon="35.360294776037335" lat="31.521695852279663">
        <ele>286.6000061035156</ele>
        <time>2014-01-03T10:08:58.000Z</time>
      </trkpt>
      <trkpt lon="35.36042922176421" lat="31.52174647897482">
        <ele>289.0</ele>
        <time>2014-01-03T10:09:06.000Z</time>
      </trkpt>
      <trkpt lon="35.360475489869714" lat="31.521770786494017">
        <ele>290.0</ele>
        <time>2014-01-03T10:09:09.000Z</time>
      </trkpt>
      <trkpt lon="35.36067078821361" lat="31.521896682679653">
        <ele>291.0</ele>
        <time>2014-01-03T10:09:20.000Z</time>
      </trkpt>
      <trkpt lon="35.36090271547437" lat="31.522011011838913">
        <ele>290.3999938964844</ele>
        <time>2014-01-03T10:09:27.000Z</time>
      </trkpt>
      <trkpt lon="35.361083848401904" lat="31.52210472151637">
        <ele>291.3999938964844</ele>
        <time>2014-01-03T10:09:34.000Z</time>
      </trkpt>
      <trkpt lon="35.361257856711745" lat="31.52224444784224">
        <ele>291.0</ele>
        <time>2014-01-03T10:09:41.000Z</time>
      </trkpt>
      <trkpt lon="35.361493807286024" lat="31.52245106175542">
        <ele>286.6000061035156</ele>
        <time>2014-01-03T10:09:45.000Z</time>
      </trkpt>
      <trkpt lon="35.361814331263304" lat="31.522770412266254">
        <ele>283.79998779296875</ele>
        <time>2014-01-03T10:09:50.000Z</time>
      </trkpt>
      <trkpt lon="35.36203846335411" lat="31.523058582097292">
        <ele>278.3999938964844</ele>
        <time>2014-01-03T10:09:56.000Z</time>
      </trkpt>
      <trkpt lon="35.3621893376112" lat="31.52313318103552">
        <ele>278.0</ele>
        <time>2014-01-03T10:09:59.000Z</time>
      </trkpt>
      <trkpt lon="35.36224365234375" lat="31.523142820224166">
        <ele>278.0</ele>
        <time>2014-01-03T10:10:00.000Z</time>
      </trkpt>
      <trkpt lon="35.36245311610401" lat="31.52317333035171">
        <ele>279.0</ele>
        <time>2014-01-03T10:10:05.000Z</time>
      </trkpt>
      <trkpt lon="35.36267037503421" lat="31.52326276525855">
        <ele>280.3999938964844</ele>
        <time>2014-01-03T10:10:11.000Z</time>
      </trkpt>
      <trkpt lon="35.36282720044255" lat="31.52335999533534">
        <ele>279.79998779296875</ele>
        <time>2014-01-03T10:10:15.000Z</time>
      </trkpt>
      <trkpt lon="35.36292032338679" lat="31.5233863145113">
        <ele>280.79998779296875</ele>
        <time>2014-01-03T10:10:17.000Z</time>
      </trkpt>
      <trkpt lon="35.36323120817542" lat="31.523507265374064">
        <ele>285.20001220703125</ele>
        <time>2014-01-03T10:10:26.000Z</time>
      </trkpt>
      <trkpt lon="35.363426925614476" lat="31.523574739694595">
        <ele>289.0</ele>
        <time>2014-01-03T10:10:34.000Z</time>
      </trkpt>
      <trkpt lon="35.36355650983751" lat="31.5236677788198">
        <ele>290.3999938964844</ele>
        <time>2014-01-03T10:10:43.000Z</time>
      </trkpt>
      <trkpt lon="35.363668240606785" lat="31.523827789351344">
        <ele>288.6000061035156</ele>
        <time>2014-01-03T10:10:48.000Z</time>
      </trkpt>
      <trkpt lon="35.36375801078975" lat="31.52398637495935">
        <ele>287.0</ele>
        <time>2014-01-03T10:10:51.000Z</time>
      </trkpt>
      <trkpt lon="35.36395180039108" lat="31.52428745292127">
        <ele>286.20001220703125</ele>
        <time>2014-01-03T10:10:59.000Z</time>
      </trkpt>
      <trkpt lon="35.364064956083894" lat="31.524410247802734">
        <ele>286.20001220703125</ele>
        <time>2014-01-03T10:11:05.000Z</time>
      </trkpt>
      <trkpt lon="35.364324040710926" lat="31.52443539351225">
        <ele>285.6000061035156</ele>
        <time>2014-01-03T10:11:12.000Z</time>
      </trkpt>
      <trkpt lon="35.36455781199038" lat="31.524517368525267">
        <ele>286.6000061035156</ele>
        <time>2014-01-03T10:11:18.000Z</time>
      </trkpt>
      <trkpt lon="35.36473089829087" lat="31.52469590306282">
        <ele>287.0</ele>
        <time>2014-01-03T10:11:26.000Z</time>
      </trkpt>
      <trkpt lon="35.36490440368652" lat="31.52481358498335">
        <ele>287.6000061035156</ele>
        <time>2014-01-03T10:11:33.000Z</time>
      </trkpt>
      <trkpt lon="35.36511772312224" lat="31.524919280782342">
        <ele>289.3999938964844</ele>
        <time>2014-01-03T10:11:41.000Z</time>
      </trkpt>
      <trkpt lon="35.36522073671222" lat="31.525017097592354">
        <ele>290.3999938964844</ele>
        <time>2014-01-03T10:11:48.000Z</time>
      </trkpt>
      <trkpt lon="35.36540111526847" lat="31.52517425827682">
        <ele>291.79998779296875</ele>
        <time>2014-01-03T10:11:58.000Z</time>
      </trkpt>
      <trkpt lon="35.365557773038745" lat="31.5253341011703">
        <ele>293.3999938964844</ele>
        <time>2014-01-03T10:12:07.000Z</time>
      </trkpt>
      <trkpt lon="35.36564544774592" lat="31.525468798354268">
        <ele>293.79998779296875</ele>
        <time>2014-01-03T10:12:14.000Z</time>
      </trkpt>
      <trkpt lon="35.36577218212187" lat="31.525705251842737">
        <ele>293.79998779296875</ele>
        <time>2014-01-03T10:12:24.000Z</time>
      </trkpt>
      <trkpt lon="35.36587846465409" lat="31.525927539914846">
        <ele>294.79998779296875</ele>
        <time>2014-01-03T10:12:33.000Z</time>
      </trkpt>
      <trkpt lon="35.36597779020667" lat="31.5261163841933">
        <ele>295.20001220703125</ele>
        <time>2014-01-03T10:12:40.000Z</time>
      </trkpt>
      <trkpt lon="35.36612841300666" lat="31.52628058567643">
        <ele>295.79998779296875</ele>
        <time>2014-01-03T10:12:49.000Z</time>
      </trkpt>
      <trkpt lon="35.36626981571317" lat="31.52641586959362">
        <ele>295.79998779296875</ele>
        <time>2014-01-03T10:12:55.000Z</time>
      </trkpt>
      <trkpt lon="35.36656980402768" lat="31.52659071609378">
        <ele>288.6000061035156</ele>
        <time>2014-01-03T10:13:01.000Z</time>
      </trkpt>
      <trkpt lon="35.36683710291982" lat="31.52665475383401">
        <ele>288.0</ele>
        <time>2014-01-03T10:13:07.000Z</time>
      </trkpt>
      <trkpt lon="35.366994766518474" lat="31.526658609509468">
        <ele>291.79998779296875</ele>
        <time>2014-01-03T10:13:13.000Z</time>
      </trkpt>
      <trkpt lon="35.3671317268163" lat="31.526690125465393">
        <ele>295.20001220703125</ele>
        <time>2014-01-03T10:13:20.000Z</time>
      </trkpt>
      <trkpt lon="35.36728276871145" lat="31.526770005002618">
        <ele>297.20001220703125</ele>
        <time>2014-01-03T10:13:27.000Z</time>
      </trkpt>
      <trkpt lon="35.36732157692313" lat="31.526823984459043">
        <ele>296.79998779296875</ele>
        <time>2014-01-03T10:13:29.000Z</time>
      </trkpt>
      <trkpt lon="35.36739684641361" lat="31.527064461261034">
        <ele>293.79998779296875</ele>
        <time>2014-01-03T10:13:34.000Z</time>
      </trkpt>
      <trkpt lon="35.3673645760864" lat="31.52732077986002">
        <ele>290.3999938964844</ele>
        <time>2014-01-03T10:13:39.000Z</time>
      </trkpt>
      <trkpt lon="35.36746214143932" lat="31.527430415153503">
        <ele>289.0</ele>
        <time>2014-01-03T10:13:42.000Z</time>
      </trkpt>
      <trkpt lon="35.36750488914549" lat="31.52743862941861">
        <ele>289.0</ele>
        <time>2014-01-03T10:13:43.000Z</time>
      </trkpt>
      <trkpt lon="35.36776648834348" lat="31.52742781676352">
        <ele>292.79998779296875</ele>
        <time>2014-01-03T10:13:52.000Z</time>
      </trkpt>
      <trkpt lon="35.36790621466935" lat="31.527457488700747">
        <ele>294.20001220703125</ele>
        <time>2014-01-03T10:14:00.000Z</time>
      </trkpt>
      <trkpt lon="35.3679415024817" lat="31.527504846453667">
        <ele>294.20001220703125</ele>
        <time>2014-01-03T10:14:04.000Z</time>
      </trkpt>
      <trkpt lon="35.36796296015382" lat="31.52772638015449">
        <ele>291.0</ele>
        <time>2014-01-03T10:14:12.000Z</time>
      </trkpt>
      <trkpt lon="35.36803244613111" lat="31.52786811813712">
        <ele>288.6000061035156</ele>
        <time>2014-01-03T10:14:15.000Z</time>
      </trkpt>
      <trkpt lon="35.36806337535381" lat="31.528009520843625">
        <ele>286.20001220703125</ele>
        <time>2014-01-03T10:14:18.000Z</time>
      </trkpt>
      <trkpt lon="35.36803579889238" lat="31.528197275474668">
        <ele>282.79998779296875</ele>
        <time>2014-01-03T10:14:22.000Z</time>
      </trkpt>
      <trkpt lon="35.3681830689311" lat="31.5283786598593">
        <ele>280.3999938964844</ele>
        <time>2014-01-03T10:14:27.000Z</time>
      </trkpt>
      <trkpt lon="35.36830896511674" lat="31.52838259935379">
        <ele>280.3999938964844</ele>
        <time>2014-01-03T10:14:30.000Z</time>
      </trkpt>
      <trkpt lon="35.368603924289346" lat="31.52829651720822">
        <ele>279.0</ele>
        <time>2014-01-03T10:14:35.000Z</time>
      </trkpt>
      <trkpt lon="35.36877256818116" lat="31.528164921328425">
        <ele>278.3999938964844</ele>
        <time>2014-01-03T10:14:38.000Z</time>
      </trkpt>
      <trkpt lon="35.369029054418206" lat="31.528060482814908">
        <ele>277.3999938964844</ele>
        <time>2014-01-03T10:14:42.000Z</time>
      </trkpt>
      <trkpt lon="35.36918956786394" lat="31.52807481586933">
        <ele>276.0</ele>
        <time>2014-01-03T10:14:45.000Z</time>
      </trkpt>
      <trkpt lon="35.36926441825926" lat="31.528208255767822">
        <ele>276.6000061035156</ele>
        <time>2014-01-03T10:14:51.000Z</time>
      </trkpt>
      <trkpt lon="35.369254276156425" lat="31.528373463079333">
        <ele>277.3999938964844</ele>
        <time>2014-01-03T10:14:59.000Z</time>
      </trkpt>
      <trkpt lon="35.369206918403506" lat="31.52858041226864">
        <ele>277.0</ele>
        <time>2014-01-03T10:15:07.000Z</time>
      </trkpt>
      <trkpt lon="35.3692021407187" lat="31.528787361457944">
        <ele>277.0</ele>
        <time>2014-01-03T10:15:14.000Z</time>
      </trkpt>
      <trkpt lon="35.36915134638548" lat="31.529040411114693">
        <ele>277.3999938964844</ele>
        <time>2014-01-03T10:15:23.000Z</time>
      </trkpt>
      <trkpt lon="35.369103234261274" lat="31.529255490750074">
        <ele>279.0</ele>
        <time>2014-01-03T10:15:31.000Z</time>
      </trkpt>
      <trkpt lon="35.36905420012772" lat="31.529526142403483">
        <ele>279.3999938964844</ele>
        <time>2014-01-03T10:15:40.000Z</time>
      </trkpt>
      <trkpt lon="35.36902234889567" lat="31.529697636142373">
        <ele>279.0</ele>
        <time>2014-01-03T10:15:45.000Z</time>
      </trkpt>
      <trkpt lon="35.368977254256606" lat="31.529964935034513">
        <ele>279.0</ele>
        <time>2014-01-03T10:15:54.000Z</time>
      </trkpt>
      <trkpt lon="35.369026539847255" lat="31.53011421673">
        <ele>280.79998779296875</ele>
        <time>2014-01-03T10:16:01.000Z</time>
      </trkpt>
      <trkpt lon="35.36923826672137" lat="31.530184457078576">
        <ele>283.79998779296875</ele>
        <time>2014-01-03T10:16:08.000Z</time>
      </trkpt>
      <trkpt lon="35.36932988092303" lat="31.530340360477567">
        <ele>285.20001220703125</ele>
        <time>2014-01-03T10:16:15.000Z</time>
      </trkpt>
      <trkpt lon="35.36942392587662" lat="31.530564576387405">
        <ele>286.6000061035156</ele>
        <time>2014-01-03T10:16:24.000Z</time>
      </trkpt>
      <trkpt lon="35.369521491229534" lat="31.530710253864527">
        <ele>287.6000061035156</ele>
        <time>2014-01-03T10:16:31.000Z</time>
      </trkpt>
      <trkpt lon="35.36963456310332" lat="31.53085936792195">
        <ele>287.0</ele>
        <time>2014-01-03T10:16:36.000Z</time>
      </trkpt>
      <trkpt lon="35.3698012791574" lat="31.53121274895966">
        <ele>285.20001220703125</ele>
        <time>2014-01-03T10:16:43.000Z</time>
      </trkpt>
      <trkpt lon="35.369912004098296" lat="31.531458673998713">
        <ele>285.20001220703125</ele>
        <time>2014-01-03T10:16:49.000Z</time>
      </trkpt>
      <trkpt lon="35.37002113647759" lat="31.531612062826753">
        <ele>287.6000061035156</ele>
        <time>2014-01-03T10:16:55.000Z</time>
      </trkpt>
      <trkpt lon="35.37009363994002" lat="31.531683141365647">
        <ele>287.0</ele>
        <time>2014-01-03T10:16:58.000Z</time>
      </trkpt>
      <trkpt lon="35.370273096486926" lat="31.532002156600356">
        <ele>285.6000061035156</ele>
        <time>2014-01-03T10:17:04.000Z</time>
      </trkpt>
      <trkpt lon="35.3703660517931" lat="31.532240621745586">
        <ele>285.6000061035156</ele>
        <time>2014-01-03T10:17:10.000Z</time>
      </trkpt>
      <trkpt lon="35.37046906538308" lat="31.532476991415024">
        <ele>286.20001220703125</ele>
        <time>2014-01-03T10:17:18.000Z</time>
      </trkpt>
      <trkpt lon="35.370500748977065" lat="31.532561061903834">
        <ele>285.20001220703125</ele>
        <time>2014-01-03T10:17:20.000Z</time>
      </trkpt>
      <trkpt lon="35.370571659877896" lat="31.532739931717515">
        <ele>284.6000061035156</ele>
        <time>2014-01-03T10:17:24.000Z</time>
      </trkpt>
      <trkpt lon="35.37060267291963" lat="31.532835736870766">
        <ele>284.20001220703125</ele>
        <time>2014-01-03T10:17:26.000Z</time>
      </trkpt>
      <trkpt lon="35.37062857300043" lat="31.53297521173954">
        <ele>282.79998779296875</ele>
        <time>2014-01-03T10:17:29.000Z</time>
      </trkpt>
      <trkpt lon="35.37076972424984" lat="31.533167492598295">
        <ele>283.20001220703125</ele>
        <time>2014-01-03T10:17:35.000Z</time>
      </trkpt>
      <trkpt lon="35.370829654857516" lat="31.533246282488108">
        <ele>283.79998779296875</ele>
        <time>2014-01-03T10:17:41.000Z</time>
      </trkpt>
      <trkpt lon="35.37089494988322" lat="31.533411657437682">
        <ele>283.79998779296875</ele>
        <time>2014-01-03T10:17:46.000Z</time>
      </trkpt>
      <trkpt lon="35.370928728953004" lat="31.533672250807285">
        <ele>284.20001220703125</ele>
        <time>2014-01-03T10:17:54.000Z</time>
      </trkpt>
      <trkpt lon="35.37097834981978" lat="31.53382941149175">
        <ele>284.6000061035156</ele>
        <time>2014-01-03T10:18:00.000Z</time>
      </trkpt>
      <trkpt lon="35.37095773033798" lat="31.53400518000126">
        <ele>286.6000061035156</ele>
        <time>2014-01-03T10:18:07.000Z</time>
      </trkpt>
      <trkpt lon="35.370961502194405" lat="31.5341273881495">
        <ele>289.0</ele>
        <time>2014-01-03T10:18:15.000Z</time>
      </trkpt>
      <trkpt lon="35.37100265733898" lat="31.534222522750497">
        <ele>290.0</ele>
        <time>2014-01-03T10:18:23.000Z</time>
      </trkpt>
      <trkpt lon="35.37109519354999" lat="31.534364176914096">
        <ele>290.0</ele>
        <time>2014-01-03T10:18:31.000Z</time>
      </trkpt>
      <trkpt lon="35.37127934396267" lat="31.534538017585874">
        <ele>291.0</ele>
        <time>2014-01-03T10:18:38.000Z</time>
      </trkpt>
      <trkpt lon="35.3714366722852" lat="31.534656956791878">
        <ele>291.3999938964844</ele>
        <time>2014-01-03T10:18:44.000Z</time>
      </trkpt>
      <trkpt lon="35.37165133282542" lat="31.534900283440948">
        <ele>290.0</ele>
        <time>2014-01-03T10:18:49.000Z</time>
      </trkpt>
      <trkpt lon="35.37179231643677" lat="31.535137994214892">
        <ele>289.0</ele>
        <time>2014-01-03T10:18:55.000Z</time>
      </trkpt>
      <trkpt lon="35.37186708301306" lat="31.535262381657958">
        <ele>290.0</ele>
        <time>2014-01-03T10:19:00.000Z</time>
      </trkpt>
      <trkpt lon="35.371940759941936" lat="31.535433204844594">
        <ele>290.0</ele>
        <time>2014-01-03T10:19:07.000Z</time>
      </trkpt>
      <trkpt lon="35.3719615470618" lat="31.535587264224887">
        <ele>289.3999938964844</ele>
        <time>2014-01-03T10:19:14.000Z</time>
      </trkpt>
      <trkpt lon="35.37203086540103" lat="31.53570134192705">
        <ele>289.0</ele>
        <time>2014-01-03T10:19:18.000Z</time>
      </trkpt>
      <trkpt lon="35.37213262170553" lat="31.535859843716025">
        <ele>289.0</ele>
        <time>2014-01-03T10:19:26.000Z</time>
      </trkpt>
      <trkpt lon="35.37219800055027" lat="31.536032343283296">
        <ele>287.6000061035156</ele>
        <time>2014-01-03T10:19:33.000Z</time>
      </trkpt>
      <trkpt lon="35.37227025255561" lat="31.536240549758077">
        <ele>287.0</ele>
        <time>2014-01-03T10:19:40.000Z</time>
      </trkpt>
      <trkpt lon="35.37237921729684" lat="31.53636527247727">
        <ele>288.0</ele>
        <time>2014-01-03T10:19:47.000Z</time>
      </trkpt>
      <trkpt lon="35.3724969830364" lat="31.536507178097963">
        <ele>291.3999938964844</ele>
        <time>2014-01-03T10:19:55.000Z</time>
      </trkpt>
      <trkpt lon="35.37253947928548" lat="31.536646569147706">
        <ele>292.79998779296875</ele>
        <time>2014-01-03T10:20:04.000Z</time>
      </trkpt>
      <trkpt lon="35.37254392169416" lat="31.53664782643318">
        <ele>292.79998779296875</ele>
        <time>2014-01-03T10:20:12.000Z</time>
      </trkpt>
      <trkpt lon="35.37255238741636" lat="31.53668495826423">
        <ele>292.3999938964844</ele>
        <time>2014-01-03T10:20:26.000Z</time>
      </trkpt>
      <trkpt lon="35.37257719784975" lat="31.53671756386757">
        <ele>293.3999938964844</ele>
        <time>2014-01-03T10:20:31.000Z</time>
      </trkpt>
      <trkpt lon="35.37257342599332" lat="31.53689400292933">
        <ele>291.3999938964844</ele>
        <time>2014-01-03T10:20:42.000Z</time>
      </trkpt>
      <trkpt lon="35.372619861736894" lat="31.5370768122375">
        <ele>290.0</ele>
        <time>2014-01-03T10:20:49.000Z</time>
      </trkpt>
      <trkpt lon="35.37254475988448" lat="31.537366239354014">
        <ele>288.6000061035156</ele>
        <time>2014-01-03T10:20:58.000Z</time>
      </trkpt>
      <trkpt lon="35.37248675711453" lat="31.537462547421455">
        <ele>287.0</ele>
        <time>2014-01-03T10:21:01.000Z</time>
      </trkpt>
      <trkpt lon="35.37234568968415" lat="31.53768760152161">
        <ele>283.79998779296875</ele>
        <time>2014-01-03T10:21:07.000Z</time>
      </trkpt>
      <trkpt lon="35.37238114513457" lat="31.5379885956645">
        <ele>281.79998779296875</ele>
        <time>2014-01-03T10:21:13.000Z</time>
      </trkpt>
      <trkpt lon="35.37256588228047" lat="31.538205770775676">
        <ele>280.3999938964844</ele>
        <time>2014-01-03T10:21:18.000Z</time>
      </trkpt>
      <trkpt lon="35.372598990798" lat="31.53824114240706">
        <ele>280.79998779296875</ele>
        <time>2014-01-03T10:21:19.000Z</time>
      </trkpt>
      <trkpt lon="35.372681971639395" lat="31.538364607840776">
        <ele>281.3999938964844</ele>
        <time>2014-01-03T10:21:25.000Z</time>
      </trkpt>
      <trkpt lon="35.3726766910404" lat="31.538447085767984">
        <ele>280.79998779296875</ele>
        <time>2014-01-03T10:21:27.000Z</time>
      </trkpt>
      <trkpt lon="35.37261374294758" lat="31.538652693852782">
        <ele>280.3999938964844</ele>
        <time>2014-01-03T10:21:31.000Z</time>
      </trkpt>
      <trkpt lon="35.37256747484207" lat="31.539077823981643">
        <ele>278.3999938964844</ele>
        <time>2014-01-03T10:21:39.000Z</time>
      </trkpt>
      <trkpt lon="35.37251106463373" lat="31.539306566119194">
        <ele>277.3999938964844</ele>
        <time>2014-01-03T10:21:45.000Z</time>
      </trkpt>
      <trkpt lon="35.37241735495627" lat="31.53946029022336">
        <ele>278.3999938964844</ele>
        <time>2014-01-03T10:21:52.000Z</time>
      </trkpt>
      <trkpt lon="35.37227720953524" lat="31.539558861404657">
        <ele>279.3999938964844</ele>
        <time>2014-01-03T10:21:59.000Z</time>
      </trkpt>
      <trkpt lon="35.372128849849105" lat="31.539647122845054">
        <ele>280.79998779296875</ele>
        <time>2014-01-03T10:22:06.000Z</time>
      </trkpt>
      <trkpt lon="35.37202198058367" lat="31.539720129221678">
        <ele>283.20001220703125</ele>
        <time>2014-01-03T10:22:15.000Z</time>
      </trkpt>
      <trkpt lon="35.372005300596356" lat="31.539751645177603">
        <ele>282.20001220703125</ele>
        <time>2014-01-03T10:22:27.000Z</time>
      </trkpt>
      <trkpt lon="35.37196381017566" lat="31.539873937144876">
        <ele>282.79998779296875</ele>
        <time>2014-01-03T10:22:33.000Z</time>
      </trkpt>
      <trkpt lon="35.37206456065178" lat="31.540004443377256">
        <ele>281.79998779296875</ele>
        <time>2014-01-03T10:22:38.000Z</time>
      </trkpt>
      <trkpt lon="35.372352227568626" lat="31.540111396461725">
        <ele>281.3999938964844</ele>
        <time>2014-01-03T10:22:45.000Z</time>
      </trkpt>
      <trkpt lon="35.37253889255226" lat="31.540186749771237">
        <ele>281.3999938964844</ele>
        <time>2014-01-03T10:22:50.000Z</time>
      </trkpt>
      <trkpt lon="35.37263587117195" lat="31.54024701565504">
        <ele>283.20001220703125</ele>
        <time>2014-01-03T10:22:56.000Z</time>
      </trkpt>
      <trkpt lon="35.37274123169482" lat="31.540359584614635">
        <ele>286.20001220703125</ele>
        <time>2014-01-03T10:23:03.000Z</time>
      </trkpt>
      <trkpt lon="35.37288933992386" lat="31.540532335639">
        <ele>289.3999938964844</ele>
        <time>2014-01-03T10:23:13.000Z</time>
      </trkpt>
      <trkpt lon="35.3729906771332" lat="31.540667535737157">
        <ele>291.79998779296875</ele>
        <time>2014-01-03T10:23:22.000Z</time>
      </trkpt>
      <trkpt lon="35.37307105958462" lat="31.540779769420624">
        <ele>294.79998779296875</ele>
        <time>2014-01-03T10:23:30.000Z</time>
      </trkpt>
      <trkpt lon="35.37314482033253" lat="31.540808770805597">
        <ele>295.79998779296875</ele>
        <time>2014-01-03T10:23:34.000Z</time>
      </trkpt>
      <trkpt lon="35.373285887762904" lat="31.54073752462864">
        <ele>295.79998779296875</ele>
        <time>2014-01-03T10:23:40.000Z</time>
      </trkpt>
      <trkpt lon="35.37346006371081" lat="31.540538538247347">
        <ele>295.79998779296875</ele>
        <time>2014-01-03T10:23:48.000Z</time>
      </trkpt>
      <trkpt lon="35.37375133484602" lat="31.540328487753868">
        <ele>294.20001220703125</ele>
        <time>2014-01-03T10:23:54.000Z</time>
      </trkpt>
      <trkpt lon="35.37397370673716" lat="31.54023813083768">
        <ele>292.79998779296875</ele>
        <time>2014-01-03T10:23:57.000Z</time>
      </trkpt>
      <trkpt lon="35.37455507554114" lat="31.540143666788936">
        <ele>288.6000061035156</ele>
        <time>2014-01-03T10:24:03.000Z</time>
      </trkpt>
      <trkpt lon="35.37478683516383" lat="31.54012237675488">
        <ele>287.6000061035156</ele>
        <time>2014-01-03T10:24:06.000Z</time>
      </trkpt>
      <trkpt lon="35.37503066472709" lat="31.540103936567903">
        <ele>288.0</ele>
        <time>2014-01-03T10:24:12.000Z</time>
      </trkpt>
      <trkpt lon="35.375341046601534" lat="31.540038054808974">
        <ele>288.6000061035156</ele>
        <time>2014-01-03T10:24:19.000Z</time>
      </trkpt>
      <trkpt lon="35.37553047761321" lat="31.53997426852584">
        <ele>290.0</ele>
        <time>2014-01-03T10:24:26.000Z</time>
      </trkpt>
      <trkpt lon="35.375710939988494" lat="31.539873434230685">
        <ele>291.3999938964844</ele>
        <time>2014-01-03T10:24:34.000Z</time>
      </trkpt>
      <trkpt lon="35.37578050978482" lat="31.53981945477426">
        <ele>291.3999938964844</ele>
        <time>2014-01-03T10:24:36.000Z</time>
      </trkpt>
      <trkpt lon="35.376140009611845" lat="31.53957168571651">
        <ele>289.3999938964844</ele>
        <time>2014-01-03T10:24:43.000Z</time>
      </trkpt>
      <trkpt lon="35.37646078504622" lat="31.539387116208673">
        <ele>289.0</ele>
        <time>2014-01-03T10:24:48.000Z</time>
      </trkpt>
      <trkpt lon="35.37664434872568" lat="31.53930681757629">
        <ele>288.6000061035156</ele>
        <time>2014-01-03T10:24:51.000Z</time>
      </trkpt>
      <trkpt lon="35.376950623467565" lat="31.53923163190484">
        <ele>286.20001220703125</ele>
        <time>2014-01-03T10:24:57.000Z</time>
      </trkpt>
      <trkpt lon="35.37721146829426" lat="31.53927320614457">
        <ele>283.20001220703125</ele>
        <time>2014-01-03T10:25:01.000Z</time>
      </trkpt>
      <trkpt lon="35.377483209595084" lat="31.539498092606664">
        <ele>283.79998779296875</ele>
        <time>2014-01-03T10:25:09.000Z</time>
      </trkpt>
      <trkpt lon="35.37771278992295" lat="31.539786430075765">
        <ele>286.20001220703125</ele>
        <time>2014-01-03T10:25:20.000Z</time>
      </trkpt>
      <trkpt lon="35.377904484048486" lat="31.54001441784203">
        <ele>287.6000061035156</ele>
        <time>2014-01-03T10:25:29.000Z</time>
      </trkpt>
      <trkpt lon="35.37807220593095" lat="31.54013905674219">
        <ele>288.0</ele>
        <time>2014-01-03T10:25:37.000Z</time>
      </trkpt>
      <trkpt lon="35.37829692475498" lat="31.540260342881083">
        <ele>288.0</ele>
        <time>2014-01-03T10:25:47.000Z</time>
      </trkpt>
      <trkpt lon="35.37841544486582" lat="31.540324799716473">
        <ele>290.0</ele>
        <time>2014-01-03T10:25:53.000Z</time>
      </trkpt>
      <trkpt lon="35.378586016595364" lat="31.54041549190879">
        <ele>291.3999938964844</ele>
        <time>2014-01-03T10:26:03.000Z</time>
      </trkpt>
      <trkpt lon="35.37879246287048" lat="31.5404805354774">
        <ele>291.3999938964844</ele>
        <time>2014-01-03T10:26:10.000Z</time>
      </trkpt>
      <trkpt lon="35.378993628546596" lat="31.54041406698525">
        <ele>291.3999938964844</ele>
        <time>2014-01-03T10:26:16.000Z</time>
      </trkpt>
      <trkpt lon="35.37907510064542" lat="31.54025238007307">
        <ele>291.79998779296875</ele>
        <time>2014-01-03T10:26:23.000Z</time>
      </trkpt>
      <trkpt lon="35.379200242459774" lat="31.540018022060394">
        <ele>295.79998779296875</ele>
        <time>2014-01-03T10:26:32.000Z</time>
      </trkpt>
      <trkpt lon="35.37936796434224" lat="31.539908219128847">
        <ele>296.79998779296875</ele>
        <time>2014-01-03T10:26:40.000Z</time>
      </trkpt>
      <trkpt lon="35.379673903808" lat="31.539775198325515">
        <ele>294.20001220703125</ele>
        <time>2014-01-03T10:26:50.000Z</time>
      </trkpt>
      <trkpt lon="35.379888731986284" lat="31.539626168087125">
        <ele>292.79998779296875</ele>
        <time>2014-01-03T10:26:58.000Z</time>
      </trkpt>
      <trkpt lon="35.380138512700796" lat="31.539492141455412">
        <ele>291.3999938964844</ele>
        <time>2014-01-03T10:27:05.000Z</time>
      </trkpt>
      <trkpt lon="35.380508406087756" lat="31.53939482755959">
        <ele>290.0</ele>
        <time>2014-01-03T10:27:13.000Z</time>
      </trkpt>
      <trkpt lon="35.38073287345469" lat="31.539313858374953">
        <ele>289.3999938964844</ele>
        <time>2014-01-03T10:27:19.000Z</time>
      </trkpt>
      <trkpt lon="35.38114886730909" lat="31.539167007431388">
        <ele>287.0</ele>
        <time>2014-01-03T10:27:27.000Z</time>
      </trkpt>
      <trkpt lon="35.38158950395882" lat="31.53909333050251">
        <ele>285.20001220703125</ele>
        <time>2014-01-03T10:27:34.000Z</time>
      </trkpt>
      <trkpt lon="35.38178103044629" lat="31.53906407766044">
        <ele>284.6000061035156</ele>
        <time>2014-01-03T10:27:37.000Z</time>
      </trkpt>
      <trkpt lon="35.38205771706998" lat="31.5389487426728">
        <ele>284.6000061035156</ele>
        <time>2014-01-03T10:27:43.000Z</time>
      </trkpt>
      <trkpt lon="35.38214463740587" lat="31.538892248645425">
        <ele>284.6000061035156</ele>
        <time>2014-01-03T10:27:45.000Z</time>
      </trkpt>
      <trkpt lon="35.3825284447521" lat="31.53875134885311">
        <ele>282.79998779296875</ele>
        <time>2014-01-03T10:27:52.000Z</time>
      </trkpt>
      <trkpt lon="35.38263799622655" lat="31.53874833136797">
        <ele>282.20001220703125</ele>
        <time>2014-01-03T10:27:54.000Z</time>
      </trkpt>
      <trkpt lon="35.38290831260383" lat="31.538778254762292">
        <ele>282.20001220703125</ele>
        <time>2014-01-03T10:28:01.000Z</time>
      </trkpt>
      <trkpt lon="35.38313881494105" lat="31.538730980828404">
        <ele>282.79998779296875</ele>
        <time>2014-01-03T10:28:10.000Z</time>
      </trkpt>
      <trkpt lon="35.38327812217176" lat="31.53865948319435">
        <ele>282.79998779296875</ele>
        <time>2014-01-03T10:28:17.000Z</time>
      </trkpt>
      <trkpt lon="35.383404940366745" lat="31.538626290857792">
        <ele>282.20001220703125</ele>
        <time>2014-01-03T10:28:24.000Z</time>
      </trkpt>
      <trkpt lon="35.38340116851032" lat="31.538619752973318">
        <ele>283.20001220703125</ele>
        <time>2014-01-03T10:28:38.000Z</time>
      </trkpt>
      <trkpt lon="35.383408293128014" lat="31.538617154583335">
        <ele>282.20001220703125</ele>
        <time>2014-01-03T10:28:44.000Z</time>
      </trkpt>
      <trkpt lon="35.38339622318745" lat="31.53861598111689">
        <ele>280.3999938964844</ele>
        <time>2014-01-03T10:29:00.000Z</time>
      </trkpt>
      <trkpt lon="35.383379040285945" lat="31.538612628355622">
        <ele>277.0</ele>
        <time>2014-01-03T10:29:29.000Z</time>
      </trkpt>
      <trkpt lon="35.38337878882885" lat="31.53861740604043">
        <ele>275.6000061035156</ele>
        <time>2014-01-03T10:29:54.000Z</time>
      </trkpt>
      <trkpt lon="35.38337895646691" lat="31.538619166240096">
        <ele>275.0</ele>
        <time>2014-01-03T10:30:12.000Z</time>
      </trkpt>
      <trkpt lon="35.38337082602084" lat="31.538616316393018">
        <ele>273.6000061035156</ele>
        <time>2014-01-03T10:30:38.000Z</time>
      </trkpt>
      <trkpt lon="35.38336445577443" lat="31.538616232573986">
        <ele>272.20001220703125</ele>
        <time>2014-01-03T10:30:53.000Z</time>
      </trkpt>
      <trkpt lon="35.38335942663252" lat="31.538614640012383">
        <ele>271.20001220703125</ele>
        <time>2014-01-03T10:31:20.000Z</time>
      </trkpt>
      <trkpt lon="35.383363366127014" lat="31.538620088249445">
        <ele>271.20001220703125</ele>
        <time>2014-01-03T10:31:38.000Z</time>
      </trkpt>
      <trkpt lon="35.383361941203475" lat="31.538620423525572">
        <ele>271.20001220703125</ele>
        <time>2014-01-03T10:32:06.000Z</time>
      </trkpt>
      <trkpt lon="35.38336219266057" lat="31.538620674982667">
        <ele>270.79998779296875</ele>
        <time>2014-01-03T10:32:33.000Z</time>
      </trkpt>
      <trkpt lon="35.383362863212824" lat="31.53861983679235">
        <ele>270.79998779296875</ele>
        <time>2014-01-03T10:33:00.000Z</time>
      </trkpt>
      <trkpt lon="35.38336303085089" lat="31.538618998602033">
        <ele>270.20001220703125</ele>
        <time>2014-01-03T10:33:19.000Z</time>
      </trkpt>
      <trkpt lon="35.383361941203475" lat="31.538618495687842">
        <ele>269.79998779296875</ele>
        <time>2014-01-03T10:33:43.000Z</time>
      </trkpt>
      <trkpt lon="35.38336370140314" lat="31.538618579506874">
        <ele>270.20001220703125</ele>
        <time>2014-01-03T10:34:07.000Z</time>
      </trkpt>
      <trkpt lon="35.38336168974638" lat="31.538618244230747">
        <ele>270.79998779296875</ele>
        <time>2014-01-03T10:34:42.000Z</time>
      </trkpt>
      <trkpt lon="35.38335716351867" lat="31.538615562021732">
        <ele>270.20001220703125</ele>
        <time>2014-01-03T10:35:03.000Z</time>
      </trkpt>
      <trkpt lon="35.3833572473377" lat="31.538615645840764">
        <ele>270.20001220703125</ele>
        <time>2014-01-03T10:35:29.000Z</time>
      </trkpt>
      <trkpt lon="35.38335397839546" lat="31.538609946146607">
        <ele>268.79998779296875</ele>
        <time>2014-01-03T10:35:59.000Z</time>
      </trkpt>
      <trkpt lon="35.38335548713803" lat="31.53861153870821">
        <ele>268.79998779296875</ele>
        <time>2014-01-03T10:36:23.000Z</time>
      </trkpt>
      <trkpt lon="35.38335179910064" lat="31.538608269765973">
        <ele>267.79998779296875</ele>
        <time>2014-01-03T10:36:52.000Z</time>
      </trkpt>
      <trkpt lon="35.38334886543453" lat="31.538605503737926">
        <ele>267.3999938964844</ele>
        <time>2014-01-03T10:37:14.000Z</time>
      </trkpt>
      <trkpt lon="35.38334802724421" lat="31.538603575900197">
        <ele>267.3999938964844</ele>
        <time>2014-01-03T10:37:37.000Z</time>
      </trkpt>
      <trkpt lon="35.383351128548384" lat="31.538604917004704">
        <ele>267.79998779296875</ele>
        <time>2014-01-03T10:38:04.000Z</time>
      </trkpt>
      <trkpt lon="35.383353643119335" lat="31.538606425747275">
        <ele>269.79998779296875</ele>
        <time>2014-01-03T10:38:38.000Z</time>
      </trkpt>
      <trkpt lon="35.38335179910064" lat="31.53860617429018">
        <ele>270.79998779296875</ele>
        <time>2014-01-03T10:38:57.000Z</time>
      </trkpt>
      <trkpt lon="35.383355570957065" lat="31.538605587556958">
        <ele>271.79998779296875</ele>
        <time>2014-01-03T10:39:21.000Z</time>
      </trkpt>
      <trkpt lon="35.383359510451555" lat="31.538603072986007">
        <ele>272.6000061035156</ele>
        <time>2014-01-03T10:39:49.000Z</time>
      </trkpt>
      <trkpt lon="35.38336085155606" lat="31.53859938494861">
        <ele>273.20001220703125</ele>
        <time>2014-01-03T10:40:17.000Z</time>
      </trkpt>
      <trkpt lon="35.38336127065122" lat="31.538600390776992">
        <ele>273.6000061035156</ele>
        <time>2014-01-03T10:40:46.000Z</time>
      </trkpt>
      <trkpt lon="35.3833625279367" lat="31.538601396605372">
        <ele>274.20001220703125</ele>
        <time>2014-01-03T10:41:22.000Z</time>
      </trkpt>
      <trkpt lon="35.383363869041204" lat="31.538602570071816">
        <ele>274.6000061035156</ele>
        <time>2014-01-03T10:41:48.000Z</time>
      </trkpt>
      <trkpt lon="35.38336546160281" lat="31.53860617429018">
        <ele>274.6000061035156</ele>
        <time>2014-01-03T10:42:08.000Z</time>
      </trkpt>
      <trkpt lon="35.383369233459234" lat="31.538606006652117">
        <ele>275.0</ele>
        <time>2014-01-03T10:42:33.000Z</time>
      </trkpt>
      <trkpt lon="35.38336990401149" lat="31.53860659338534">
        <ele>276.0</ele>
        <time>2014-01-03T10:42:58.000Z</time>
      </trkpt>
      <trkpt lon="35.383369317278266" lat="31.538609862327576">
        <ele>276.6000061035156</ele>
        <time>2014-01-03T10:43:24.000Z</time>
      </trkpt>
      <trkpt lon="35.38337300531566" lat="31.538610868155956">
        <ele>276.6000061035156</ele>
        <time>2014-01-03T10:43:57.000Z</time>
      </trkpt>
      <trkpt lon="35.383371245115995" lat="31.538614304736257">
        <ele>275.6000061035156</ele>
        <time>2014-01-03T10:44:18.000Z</time>
      </trkpt>
      <trkpt lon="35.38337677717209" lat="31.538617070764303">
        <ele>275.0</ele>
        <time>2014-01-03T10:44:46.000Z</time>
      </trkpt>
      <trkpt lon="35.3833760228008" lat="31.53861790895462">
        <ele>274.6000061035156</ele>
        <time>2014-01-03T10:45:07.000Z</time>
      </trkpt>
      <trkpt lon="35.383371161296964" lat="31.538614137098193">
        <ele>275.0</ele>
        <time>2014-01-03T10:45:31.000Z</time>
      </trkpt>
      <trkpt lon="35.3833709936589" lat="31.538608856499195">
        <ele>274.6000061035156</ele>
        <time>2014-01-03T10:45:58.000Z</time>
      </trkpt>
      <trkpt lon="35.38336705416441" lat="31.538610281422734">
        <ele>275.0</ele>
        <time>2014-01-03T10:46:18.000Z</time>
      </trkpt>
      <trkpt lon="35.383366383612156" lat="31.538610784336925">
        <ele>274.6000061035156</ele>
        <time>2014-01-03T10:46:39.000Z</time>
      </trkpt>
      <trkpt lon="35.38336705416441" lat="31.538612795993686">
        <ele>273.6000061035156</ele>
        <time>2014-01-03T10:47:04.000Z</time>
      </trkpt>
      <trkpt lon="35.383365880697966" lat="31.538609862327576">
        <ele>274.6000061035156</ele>
        <time>2014-01-03T10:47:31.000Z</time>
      </trkpt>
      <trkpt lon="35.38336713798344" lat="31.538603827357292">
        <ele>275.6000061035156</ele>
        <time>2014-01-03T10:47:57.000Z</time>
      </trkpt>
      <trkpt lon="35.38336948491633" lat="31.53860424645245">
        <ele>275.6000061035156</ele>
        <time>2014-01-03T10:48:21.000Z</time>
      </trkpt>
      <trkpt lon="35.38336805999279" lat="31.538610449060798">
        <ele>273.6000061035156</ele>
        <time>2014-01-03T10:48:42.000Z</time>
      </trkpt>
      <trkpt lon="35.38336655125022" lat="31.538615729659796">
        <ele>273.20001220703125</ele>
        <time>2014-01-03T10:48:59.000Z</time>
      </trkpt>
      <trkpt lon="35.38336445577443" lat="31.538619082421064">
        <ele>272.6000061035156</ele>
        <time>2014-01-03T10:49:23.000Z</time>
      </trkpt>
      <trkpt lon="35.383359510451555" lat="31.538610868155956">
        <ele>274.20001220703125</ele>
        <time>2014-01-03T10:49:51.000Z</time>
      </trkpt>
      <trkpt lon="35.38336127065122" lat="31.538615226745605">
        <ele>274.20001220703125</ele>
        <time>2014-01-03T10:50:19.000Z</time>
      </trkpt>
      <trkpt lon="35.383359929546714" lat="31.53861405327916">
        <ele>274.20001220703125</ele>
        <time>2014-01-03T10:50:43.000Z</time>
      </trkpt>
      <trkpt lon="35.38336034864187" lat="31.538607263937593">
        <ele>274.20001220703125</ele>
        <time>2014-01-03T10:51:08.000Z</time>
      </trkpt>
      <trkpt lon="35.3833622764796" lat="31.538605419918895">
        <ele>273.6000061035156</ele>
        <time>2014-01-03T10:51:29.000Z</time>
      </trkpt>
      <trkpt lon="35.3833691496402" lat="31.53860961087048">
        <ele>272.20001220703125</ele>
        <time>2014-01-03T10:51:54.000Z</time>
      </trkpt>
      <trkpt lon="35.38337577134371" lat="31.538630314171314">
        <ele>272.20001220703125</ele>
        <time>2014-01-03T10:52:09.000Z</time>
      </trkpt>
      <trkpt lon="35.383379962295294" lat="31.538626877591014">
        <ele>271.79998779296875</ele>
        <time>2014-01-03T10:52:27.000Z</time>
      </trkpt>
      <trkpt lon="35.383382393047214" lat="31.53863157145679">
        <ele>271.20001220703125</ele>
        <time>2014-01-03T10:52:43.000Z</time>
      </trkpt>
      <trkpt lon="35.38338482379913" lat="31.538634253665805">
        <ele>271.20001220703125</ele>
        <time>2014-01-03T10:53:03.000Z</time>
      </trkpt>
      <trkpt lon="35.38337979465723" lat="31.53863752260804">
        <ele>271.20001220703125</ele>
        <time>2014-01-03T10:53:20.000Z</time>
      </trkpt>
      <trkpt lon="35.38337778300047" lat="31.538639618083835">
        <ele>272.20001220703125</ele>
        <time>2014-01-03T10:53:40.000Z</time>
      </trkpt>
      <trkpt lon="35.383367808535695" lat="31.538648083806038">
        <ele>271.20001220703125</ele>
        <time>2014-01-03T10:53:59.000Z</time>
      </trkpt>
      <trkpt lon="35.383354062214494" lat="31.538668954744935">
        <ele>271.20001220703125</ele>
        <time>2014-01-03T10:54:13.000Z</time>
      </trkpt>
      <trkpt lon="35.38332799449563" lat="31.538663171231747">
        <ele>269.79998779296875</ele>
        <time>2014-01-03T10:54:25.000Z</time>
      </trkpt>
      <trkpt lon="35.38331441581249" lat="31.538673816248775">
        <ele>267.79998779296875</ele>
        <time>2014-01-03T10:54:41.000Z</time>
      </trkpt>
      <trkpt lon="35.38330947048962" lat="31.53869309462607">
        <ele>266.79998779296875</ele>
        <time>2014-01-03T10:54:50.000Z</time>
      </trkpt>
      <trkpt lon="35.38330025039613" lat="31.538844807073474">
        <ele>266.3999938964844</ele>
        <time>2014-01-03T10:54:58.000Z</time>
      </trkpt>
      <trkpt lon="35.38322280161083" lat="31.53901076875627">
        <ele>266.79998779296875</ele>
        <time>2014-01-03T10:55:06.000Z</time>
      </trkpt>
      <trkpt lon="35.38310034200549" lat="31.539181424304843">
        <ele>267.79998779296875</ele>
        <time>2014-01-03T10:55:15.000Z</time>
      </trkpt>
      <trkpt lon="35.382991041988134" lat="31.5392423607409">
        <ele>267.79998779296875</ele>
        <time>2014-01-03T10:55:22.000Z</time>
      </trkpt>
      <trkpt lon="35.382873276248574" lat="31.539346044883132">
        <ele>267.3999938964844</ele>
        <time>2014-01-03T10:55:30.000Z</time>
      </trkpt>
      <trkpt lon="35.38284134119749" lat="31.539421901106834">
        <ele>266.79998779296875</ele>
        <time>2014-01-03T10:55:35.000Z</time>
      </trkpt>
      <trkpt lon="35.38274369202554" lat="31.53962591663003">
        <ele>266.0</ele>
        <time>2014-01-03T10:55:41.000Z</time>
      </trkpt>
      <trkpt lon="35.382639756426215" lat="31.539802607148886">
        <ele>265.0</ele>
        <time>2014-01-03T10:55:45.000Z</time>
      </trkpt>
      <trkpt lon="35.38254319690168" lat="31.54005783610046">
        <ele>264.0</ele>
        <time>2014-01-03T10:55:50.000Z</time>
      </trkpt>
      <trkpt lon="35.3824385907501" lat="31.540198484435678">
        <ele>263.6000061035156</ele>
        <time>2014-01-03T10:55:55.000Z</time>
      </trkpt>
      <trkpt lon="35.38233616389334" lat="31.540243746712804">
        <ele>265.0</ele>
        <time>2014-01-03T10:56:00.000Z</time>
      </trkpt>
      <trkpt lon="35.38219283334911" lat="31.54033192433417">
        <ele>267.3999938964844</ele>
        <time>2014-01-03T10:56:09.000Z</time>
      </trkpt>
      <trkpt lon="35.3821690287441" lat="31.540356650948524">
        <ele>268.3999938964844</ele>
        <time>2014-01-03T10:56:12.000Z</time>
      </trkpt>
      <trkpt lon="35.38208931684494" lat="31.54048891738057">
        <ele>268.3999938964844</ele>
        <time>2014-01-03T10:56:22.000Z</time>
      </trkpt>
      <trkpt lon="35.38192084059119" lat="31.540601989254355">
        <ele>266.79998779296875</ele>
        <time>2014-01-03T10:56:28.000Z</time>
      </trkpt>
      <trkpt lon="35.38177256472409" lat="31.540702488273382">
        <ele>266.79998779296875</ele>
        <time>2014-01-03T10:56:34.000Z</time>
      </trkpt>
      <trkpt lon="35.38163141347468" lat="31.540915723890066">
        <ele>266.0</ele>
        <time>2014-01-03T10:56:43.000Z</time>
      </trkpt>
      <trkpt lon="35.3815905097872" lat="31.541147651150823">
        <ele>266.3999938964844</ele>
        <time>2014-01-03T10:56:51.000Z</time>
      </trkpt>
      <trkpt lon="35.381718752905726" lat="31.541326269507408">
        <ele>266.3999938964844</ele>
        <time>2014-01-03T10:56:58.000Z</time>
      </trkpt>
      <trkpt lon="35.381780695170164" lat="31.54138150624931">
        <ele>266.0</ele>
        <time>2014-01-03T10:57:00.000Z</time>
      </trkpt>
      <trkpt lon="35.382082192227244" lat="31.54160446487367">
        <ele>264.6000061035156</ele>
        <time>2014-01-03T10:57:07.000Z</time>
      </trkpt>
      <trkpt lon="35.38217497989535" lat="31.541675375774503">
        <ele>263.6000061035156</ele>
        <time>2014-01-03T10:57:09.000Z</time>
      </trkpt>
      <trkpt lon="35.382310431450605" lat="31.541892969980836">
        <ele>259.6000061035156</ele>
        <time>2014-01-03T10:57:13.000Z</time>
      </trkpt>
      <trkpt lon="35.3823746368289" lat="31.54209396801889">
        <ele>259.6000061035156</ele>
        <time>2014-01-03T10:57:18.000Z</time>
      </trkpt>
      <trkpt lon="35.38244957104325" lat="31.542301001027226">
        <ele>262.20001220703125</ele>
        <time>2014-01-03T10:57:27.000Z</time>
      </trkpt>
      <trkpt lon="35.38251394405961" lat="31.5425424836576">
        <ele>262.6000061035156</ele>
        <time>2014-01-03T10:57:35.000Z</time>
      </trkpt>
      <trkpt lon="35.38248184137046" lat="31.542838783934712">
        <ele>262.20001220703125</ele>
        <time>2014-01-03T10:57:45.000Z</time>
      </trkpt>
      <trkpt lon="35.38246599957347" lat="31.54291681945324">
        <ele>261.20001220703125</ele>
        <time>2014-01-03T10:57:47.000Z</time>
      </trkpt>
      <trkpt lon="35.382331470027566" lat="31.543313283473253">
        <ele>256.3999938964844</ele>
        <time>2014-01-03T10:57:53.000Z</time>
      </trkpt>
      <trkpt lon="35.38230339065194" lat="31.54337614774704">
        <ele>256.3999938964844</ele>
        <time>2014-01-03T10:57:54.000Z</time>
      </trkpt>
      <trkpt lon="35.38231663405895" lat="31.543567422777414">
        <ele>256.79998779296875</ele>
        <time>2014-01-03T10:57:59.000Z</time>
      </trkpt>
      <trkpt lon="35.38244454190135" lat="31.54379054903984">
        <ele>257.79998779296875</ele>
        <time>2014-01-03T10:58:06.000Z</time>
      </trkpt>
      <trkpt lon="35.38261955603957" lat="31.54394879937172">
        <ele>256.79998779296875</ele>
        <time>2014-01-03T10:58:10.000Z</time>
      </trkpt>
      <trkpt lon="35.383001770824194" lat="31.544229593127966">
        <ele>254.39999389648438</ele>
        <time>2014-01-03T10:58:17.000Z</time>
      </trkpt>
      <trkpt lon="35.383234368637204" lat="31.544628320261836">
        <ele>250.60000610351562</ele>
        <time>2014-01-03T10:58:23.000Z</time>
      </trkpt>
      <trkpt lon="35.38347325287759" lat="31.544908862560987">
        <ele>249.1999969482422</ele>
        <time>2014-01-03T10:58:28.000Z</time>
      </trkpt>
      <trkpt lon="35.38358657620847" lat="31.54509862884879">
        <ele>248.60000610351562</ele>
        <time>2014-01-03T10:58:32.000Z</time>
      </trkpt>
      <trkpt lon="35.38375857286155" lat="31.545421667397022">
        <ele>246.1999969482422</ele>
        <time>2014-01-03T10:58:38.000Z</time>
      </trkpt>
      <trkpt lon="35.3837801143527" lat="31.545529961586">
        <ele>247.1999969482422</ele>
        <time>2014-01-03T10:58:42.000Z</time>
      </trkpt>
      <trkpt lon="35.38367743603885" lat="31.54563071206212">
        <ele>248.1999969482422</ele>
        <time>2014-01-03T10:58:49.000Z</time>
      </trkpt>
      <trkpt lon="35.383490938693285" lat="31.545701287686825">
        <ele>249.60000610351562</ele>
        <time>2014-01-03T10:58:56.000Z</time>
      </trkpt>
      <trkpt lon="35.383166475221515" lat="31.54577429406345">
        <ele>253.0</ele>
        <time>2014-01-03T10:59:07.000Z</time>
      </trkpt>
      <trkpt lon="35.38294737227261" lat="31.545813186094165">
        <ele>256.79998779296875</ele>
        <time>2014-01-03T10:59:16.000Z</time>
      </trkpt>
      <trkpt lon="35.38279331289232" lat="31.545813102275133">
        <ele>258.79998779296875</ele>
        <time>2014-01-03T10:59:24.000Z</time>
      </trkpt>
      <trkpt lon="35.3825768083334" lat="31.54578854329884">
        <ele>259.6000061035156</ele>
        <time>2014-01-03T10:59:31.000Z</time>
      </trkpt>
      <trkpt lon="35.382379330694675" lat="31.545763481408358">
        <ele>260.6000061035156</ele>
        <time>2014-01-03T10:59:37.000Z</time>
      </trkpt>
      <trkpt lon="35.38213147781789" lat="31.545702880248427">
        <ele>262.20001220703125</ele>
        <time>2014-01-03T10:59:44.000Z</time>
      </trkpt>
      <trkpt lon="35.38191229104996" lat="31.54557002708316">
        <ele>265.0</ele>
        <time>2014-01-03T10:59:51.000Z</time>
      </trkpt>
      <trkpt lon="35.381820257753134" lat="31.545478831976652">
        <ele>266.0</ele>
        <time>2014-01-03T10:59:56.000Z</time>
      </trkpt>
      <trkpt lon="35.3816198464483" lat="31.545379338786006">
        <ele>266.79998779296875</ele>
        <time>2014-01-03T11:00:02.000Z</time>
      </trkpt>
      <trkpt lon="35.38137308321893" lat="31.545354276895523">
        <ele>267.3999938964844</ele>
        <time>2014-01-03T11:00:08.000Z</time>
      </trkpt>
      <trkpt lon="35.381181640550494" lat="31.54531504958868">
        <ele>269.3999938964844</ele>
        <time>2014-01-03T11:00:14.000Z</time>
      </trkpt>
      <trkpt lon="35.38097226060927" lat="31.54526660218835">
        <ele>270.79998779296875</ele>
        <time>2014-01-03T11:00:22.000Z</time>
      </trkpt>
      <trkpt lon="35.38073857314885" lat="31.545203737914562">
        <ele>271.20001220703125</ele>
        <time>2014-01-03T11:00:30.000Z</time>
      </trkpt>
      <trkpt lon="35.380503041669726" lat="31.545128971338272">
        <ele>271.20001220703125</ele>
        <time>2014-01-03T11:00:36.000Z</time>
      </trkpt>
      <trkpt lon="35.38017380051315" lat="31.545031405985355">
        <ele>268.79998779296875</ele>
        <time>2014-01-03T11:00:42.000Z</time>
      </trkpt>
      <trkpt lon="35.3800452221185" lat="31.54499502852559">
        <ele>268.3999938964844</ele>
        <time>2014-01-03T11:00:44.000Z</time>
      </trkpt>
      <trkpt lon="35.379734840244055" lat="31.545007014647126">
        <ele>266.79998779296875</ele>
        <time>2014-01-03T11:00:49.000Z</time>
      </trkpt>
      <trkpt lon="35.379684967920184" lat="31.545035261660814">
        <ele>266.79998779296875</ele>
        <time>2014-01-03T11:00:50.000Z</time>
      </trkpt>
      <trkpt lon="35.37960642948747" lat="31.545108938589692">
        <ele>266.79998779296875</ele>
        <time>2014-01-03T11:00:52.000Z</time>
      </trkpt>
      <trkpt lon="35.37945723161101" lat="31.545239025726914">
        <ele>264.6000061035156</ele>
        <time>2014-01-03T11:00:56.000Z</time>
      </trkpt>
      <trkpt lon="35.37920703180134" lat="31.545373555272818">
        <ele>260.20001220703125</ele>
        <time>2014-01-03T11:01:00.000Z</time>
      </trkpt>
      <trkpt lon="35.37903696298599" lat="31.54552367515862">
        <ele>257.20001220703125</ele>
        <time>2014-01-03T11:01:04.000Z</time>
      </trkpt>
      <trkpt lon="35.37896856665611" lat="31.545737916603684">
        <ele>255.39999389648438</ele>
        <time>2014-01-03T11:01:09.000Z</time>
      </trkpt>
      <trkpt lon="35.37895046174526" lat="31.546148378401995">
        <ele>252.0</ele>
        <time>2014-01-03T11:01:16.000Z</time>
      </trkpt>
      <trkpt lon="35.378862619400024" lat="31.54655330814421">
        <ele>251.60000610351562</ele>
        <time>2014-01-03T11:01:22.000Z</time>
      </trkpt>
      <trkpt lon="35.378852896392345" lat="31.546786492690444">
        <ele>251.60000610351562</ele>
        <time>2014-01-03T11:01:26.000Z</time>
      </trkpt>
      <trkpt lon="35.378921711817384" lat="31.54710441827774">
        <ele>250.60000610351562</ele>
        <time>2014-01-03T11:01:31.000Z</time>
      </trkpt>
      <trkpt lon="35.37888583727181" lat="31.54728714376688">
        <ele>250.0</ele>
        <time>2014-01-03T11:01:36.000Z</time>
      </trkpt>
      <trkpt lon="35.37887854501605" lat="31.547339698299766">
        <ele>249.60000610351562</ele>
        <time>2014-01-03T11:01:38.000Z</time>
      </trkpt>
      <trkpt lon="35.378884160891175" lat="31.547424690797925">
        <ele>248.1999969482422</ele>
        <time>2014-01-03T11:01:40.000Z</time>
      </trkpt>
      <trkpt lon="35.378829929977655" lat="31.54778301715851">
        <ele>245.1999969482422</ele>
        <time>2014-01-03T11:01:46.000Z</time>
      </trkpt>
      <trkpt lon="35.378765389323235" lat="31.54788175597787">
        <ele>245.8000030517578</ele>
        <time>2014-01-03T11:01:51.000Z</time>
      </trkpt>
      <trkpt lon="35.378651563078165" lat="31.547973537817597">
        <ele>246.8000030517578</ele>
        <time>2014-01-03T11:01:57.000Z</time>
      </trkpt>
      <trkpt lon="35.378478560596704" lat="31.5481167845428">
        <ele>245.1999969482422</ele>
        <time>2014-01-03T11:02:05.000Z</time>
      </trkpt>
      <trkpt lon="35.378442350775" lat="31.54817797243595">
        <ele>244.8000030517578</ele>
        <time>2014-01-03T11:02:07.000Z</time>
      </trkpt>
      <trkpt lon="35.3783873654902" lat="31.548309987410903">
        <ele>243.8000030517578</ele>
        <time>2014-01-03T11:02:10.000Z</time>
      </trkpt>
      <trkpt lon="35.378368673846126" lat="31.548499669879675">
        <ele>244.8000030517578</ele>
        <time>2014-01-03T11:02:15.000Z</time>
      </trkpt>
      <trkpt lon="35.37840513512492" lat="31.548723885789514">
        <ele>247.60000610351562</ele>
        <time>2014-01-03T11:02:25.000Z</time>
      </trkpt>
      <trkpt lon="35.37838350981474" lat="31.54882145114243">
        <ele>249.60000610351562</ele>
        <time>2014-01-03T11:02:32.000Z</time>
      </trkpt>
      <trkpt lon="35.37835677154362" lat="31.548859169706702">
        <ele>249.60000610351562</ele>
        <time>2014-01-03T11:02:36.000Z</time>
      </trkpt>
      <trkpt lon="35.37831377238035" lat="31.548916585743427">
        <ele>250.60000610351562</ele>
        <time>2014-01-03T11:02:41.000Z</time>
      </trkpt>
      <trkpt lon="35.378182427957654" lat="31.54908732511103">
        <ele>251.60000610351562</ele>
        <time>2014-01-03T11:02:53.000Z</time>
      </trkpt>
      <trkpt lon="35.37810028530657" lat="31.54924364760518">
        <ele>253.0</ele>
        <time>2014-01-03T11:03:03.000Z</time>
      </trkpt>
      <trkpt lon="35.37807379849255" lat="31.549323108047247">
        <ele>254.39999389648438</ele>
        <time>2014-01-03T11:03:09.000Z</time>
      </trkpt>
      <trkpt lon="35.37808494642377" lat="31.54944196343422">
        <ele>256.3999938964844</ele>
        <time>2014-01-03T11:03:19.000Z</time>
      </trkpt>
      <trkpt lon="35.37816893309355" lat="31.549583533778787">
        <ele>257.20001220703125</ele>
        <time>2014-01-03T11:03:28.000Z</time>
      </trkpt>
      <trkpt lon="35.378355011343956" lat="31.549709094688296">
        <ele>255.8000030517578</ele>
        <time>2014-01-03T11:03:33.000Z</time>
      </trkpt>
      <trkpt lon="35.37858283147216" lat="31.549856197088957">
        <ele>254.0</ele>
        <time>2014-01-03T11:03:37.000Z</time>
      </trkpt>
      <trkpt lon="35.379278948530555" lat="31.550160041078925">
        <ele>250.0</ele>
        <time>2014-01-03T11:03:46.000Z</time>
      </trkpt>
      <trkpt lon="35.37957684136927" lat="31.55029213987291">
        <ele>249.1999969482422</ele>
        <time>2014-01-03T11:03:50.000Z</time>
      </trkpt>
      <trkpt lon="35.37987247109413" lat="31.550358776003122">
        <ele>251.60000610351562</ele>
        <time>2014-01-03T11:03:56.000Z</time>
      </trkpt>
      <trkpt lon="35.3801105171442" lat="31.550507303327322">
        <ele>253.0</ele>
        <time>2014-01-03T11:04:03.000Z</time>
      </trkpt>
      <trkpt lon="35.38021135143936" lat="31.55068508349359">
        <ele>254.0</ele>
        <time>2014-01-03T11:04:10.000Z</time>
      </trkpt>
      <trkpt lon="35.380283603444695" lat="31.550757000222802">
        <ele>254.0</ele>
        <time>2014-01-03T11:04:13.000Z</time>
      </trkpt>
      <trkpt lon="35.38062583655119" lat="31.550927739590406">
        <ele>250.60000610351562</ele>
        <time>2014-01-03T11:04:19.000Z</time>
      </trkpt>
      <trkpt lon="35.380748799070716" lat="31.5510040987283">
        <ele>249.60000610351562</ele>
        <time>2014-01-03T11:04:21.000Z</time>
      </trkpt>
      <trkpt lon="35.38085198029876" lat="31.551089929416776">
        <ele>248.60000610351562</ele>
        <time>2014-01-03T11:04:23.000Z</time>
      </trkpt>
      <trkpt lon="35.380939738824964" lat="31.55130752362311">
        <ele>247.1999969482422</ele>
        <time>2014-01-03T11:04:28.000Z</time>
      </trkpt>
      <trkpt lon="35.380923226475716" lat="31.55135840177536">
        <ele>246.8000030517578</ele>
        <time>2014-01-03T11:04:29.000Z</time>
      </trkpt>
      <trkpt lon="35.38087855093181" lat="31.551465187221766">
        <ele>245.8000030517578</ele>
        <time>2014-01-03T11:04:31.000Z</time>
      </trkpt>
      <trkpt lon="35.38081644102931" lat="31.551636178046465">
        <ele>246.8000030517578</ele>
        <time>2014-01-03T11:04:36.000Z</time>
      </trkpt>
      <trkpt lon="35.38080965168774" lat="31.55165931209922">
        <ele>246.1999969482422</ele>
        <time>2014-01-03T11:04:37.000Z</time>
      </trkpt>
      <trkpt lon="35.380663219839334" lat="31.551916804164648">
        <ele>241.39999389648438</ele>
        <time>2014-01-03T11:04:43.000Z</time>
      </trkpt>
      <trkpt lon="35.380502957850695" lat="31.55210698954761">
        <ele>239.0</ele>
        <time>2014-01-03T11:04:46.000Z</time>
      </trkpt>
      <trkpt lon="35.380350574851036" lat="31.552500687539577">
        <ele>235.1999969482422</ele>
        <time>2014-01-03T11:04:51.000Z</time>
      </trkpt>
      <trkpt lon="35.380405224859715" lat="31.552766477689147">
        <ele>233.8000030517578</ele>
        <time>2014-01-03T11:04:55.000Z</time>
      </trkpt>
      <trkpt lon="35.380668165162206" lat="31.553006200119853">
        <ele>235.60000610351562</ele>
        <time>2014-01-03T11:05:01.000Z</time>
      </trkpt>
      <trkpt lon="35.38079800084233" lat="31.55309940688312">
        <ele>236.1999969482422</ele>
        <time>2014-01-03T11:05:04.000Z</time>
      </trkpt>
      <trkpt lon="35.38090051151812" lat="31.553155314177275">
        <ele>236.1999969482422</ele>
        <time>2014-01-03T11:05:06.000Z</time>
      </trkpt>
      <trkpt lon="35.38138129748404" lat="31.55330560170114">
        <ele>231.8000030517578</ele>
        <time>2014-01-03T11:05:12.000Z</time>
      </trkpt>
      <trkpt lon="35.38147349841893" lat="31.5533300768584">
        <ele>231.39999389648438</ele>
        <time>2014-01-03T11:05:13.000Z</time>
      </trkpt>
      <trkpt lon="35.38183081895113" lat="31.553440215066075">
        <ele>229.8000030517578</ele>
        <time>2014-01-03T11:05:17.000Z</time>
      </trkpt>
      <trkpt lon="35.38229634985328" lat="31.55352059751749">
        <ele>228.0</ele>
        <time>2014-01-03T11:05:23.000Z</time>
      </trkpt>
      <trkpt lon="35.38289641030133" lat="31.553800469264388">
        <ele>228.39999389648438</ele>
        <time>2014-01-03T11:05:31.000Z</time>
      </trkpt>
      <trkpt lon="35.38314568810165" lat="31.55393441207707">
        <ele>231.39999389648438</ele>
        <time>2014-01-03T11:05:36.000Z</time>
      </trkpt>
      <trkpt lon="35.38333436474204" lat="31.55405075289309">
        <ele>233.8000030517578</ele>
        <time>2014-01-03T11:05:43.000Z</time>
      </trkpt>
      <trkpt lon="35.38363292813301" lat="31.55422274954617">
        <ele>234.1999969482422</ele>
        <time>2014-01-03T11:05:53.000Z</time>
      </trkpt>
      <trkpt lon="35.38373468443751" lat="31.554288882762194">
        <ele>232.39999389648438</ele>
        <time>2014-01-03T11:05:55.000Z</time>
      </trkpt>
      <trkpt lon="35.38395940326154" lat="31.554421316832304">
        <ele>228.39999389648438</ele>
        <time>2014-01-03T11:05:58.000Z</time>
      </trkpt>
      <trkpt lon="35.38420792669058" lat="31.55464293435216">
        <ele>227.0</ele>
        <time>2014-01-03T11:06:02.000Z</time>
      </trkpt>
      <trkpt lon="35.38432569243014" lat="31.554863210767508">
        <ele>229.8000030517578</ele>
        <time>2014-01-03T11:06:08.000Z</time>
      </trkpt>
      <trkpt lon="35.38437380455434" lat="31.554981814697385">
        <ele>230.8000030517578</ele>
        <time>2014-01-03T11:06:16.000Z</time>
      </trkpt>
      <trkpt lon="35.384465334936976" lat="31.555120199918747">
        <ele>230.8000030517578</ele>
        <time>2014-01-03T11:06:22.000Z</time>
      </trkpt>
      <trkpt lon="35.38467647507787" lat="31.55534944497049">
        <ele>228.0</ele>
        <time>2014-01-03T11:06:27.000Z</time>
      </trkpt>
      <trkpt lon="35.38495601154864" lat="31.55563535168767">
        <ele>227.39999389648438</ele>
        <time>2014-01-03T11:06:33.000Z</time>
      </trkpt>
      <trkpt lon="35.385069753974676" lat="31.555751776322722">
        <ele>229.39999389648438</ele>
        <time>2014-01-03T11:06:39.000Z</time>
      </trkpt>
      <trkpt lon="35.38518483750522" lat="31.55584003776312">
        <ele>230.8000030517578</ele>
        <time>2014-01-03T11:06:46.000Z</time>
      </trkpt>
      <trkpt lon="35.3854551538825" lat="31.555963922291994">
        <ele>232.39999389648438</ele>
        <time>2014-01-03T11:06:55.000Z</time>
      </trkpt>
      <trkpt lon="35.385614996775985" lat="31.556020751595497">
        <ele>231.8000030517578</ele>
        <time>2014-01-03T11:06:59.000Z</time>
      </trkpt>
      <trkpt lon="35.38604171946645" lat="31.556256199255586">
        <ele>229.39999389648438</ele>
        <time>2014-01-03T11:07:08.000Z</time>
      </trkpt>
      <trkpt lon="35.38624154403806" lat="31.55640011653304">
        <ele>228.0</ele>
        <time>2014-01-03T11:07:12.000Z</time>
      </trkpt>
      <trkpt lon="35.38639518432319" lat="31.55660438351333">
        <ele>226.60000610351562</ele>
        <time>2014-01-03T11:07:16.000Z</time>
      </trkpt>
      <trkpt lon="35.38640423677862" lat="31.556934881955385">
        <ele>225.0</ele>
        <time>2014-01-03T11:07:22.000Z</time>
      </trkpt>
      <trkpt lon="35.38629946298897" lat="31.557030687108636">
        <ele>224.60000610351562</ele>
        <time>2014-01-03T11:07:25.000Z</time>
      </trkpt>
      <trkpt lon="35.38604624569416" lat="31.55717896297574">
        <ele>223.60000610351562</ele>
        <time>2014-01-03T11:07:33.000Z</time>
      </trkpt>
      <trkpt lon="35.38587575778365" lat="31.557266218587756">
        <ele>223.1999969482422</ele>
        <time>2014-01-03T11:07:40.000Z</time>
      </trkpt>
      <trkpt lon="35.38555699400604" lat="31.55736998654902">
        <ele>222.60000610351562</ele>
        <time>2014-01-03T11:07:49.000Z</time>
      </trkpt>
      <trkpt lon="35.38525407202542" lat="31.557424888014793">
        <ele>223.1999969482422</ele>
        <time>2014-01-03T11:07:57.000Z</time>
      </trkpt>
      <trkpt lon="35.385164553299546" lat="31.55742815695703">
        <ele>222.60000610351562</ele>
        <time>2014-01-03T11:07:59.000Z</time>
      </trkpt>
      <trkpt lon="35.38499750196934" lat="31.55739789828658">
        <ele>222.1999969482422</ele>
        <time>2014-01-03T11:08:02.000Z</time>
      </trkpt>
      <trkpt lon="35.384787702932954" lat="31.55728843063116">
        <ele>220.8000030517578</ele>
        <time>2014-01-03T11:08:06.000Z</time>
      </trkpt>
      <trkpt lon="35.384378246963024" lat="31.557142082601786">
        <ele>219.39999389648438</ele>
        <time>2014-01-03T11:08:12.000Z</time>
      </trkpt>
      <trkpt lon="35.38398471660912" lat="31.557112829759717">
        <ele>220.1999969482422</ele>
        <time>2014-01-03T11:08:18.000Z</time>
      </trkpt>
      <trkpt lon="35.38371758535504" lat="31.557024233043194">
        <ele>221.8000030517578</ele>
        <time>2014-01-03T11:08:25.000Z</time>
      </trkpt>
      <trkpt lon="35.383594539016485" lat="31.55694200657308">
        <ele>225.0</ele>
        <time>2014-01-03T11:08:31.000Z</time>
      </trkpt>
      <trkpt lon="35.3835594188422" lat="31.556868329644203">
        <ele>226.60000610351562</ele>
        <time>2014-01-03T11:08:37.000Z</time>
      </trkpt>
      <trkpt lon="35.38356838747859" lat="31.556726088747382">
        <ele>229.39999389648438</ele>
        <time>2014-01-03T11:08:45.000Z</time>
      </trkpt>
      <trkpt lon="35.38360694423318" lat="31.556533807888627">
        <ele>232.39999389648438</ele>
        <time>2014-01-03T11:08:56.000Z</time>
      </trkpt>
      <trkpt lon="35.38362102583051" lat="31.556365080177784">
        <ele>234.1999969482422</ele>
        <time>2014-01-03T11:09:05.000Z</time>
      </trkpt>
      <trkpt lon="35.38364709354937" lat="31.556201800704002">
        <ele>235.60000610351562</ele>
        <time>2014-01-03T11:09:14.000Z</time>
      </trkpt>
      <trkpt lon="35.38363058120012" lat="31.555957049131393">
        <ele>235.60000610351562</ele>
        <time>2014-01-03T11:09:24.000Z</time>
      </trkpt>
      <trkpt lon="35.38360878825188" lat="31.555921426042914">
        <ele>235.60000610351562</ele>
        <time>2014-01-03T11:09:25.000Z</time>
      </trkpt>
      <trkpt lon="35.38335305638611" lat="31.555753368884325">
        <ele>233.1999969482422</ele>
        <time>2014-01-03T11:09:30.000Z</time>
      </trkpt>
      <trkpt lon="35.382952401414514" lat="31.55564993619919">
        <ele>230.39999389648438</ele>
        <time>2014-01-03T11:09:36.000Z</time>
      </trkpt>
      <trkpt lon="35.382894314825535" lat="31.555638620629907">
        <ele>229.8000030517578</ele>
        <time>2014-01-03T11:09:37.000Z</time>
      </trkpt>
      <trkpt lon="35.382772190496325" lat="31.555607691407204">
        <ele>229.0</ele>
        <time>2014-01-03T11:09:39.000Z</time>
      </trkpt>
      <trkpt lon="35.382583513855934" lat="31.55553761869669">
        <ele>227.39999389648438</ele>
        <time>2014-01-03T11:09:42.000Z</time>
      </trkpt>
      <trkpt lon="35.382457450032234" lat="31.55550886876881">
        <ele>227.0</ele>
        <time>2014-01-03T11:09:44.000Z</time>
      </trkpt>
      <trkpt lon="35.38228235207498" lat="31.555506186559796">
        <ele>227.39999389648438</ele>
        <time>2014-01-03T11:09:49.000Z</time>
      </trkpt>
      <trkpt lon="35.38212368264794" lat="31.55555857345462">
        <ele>226.60000610351562</ele>
        <time>2014-01-03T11:09:55.000Z</time>
      </trkpt>
      <trkpt lon="35.38192251697183" lat="31.55565194785595">
        <ele>225.60000610351562</ele>
        <time>2014-01-03T11:10:01.000Z</time>
      </trkpt>
      <trkpt lon="35.38165379315615" lat="31.555668292567134">
        <ele>227.0</ele>
        <time>2014-01-03T11:10:08.000Z</time>
      </trkpt>
      <trkpt lon="35.38144969381392" lat="31.555650858208537">
        <ele>228.0</ele>
        <time>2014-01-03T11:10:14.000Z</time>
      </trkpt>
      <trkpt lon="35.381132354959846" lat="31.555636525154114">
        <ele>229.0</ele>
        <time>2014-01-03T11:10:24.000Z</time>
      </trkpt>
      <trkpt lon="35.3808428440243" lat="31.555699221789837">
        <ele>230.39999389648438</ele>
        <time>2014-01-03T11:10:32.000Z</time>
      </trkpt>
      <trkpt lon="35.38056733086705" lat="31.55576099641621">
        <ele>231.8000030517578</ele>
        <time>2014-01-03T11:10:40.000Z</time>
      </trkpt>
      <trkpt lon="35.38028469309211" lat="31.55576870776713">
        <ele>232.8000030517578</ele>
        <time>2014-01-03T11:10:48.000Z</time>
      </trkpt>
      <trkpt lon="35.38005310110748" lat="31.55576636083424">
        <ele>236.1999969482422</ele>
        <time>2014-01-03T11:10:57.000Z</time>
      </trkpt>
      <trkpt lon="35.37992142140865" lat="31.5557321626693">
        <ele>238.0</ele>
        <time>2014-01-03T11:11:05.000Z</time>
      </trkpt>
      <trkpt lon="35.37973660044372" lat="31.555696204304695">
        <ele>239.0</ele>
        <time>2014-01-03T11:11:13.000Z</time>
      </trkpt>
      <trkpt lon="35.37951179780066" lat="31.555660078302026">
        <ele>240.0</ele>
        <time>2014-01-03T11:11:22.000Z</time>
      </trkpt>
      <trkpt lon="35.37940182723105" lat="31.55565538443625">
        <ele>239.60000610351562</ele>
        <time>2014-01-03T11:11:25.000Z</time>
      </trkpt>
      <trkpt lon="35.379151375964284" lat="31.555594950914383">
        <ele>239.0</ele>
        <time>2014-01-03T11:11:30.000Z</time>
      </trkpt>
      <trkpt lon="35.378941325470805" lat="31.55550694093108">
        <ele>239.0</ele>
        <time>2014-01-03T11:11:37.000Z</time>
      </trkpt>
      <trkpt lon="35.3787724301219" lat="31.555453715845942">
        <ele>239.60000610351562</ele>
        <time>2014-01-03T11:11:43.000Z</time>
      </trkpt>
      <trkpt lon="35.378573862835765" lat="31.55542471446097">
        <ele>239.0</ele>
        <time>2014-01-03T11:11:47.000Z</time>
      </trkpt>
      <trkpt lon="35.3783889580518" lat="31.55547408387065">
        <ele>238.60000610351562</ele>
        <time>2014-01-03T11:11:51.000Z</time>
      </trkpt>
      <trkpt lon="35.378249483183026" lat="31.555567793548107">
        <ele>239.0</ele>
        <time>2014-01-03T11:11:59.000Z</time>
      </trkpt>
      <trkpt lon="35.378043204545975" lat="31.555605344474316">
        <ele>241.0</ele>
        <time>2014-01-03T11:12:09.000Z</time>
      </trkpt>
      <trkpt lon="35.3780279494822" lat="31.55560945160687">
        <ele>241.0</ele>
        <time>2014-01-03T11:12:10.000Z</time>
      </trkpt>
      <trkpt lon="35.37794295698404" lat="31.55560559593141">
        <ele>242.0</ele>
        <time>2014-01-03T11:12:15.000Z</time>
      </trkpt>
      <trkpt lon="35.37775771692395" lat="31.555566284805536">
        <ele>242.39999389648438</ele>
        <time>2014-01-03T11:12:24.000Z</time>
      </trkpt>
      <trkpt lon="35.377443647012115" lat="31.55547408387065">
        <ele>242.39999389648438</ele>
        <time>2014-01-03T11:12:33.000Z</time>
      </trkpt>
      <trkpt lon="35.37727139890194" lat="31.55541490763426">
        <ele>242.8000030517578</ele>
        <time>2014-01-03T11:12:39.000Z</time>
      </trkpt>
      <trkpt lon="35.37704424932599" lat="31.555337207391858">
        <ele>244.39999389648438</ele>
        <time>2014-01-03T11:12:49.000Z</time>
      </trkpt>
      <trkpt lon="35.376814249902964" lat="31.555260764434934">
        <ele>244.39999389648438</ele>
        <time>2014-01-03T11:12:55.000Z</time>
      </trkpt>
      <trkpt lon="35.376657005399466" lat="31.555229583755136">
        <ele>243.8000030517578</ele>
        <time>2014-01-03T11:12:58.000Z</time>
      </trkpt>
      <trkpt lon="35.37618803791702" lat="31.555110896006227">
        <ele>243.8000030517578</ele>
        <time>2014-01-03T11:13:07.000Z</time>
      </trkpt>
      <trkpt lon="35.375864915549755" lat="31.555028250440955">
        <ele>243.8000030517578</ele>
        <time>2014-01-03T11:13:12.000Z</time>
      </trkpt>
      <trkpt lon="35.375660145655274" lat="31.554970247671008">
        <ele>244.39999389648438</ele>
        <time>2014-01-03T11:13:17.000Z</time>
      </trkpt>
      <trkpt lon="35.375473061576486" lat="31.554904701188207">
        <ele>244.39999389648438</ele>
        <time>2014-01-03T11:13:23.000Z</time>
      </trkpt>
      <trkpt lon="35.37523375824094" lat="31.554786935448647">
        <ele>242.8000030517578</ele>
        <time>2014-01-03T11:13:28.000Z</time>
      </trkpt>
      <trkpt lon="35.37505371496081" lat="31.55465911142528">
        <ele>244.39999389648438</ele>
        <time>2014-01-03T11:13:34.000Z</time>
      </trkpt>
      <trkpt lon="35.37499437108636" lat="31.5546150226146">
        <ele>244.8000030517578</ele>
        <time>2014-01-03T11:13:38.000Z</time>
      </trkpt>
      <trkpt lon="35.37481759674847" lat="31.55441327020526">
        <ele>244.39999389648438</ele>
        <time>2014-01-03T11:13:45.000Z</time>
      </trkpt>
      <trkpt lon="35.37478532642126" lat="31.554273460060358">
        <ele>242.0</ele>
        <time>2014-01-03T11:13:50.000Z</time>
      </trkpt>
      <trkpt lon="35.37471827119589" lat="31.554160974919796">
        <ele>241.39999389648438</ele>
        <time>2014-01-03T11:13:55.000Z</time>
      </trkpt>
      <trkpt lon="35.37469723261893" lat="31.554143289104104">
        <ele>241.39999389648438</ele>
        <time>2014-01-03T11:13:57.000Z</time>
      </trkpt>
      <trkpt lon="35.37464107386768" lat="31.554104397073388">
        <ele>241.0</ele>
        <time>2014-01-03T11:14:01.000Z</time>
      </trkpt>
      <trkpt lon="35.37450050935149" lat="31.554011274129152">
        <ele>242.0</ele>
        <time>2014-01-03T11:14:10.000Z</time>
      </trkpt>
      <trkpt lon="35.3743826597929" lat="31.55393005348742">
        <ele>243.8000030517578</ele>
        <time>2014-01-03T11:14:18.000Z</time>
      </trkpt>
      <trkpt lon="35.374278808012605" lat="31.553847324103117">
        <ele>246.8000030517578</ele>
        <time>2014-01-03T11:14:27.000Z</time>
      </trkpt>
      <trkpt lon="35.3742410056293" lat="31.553764678537846">
        <ele>248.60000610351562</ele>
        <time>2014-01-03T11:14:33.000Z</time>
      </trkpt>
      <trkpt lon="35.37420236505568" lat="31.55367457307875">
        <ele>250.60000610351562</ele>
        <time>2014-01-03T11:14:41.000Z</time>
      </trkpt>
      <trkpt lon="35.37420094013214" lat="31.55356703326106">
        <ele>252.39999389648438</ele>
        <time>2014-01-03T11:14:50.000Z</time>
      </trkpt>
      <trkpt lon="35.37419046275318" lat="31.553448094055057">
        <ele>254.0</ele>
        <time>2014-01-03T11:15:00.000Z</time>
      </trkpt>
      <trkpt lon="35.374159114435315" lat="31.553389336913824">
        <ele>254.39999389648438</ele>
        <time>2014-01-03T11:15:05.000Z</time>
      </trkpt>
      <trkpt lon="35.3741564322263" lat="31.55328649096191">
        <ele>255.8000030517578</ele>
        <time>2014-01-03T11:15:14.000Z</time>
      </trkpt>
      <trkpt lon="35.374152995646" lat="31.553156236186624">
        <ele>256.79998779296875</ele>
        <time>2014-01-03T11:15:24.000Z</time>
      </trkpt>
      <trkpt lon="35.37416749633849" lat="31.553048444911838">
        <ele>257.20001220703125</ele>
        <time>2014-01-03T11:15:31.000Z</time>
      </trkpt>
      <trkpt lon="35.37416607141495" lat="31.55290100723505">
        <ele>258.79998779296875</ele>
        <time>2014-01-03T11:15:39.000Z</time>
      </trkpt>
      <trkpt lon="35.37412751466036" lat="31.552765555679798">
        <ele>261.20001220703125</ele>
        <time>2014-01-03T11:15:47.000Z</time>
      </trkpt>
      <trkpt lon="35.37413354963064" lat="31.55267134308815">
        <ele>261.20001220703125</ele>
        <time>2014-01-03T11:15:54.000Z</time>
      </trkpt>
      <trkpt lon="35.3741358127445" lat="31.552664134651423">
        <ele>261.20001220703125</ele>
        <time>2014-01-03T11:16:02.000Z</time>
      </trkpt>
      <trkpt lon="35.374137572944164" lat="31.552677294239402">
        <ele>260.20001220703125</ele>
        <time>2014-01-03T11:16:23.000Z</time>
      </trkpt>
      <trkpt lon="35.37412458099425" lat="31.552546955645084">
        <ele>260.6000061035156</ele>
        <time>2014-01-03T11:16:30.000Z</time>
      </trkpt>
      <trkpt lon="35.374071188271046" lat="31.55233313329518">
        <ele>262.20001220703125</ele>
        <time>2014-01-03T11:16:40.000Z</time>
      </trkpt>
      <trkpt lon="35.37400136701763" lat="31.552156107500196">
        <ele>261.6000061035156</ele>
        <time>2014-01-03T11:16:48.000Z</time>
      </trkpt>
      <trkpt lon="35.37393121048808" lat="31.55192577280104">
        <ele>262.20001220703125</ele>
        <time>2014-01-03T11:16:57.000Z</time>
      </trkpt>
      <trkpt lon="35.37386750802398" lat="31.55167900957167">
        <ele>259.20001220703125</ele>
        <time>2014-01-03T11:17:04.000Z</time>
      </trkpt>
      <trkpt lon="35.37385602481663" lat="31.551630897447467">
        <ele>259.20001220703125</ele>
        <time>2014-01-03T11:17:05.000Z</time>
      </trkpt>
      <trkpt lon="35.37378461100161" lat="31.551471389830112">
        <ele>257.20001220703125</ele>
        <time>2014-01-03T11:17:08.000Z</time>
      </trkpt>
      <trkpt lon="35.37353768013418" lat="31.55124549753964">
        <ele>255.8000030517578</ele>
        <time>2014-01-03T11:17:13.000Z</time>
      </trkpt>
      <trkpt lon="35.37335495464504" lat="31.551151117309928">
        <ele>254.39999389648438</ele>
        <time>2014-01-03T11:17:16.000Z</time>
      </trkpt>
      <trkpt lon="35.37311305291951" lat="31.55105941928923">
        <ele>254.8000030517578</ele>
        <time>2014-01-03T11:17:22.000Z</time>
      </trkpt>
      <trkpt lon="35.372861847281456" lat="31.5509885083884">
        <ele>257.79998779296875</ele>
        <time>2014-01-03T11:17:30.000Z</time>
      </trkpt>
      <trkpt lon="35.372669314965606" lat="31.550917848944664">
        <ele>258.20001220703125</ele>
        <time>2014-01-03T11:17:37.000Z</time>
      </trkpt>
      <trkpt lon="35.37252648733556" lat="31.550870491191745">
        <ele>259.20001220703125</ele>
        <time>2014-01-03T11:17:43.000Z</time>
      </trkpt>
      <trkpt lon="35.372392712160945" lat="31.55082581564784">
        <ele>259.6000061035156</ele>
        <time>2014-01-03T11:17:51.000Z</time>
      </trkpt>
      <trkpt lon="35.37234761752188" lat="31.55080729164183">
        <ele>259.6000061035156</ele>
        <time>2014-01-03T11:17:54.000Z</time>
      </trkpt>
      <trkpt lon="35.37219414487481" lat="31.550749456509948">
        <ele>259.6000061035156</ele>
        <time>2014-01-03T11:18:03.000Z</time>
      </trkpt>
      <trkpt lon="35.372008234262466" lat="31.55068499967456">
        <ele>258.79998779296875</ele>
        <time>2014-01-03T11:18:10.000Z</time>
      </trkpt>
      <trkpt lon="35.37180312909186" lat="31.550649292767048">
        <ele>256.3999938964844</ele>
        <time>2014-01-03T11:18:14.000Z</time>
      </trkpt>
      <trkpt lon="35.37158737890422" lat="31.550552314147353">
        <ele>254.8000030517578</ele>
        <time>2014-01-03T11:18:18.000Z</time>
      </trkpt>
      <trkpt lon="35.37156290374696" lat="31.55053798109293">
        <ele>254.8000030517578</ele>
        <time>2014-01-03T11:18:19.000Z</time>
      </trkpt>
      <trkpt lon="35.37139208056033" lat="31.550457011908293">
        <ele>258.79998779296875</ele>
        <time>2014-01-03T11:18:28.000Z</time>
      </trkpt>
      <trkpt lon="35.37129878997803" lat="31.55040755867958">
        <ele>260.6000061035156</ele>
        <time>2014-01-03T11:18:35.000Z</time>
      </trkpt>
      <trkpt lon="35.371138863265514" lat="31.550356345251203">
        <ele>261.6000061035156</ele>
        <time>2014-01-03T11:18:45.000Z</time>
      </trkpt>
      <trkpt lon="35.37095747888088" lat="31.550407893955708">
        <ele>260.20001220703125</ele>
        <time>2014-01-03T11:18:51.000Z</time>
      </trkpt>
      <trkpt lon="35.37078590132296" lat="31.550565222278237">
        <ele>254.8000030517578</ele>
        <time>2014-01-03T11:18:57.000Z</time>
      </trkpt>
      <trkpt lon="35.37059370428324" lat="31.55066840350628">
        <ele>252.0</ele>
        <time>2014-01-03T11:19:01.000Z</time>
      </trkpt>
      <trkpt lon="35.37043067626655" lat="31.550683910027146">
        <ele>252.39999389648438</ele>
        <time>2014-01-03T11:19:08.000Z</time>
      </trkpt>
      <trkpt lon="35.37034610286355" lat="31.55067720450461">
        <ele>253.0</ele>
        <time>2014-01-03T11:19:11.000Z</time>
      </trkpt>
      <trkpt lon="35.37014761939645" lat="31.550691705197096">
        <ele>253.39999389648438</ele>
        <time>2014-01-03T11:19:16.000Z</time>
      </trkpt>
      <trkpt lon="35.36999925971031" lat="31.550745936110616">
        <ele>256.3999938964844</ele>
        <time>2014-01-03T11:19:24.000Z</time>
      </trkpt>
      <trkpt lon="35.36987830884755" lat="31.550815673545003">
        <ele>257.79998779296875</ele>
        <time>2014-01-03T11:19:33.000Z</time>
      </trkpt>
      <trkpt lon="35.369758447632194" lat="31.550878956913948">
        <ele>258.20001220703125</ele>
        <time>2014-01-03T11:19:42.000Z</time>
      </trkpt>
      <trkpt lon="35.369636826217175" lat="31.55092405155301">
        <ele>259.6000061035156</ele>
        <time>2014-01-03T11:19:52.000Z</time>
      </trkpt>
      <trkpt lon="35.36959114484489" lat="31.55095472931862">
        <ele>258.20001220703125</ele>
        <time>2014-01-03T11:20:01.000Z</time>
      </trkpt>
      <trkpt lon="35.36959902383387" lat="31.55094064772129">
        <ele>256.79998779296875</ele>
        <time>2014-01-03T11:20:14.000Z</time>
      </trkpt>
      <trkpt lon="35.369562646374106" lat="31.55093519948423">
        <ele>257.20001220703125</ele>
        <time>2014-01-03T11:20:21.000Z</time>
      </trkpt>
      <trkpt lon="35.369582679122686" lat="31.550940899178386">
        <ele>256.3999938964844</ele>
        <time>2014-01-03T11:20:32.000Z</time>
      </trkpt>
      <trkpt lon="35.36960002966225" lat="31.550931176170707">
        <ele>254.39999389648438</ele>
        <time>2014-01-03T11:20:53.000Z</time>
      </trkpt>
      <trkpt lon="35.36960380151868" lat="31.5509176813066">
        <ele>252.39999389648438</ele>
        <time>2014-01-03T11:21:13.000Z</time>
      </trkpt>
      <trkpt lon="35.36961033940315" lat="31.55091659165919">
        <ele>252.39999389648438</ele>
        <time>2014-01-03T11:21:39.000Z</time>
      </trkpt>
      <trkpt lon="35.36961503326893" lat="31.550916340202093">
        <ele>251.60000610351562</ele>
        <time>2014-01-03T11:21:59.000Z</time>
      </trkpt>
      <trkpt lon="35.3696096688509" lat="31.550916507840157">
        <ele>251.60000610351562</ele>
        <time>2014-01-03T11:22:21.000Z</time>
      </trkpt>
      <trkpt lon="35.36961025558412" lat="31.550918770954013">
        <ele>252.0</ele>
        <time>2014-01-03T11:22:40.000Z</time>
      </trkpt>
      <trkpt lon="35.36960614845157" lat="31.550920447334647">
        <ele>252.0</ele>
        <time>2014-01-03T11:22:59.000Z</time>
      </trkpt>
      <trkpt lon="35.369615368545055" lat="31.550919357687235">
        <ele>251.60000610351562</ele>
        <time>2014-01-03T11:23:20.000Z</time>
      </trkpt>
      <trkpt lon="35.36960958503187" lat="31.550916004925966">
        <ele>251.0</ele>
        <time>2014-01-03T11:23:40.000Z</time>
      </trkpt>
      <trkpt lon="35.369608579203486" lat="31.550919273868203">
        <ele>252.39999389648438</ele>
        <time>2014-01-03T11:23:57.000Z</time>
      </trkpt>
      <trkpt lon="35.3696096688509" lat="31.550919357687235">
        <ele>251.60000610351562</ele>
        <time>2014-01-03T11:24:15.000Z</time>
      </trkpt>
      <trkpt lon="35.369609501212835" lat="31.550921285524964">
        <ele>252.0</ele>
        <time>2014-01-03T11:24:30.000Z</time>
      </trkpt>
      <trkpt lon="35.36960740573704" lat="31.550917848944664">
        <ele>252.0</ele>
        <time>2014-01-03T11:24:53.000Z</time>
      </trkpt>
      <trkpt lon="35.36960774101317" lat="31.550921704620123">
        <ele>252.0</ele>
        <time>2014-01-03T11:25:15.000Z</time>
      </trkpt>
      <trkpt lon="35.36961226724088" lat="31.5509176813066">
        <ele>252.0</ele>
        <time>2014-01-03T11:25:30.000Z</time>
      </trkpt>
      <trkpt lon="35.36961176432669" lat="31.550913574174047">
        <ele>252.39999389648438</ele>
        <time>2014-01-03T11:25:48.000Z</time>
      </trkpt>
      <trkpt lon="35.369611931964755" lat="31.55091466382146">
        <ele>252.39999389648438</ele>
        <time>2014-01-03T11:26:10.000Z</time>
      </trkpt>
      <trkpt lon="35.36959667690098" lat="31.55093276873231">
        <ele>253.39999389648438</ele>
        <time>2014-01-03T11:26:19.000Z</time>
      </trkpt>
      <trkpt lon="35.36957169882953" lat="31.550971074029803">
        <ele>260.20001220703125</ele>
        <time>2014-01-03T11:26:42.000Z</time>
      </trkpt>
      <trkpt lon="35.36953842267394" lat="31.550973085686564">
        <ele>265.0</ele>
        <time>2014-01-03T11:27:03.000Z</time>
      </trkpt>
      <trkpt lon="35.36951000802219" lat="31.55097534880042">
        <ele>266.0</ele>
        <time>2014-01-03T11:27:20.000Z</time>
      </trkpt>
      <trkpt lon="35.36950271576643" lat="31.550962775945663">
        <ele>265.3999938964844</ele>
        <time>2014-01-03T11:27:41.000Z</time>
      </trkpt>
      <trkpt lon="35.36949383094907" lat="31.550960009917617">
        <ele>266.3999938964844</ele>
        <time>2014-01-03T11:27:58.000Z</time>
      </trkpt>
      <trkpt lon="35.36948938854039" lat="31.55096311122179">
        <ele>267.3999938964844</ele>
        <time>2014-01-03T11:28:10.000Z</time>
      </trkpt>
      <trkpt lon="35.369464578107" lat="31.55096889473498">
        <ele>269.3999938964844</ele>
        <time>2014-01-03T11:28:31.000Z</time>
      </trkpt>
      <trkpt lon="35.369469691067934" lat="31.550984904170036">
        <ele>271.20001220703125</ele>
        <time>2014-01-03T11:28:54.000Z</time>
      </trkpt>
      <trkpt lon="35.36947111599147" lat="31.55099387280643">
        <ele>272.20001220703125</ele>
        <time>2014-01-03T11:29:09.000Z</time>
      </trkpt>
      <trkpt lon="35.369469858706" lat="31.550999991595745">
        <ele>273.20001220703125</ele>
        <time>2014-01-03T11:29:24.000Z</time>
      </trkpt>
      <trkpt lon="35.36947161890566" lat="31.550994543358684">
        <ele>274.6000061035156</ele>
        <time>2014-01-03T11:29:46.000Z</time>
      </trkpt>
      <trkpt lon="35.369483856484294" lat="31.550990603864193">
        <ele>274.20001220703125</ele>
        <time>2014-01-03T11:30:07.000Z</time>
      </trkpt>
      <trkpt lon="35.36948528140783" lat="31.55099730938673">
        <ele>274.6000061035156</ele>
        <time>2014-01-03T11:30:31.000Z</time>
      </trkpt>
      <trkpt lon="35.36949383094907" lat="31.550997477024794">
        <ele>275.0</ele>
        <time>2014-01-03T11:30:57.000Z</time>
      </trkpt>
      <trkpt lon="35.36948259919882" lat="31.551001500338316">
        <ele>276.6000061035156</ele>
        <time>2014-01-03T11:31:19.000Z</time>
      </trkpt>
      <trkpt lon="35.369456028565764" lat="31.551012061536312">
        <ele>278.0</ele>
        <time>2014-01-03T11:31:39.000Z</time>
      </trkpt>
      <trkpt lon="35.369455106556416" lat="31.551011139526963">
        <ele>278.3999938964844</ele>
        <time>2014-01-03T11:31:57.000Z</time>
      </trkpt>
      <trkpt lon="35.36948067136109" lat="31.55101248063147">
        <ele>276.6000061035156</ele>
        <time>2014-01-03T11:32:18.000Z</time>
      </trkpt>
      <trkpt lon="35.36950187757611" lat="31.551005272194743">
        <ele>275.6000061035156</ele>
        <time>2014-01-03T11:32:43.000Z</time>
      </trkpt>
      <trkpt lon="35.369496094062924" lat="31.55100896023214">
        <ele>276.6000061035156</ele>
        <time>2014-01-03T11:33:04.000Z</time>
      </trkpt>
      <trkpt lon="35.36946709267795" lat="31.55102077871561">
        <ele>278.0</ele>
        <time>2014-01-03T11:33:24.000Z</time>
      </trkpt>
      <trkpt lon="35.36947421729565" lat="31.551007367670536">
        <ele>278.0</ele>
        <time>2014-01-03T11:33:50.000Z</time>
      </trkpt>
      <trkpt lon="35.3694870416075" lat="31.55099873431027">
        <ele>277.0</ele>
        <time>2014-01-03T11:34:07.000Z</time>
      </trkpt>
      <trkpt lon="35.369478575885296" lat="31.550998399034142">
        <ele>277.3999938964844</ele>
        <time>2014-01-03T11:34:26.000Z</time>
      </trkpt>
      <trkpt lon="35.369464326649904" lat="31.55099730938673">
        <ele>277.3999938964844</ele>
        <time>2014-01-03T11:34:44.000Z</time>
      </trkpt>
      <trkpt lon="35.3694611415267" lat="31.551009882241488">
        <ele>278.0</ele>
        <time>2014-01-03T11:35:06.000Z</time>
      </trkpt>
      <trkpt lon="35.36943976767361" lat="31.551012145355344">
        <ele>279.0</ele>
        <time>2014-01-03T11:35:26.000Z</time>
      </trkpt>
      <trkpt lon="35.36944018676877" lat="31.551003847271204">
        <ele>279.0</ele>
        <time>2014-01-03T11:35:49.000Z</time>
      </trkpt>
      <trkpt lon="35.36945820786059" lat="31.550995213910937">
        <ele>277.3999938964844</ele>
        <time>2014-01-03T11:36:06.000Z</time>
      </trkpt>
      <trkpt lon="35.36943985149264" lat="31.551013067364693">
        <ele>276.0</ele>
        <time>2014-01-03T11:36:21.000Z</time>
      </trkpt>
      <trkpt lon="35.36927363835275" lat="31.5510973893106">
        <ele>274.6000061035156</ele>
        <time>2014-01-03T11:36:27.000Z</time>
      </trkpt>
      <trkpt lon="35.369189819321036" lat="31.551156397908926">
        <ele>273.6000061035156</ele>
        <time>2014-01-03T11:36:29.000Z</time>
      </trkpt>
      <trkpt lon="35.36894020624459" lat="31.55123770236969">
        <ele>273.20001220703125</ele>
        <time>2014-01-03T11:36:34.000Z</time>
      </trkpt>
      <trkpt lon="35.368769550696015" lat="31.551202917471528">
        <ele>273.6000061035156</ele>
        <time>2014-01-03T11:36:40.000Z</time>
      </trkpt>
      <trkpt lon="35.3686910122633" lat="31.55111893080175">
        <ele>275.6000061035156</ele>
        <time>2014-01-03T11:36:46.000Z</time>
      </trkpt>
      <trkpt lon="35.368631249293685" lat="31.551004769280553">
        <ele>278.0</ele>
        <time>2014-01-03T11:36:55.000Z</time>
      </trkpt>
      <trkpt lon="35.36862940527499" lat="31.55099295079708">
        <ele>278.0</ele>
        <time>2014-01-03T11:36:56.000Z</time>
      </trkpt>
      <trkpt lon="35.36863443441689" lat="31.5509004984051">
        <ele>280.3999938964844</ele>
        <time>2014-01-03T11:37:02.000Z</time>
      </trkpt>
      <trkpt lon="35.368625381961465" lat="31.5507847443223">
        <ele>282.79998779296875</ele>
        <time>2014-01-03T11:37:11.000Z</time>
      </trkpt>
      <trkpt lon="35.36857240833342" lat="31.550662452355027">
        <ele>285.6000061035156</ele>
        <time>2014-01-03T11:37:20.000Z</time>
      </trkpt>
      <trkpt lon="35.368595039471984" lat="31.55055943876505">
        <ele>286.6000061035156</ele>
        <time>2014-01-03T11:37:27.000Z</time>
      </trkpt>
      <trkpt lon="35.36866720765829" lat="31.550445444881916">
        <ele>288.0</ele>
        <time>2014-01-03T11:37:36.000Z</time>
      </trkpt>
      <trkpt lon="35.36874490790069" lat="31.550312088802457">
        <ele>288.0</ele>
        <time>2014-01-03T11:37:47.000Z</time>
      </trkpt>
      <trkpt lon="35.36876795813441" lat="31.550201531499624">
        <ele>288.0</ele>
        <time>2014-01-03T11:37:55.000Z</time>
      </trkpt>
      <trkpt lon="35.3687946125865" lat="31.550042275339365">
        <ele>286.6000061035156</ele>
        <time>2014-01-03T11:37:59.000Z</time>
      </trkpt>
      <trkpt lon="35.368801318109035" lat="31.549984524026513">
        <ele>286.20001220703125</ele>
        <time>2014-01-03T11:38:00.000Z</time>
      </trkpt>
      <trkpt lon="35.3686907608062" lat="31.549647068604827">
        <ele>284.6000061035156</ele>
        <time>2014-01-03T11:38:06.000Z</time>
      </trkpt>
      <trkpt lon="35.36864968948066" lat="31.549611277878284">
        <ele>284.20001220703125</ele>
        <time>2014-01-03T11:38:07.000Z</time>
      </trkpt>
      <trkpt lon="35.36849697120488" lat="31.549505330622196">
        <ele>282.20001220703125</ele>
        <time>2014-01-03T11:38:10.000Z</time>
      </trkpt>
      <trkpt lon="35.368286836892366" lat="31.549229733645916">
        <ele>278.3999938964844</ele>
        <time>2014-01-03T11:38:16.000Z</time>
      </trkpt>
      <trkpt lon="35.36824098788202" lat="31.549143651500344">
        <ele>279.3999938964844</ele>
        <time>2014-01-03T11:38:20.000Z</time>
      </trkpt>
      <trkpt lon="35.36818373948336" lat="31.549004847183824">
        <ele>282.20001220703125</ele>
        <time>2014-01-03T11:38:30.000Z</time>
      </trkpt>
      <trkpt lon="35.36816177889705" lat="31.54886495321989">
        <ele>282.20001220703125</ele>
        <time>2014-01-03T11:38:38.000Z</time>
      </trkpt>
      <trkpt lon="35.36813504062593" lat="31.54863378033042">
        <ele>280.79998779296875</ele>
        <time>2014-01-03T11:38:44.000Z</time>
      </trkpt>
      <trkpt lon="35.368060106411576" lat="31.548315100371838">
        <ele>278.0</ele>
        <time>2014-01-03T11:38:49.000Z</time>
      </trkpt>
      <trkpt lon="35.36793605424464" lat="31.548157101497054">
        <ele>278.0</ele>
        <time>2014-01-03T11:38:54.000Z</time>
      </trkpt>
      <trkpt lon="35.36774695850909" lat="31.548056853935122">
        <ele>278.3999938964844</ele>
        <time>2014-01-03T11:39:02.000Z</time>
      </trkpt>
      <trkpt lon="35.36748661659658" lat="31.548074958845973">
        <ele>274.20001220703125</ele>
        <time>2014-01-03T11:39:07.000Z</time>
      </trkpt>
      <trkpt lon="35.36740564741194" lat="31.548082334920764">
        <ele>273.6000061035156</ele>
        <time>2014-01-03T11:39:08.000Z</time>
      </trkpt>
      <trkpt lon="35.36723926663399" lat="31.5480631403625">
        <ele>274.6000061035156</ele>
        <time>2014-01-03T11:39:13.000Z</time>
      </trkpt>
      <trkpt lon="35.367175564169884" lat="31.548067750409245">
        <ele>274.20001220703125</ele>
        <time>2014-01-03T11:39:17.000Z</time>
      </trkpt>
      <trkpt lon="35.36694221198559" lat="31.548186019062996">
        <ele>272.20001220703125</ele>
        <time>2014-01-03T11:39:23.000Z</time>
      </trkpt>
      <trkpt lon="35.366445165127516" lat="31.548320800065994">
        <ele>264.0</ele>
        <time>2014-01-03T11:39:31.000Z</time>
      </trkpt>
      <trkpt lon="35.36621960811317" lat="31.54834309592843">
        <ele>261.20001220703125</ele>
        <time>2014-01-03T11:39:34.000Z</time>
      </trkpt>
      <trkpt lon="35.36594216711819" lat="31.548378970474005">
        <ele>262.20001220703125</ele>
        <time>2014-01-03T11:39:39.000Z</time>
      </trkpt>
      <trkpt lon="35.36585717462003" lat="31.548374025151134">
        <ele>264.0</ele>
        <time>2014-01-03T11:39:43.000Z</time>
      </trkpt>
      <trkpt lon="35.36576966755092" lat="31.548400847241282">
        <ele>266.3999938964844</ele>
        <time>2014-01-03T11:39:48.000Z</time>
      </trkpt>
      <trkpt lon="35.36568903364241" lat="31.54839925467968">
        <ele>268.3999938964844</ele>
        <time>2014-01-03T11:39:52.000Z</time>
      </trkpt>
      <trkpt lon="35.36562499590218" lat="31.548405373468995">
        <ele>270.20001220703125</ele>
        <time>2014-01-03T11:39:56.000Z</time>
      </trkpt>
      <trkpt lon="35.365479653701186" lat="31.54844082891941">
        <ele>273.20001220703125</ele>
        <time>2014-01-03T11:40:06.000Z</time>
      </trkpt>
      <trkpt lon="35.36534973420203" lat="31.54851852916181">
        <ele>275.6000061035156</ele>
        <time>2014-01-03T11:40:16.000Z</time>
      </trkpt>
      <trkpt lon="35.36529223434627" lat="31.548580219969153">
        <ele>275.0</ele>
        <time>2014-01-03T11:40:22.000Z</time>
      </trkpt>
      <trkpt lon="35.365250408649445" lat="31.548654651269317">
        <ele>274.20001220703125</ele>
        <time>2014-01-03T11:40:29.000Z</time>
      </trkpt>
      <trkpt lon="35.3651765640825" lat="31.548844501376152">
        <ele>270.79998779296875</ele>
        <time>2014-01-03T11:40:36.000Z</time>
      </trkpt>
      <trkpt lon="35.365017307922244" lat="31.54914541170001">
        <ele>266.3999938964844</ele>
        <time>2014-01-03T11:40:42.000Z</time>
      </trkpt>
      <trkpt lon="35.36495159380138" lat="31.549261836335063">
        <ele>264.6000061035156</ele>
        <time>2014-01-03T11:40:44.000Z</time>
      </trkpt>
      <trkpt lon="35.36495444364846" lat="31.549598621204495">
        <ele>260.20001220703125</ele>
        <time>2014-01-03T11:40:49.000Z</time>
      </trkpt>
      <trkpt lon="35.36501747556031" lat="31.550266155973077">
        <ele>250.60000610351562</ele>
        <time>2014-01-03T11:40:57.000Z</time>
      </trkpt>
      <trkpt lon="35.36492560990155" lat="31.55067971907556">
        <ele>245.1999969482422</ele>
        <time>2014-01-03T11:41:03.000Z</time>
      </trkpt>
      <trkpt lon="35.364723689854145" lat="31.551052378490567">
        <ele>238.0</ele>
        <time>2014-01-03T11:41:10.000Z</time>
      </trkpt>
      <trkpt lon="35.36461145617068" lat="31.551168719306588">
        <ele>235.1999969482422</ele>
        <time>2014-01-03T11:41:13.000Z</time>
      </trkpt>
      <trkpt lon="35.36430023610592" lat="31.55125337652862">
        <ele>230.8000030517578</ele>
        <time>2014-01-03T11:41:19.000Z</time>
      </trkpt>
      <trkpt lon="35.364056238904595" lat="31.55129687860608">
        <ele>231.39999389648438</ele>
        <time>2014-01-03T11:41:24.000Z</time>
      </trkpt>
      <trkpt lon="35.36375901661813" lat="31.5514081902802">
        <ele>230.39999389648438</ele>
        <time>2014-01-03T11:41:30.000Z</time>
      </trkpt>
      <trkpt lon="35.3635741956532" lat="31.55147608369589">
        <ele>231.39999389648438</ele>
        <time>2014-01-03T11:41:35.000Z</time>
      </trkpt>
      <trkpt lon="35.36346632055938" lat="31.55149519443512">
        <ele>231.8000030517578</ele>
        <time>2014-01-03T11:41:41.000Z</time>
      </trkpt>
      <trkpt lon="35.36336749792099" lat="31.551489243283868">
        <ele>231.8000030517578</ele>
        <time>2014-01-03T11:41:44.000Z</time>
      </trkpt>
      <trkpt lon="35.3632633946836" lat="31.55151614919305">
        <ele>232.8000030517578</ele>
        <time>2014-01-03T11:41:49.000Z</time>
      </trkpt>
      <trkpt lon="35.36317999474704" lat="31.551516065374017">
        <ele>234.60000610351562</ele>
        <time>2014-01-03T11:41:53.000Z</time>
      </trkpt>
      <trkpt lon="35.362970028072596" lat="31.55153333209455">
        <ele>241.0</ele>
        <time>2014-01-03T11:42:03.000Z</time>
      </trkpt>
      <trkpt lon="35.36286818794906" lat="31.551527632400393">
        <ele>243.39999389648438</ele>
        <time>2014-01-03T11:42:09.000Z</time>
      </trkpt>
      <trkpt lon="35.36278177052736" lat="31.55153727158904">
        <ele>243.39999389648438</ele>
        <time>2014-01-03T11:42:15.000Z</time>
      </trkpt>
      <trkpt lon="35.36275528371334" lat="31.551546240225434">
        <ele>243.8000030517578</ele>
        <time>2014-01-03T11:42:17.000Z</time>
      </trkpt>
      <trkpt lon="35.362604996189475" lat="31.55157038010657">
        <ele>246.1999969482422</ele>
        <time>2014-01-03T11:42:28.000Z</time>
      </trkpt>
      <trkpt lon="35.362559566274285" lat="31.55157968401909">
        <ele>248.1999969482422</ele>
        <time>2014-01-03T11:42:31.000Z</time>
      </trkpt>
      <trkpt lon="35.36250181496143" lat="31.551649840548635">
        <ele>251.0</ele>
        <time>2014-01-03T11:42:38.000Z</time>
      </trkpt>
      <trkpt lon="35.362526876851916" lat="31.551732486113906">
        <ele>252.0</ele>
        <time>2014-01-03T11:42:45.000Z</time>
      </trkpt>
      <trkpt lon="35.36255084909499" lat="31.551879001781344">
        <ele>248.60000610351562</ele>
        <time>2014-01-03T11:42:55.000Z</time>
      </trkpt>
      <trkpt lon="35.362575743347406" lat="31.552015710622072">
        <ele>246.8000030517578</ele>
        <time>2014-01-03T11:43:04.000Z</time>
      </trkpt>
      <trkpt lon="35.36259460262954" lat="31.552184354513884">
        <ele>244.8000030517578</ele>
        <time>2014-01-03T11:43:09.000Z</time>
      </trkpt>
      <trkpt lon="35.362495528534055" lat="31.552392644807696">
        <ele>242.8000030517578</ele>
        <time>2014-01-03T11:43:13.000Z</time>
      </trkpt>
      <trkpt lon="35.36220886744559" lat="31.552545027807355">
        <ele>240.39999389648438</ele>
        <time>2014-01-03T11:43:19.000Z</time>
      </trkpt>
      <trkpt lon="35.361935533583164" lat="31.552675031125546">
        <ele>237.1999969482422</ele>
        <time>2014-01-03T11:43:23.000Z</time>
      </trkpt>
      <trkpt lon="35.36189588718116" lat="31.552734207361937">
        <ele>236.60000610351562</ele>
        <time>2014-01-03T11:43:24.000Z</time>
      </trkpt>
      <trkpt lon="35.36184433847666" lat="31.552839232608676">
        <ele>235.60000610351562</ele>
        <time>2014-01-03T11:43:26.000Z</time>
      </trkpt>
      <trkpt lon="35.361677538603544" lat="31.553045259788632">
        <ele>235.60000610351562</ele>
        <time>2014-01-03T11:43:32.000Z</time>
      </trkpt>
      <trkpt lon="35.36140462383628" lat="31.553232008591294">
        <ele>231.39999389648438</ele>
        <time>2014-01-03T11:43:37.000Z</time>
      </trkpt>
      <trkpt lon="35.36125768907368" lat="31.55329721979797">
        <ele>229.8000030517578</ele>
        <time>2014-01-03T11:43:39.000Z</time>
      </trkpt>
      <trkpt lon="35.36107202991843" lat="31.55347072519362">
        <ele>229.39999389648438</ele>
        <time>2014-01-03T11:43:43.000Z</time>
      </trkpt>
      <trkpt lon="35.36092618480325" lat="31.553728971630335">
        <ele>226.0</ele>
        <time>2014-01-03T11:43:48.000Z</time>
      </trkpt>
      <trkpt lon="35.36088285036385" lat="31.553821172565222">
        <ele>225.60000610351562</ele>
        <time>2014-01-03T11:43:50.000Z</time>
      </trkpt>
      <trkpt lon="35.360905565321445" lat="31.55404874123633">
        <ele>224.1999969482422</ele>
        <time>2014-01-03T11:43:55.000Z</time>
      </trkpt>
      <trkpt lon="35.36095904186368" lat="31.554236663505435">
        <ele>223.1999969482422</ele>
        <time>2014-01-03T11:43:59.000Z</time>
      </trkpt>
      <trkpt lon="35.36122977733612" lat="31.55449046753347">
        <ele>222.1999969482422</ele>
        <time>2014-01-03T11:44:06.000Z</time>
      </trkpt>
      <trkpt lon="35.361396158114076" lat="31.554674115031958">
        <ele>222.60000610351562</ele>
        <time>2014-01-03T11:44:13.000Z</time>
      </trkpt>
      <trkpt lon="35.36148567683995" lat="31.55491408891976">
        <ele>221.8000030517578</ele>
        <time>2014-01-03T11:44:18.000Z</time>
      </trkpt>
      <trkpt lon="35.36153580062091" lat="31.55502892099321">
        <ele>221.1999969482422</ele>
        <time>2014-01-03T11:44:20.000Z</time>
      </trkpt>
      <trkpt lon="35.36185615696013" lat="31.55546536669135">
        <ele>220.1999969482422</ele>
        <time>2014-01-03T11:44:28.000Z</time>
      </trkpt>
      <trkpt lon="35.36189379170537" lat="31.55551180243492">
        <ele>219.8000030517578</ele>
        <time>2014-01-03T11:44:29.000Z</time>
      </trkpt>
      <trkpt lon="35.36200677976012" lat="31.55572973191738">
        <ele>219.39999389648438</ele>
        <time>2014-01-03T11:44:33.000Z</time>
      </trkpt>
      <trkpt lon="35.362044079229236" lat="31.555937016382813">
        <ele>218.39999389648438</ele>
        <time>2014-01-03T11:44:36.000Z</time>
      </trkpt>
      <trkpt lon="35.36222764290869" lat="31.556244967505336">
        <ele>216.39999389648438</ele>
        <time>2014-01-03T11:44:41.000Z</time>
      </trkpt>
      <trkpt lon="35.362408608198166" lat="31.556751737371087">
        <ele>210.1999969482422</ele>
        <time>2014-01-03T11:44:49.000Z</time>
      </trkpt>
      <trkpt lon="35.36248253658414" lat="31.556915435940027">
        <ele>209.60000610351562</ele>
        <time>2014-01-03T11:44:52.000Z</time>
      </trkpt>
      <trkpt lon="35.36261069588363" lat="31.55712221749127">
        <ele>208.8000030517578</ele>
        <time>2014-01-03T11:44:56.000Z</time>
      </trkpt>
      <trkpt lon="35.36277674138546" lat="31.557278288528323">
        <ele>208.1999969482422</ele>
        <time>2014-01-03T11:45:00.000Z</time>
      </trkpt>
      <trkpt lon="35.36288654431701" lat="31.55739890411496">
        <ele>209.1999969482422</ele>
        <time>2014-01-03T11:45:05.000Z</time>
      </trkpt>
      <trkpt lon="35.363111179322004" lat="31.55764566734433">
        <ele>210.1999969482422</ele>
        <time>2014-01-03T11:45:12.000Z</time>
      </trkpt>
      <trkpt lon="35.36333044990897" lat="31.557894023135304">
        <ele>211.60000610351562</ele>
        <time>2014-01-03T11:45:21.000Z</time>
      </trkpt>
      <trkpt lon="35.36358970217407" lat="31.558175152167678">
        <ele>210.60000610351562</ele>
        <time>2014-01-03T11:45:31.000Z</time>
      </trkpt>
      <trkpt lon="35.363742588087916" lat="31.558322506025434">
        <ele>209.60000610351562</ele>
        <time>2014-01-03T11:45:35.000Z</time>
      </trkpt>
      <trkpt lon="35.3638971503824" lat="31.5584624838084">
        <ele>209.1999969482422</ele>
        <time>2014-01-03T11:45:40.000Z</time>
      </trkpt>
      <trkpt lon="35.36407266743481" lat="31.55865761451423">
        <ele>209.1999969482422</ele>
        <time>2014-01-03T11:45:47.000Z</time>
      </trkpt>
      <trkpt lon="35.36421474069357" lat="31.558830281719565">
        <ele>208.8000030517578</ele>
        <time>2014-01-03T11:45:52.000Z</time>
      </trkpt>
      <trkpt lon="35.36435857415199" lat="31.558966487646103">
        <ele>208.8000030517578</ele>
        <time>2014-01-03T11:45:56.000Z</time>
      </trkpt>
      <trkpt lon="35.36439025774598" lat="31.55907729640603">
        <ele>209.60000610351562</ele>
        <time>2014-01-03T11:46:01.000Z</time>
      </trkpt>
      <trkpt lon="35.36451430991292" lat="31.559238145127892">
        <ele>210.1999969482422</ele>
        <time>2014-01-03T11:46:07.000Z</time>
      </trkpt>
      <trkpt lon="35.36463199183345" lat="31.559423469007015">
        <ele>207.39999389648438</ele>
        <time>2014-01-03T11:46:11.000Z</time>
      </trkpt>
      <trkpt lon="35.364751517772675" lat="31.55970904044807">
        <ele>205.8000030517578</ele>
        <time>2014-01-03T11:46:16.000Z</time>
      </trkpt>
      <trkpt lon="35.364914797246456" lat="31.559953959658742">
        <ele>204.39999389648438</ele>
        <time>2014-01-03T11:46:21.000Z</time>
      </trkpt>
      <trkpt lon="35.364964082837105" lat="31.560242883861065">
        <ele>201.60000610351562</ele>
        <time>2014-01-03T11:46:27.000Z</time>
      </trkpt>
      <trkpt lon="35.36489803344011" lat="31.56041412614286">
        <ele>198.1999969482422</ele>
        <time>2014-01-03T11:46:31.000Z</time>
      </trkpt>
      <trkpt lon="35.36485930904746" lat="31.56050456687808">
        <ele>196.1999969482422</ele>
        <time>2014-01-03T11:46:33.000Z</time>
      </trkpt>
      <trkpt lon="35.36485151387751" lat="31.56077085994184">
        <ele>193.39999389648438</ele>
        <time>2014-01-03T11:46:37.000Z</time>
      </trkpt>
      <trkpt lon="35.36487431265414" lat="31.560943191871047">
        <ele>193.39999389648438</ele>
        <time>2014-01-03T11:46:40.000Z</time>
      </trkpt>
      <trkpt lon="35.364971878007054" lat="31.56120571307838">
        <ele>192.8000030517578</ele>
        <time>2014-01-03T11:46:45.000Z</time>
      </trkpt>
      <trkpt lon="35.364962574094534" lat="31.561432778835297">
        <ele>192.8000030517578</ele>
        <time>2014-01-03T11:46:50.000Z</time>
      </trkpt>
      <trkpt lon="35.364787140861154" lat="31.56160251237452">
        <ele>193.8000030517578</ele>
        <time>2014-01-03T11:46:55.000Z</time>
      </trkpt>
      <trkpt lon="35.36458941176534" lat="31.561630507931113">
        <ele>194.8000030517578</ele>
        <time>2014-01-03T11:47:01.000Z</time>
      </trkpt>
      <trkpt lon="35.36434725858271" lat="31.561521962285042">
        <ele>197.60000610351562</ele>
        <time>2014-01-03T11:47:07.000Z</time>
      </trkpt>
      <trkpt lon="35.36410225555301" lat="31.561448955908418">
        <ele>198.60000610351562</ele>
        <time>2014-01-03T11:47:12.000Z</time>
      </trkpt>
      <trkpt lon="35.3637451864779" lat="31.56133278273046">
        <ele>200.60000610351562</ele>
        <time>2014-01-03T11:47:21.000Z</time>
      </trkpt>
      <trkpt lon="35.36363412626088" lat="31.561307637020946">
        <ele>200.60000610351562</ele>
        <time>2014-01-03T11:47:24.000Z</time>
      </trkpt>
      <trkpt lon="35.36341921426356" lat="31.561426240950823">
        <ele>197.60000610351562</ele>
        <time>2014-01-03T11:47:28.000Z</time>
      </trkpt>
      <trkpt lon="35.36330823786557" lat="31.561547946184874">
        <ele>198.1999969482422</ele>
        <time>2014-01-03T11:47:31.000Z</time>
      </trkpt>
      <trkpt lon="35.36322785541415" lat="31.56159765087068">
        <ele>197.60000610351562</ele>
        <time>2014-01-03T11:47:33.000Z</time>
      </trkpt>
      <trkpt lon="35.363108329474926" lat="31.561700999736786">
        <ele>196.8000030517578</ele>
        <time>2014-01-03T11:47:36.000Z</time>
      </trkpt>
      <trkpt lon="35.36276735365391" lat="31.561875510960817">
        <ele>196.1999969482422</ele>
        <time>2014-01-03T11:47:45.000Z</time>
      </trkpt>
      <trkpt lon="35.36260021850467" lat="31.5619092900306">
        <ele>197.1999969482422</ele>
        <time>2014-01-03T11:47:51.000Z</time>
      </trkpt>
      <trkpt lon="35.362482368946075" lat="31.561962347477674">
        <ele>197.60000610351562</ele>
        <time>2014-01-03T11:47:58.000Z</time>
      </trkpt>
      <trkpt lon="35.36251815967262" lat="31.561958407983184">
        <ele>194.39999389648438</ele>
        <time>2014-01-03T11:48:17.000Z</time>
      </trkpt>
      <trkpt lon="35.362522853538394" lat="31.56195480376482">
        <ele>192.39999389648438</ele>
        <time>2014-01-03T11:48:26.000Z</time>
      </trkpt>
      <trkpt lon="35.362546825781465" lat="31.562116155400872">
        <ele>191.39999389648438</ele>
        <time>2014-01-03T11:48:34.000Z</time>
      </trkpt>
      <trkpt lon="35.36256803199649" lat="31.562144234776497">
        <ele>191.0</ele>
        <time>2014-01-03T11:48:35.000Z</time>
      </trkpt>
      <trkpt lon="35.36258915439248" lat="31.562176337465644">
        <ele>190.39999389648438</ele>
        <time>2014-01-03T11:48:36.000Z</time>
      </trkpt>
      <trkpt lon="35.36261455155909" lat="31.562204249203205">
        <ele>190.39999389648438</ele>
        <time>2014-01-03T11:48:37.000Z</time>
      </trkpt>
      <trkpt lon="35.362640116363764" lat="31.56222746707499">
        <ele>190.39999389648438</ele>
        <time>2014-01-03T11:48:38.000Z</time>
      </trkpt>
      <trkpt lon="35.362774059176445" lat="31.56234766356647">
        <ele>191.0</ele>
        <time>2014-01-03T11:48:44.000Z</time>
      </trkpt>
      <trkpt lon="35.36294127814472" lat="31.562510272487998">
        <ele>192.0</ele>
        <time>2014-01-03T11:48:52.000Z</time>
      </trkpt>
      <trkpt lon="35.36313490010798" lat="31.562729459255934">
        <ele>192.39999389648438</ele>
        <time>2014-01-03T11:49:00.000Z</time>
      </trkpt>
      <trkpt lon="35.36339482292533" lat="31.56301259994507">
        <ele>191.0</ele>
        <time>2014-01-03T11:49:09.000Z</time>
      </trkpt>
      <trkpt lon="35.363428350538015" lat="31.563042104244232">
        <ele>191.0</ele>
        <time>2014-01-03T11:49:10.000Z</time>
      </trkpt>
      <trkpt lon="35.363459112122655" lat="31.563073955476284">
        <ele>190.39999389648438</ele>
        <time>2014-01-03T11:49:11.000Z</time>
      </trkpt>
      <trkpt lon="35.36368701606989" lat="31.563356006518006">
        <ele>190.0</ele>
        <time>2014-01-03T11:49:19.000Z</time>
      </trkpt>
      <trkpt lon="35.36375608295202" lat="31.56348374672234">
        <ele>189.60000610351562</ele>
        <time>2014-01-03T11:49:22.000Z</time>
      </trkpt>
      <trkpt lon="35.363788520917296" lat="31.563578629866242">
        <ele>189.60000610351562</ele>
        <time>2014-01-03T11:49:24.000Z</time>
      </trkpt>
      <trkpt lon="35.36383361555636" lat="31.56371927820146">
        <ele>189.0</ele>
        <time>2014-01-03T11:49:27.000Z</time>
      </trkpt>
      <trkpt lon="35.36386831663549" lat="31.563751716166735">
        <ele>189.0</ele>
        <time>2014-01-03T11:49:28.000Z</time>
      </trkpt>
      <trkpt lon="35.364036122336984" lat="31.56390300951898">
        <ele>188.60000610351562</ele>
        <time>2014-01-03T11:49:33.000Z</time>
      </trkpt>
      <trkpt lon="35.36405405960977" lat="31.563943745568395">
        <ele>188.60000610351562</ele>
        <time>2014-01-03T11:49:34.000Z</time>
      </trkpt>
      <trkpt lon="35.36406705155969" lat="31.56398791819811">
        <ele>188.0</ele>
        <time>2014-01-03T11:49:35.000Z</time>
      </trkpt>
      <trkpt lon="35.364075265824795" lat="31.5640333481133">
        <ele>188.0</ele>
        <time>2014-01-03T11:49:36.000Z</time>
      </trkpt>
      <trkpt lon="35.364076271653175" lat="31.564082046970725">
        <ele>187.60000610351562</ele>
        <time>2014-01-03T11:49:37.000Z</time>
      </trkpt>
      <trkpt lon="35.364069482311606" lat="31.56413074582815">
        <ele>187.60000610351562</ele>
        <time>2014-01-03T11:49:38.000Z</time>
      </trkpt>
      <trkpt lon="35.36405565217137" lat="31.564179193228483">
        <ele>187.60000610351562</ele>
        <time>2014-01-03T11:49:39.000Z</time>
      </trkpt>
      <trkpt lon="35.36403930746019" lat="31.564226718619466">
        <ele>187.60000610351562</ele>
        <time>2014-01-03T11:49:40.000Z</time>
      </trkpt>
      <trkpt lon="35.36398021504283" lat="31.56438957899809">
        <ele>187.1999969482422</ele>
        <time>2014-01-03T11:49:44.000Z</time>
      </trkpt>
      <trkpt lon="35.363984908908606" lat="31.564432494342327">
        <ele>187.1999969482422</ele>
        <time>2014-01-03T11:49:45.000Z</time>
      </trkpt>
      <trkpt lon="35.3639989066869" lat="31.564471973106265">
        <ele>187.1999969482422</ele>
        <time>2014-01-03T11:49:46.000Z</time>
      </trkpt>
      <trkpt lon="35.36406185477972" lat="31.564609184861183">
        <ele>187.60000610351562</ele>
        <time>2014-01-03T11:49:50.000Z</time>
      </trkpt>
      <trkpt lon="35.36406864412129" lat="31.564650675281882">
        <ele>187.60000610351562</ele>
        <time>2014-01-03T11:49:51.000Z</time>
      </trkpt>
      <trkpt lon="35.36406529136002" lat="31.564694931730628">
        <ele>188.0</ele>
        <time>2014-01-03T11:49:52.000Z</time>
      </trkpt>
      <trkpt lon="35.36404182203114" lat="31.56485133804381">
        <ele>187.60000610351562</ele>
        <time>2014-01-03T11:49:55.000Z</time>
      </trkpt>
      <trkpt lon="35.36402899771929" lat="31.564907329156995">
        <ele>188.0</ele>
        <time>2014-01-03T11:49:56.000Z</time>
      </trkpt>
      <trkpt lon="35.36401852034032" lat="31.565307984128594">
        <ele>189.60000610351562</ele>
        <time>2014-01-03T11:50:03.000Z</time>
      </trkpt>
      <trkpt lon="35.36403922364116" lat="31.565417367964983">
        <ele>189.60000610351562</ele>
        <time>2014-01-03T11:50:05.000Z</time>
      </trkpt>
      <trkpt lon="35.36404148675501" lat="31.56546958722174">
        <ele>189.60000610351562</ele>
        <time>2014-01-03T11:50:06.000Z</time>
      </trkpt>
      <trkpt lon="35.3640697337687" lat="31.56579740345478">
        <ele>190.0</ele>
        <time>2014-01-03T11:50:13.000Z</time>
      </trkpt>
      <trkpt lon="35.36407652311027" lat="31.565888430923223">
        <ele>189.60000610351562</ele>
        <time>2014-01-03T11:50:15.000Z</time>
      </trkpt>
      <trkpt lon="35.364087000489235" lat="31.56592975370586">
        <ele>189.60000610351562</ele>
        <time>2014-01-03T11:50:16.000Z</time>
      </trkpt>
      <trkpt lon="35.36409948952496" lat="31.56596696935594">
        <ele>189.60000610351562</ele>
        <time>2014-01-03T11:50:17.000Z</time>
      </trkpt>
      <trkpt lon="35.36418314091861" lat="31.56621130183339">
        <ele>191.39999389648438</ele>
        <time>2014-01-03T11:50:25.000Z</time>
      </trkpt>
      <trkpt lon="35.364216500893235" lat="31.56643208116293">
        <ele>193.8000030517578</ele>
        <time>2014-01-03T11:50:33.000Z</time>
      </trkpt>
      <trkpt lon="35.36418096162379" lat="31.566600808873773">
        <ele>194.8000030517578</ele>
        <time>2014-01-03T11:50:40.000Z</time>
      </trkpt>
      <trkpt lon="35.36412455141544" lat="31.56676090322435">
        <ele>196.1999969482422</ele>
        <time>2014-01-03T11:50:46.000Z</time>
      </trkpt>
      <trkpt lon="35.36406143568456" lat="31.566946310922503">
        <ele>197.60000610351562</ele>
        <time>2014-01-03T11:50:53.000Z</time>
      </trkpt>
      <trkpt lon="35.363980466499925" lat="31.567111015319824">
        <ele>198.1999969482422</ele>
        <time>2014-01-03T11:51:00.000Z</time>
      </trkpt>
      <trkpt lon="35.363931097090244" lat="31.567180082201958">
        <ele>197.60000610351562</ele>
        <time>2014-01-03T11:51:07.000Z</time>
      </trkpt>
      <trkpt lon="35.36393185146153" lat="31.5671709459275">
        <ele>193.39999389648438</ele>
        <time>2014-01-03T11:51:21.000Z</time>
      </trkpt>
      <trkpt lon="35.363940484821796" lat="31.567160300910473">
        <ele>189.60000610351562</ele>
        <time>2014-01-03T11:51:38.000Z</time>
      </trkpt>
      <trkpt lon="35.36394509486854" lat="31.56715828925371">
        <ele>187.1999969482422</ele>
        <time>2014-01-03T11:51:56.000Z</time>
      </trkpt>
      <trkpt lon="35.36394668743014" lat="31.567159965634346">
        <ele>186.60000610351562</ele>
        <time>2014-01-03T11:52:11.000Z</time>
      </trkpt>
      <trkpt lon="35.363947274163365" lat="31.56716658733785">
        <ele>186.60000610351562</ele>
        <time>2014-01-03T11:52:24.000Z</time>
      </trkpt>
      <trkpt lon="35.36394903436303" lat="31.56716801226139">
        <ele>185.60000610351562</ele>
        <time>2014-01-03T11:52:43.000Z</time>
      </trkpt>
      <trkpt lon="35.36394467577338" lat="31.56716164201498">
        <ele>185.1999969482422</ele>
        <time>2014-01-03T11:53:02.000Z</time>
      </trkpt>
      <trkpt lon="35.36394073627889" lat="31.56715870834887">
        <ele>183.8000030517578</ele>
        <time>2014-01-03T11:53:23.000Z</time>
      </trkpt>
      <trkpt lon="35.36393621005118" lat="31.567157031968236">
        <ele>182.8000030517578</ele>
        <time>2014-01-03T11:53:38.000Z</time>
      </trkpt>
      <trkpt lon="35.36393185146153" lat="31.567150074988604">
        <ele>182.39999389648438</ele>
        <time>2014-01-03T11:53:54.000Z</time>
      </trkpt>
      <trkpt lon="35.36392732523382" lat="31.567142698913813">
        <ele>182.39999389648438</ele>
        <time>2014-01-03T11:54:13.000Z</time>
      </trkpt>
      <trkpt lon="35.363925229758024" lat="31.567144375294447">
        <ele>182.39999389648438</ele>
        <time>2014-01-03T11:54:36.000Z</time>
      </trkpt>
      <trkpt lon="35.36392556503415" lat="31.567150242626667">
        <ele>182.8000030517578</ele>
        <time>2014-01-03T11:54:56.000Z</time>
      </trkpt>
      <trkpt lon="35.363924307748675" lat="31.567158875986934">
        <ele>183.1999969482422</ele>
        <time>2014-01-03T11:55:17.000Z</time>
      </trkpt>
      <trkpt lon="35.36392196081579" lat="31.56716994009912">
        <ele>183.1999969482422</ele>
        <time>2014-01-03T11:55:34.000Z</time>
      </trkpt>
      <trkpt lon="35.36391969770193" lat="31.567168682813644">
        <ele>184.1999969482422</ele>
        <time>2014-01-03T11:55:52.000Z</time>
      </trkpt>
      <trkpt lon="35.36392657086253" lat="31.567162815481424">
        <ele>182.8000030517578</ele>
        <time>2014-01-03T11:56:15.000Z</time>
      </trkpt>
      <trkpt lon="35.36393805406988" lat="31.567147811874747">
        <ele>182.39999389648438</ele>
        <time>2014-01-03T11:56:37.000Z</time>
      </trkpt>
      <trkpt lon="35.363936964422464" lat="31.567138843238354">
        <ele>182.8000030517578</ele>
        <time>2014-01-03T11:56:56.000Z</time>
      </trkpt>
      <trkpt lon="35.363943334668875" lat="31.567138424143195">
        <ele>183.8000030517578</ele>
        <time>2014-01-03T11:57:20.000Z</time>
      </trkpt>
      <trkpt lon="35.36394249647856" lat="31.567140519618988">
        <ele>183.8000030517578</ele>
        <time>2014-01-03T11:57:35.000Z</time>
      </trkpt>
      <trkpt lon="35.36393872462213" lat="31.56713725067675">
        <ele>182.39999389648438</ele>
        <time>2014-01-03T11:57:50.000Z</time>
      </trkpt>
      <trkpt lon="35.3639352042228" lat="31.567148314788938">
        <ele>181.8000030517578</ele>
        <time>2014-01-03T11:58:07.000Z</time>
      </trkpt>
      <trkpt lon="35.36394082009792" lat="31.567168263718486">
        <ele>180.8000030517578</ele>
        <time>2014-01-03T11:58:15.000Z</time>
      </trkpt>
      <trkpt lon="35.36392757669091" lat="31.56721151433885">
        <ele>181.39999389648438</ele>
        <time>2014-01-03T11:58:22.000Z</time>
      </trkpt>
      <trkpt lon="35.363907711580396" lat="31.56722123734653">
        <ele>180.39999389648438</ele>
        <time>2014-01-03T11:58:28.000Z</time>
      </trkpt>
      <trkpt lon="35.36391181871295" lat="31.567219141870737">
        <ele>181.39999389648438</ele>
        <time>2014-01-03T11:58:45.000Z</time>
      </trkpt>
      <trkpt lon="35.36388197913766" lat="31.567234648391604">
        <ele>182.39999389648438</ele>
        <time>2014-01-03T11:58:59.000Z</time>
      </trkpt>
      <trkpt lon="35.363870998844504" lat="31.567233726382256">
        <ele>183.8000030517578</ele>
        <time>2014-01-03T11:59:17.000Z</time>
      </trkpt>
      <trkpt lon="35.363868148997426" lat="31.567245461046696">
        <ele>184.1999969482422</ele>
        <time>2014-01-03T11:59:24.000Z</time>
      </trkpt>
      <trkpt lon="35.363880805671215" lat="31.567253759130836">
        <ele>185.1999969482422</ele>
        <time>2014-01-03T11:59:47.000Z</time>
      </trkpt>
      <trkpt lon="35.363888600841165" lat="31.567247305065393">
        <ele>185.1999969482422</ele>
        <time>2014-01-03T12:00:02.000Z</time>
      </trkpt>
      <trkpt lon="35.36388591863215" lat="31.567235151305795">
        <ele>186.1999969482422</ele>
        <time>2014-01-03T12:00:17.000Z</time>
      </trkpt>
      <trkpt lon="35.3638834040612" lat="31.567234816029668">
        <ele>185.60000610351562</ele>
        <time>2014-01-03T12:00:35.000Z</time>
      </trkpt>
      <trkpt lon="35.363882817327976" lat="31.56723339110613">
        <ele>186.60000610351562</ele>
        <time>2014-01-03T12:00:49.000Z</time>
      </trkpt>
      <trkpt lon="35.363876363262534" lat="31.567267337813973">
        <ele>185.60000610351562</ele>
        <time>2014-01-03T12:00:54.000Z</time>
      </trkpt>
      <trkpt lon="35.363871082663536" lat="31.567285526543856">
        <ele>185.1999969482422</ele>
        <time>2014-01-03T12:00:55.000Z</time>
      </trkpt>
      <trkpt lon="35.36386001855135" lat="31.567305140197277">
        <ele>185.1999969482422</ele>
        <time>2014-01-03T12:00:56.000Z</time>
      </trkpt>
      <trkpt lon="35.363843673840165" lat="31.567325172945857">
        <ele>184.8000030517578</ele>
        <time>2014-01-03T12:00:57.000Z</time>
      </trkpt>
      <trkpt lon="35.36383017897606" lat="31.567346462979913">
        <ele>184.8000030517578</ele>
        <time>2014-01-03T12:00:58.000Z</time>
      </trkpt>
      <trkpt lon="35.36372372880578" lat="31.567566068843007">
        <ele>181.8000030517578</ele>
        <time>2014-01-03T12:01:04.000Z</time>
      </trkpt>
      <trkpt lon="35.36364535801113" lat="31.567876366898417">
        <ele>178.39999389648438</ele>
        <time>2014-01-03T12:01:10.000Z</time>
      </trkpt>
      <trkpt lon="35.3636363055557" lat="31.567919617518783">
        <ele>177.60000610351562</ele>
        <time>2014-01-03T12:01:11.000Z</time>
      </trkpt>
      <trkpt lon="35.36361149512231" lat="31.568134864792228">
        <ele>174.1999969482422</ele>
        <time>2014-01-03T12:01:16.000Z</time>
      </trkpt>
      <trkpt lon="35.36359339021146" lat="31.568180629983544">
        <ele>173.60000610351562</ele>
        <time>2014-01-03T12:01:17.000Z</time>
      </trkpt>
      <trkpt lon="35.36357017233968" lat="31.56822480261326">
        <ele>172.60000610351562</ele>
        <time>2014-01-03T12:01:18.000Z</time>
      </trkpt>
      <trkpt lon="35.363321816548705" lat="31.568548260256648">
        <ele>166.0</ele>
        <time>2014-01-03T12:01:24.000Z</time>
      </trkpt>
      <trkpt lon="35.36304043605924" lat="31.568919578567147">
        <ele>159.8000030517578</ele>
        <time>2014-01-03T12:01:30.000Z</time>
      </trkpt>
      <trkpt lon="35.362880090251565" lat="31.56912501901388">
        <ele>157.8000030517578</ele>
        <time>2014-01-03T12:01:34.000Z</time>
      </trkpt>
      <trkpt lon="35.362845389172435" lat="31.56918260268867">
        <ele>157.39999389648438</ele>
        <time>2014-01-03T12:01:35.000Z</time>
      </trkpt>
      <trkpt lon="35.36255545914173" lat="31.569554843008518">
        <ele>154.39999389648438</ele>
        <time>2014-01-03T12:01:42.000Z</time>
      </trkpt>
      <trkpt lon="35.362509777769446" lat="31.5696042124182">
        <ele>154.39999389648438</ele>
        <time>2014-01-03T12:01:43.000Z</time>
      </trkpt>
      <trkpt lon="35.36245856434107" lat="31.569655258208513">
        <ele>154.39999389648438</ele>
        <time>2014-01-03T12:01:44.000Z</time>
      </trkpt>
      <trkpt lon="35.362242897972465" lat="31.569844018667936">
        <ele>154.0</ele>
        <time>2014-01-03T12:01:48.000Z</time>
      </trkpt>
      <trkpt lon="35.362201910465956" lat="31.569898752495646">
        <ele>154.0</ele>
        <time>2014-01-03T12:01:49.000Z</time>
      </trkpt>
      <trkpt lon="35.361964451149106" lat="31.570294545963407">
        <ele>153.0</ele>
        <time>2014-01-03T12:01:56.000Z</time>
      </trkpt>
      <trkpt lon="35.3619232121855" lat="31.57034399919212">
        <ele>152.60000610351562</ele>
        <time>2014-01-03T12:01:57.000Z</time>
      </trkpt>
      <trkpt lon="35.361876944079995" lat="31.57039236277342">
        <ele>152.0</ele>
        <time>2014-01-03T12:01:58.000Z</time>
      </trkpt>
      <trkpt lon="35.361822210252285" lat="31.570439469069242">
        <ele>151.60000610351562</ele>
        <time>2014-01-03T12:01:59.000Z</time>
      </trkpt>
      <trkpt lon="35.36175599321723" lat="31.570483725517988">
        <ele>150.60000610351562</ele>
        <time>2014-01-03T12:02:00.000Z</time>
      </trkpt>
      <trkpt lon="35.36168558523059" lat="31.57052923925221">
        <ele>149.60000610351562</ele>
        <time>2014-01-03T12:02:01.000Z</time>
      </trkpt>
      <trkpt lon="35.36161433905363" lat="31.570583386346698">
        <ele>148.60000610351562</ele>
        <time>2014-01-03T12:02:02.000Z</time>
      </trkpt>
      <trkpt lon="35.3615418355912" lat="31.570642981678247">
        <ele>147.60000610351562</ele>
        <time>2014-01-03T12:02:03.000Z</time>
      </trkpt>
      <trkpt lon="35.3610978461802" lat="31.571045480668545">
        <ele>143.8000030517578</ele>
        <time>2014-01-03T12:02:09.000Z</time>
      </trkpt>
      <trkpt lon="35.36075469106436" lat="31.571425767615438">
        <ele>143.39999389648438</ele>
        <time>2014-01-03T12:02:15.000Z</time>
      </trkpt>
      <trkpt lon="35.36065461114049" lat="31.57150254584849">
        <ele>143.8000030517578</ele>
        <time>2014-01-03T12:02:17.000Z</time>
      </trkpt>
      <trkpt lon="35.36060540936887" lat="31.571531044319272">
        <ele>144.8000030517578</ele>
        <time>2014-01-03T12:02:18.000Z</time>
      </trkpt>
      <trkpt lon="35.36031170748174" lat="31.571672279387712">
        <ele>144.8000030517578</ele>
        <time>2014-01-03T12:02:24.000Z</time>
      </trkpt>
      <trkpt lon="35.360116409137845" lat="31.571769593283534">
        <ele>143.39999389648438</ele>
        <time>2014-01-03T12:02:27.000Z</time>
      </trkpt>
      <trkpt lon="35.35986981354654" lat="31.571868499740958">
        <ele>141.39999389648438</ele>
        <time>2014-01-03T12:02:30.000Z</time>
      </trkpt>
      <trkpt lon="35.35979186184704" lat="31.57191795296967">
        <ele>141.0</ele>
        <time>2014-01-03T12:02:31.000Z</time>
      </trkpt>
      <trkpt lon="35.35971877165139" lat="31.571975285187364">
        <ele>140.39999389648438</ele>
        <time>2014-01-03T12:02:32.000Z</time>
      </trkpt>
      <trkpt lon="35.3596506267786" lat="31.5720390714705">
        <ele>139.60000610351562</ele>
        <time>2014-01-03T12:02:33.000Z</time>
      </trkpt>
      <trkpt lon="35.35958457738161" lat="31.572108305990696">
        <ele>139.0</ele>
        <time>2014-01-03T12:02:34.000Z</time>
      </trkpt>
      <trkpt lon="35.35930403508246" lat="31.572477025911212">
        <ele>136.1999969482422</ele>
        <time>2014-01-03T12:02:39.000Z</time>
      </trkpt>
      <trkpt lon="35.35923941060901" lat="31.572540057823062">
        <ele>135.60000610351562</ele>
        <time>2014-01-03T12:02:40.000Z</time>
      </trkpt>
      <trkpt lon="35.3591722715646" lat="31.572597306221724">
        <ele>135.1999969482422</ele>
        <time>2014-01-03T12:02:41.000Z</time>
      </trkpt>
      <trkpt lon="35.35910094156861" lat="31.572650531306863">
        <ele>135.1999969482422</ele>
        <time>2014-01-03T12:02:42.000Z</time>
      </trkpt>
      <trkpt lon="35.359023828059435" lat="31.57270166091621">
        <ele>134.8000030517578</ele>
        <time>2014-01-03T12:02:43.000Z</time>
      </trkpt>
      <trkpt lon="35.35894696600735" lat="31.572750443592668">
        <ele>134.1999969482422</ele>
        <time>2014-01-03T12:02:44.000Z</time>
      </trkpt>
      <trkpt lon="35.358868008479476" lat="31.572793610394">
        <ele>133.1999969482422</ele>
        <time>2014-01-03T12:02:45.000Z</time>
      </trkpt>
      <trkpt lon="35.35862484946847" lat="31.57291866838932">
        <ele>131.8000030517578</ele>
        <time>2014-01-03T12:02:48.000Z</time>
      </trkpt>
      <trkpt lon="35.35830591805279" lat="31.573140202090144">
        <ele>129.39999389648438</ele>
        <time>2014-01-03T12:02:53.000Z</time>
      </trkpt>
      <trkpt lon="35.3582501783967" lat="31.573161408305168">
        <ele>129.0</ele>
        <time>2014-01-03T12:02:54.000Z</time>
      </trkpt>
      <trkpt lon="35.35819829441607" lat="31.57317465171218">
        <ele>129.0</ele>
        <time>2014-01-03T12:02:55.000Z</time>
      </trkpt>
      <trkpt lon="35.35814783535898" lat="31.573191666975617">
        <ele>128.39999389648438</ele>
        <time>2014-01-03T12:02:56.000Z</time>
      </trkpt>
      <trkpt lon="35.358096957206726" lat="31.573213543742895">
        <ele>128.39999389648438</ele>
        <time>2014-01-03T12:02:57.000Z</time>
      </trkpt>
      <trkpt lon="35.357645759359" lat="31.57346106134355">
        <ele>126.0</ele>
        <time>2014-01-03T12:03:05.000Z</time>
      </trkpt>
      <trkpt lon="35.357528664171696" lat="31.573530212044716">
        <ele>125.5999984741211</ele>
        <time>2014-01-03T12:03:07.000Z</time>
      </trkpt>
      <trkpt lon="35.35709364339709" lat="31.573728527873755">
        <ele>122.80000305175781</ele>
        <time>2014-01-03T12:03:14.000Z</time>
      </trkpt>
      <trkpt lon="35.35685107111931" lat="31.573846880346537">
        <ele>121.80000305175781</ele>
        <time>2014-01-03T12:03:18.000Z</time>
      </trkpt>
      <trkpt lon="35.35678845830262" lat="31.573870768770576">
        <ele>121.80000305175781</ele>
        <time>2014-01-03T12:03:19.000Z</time>
      </trkpt>
      <trkpt lon="35.35672316327691" lat="31.57389499247074">
        <ele>121.80000305175781</ele>
        <time>2014-01-03T12:03:20.000Z</time>
      </trkpt>
      <trkpt lon="35.35631806589663" lat="31.574031449854374">
        <ele>119.80000305175781</ele>
        <time>2014-01-03T12:03:26.000Z</time>
      </trkpt>
      <trkpt lon="35.35625847056508" lat="31.574039412662387">
        <ele>119.80000305175781</ele>
        <time>2014-01-03T12:03:27.000Z</time>
      </trkpt>
      <trkpt lon="35.356148751452565" lat="31.57404444180429">
        <ele>119.80000305175781</ele>
        <time>2014-01-03T12:03:29.000Z</time>
      </trkpt>
      <trkpt lon="35.3561070933938" lat="31.57406246289611">
        <ele>120.4000015258789</ele>
        <time>2014-01-03T12:03:30.000Z</time>
      </trkpt>
      <trkpt lon="35.35607926547527" lat="31.574089536443353">
        <ele>120.4000015258789</ele>
        <time>2014-01-03T12:03:31.000Z</time>
      </trkpt>
      <trkpt lon="35.356054455041885" lat="31.574119040742517">
        <ele>120.4000015258789</ele>
        <time>2014-01-03T12:03:32.000Z</time>
      </trkpt>
      <trkpt lon="35.356027130037546" lat="31.57415432855487">
        <ele>120.4000015258789</ele>
        <time>2014-01-03T12:03:33.000Z</time>
      </trkpt>
      <trkpt lon="35.35599636845291" lat="31.574188945814967">
        <ele>120.4000015258789</ele>
        <time>2014-01-03T12:03:34.000Z</time>
      </trkpt>
      <trkpt lon="35.355959655717015" lat="31.57421744428575">
        <ele>120.4000015258789</ele>
        <time>2014-01-03T12:03:35.000Z</time>
      </trkpt>
      <trkpt lon="35.355919087305665" lat="31.574241165071726">
        <ele>119.80000305175781</ele>
        <time>2014-01-03T12:03:36.000Z</time>
      </trkpt>
      <trkpt lon="35.355878518894315" lat="31.574263712391257">
        <ele>119.80000305175781</ele>
        <time>2014-01-03T12:03:37.000Z</time>
      </trkpt>
      <trkpt lon="35.3555010817945" lat="31.574421375989914">
        <ele>117.0</ele>
        <time>2014-01-03T12:03:44.000Z</time>
      </trkpt>
      <trkpt lon="35.35543804988265" lat="31.574435541406274">
        <ele>117.0</ele>
        <time>2014-01-03T12:03:45.000Z</time>
      </trkpt>
      <trkpt lon="35.35537443123758" lat="31.574450125917792">
        <ele>116.4000015258789</ele>
        <time>2014-01-03T12:03:46.000Z</time>
      </trkpt>
      <trkpt lon="35.35531550645828" lat="31.57447191886604">
        <ele>116.4000015258789</ele>
        <time>2014-01-03T12:03:47.000Z</time>
      </trkpt>
      <trkpt lon="35.35527242347598" lat="31.574498657137156">
        <ele>116.4000015258789</ele>
        <time>2014-01-03T12:03:48.000Z</time>
      </trkpt>
      <trkpt lon="35.35524451173842" lat="31.574528496712446">
        <ele>117.0</ele>
        <time>2014-01-03T12:03:49.000Z</time>
      </trkpt>
      <trkpt lon="35.35522514954209" lat="31.574557330459356">
        <ele>117.0</ele>
        <time>2014-01-03T12:03:50.000Z</time>
      </trkpt>
      <trkpt lon="35.35520268604159" lat="31.57457811757922">
        <ele>117.0</ele>
        <time>2014-01-03T12:03:51.000Z</time>
      </trkpt>
      <trkpt lon="35.35517519339919" lat="31.5745912771672">
        <ele>117.4000015258789</ele>
        <time>2014-01-03T12:03:52.000Z</time>
      </trkpt>
      <trkpt lon="35.35514669492841" lat="31.574602173641324">
        <ele>117.4000015258789</ele>
        <time>2014-01-03T12:03:53.000Z</time>
      </trkpt>
      <trkpt lon="35.355116687715054" lat="31.574613824486732">
        <ele>118.0</ele>
        <time>2014-01-03T12:03:54.000Z</time>
      </trkpt>
      <trkpt lon="35.35508659668267" lat="31.57462782226503">
        <ele>118.0</ele>
        <time>2014-01-03T12:03:55.000Z</time>
      </trkpt>
      <trkpt lon="35.35484821535647" lat="31.574772745370865">
        <ele>118.4000015258789</ele>
        <time>2014-01-03T12:04:02.000Z</time>
      </trkpt>
      <trkpt lon="35.35455501638353" lat="31.575050605461">
        <ele>117.4000015258789</ele>
        <time>2014-01-03T12:04:10.000Z</time>
      </trkpt>
      <trkpt lon="35.35435636527836" lat="31.575336176902056">
        <ele>117.0</ele>
        <time>2014-01-03T12:04:18.000Z</time>
      </trkpt>
      <trkpt lon="35.35424438305199" lat="31.575500797480345">
        <ele>116.4000015258789</ele>
        <time>2014-01-03T12:04:22.000Z</time>
      </trkpt>
      <trkpt lon="35.35405897535384" lat="31.575891729444265">
        <ele>113.5999984741211</ele>
        <time>2014-01-03T12:04:30.000Z</time>
      </trkpt>
      <trkpt lon="35.35384314134717" lat="31.576312500983477">
        <ele>109.19999694824219</ele>
        <time>2014-01-03T12:04:36.000Z</time>
      </trkpt>
      <trkpt lon="35.35371816717088" lat="31.576581224799156">
        <ele>106.80000305175781</ele>
        <time>2014-01-03T12:04:40.000Z</time>
      </trkpt>
      <trkpt lon="35.35370333120227" lat="31.576636377722025">
        <ele>106.80000305175781</ele>
        <time>2014-01-03T12:04:41.000Z</time>
      </trkpt>
      <trkpt lon="35.353669971227646" lat="31.57673821784556">
        <ele>106.4000015258789</ele>
        <time>2014-01-03T12:04:43.000Z</time>
      </trkpt>
      <trkpt lon="35.35364122129977" lat="31.57678473740816">
        <ele>106.4000015258789</ele>
        <time>2014-01-03T12:04:44.000Z</time>
      </trkpt>
      <trkpt lon="35.35345044918358" lat="31.57718195579946">
        <ele>104.4000015258789</ele>
        <time>2014-01-03T12:04:51.000Z</time>
      </trkpt>
      <trkpt lon="35.353382555767894" lat="31.577332159504294">
        <ele>103.0</ele>
        <time>2014-01-03T12:04:53.000Z</time>
      </trkpt>
      <trkpt lon="35.35313663072884" lat="31.577955689281225">
        <ele>99.19999694824219</ele>
        <time>2014-01-03T12:05:01.000Z</time>
      </trkpt>
      <trkpt lon="35.35296153277159" lat="31.57838827930391">
        <ele>99.5999984741211</ele>
        <time>2014-01-03T12:05:08.000Z</time>
      </trkpt>
      <trkpt lon="35.35294166766107" lat="31.578433457762003">
        <ele>99.5999984741211</ele>
        <time>2014-01-03T12:05:09.000Z</time>
      </trkpt>
      <trkpt lon="35.35291853360832" lat="31.578473690897226">
        <ele>99.5999984741211</ele>
        <time>2014-01-03T12:05:10.000Z</time>
      </trkpt>
      <trkpt lon="35.35282541066408" lat="31.578730512410402">
        <ele>99.5999984741211</ele>
        <time>2014-01-03T12:05:17.000Z</time>
      </trkpt>
      <trkpt lon="35.352824572473764" lat="31.578771835193038">
        <ele>99.5999984741211</ele>
        <time>2014-01-03T12:05:18.000Z</time>
      </trkpt>
      <trkpt lon="35.35282834433019" lat="31.578814750537276">
        <ele>99.5999984741211</ele>
        <time>2014-01-03T12:05:19.000Z</time>
      </trkpt>
      <trkpt lon="35.35283898934722" lat="31.578859761357307">
        <ele>99.5999984741211</ele>
        <time>2014-01-03T12:05:20.000Z</time>
      </trkpt>
      <trkpt lon="35.35288450308144" lat="31.579003343358636">
        <ele>99.19999694824219</ele>
        <time>2014-01-03T12:05:23.000Z</time>
      </trkpt>
      <trkpt lon="35.35289506427944" lat="31.579048354178667">
        <ele>99.19999694824219</ele>
        <time>2014-01-03T12:05:24.000Z</time>
      </trkpt>
      <trkpt lon="35.35290168598294" lat="31.579092359170318">
        <ele>99.19999694824219</ele>
        <time>2014-01-03T12:05:25.000Z</time>
      </trkpt>
      <trkpt lon="35.352920880541205" lat="31.579132843762636">
        <ele>99.19999694824219</ele>
        <time>2014-01-03T12:05:26.000Z</time>
      </trkpt>
      <trkpt lon="35.35295348614454" lat="31.579159665852785">
        <ele>99.19999694824219</ele>
        <time>2014-01-03T12:05:27.000Z</time>
      </trkpt>
      <trkpt lon="35.35299338400364" lat="31.57917559146881">
        <ele>99.19999694824219</ele>
        <time>2014-01-03T12:05:28.000Z</time>
      </trkpt>
      <trkpt lon="35.35303646698594" lat="31.579191936179996">
        <ele>99.19999694824219</ele>
        <time>2014-01-03T12:05:29.000Z</time>
      </trkpt>
      <trkpt lon="35.353079130873084" lat="31.579212471842766">
        <ele>99.5999984741211</ele>
        <time>2014-01-03T12:05:30.000Z</time>
      </trkpt>
      <trkpt lon="35.353120705112815" lat="31.57923753373325">
        <ele>99.5999984741211</ele>
        <time>2014-01-03T12:05:31.000Z</time>
      </trkpt>
      <trkpt lon="35.35349143669009" lat="31.579467449337244">
        <ele>101.5999984741211</ele>
        <time>2014-01-03T12:05:41.000Z</time>
      </trkpt>
      <trkpt lon="35.35367173142731" lat="31.579701639711857">
        <ele>102.0</ele>
        <time>2014-01-03T12:05:49.000Z</time>
      </trkpt>
      <trkpt lon="35.35366100259125" lat="31.580031802877784">
        <ele>99.5999984741211</ele>
        <time>2014-01-03T12:05:57.000Z</time>
      </trkpt>
      <trkpt lon="35.353538040071726" lat="31.580386189743876">
        <ele>96.80000305175781</ele>
        <time>2014-01-03T12:06:05.000Z</time>
      </trkpt>
      <trkpt lon="35.35347609780729" lat="31.58062574453652">
        <ele>93.80000305175781</ele>
        <time>2014-01-03T12:06:09.000Z</time>
      </trkpt>
      <trkpt lon="35.35350752994418" lat="31.58102505840361">
        <ele>90.5999984741211</ele>
        <time>2014-01-03T12:06:14.000Z</time>
      </trkpt>
      <trkpt lon="35.3536600805819" lat="31.581609277054667">
        <ele>84.80000305175781</ele>
        <time>2014-01-03T12:06:20.000Z</time>
      </trkpt>
      <trkpt lon="35.35372797399759" lat="31.581768784672022">
        <ele>82.80000305175781</ele>
        <time>2014-01-03T12:06:22.000Z</time>
      </trkpt>
      <trkpt lon="35.35377332009375" lat="31.5818390250206">
        <ele>82.80000305175781</ele>
        <time>2014-01-03T12:06:23.000Z</time>
      </trkpt>
      <trkpt lon="35.353828221559525" lat="31.581902476027608">
        <ele>82.4000015258789</ele>
        <time>2014-01-03T12:06:24.000Z</time>
      </trkpt>
      <trkpt lon="35.35388915799558" lat="31.581956371665">
        <ele>81.80000305175781</ele>
        <time>2014-01-03T12:06:25.000Z</time>
      </trkpt>
      <trkpt lon="35.353951351717114" lat="31.582003980875015">
        <ele>81.4000015258789</ele>
        <time>2014-01-03T12:06:26.000Z</time>
      </trkpt>
      <trkpt lon="35.35439190454781" lat="31.582318302243948">
        <ele>77.0</ele>
        <time>2014-01-03T12:06:33.000Z</time>
      </trkpt>
      <trkpt lon="35.35491334274411" lat="31.582689117640257">
        <ele>71.80000305175781</ele>
        <time>2014-01-03T12:06:42.000Z</time>
      </trkpt>
      <trkpt lon="35.3549727704376" lat="31.582716023549438">
        <ele>70.80000305175781</ele>
        <time>2014-01-03T12:06:43.000Z</time>
      </trkpt>
      <trkpt lon="35.35503035411239" lat="31.582739911973476">
        <ele>70.4000015258789</ele>
        <time>2014-01-03T12:06:44.000Z</time>
      </trkpt>
      <trkpt lon="35.35533939488232" lat="31.582873100414872">
        <ele>67.4000015258789</ele>
        <time>2014-01-03T12:06:50.000Z</time>
      </trkpt>
      <trkpt lon="35.35549211315811" lat="31.58294878900051">
        <ele>65.5999984741211</ele>
        <time>2014-01-03T12:06:53.000Z</time>
      </trkpt>
      <trkpt lon="35.35599066875875" lat="31.58314425498247">
        <ele>59.79999923706055</ele>
        <time>2014-01-03T12:07:01.000Z</time>
      </trkpt>
      <trkpt lon="35.3561073448509" lat="31.583209801465273">
        <ele>57.79999923706055</ele>
        <time>2014-01-03T12:07:03.000Z</time>
      </trkpt>
      <trkpt lon="35.356151685118675" lat="31.58324584364891">
        <ele>56.79999923706055</ele>
        <time>2014-01-03T12:07:04.000Z</time>
      </trkpt>
      <trkpt lon="35.356181608513" lat="31.583286244422197">
        <ele>56.400001525878906</ele>
        <time>2014-01-03T12:07:05.000Z</time>
      </trkpt>
      <trkpt lon="35.356196193024516" lat="31.583330668509007">
        <ele>55.79999923706055</ele>
        <time>2014-01-03T12:07:06.000Z</time>
      </trkpt>
      <trkpt lon="35.356197115033865" lat="31.583375679329038">
        <ele>55.400001525878906</ele>
        <time>2014-01-03T12:07:07.000Z</time>
      </trkpt>
      <trkpt lon="35.35619284026325" lat="31.583428233861923">
        <ele>55.0</ele>
        <time>2014-01-03T12:07:08.000Z</time>
      </trkpt>
      <trkpt lon="35.356166269630194" lat="31.583481542766094">
        <ele>53.400001525878906</ele>
        <time>2014-01-03T12:07:09.000Z</time>
      </trkpt>
      <trkpt lon="35.35613592714071" lat="31.583528062328696">
        <ele>52.599998474121094</ele>
        <time>2014-01-03T12:07:10.000Z</time>
      </trkpt>
      <trkpt lon="35.356098460033536" lat="31.583563098683953">
        <ele>51.599998474121094</ele>
        <time>2014-01-03T12:07:11.000Z</time>
      </trkpt>
      <trkpt lon="35.35605805926025" lat="31.583589669317007">
        <ele>50.599998474121094</ele>
        <time>2014-01-03T12:07:12.000Z</time>
      </trkpt>
      <trkpt lon="35.35601070150733" lat="31.58360593020916">
        <ele>50.20000076293945</ele>
        <time>2014-01-03T12:07:13.000Z</time>
      </trkpt>
      <trkpt lon="35.355958230793476" lat="31.583622945472598">
        <ele>49.20000076293945</ele>
        <time>2014-01-03T12:07:14.000Z</time>
      </trkpt>
      <trkpt lon="35.355846835300326" lat="31.5836573112756">
        <ele>47.20000076293945</ele>
        <time>2014-01-03T12:07:16.000Z</time>
      </trkpt>
      <trkpt lon="35.355737870559096" lat="31.58370953053236">
        <ele>45.79999923706055</ele>
        <time>2014-01-03T12:07:18.000Z</time>
      </trkpt>
      <trkpt lon="35.35569361411035" lat="31.583738448098302">
        <ele>45.400001525878906</ele>
        <time>2014-01-03T12:07:19.000Z</time>
      </trkpt>
      <trkpt lon="35.35565287806094" lat="31.583771975710988">
        <ele>44.79999923706055</ele>
        <time>2014-01-03T12:07:20.000Z</time>
      </trkpt>
      <trkpt lon="35.35561507567763" lat="31.58380961045623">
        <ele>43.79999923706055</ele>
        <time>2014-01-03T12:07:21.000Z</time>
      </trkpt>
      <trkpt lon="35.35557987168431" lat="31.583844143897295">
        <ele>43.400001525878906</ele>
        <time>2014-01-03T12:07:22.000Z</time>
      </trkpt>
      <trkpt lon="35.35554701462388" lat="31.583871049806476">
        <ele>42.400001525878906</ele>
        <time>2014-01-03T12:07:23.000Z</time>
      </trkpt>
      <trkpt lon="35.35551097244024" lat="31.58389518968761">
        <ele>42.0</ele>
        <time>2014-01-03T12:07:24.000Z</time>
      </trkpt>
      <trkpt lon="35.35547040402889" lat="31.58392016775906">
        <ele>41.400001525878906</ele>
        <time>2014-01-03T12:07:25.000Z</time>
      </trkpt>
      <trkpt lon="35.355425560846925" lat="31.583949085325003">
        <ele>41.0</ele>
        <time>2014-01-03T12:07:26.000Z</time>
      </trkpt>
      <trkpt lon="35.355252055451274" lat="31.584078837186098">
        <ele>38.20000076293945</ele>
        <time>2014-01-03T12:07:30.000Z</time>
      </trkpt>
      <trkpt lon="35.35522271879017" lat="31.584109934046865">
        <ele>37.599998474121094</ele>
        <time>2014-01-03T12:07:31.000Z</time>
      </trkpt>
      <trkpt lon="35.355193046852946" lat="31.58414195291698">
        <ele>36.599998474121094</ele>
        <time>2014-01-03T12:07:32.000Z</time>
      </trkpt>
      <trkpt lon="35.355157842859626" lat="31.584171624854207">
        <ele>36.20000076293945</ele>
        <time>2014-01-03T12:07:33.000Z</time>
      </trkpt>
      <trkpt lon="35.35512054339051" lat="31.5841996204108">
        <ele>35.20000076293945</ele>
        <time>2014-01-03T12:07:34.000Z</time>
      </trkpt>
      <trkpt lon="35.35508190281689" lat="31.584224766120315">
        <ele>34.79999923706055</ele>
        <time>2014-01-03T12:07:35.000Z</time>
      </trkpt>
      <trkpt lon="35.355040496215224" lat="31.58424412831664">
        <ele>34.20000076293945</ele>
        <time>2014-01-03T12:07:36.000Z</time>
      </trkpt>
      <trkpt lon="35.35499623976648" lat="31.584258042275906">
        <ele>33.79999923706055</ele>
        <time>2014-01-03T12:07:37.000Z</time>
      </trkpt>
      <trkpt lon="35.35495248623192" lat="31.584266759455204">
        <ele>33.20000076293945</ele>
        <time>2014-01-03T12:07:38.000Z</time>
      </trkpt>
      <trkpt lon="35.3549088165164" lat="31.584270279854536">
        <ele>32.79999923706055</ele>
        <time>2014-01-03T12:07:39.000Z</time>
      </trkpt>
      <trkpt lon="35.35472919233143" lat="31.58434328623116">
        <ele>30.799999237060547</ele>
        <time>2014-01-03T12:07:44.000Z</time>
      </trkpt>
      <trkpt lon="35.35469734109938" lat="31.58437463454902">
        <ele>30.399999618530273</ele>
        <time>2014-01-03T12:07:45.000Z</time>
      </trkpt>
      <trkpt lon="35.35466691479087" lat="31.584409838542342">
        <ele>30.0</ele>
        <time>2014-01-03T12:07:46.000Z</time>
      </trkpt>
      <trkpt lon="35.35459910519421" lat="31.584481252357364">
        <ele>29.399999618530273</ele>
        <time>2014-01-03T12:07:48.000Z</time>
      </trkpt>
      <trkpt lon="35.35455644130707" lat="31.5845122653991">
        <ele>29.0</ele>
        <time>2014-01-03T12:07:49.000Z</time>
      </trkpt>
      <trkpt lon="35.35451017320156" lat="31.58453674055636">
        <ele>28.600000381469727</ele>
        <time>2014-01-03T12:07:50.000Z</time>
      </trkpt>
      <trkpt lon="35.354463905096054" lat="31.584554007276893">
        <ele>28.0</ele>
        <time>2014-01-03T12:07:51.000Z</time>
      </trkpt>
      <trkpt lon="35.35441881045699" lat="31.58456649631262">
        <ele>27.600000381469727</ele>
        <time>2014-01-03T12:07:52.000Z</time>
      </trkpt>
      <trkpt lon="35.35437589511275" lat="31.584578650072217">
        <ele>27.0</ele>
        <time>2014-01-03T12:07:53.000Z</time>
      </trkpt>
      <trkpt lon="35.35433675162494" lat="31.584593821316957">
        <ele>27.0</ele>
        <time>2014-01-03T12:07:54.000Z</time>
      </trkpt>
      <trkpt lon="35.354297775775194" lat="31.584615111351013">
        <ele>26.600000381469727</ele>
        <time>2014-01-03T12:07:55.000Z</time>
      </trkpt>
      <trkpt lon="35.35427086986601" lat="31.58464469946921">
        <ele>26.600000381469727</ele>
        <time>2014-01-03T12:07:56.000Z</time>
      </trkpt>
      <trkpt lon="35.35425553098321" lat="31.584681579843163">
        <ele>26.0</ele>
        <time>2014-01-03T12:07:57.000Z</time>
      </trkpt>
      <trkpt lon="35.35425905138254" lat="31.584720136597753">
        <ele>25.600000381469727</ele>
        <time>2014-01-03T12:07:58.000Z</time>
      </trkpt>
      <trkpt lon="35.35427757538855" lat="31.584755508229136">
        <ele>25.200000762939453</ele>
        <time>2014-01-03T12:07:59.000Z</time>
      </trkpt>
      <trkpt lon="35.35431227646768" lat="31.584785263985395">
        <ele>24.600000381469727</ele>
        <time>2014-01-03T12:08:00.000Z</time>
      </trkpt>
      <trkpt lon="35.35435636527836" lat="31.58480311743915">
        <ele>23.600000381469727</ele>
        <time>2014-01-03T12:08:01.000Z</time>
      </trkpt>
      <trkpt lon="35.354404812678695" lat="31.584807643666863">
        <ele>23.200000762939453</ele>
        <time>2014-01-03T12:08:02.000Z</time>
      </trkpt>
      <trkpt lon="35.35445041023195" lat="31.584801021963358">
        <ele>23.200000762939453</ele>
        <time>2014-01-03T12:08:03.000Z</time>
      </trkpt>
      <trkpt lon="35.35449483431876" lat="31.584785766899586">
        <ele>22.799999237060547</ele>
        <time>2014-01-03T12:08:04.000Z</time>
      </trkpt>
      <trkpt lon="35.35453355871141" lat="31.584763638675213">
        <ele>22.200000762939453</ele>
        <time>2014-01-03T12:08:05.000Z</time>
      </trkpt>
      <trkpt lon="35.35457110963762" lat="31.584737990051508">
        <ele>21.799999237060547</ele>
        <time>2014-01-03T12:08:06.000Z</time>
      </trkpt>
      <trkpt lon="35.3546099178493" lat="31.58471460454166">
        <ele>21.799999237060547</ele>
        <time>2014-01-03T12:08:07.000Z</time>
      </trkpt>
      <trkpt lon="35.35465392284095" lat="31.584691051393747">
        <ele>21.200000762939453</ele>
        <time>2014-01-03T12:08:08.000Z</time>
      </trkpt>
      <trkpt lon="35.354698011651635" lat="31.584669593721628">
        <ele>21.200000762939453</ele>
        <time>2014-01-03T12:08:09.000Z</time>
      </trkpt>
      <trkpt lon="35.35474453121424" lat="31.584648387506604">
        <ele>20.799999237060547</ele>
        <time>2014-01-03T12:08:10.000Z</time>
      </trkpt>
      <trkpt lon="35.35495290532708" lat="31.584547301754355">
        <ele>19.399999618530273</ele>
        <time>2014-01-03T12:08:16.000Z</time>
      </trkpt>
      <trkpt lon="35.354978470131755" lat="31.584547804668546">
        <ele>19.399999618530273</ele>
        <time>2014-01-03T12:08:17.000Z</time>
      </trkpt>
      <trkpt lon="35.35517770797014" lat="31.58457529731095">
        <ele>18.399999618530273</ele>
        <time>2014-01-03T12:08:22.000Z</time>
      </trkpt>
      <trkpt lon="35.355446515604854" lat="31.584674874320626">
        <ele>17.399999618530273</ele>
        <time>2014-01-03T12:08:29.000Z</time>
      </trkpt>
      <trkpt lon="35.355567298829556" lat="31.584778809919953">
        <ele>16.0</ele>
        <time>2014-01-03T12:08:33.000Z</time>
      </trkpt>
      <trkpt lon="35.35558322444558" lat="31.5848177857697">
        <ele>15.600000381469727</ele>
        <time>2014-01-03T12:08:34.000Z</time>
      </trkpt>
      <trkpt lon="35.35559831187129" lat="31.58486028201878">
        <ele>15.0</ele>
        <time>2014-01-03T12:08:35.000Z</time>
      </trkpt>
      <trkpt lon="35.35560384392738" lat="31.584907975047827">
        <ele>14.0</ele>
        <time>2014-01-03T12:08:36.000Z</time>
      </trkpt>
      <trkpt lon="35.355600994080305" lat="31.584955416619778">
        <ele>13.600000381469727</ele>
        <time>2014-01-03T12:08:37.000Z</time>
      </trkpt>
      <trkpt lon="35.355589762330055" lat="31.584997829049826">
        <ele>12.600000381469727</ele>
        <time>2014-01-03T12:08:38.000Z</time>
      </trkpt>
      <trkpt lon="35.35557048395276" lat="31.585034290328622">
        <ele>12.600000381469727</ele>
        <time>2014-01-03T12:08:39.000Z</time>
      </trkpt>
      <trkpt lon="35.35554542206228" lat="31.58506982959807">
        <ele>12.199999809265137</ele>
        <time>2014-01-03T12:08:40.000Z</time>
      </trkpt>
      <trkpt lon="35.35551080480218" lat="31.585102854296565">
        <ele>11.600000381469727</ele>
        <time>2014-01-03T12:08:41.000Z</time>
      </trkpt>
      <trkpt lon="35.35546889528632" lat="31.585129760205746">
        <ele>11.199999809265137</ele>
        <time>2014-01-03T12:08:42.000Z</time>
      </trkpt>
      <trkpt lon="35.35542396828532" lat="31.58515239134431">
        <ele>10.800000190734863</ele>
        <time>2014-01-03T12:08:43.000Z</time>
      </trkpt>
      <trkpt lon="35.3553750179708" lat="31.585173597559333">
        <ele>9.800000190734863</ele>
        <time>2014-01-03T12:08:44.000Z</time>
      </trkpt>
      <trkpt lon="35.355008812621236" lat="31.585264541208744">
        <ele>6.0</ele>
        <time>2014-01-03T12:08:50.000Z</time>
      </trkpt>
      <trkpt lon="35.354883167892694" lat="31.58528004772961">
        <ele>5.0</ele>
        <time>2014-01-03T12:08:52.000Z</time>
      </trkpt>
      <trkpt lon="35.35482231527567" lat="31.58527904190123">
        <ele>4.400000095367432</ele>
        <time>2014-01-03T12:08:53.000Z</time>
      </trkpt>
      <trkpt lon="35.35460346378386" lat="31.585230510681868">
        <ele>3.0</ele>
        <time>2014-01-03T12:08:58.000Z</time>
      </trkpt>
      <trkpt lon="35.354355443269014" lat="31.58518667332828">
        <ele>1.600000023841858</ele>
        <time>2014-01-03T12:09:04.000Z</time>
      </trkpt>
      <trkpt lon="35.35424035973847" lat="31.585192289203405">
        <ele>1.2000000476837158</ele>
        <time>2014-01-03T12:09:06.000Z</time>
      </trkpt>
      <trkpt lon="35.354180512949824" lat="31.585204107686877">
        <ele>0.6000000238418579</ele>
        <time>2014-01-03T12:09:07.000Z</time>
      </trkpt>
      <trkpt lon="35.354121923446655" lat="31.5852218773216">
        <ele>0.20000000298023224</ele>
        <time>2014-01-03T12:09:08.000Z</time>
      </trkpt>
      <trkpt lon="35.354062747210264" lat="31.58524576574564">
        <ele>-0.4000000059604645</ele>
        <time>2014-01-03T12:09:09.000Z</time>
      </trkpt>
      <trkpt lon="35.35400491207838" lat="31.585276694968343">
        <ele>-0.800000011920929</ele>
        <time>2014-01-03T12:09:10.000Z</time>
      </trkpt>
      <trkpt lon="35.353947915136814" lat="31.58530980348587">
        <ele>-1.7999999523162842</ele>
        <time>2014-01-03T12:09:11.000Z</time>
      </trkpt>
      <trkpt lon="35.35389795899391" lat="31.585347186774015">
        <ele>-2.200000047683716</ele>
        <time>2014-01-03T12:09:12.000Z</time>
      </trkpt>
      <trkpt lon="35.3538535349071" lat="31.585390521213412">
        <ele>-2.799999952316284</ele>
        <time>2014-01-03T12:09:13.000Z</time>
      </trkpt>
      <trkpt lon="35.353498896583915" lat="31.58576770685613">
        <ele>-8.0</ele>
        <time>2014-01-03T12:09:21.000Z</time>
      </trkpt>
      <trkpt lon="35.35317803733051" lat="31.58608521334827">
        <ele>-12.399999618530273</ele>
        <time>2014-01-03T12:09:29.000Z</time>
      </trkpt>
      <trkpt lon="35.35290612839162" lat="31.586418393999338">
        <ele>-15.199999809265137</ele>
        <time>2014-01-03T12:09:38.000Z</time>
      </trkpt>
      <trkpt lon="35.352859357371926" lat="31.586620984598994">
        <ele>-17.200000762939453</ele>
        <time>2014-01-03T12:09:44.000Z</time>
      </trkpt>
      <trkpt lon="35.35294007509947" lat="31.586739420890808">
        <ele>-18.600000381469727</ele>
        <time>2014-01-03T12:09:48.000Z</time>
      </trkpt>
      <trkpt lon="35.35297192633152" lat="31.586750987917185">
        <ele>-19.0</ele>
        <time>2014-01-03T12:09:49.000Z</time>
      </trkpt>
      <trkpt lon="35.353003861382604" lat="31.58675266429782">
        <ele>-19.600000381469727</ele>
        <time>2014-01-03T12:09:50.000Z</time>
      </trkpt>
      <trkpt lon="35.353028336539865" lat="31.586745707318187">
        <ele>-20.0</ele>
        <time>2014-01-03T12:09:51.000Z</time>
      </trkpt>
      <trkpt lon="35.35304870456457" lat="31.58673556521535">
        <ele>-20.600000381469727</ele>
        <time>2014-01-03T12:09:52.000Z</time>
      </trkpt>
      <trkpt lon="35.35315867513418" lat="31.586656188592315">
        <ele>-21.399999618530273</ele>
        <time>2014-01-03T12:09:56.000Z</time>
      </trkpt>
      <trkpt lon="35.35321181640029" lat="31.586602041497827">
        <ele>-22.0</ele>
        <time>2014-01-03T12:10:01.000Z</time>
      </trkpt>
      <trkpt lon="35.35321961157024" lat="31.58658712171018">
        <ele>-22.399999618530273</ele>
        <time>2014-01-03T12:10:07.000Z</time>
      </trkpt>
      <trkpt lon="35.353245763108134" lat="31.58655434846878">
        <ele>-20.0</ele>
        <time>2014-01-03T12:10:14.000Z</time>
      </trkpt>
      <trkpt lon="35.35328608006239" lat="31.586505733430386">
        <ele>-19.0</ele>
        <time>2014-01-03T12:10:25.000Z</time>
      </trkpt>
      <trkpt lon="35.35328725352883" lat="31.58649316057563">
        <ele>-18.600000381469727</ele>
        <time>2014-01-03T12:10:27.000Z</time>
      </trkpt>
      <trkpt lon="35.35331625491381" lat="31.58644873648882">
        <ele>-16.200000762939453</ele>
        <time>2014-01-03T12:10:35.000Z</time>
      </trkpt>
      <trkpt lon="35.35335632041097" lat="31.58642526715994">
        <ele>-15.800000190734863</ele>
        <time>2014-01-03T12:10:43.000Z</time>
      </trkpt>
      <trkpt lon="35.3533632773906" lat="31.586406575515866">
        <ele>-15.199999809265137</ele>
        <time>2014-01-03T12:10:54.000Z</time>
      </trkpt>
      <trkpt lon="35.35341398790479" lat="31.586392410099506">
        <ele>-15.199999809265137</ele>
        <time>2014-01-03T12:11:02.000Z</time>
      </trkpt>
      <trkpt lon="35.35343653522432" lat="31.58637992106378">
        <ele>-15.199999809265137</ele>
        <time>2014-01-03T12:11:04.000Z</time>
      </trkpt>
      <trkpt lon="35.3534581605345" lat="31.586368940770626">
        <ele>-15.800000190734863</ele>
        <time>2014-01-03T12:11:06.000Z</time>
      </trkpt>
      <trkpt lon="35.353608867153525" lat="31.586295180022717">
        <ele>-16.200000762939453</ele>
        <time>2014-01-03T12:11:15.000Z</time>
      </trkpt>
      <trkpt lon="35.35377491265535" lat="31.586219239979982">
        <ele>-16.200000762939453</ele>
        <time>2014-01-03T12:11:24.000Z</time>
      </trkpt>
      <trkpt lon="35.35392100922763" lat="31.586149418726563">
        <ele>-15.800000190734863</ele>
        <time>2014-01-03T12:11:32.000Z</time>
      </trkpt>
      <trkpt lon="35.35408495925367" lat="31.586074819788337">
        <ele>-15.199999809265137</ele>
        <time>2014-01-03T12:11:41.000Z</time>
      </trkpt>
      <trkpt lon="35.35424379631877" lat="31.585988653823733">
        <ele>-12.800000190734863</ele>
        <time>2014-01-03T12:11:50.000Z</time>
      </trkpt>
      <trkpt lon="35.354427276179194" lat="31.585924364626408">
        <ele>-12.399999618530273</ele>
        <time>2014-01-03T12:11:59.000Z</time>
      </trkpt>
      <trkpt lon="35.354567002505064" lat="31.585957976058125">
        <ele>-11.399999618530273</ele>
        <time>2014-01-03T12:12:06.000Z</time>
      </trkpt>
      <trkpt lon="35.354581754654646" lat="31.58598806709051">
        <ele>-11.800000190734863</ele>
        <time>2014-01-03T12:12:08.000Z</time>
      </trkpt>
      <trkpt lon="35.35458158701658" lat="31.586009105667472">
        <ele>-11.800000190734863</ele>
        <time>2014-01-03T12:12:09.000Z</time>
      </trkpt>
      <trkpt lon="35.35455845296383" lat="31.586114298552275">
        <ele>-11.399999618530273</ele>
        <time>2014-01-03T12:12:16.000Z</time>
      </trkpt>
      <trkpt lon="35.35454269498587" lat="31.586159393191338">
        <ele>-10.0</ele>
        <time>2014-01-03T12:12:20.000Z</time>
      </trkpt>
      <trkpt lon="35.35452978685498" lat="31.586163081228733">
        <ele>-9.399999618530273</ele>
        <time>2014-01-03T12:12:21.000Z</time>
      </trkpt>
      <trkpt lon="35.35451545380056" lat="31.586168445646763">
        <ele>-9.0</ele>
        <time>2014-01-03T12:12:22.000Z</time>
      </trkpt>
      <trkpt lon="35.35436164587736" lat="31.586273135617375">
        <ele>-7.599999904632568</ele>
        <time>2014-01-03T12:12:33.000Z</time>
      </trkpt>
      <trkpt lon="35.35424614325166" lat="31.586340693756938">
        <ele>-6.599999904632568</ele>
        <time>2014-01-03T12:12:40.000Z</time>
      </trkpt>
      <trkpt lon="35.35406844690442" lat="31.586440857499838">
        <ele>-4.599999904632568</ele>
        <time>2014-01-03T12:12:50.000Z</time>
      </trkpt>
      <trkpt lon="35.35391639918089" lat="31.586553929373622">
        <ele>-3.200000047683716</ele>
        <time>2014-01-03T12:12:59.000Z</time>
      </trkpt>
      <trkpt lon="35.35375219769776" lat="31.58667161129415">
        <ele>-2.200000047683716</ele>
        <time>2014-01-03T12:13:08.000Z</time>
      </trkpt>
      <trkpt lon="35.35372797399759" lat="31.586816031485796">
        <ele>-0.800000011920929</ele>
        <time>2014-01-03T12:13:15.000Z</time>
      </trkpt>
      <trkpt lon="35.35375127568841" lat="31.58684017136693">
        <ele>-0.4000000059604645</ele>
        <time>2014-01-03T12:13:17.000Z</time>
      </trkpt>
      <trkpt lon="35.35376971587539" lat="31.5868469607085">
        <ele>-0.4000000059604645</ele>
        <time>2014-01-03T12:13:18.000Z</time>
      </trkpt>
      <trkpt lon="35.35379092209041" lat="31.586850564926863">
        <ele>0.20000000298023224</ele>
        <time>2014-01-03T12:13:19.000Z</time>
      </trkpt>
      <trkpt lon="35.35381187684834" lat="31.586853498592973">
        <ele>0.20000000298023224</ele>
        <time>2014-01-03T12:13:20.000Z</time>
      </trkpt>
      <trkpt lon="35.353831658139825" lat="31.586856180801988">
        <ele>0.20000000298023224</ele>
        <time>2014-01-03T12:13:21.000Z</time>
      </trkpt>
      <trkpt lon="35.3539433889091" lat="31.586833465844393">
        <ele>1.600000023841858</ele>
        <time>2014-01-03T12:13:28.000Z</time>
      </trkpt>
      <trkpt lon="35.35405822098255" lat="31.586795831099153">
        <ele>4.0</ele>
        <time>2014-01-03T12:13:38.000Z</time>
      </trkpt>
      <trkpt lon="35.354056963697076" lat="31.586792645975947">
        <ele>4.400000095367432</ele>
        <time>2014-01-03T12:13:47.000Z</time>
      </trkpt>
      <trkpt lon="35.35403751768172" lat="31.586778229102492">
        <ele>4.0</ele>
        <time>2014-01-03T12:14:03.000Z</time>
      </trkpt>
      <trkpt lon="35.35404690541327" lat="31.586770601570606">
        <ele>6.400000095367432</ele>
        <time>2014-01-03T12:14:23.000Z</time>
      </trkpt>
      <trkpt lon="35.35404833033681" lat="31.586803290992975">
        <ele>6.800000190734863</ele>
        <time>2014-01-03T12:14:35.000Z</time>
      </trkpt>
      <trkpt lon="35.3540557064116" lat="31.58679616637528">
        <ele>6.0</ele>
        <time>2014-01-03T12:14:46.000Z</time>
      </trkpt>
      <trkpt lon="35.354069620370865" lat="31.58678099513054">
        <ele>5.400000095367432</ele>
        <time>2014-01-03T12:15:01.000Z</time>
      </trkpt>
      <trkpt lon="35.35408361814916" lat="31.58676682971418">
        <ele>7.400000095367432</ele>
        <time>2014-01-03T12:15:23.000Z</time>
      </trkpt>
      <trkpt lon="35.35406551323831" lat="31.586784850805998">
        <ele>6.0</ele>
        <time>2014-01-03T12:15:42.000Z</time>
      </trkpt>
      <trkpt lon="35.354068614542484" lat="31.586773367598653">
        <ele>5.400000095367432</ele>
        <time>2014-01-03T12:15:57.000Z</time>
      </trkpt>
      <trkpt lon="35.35408705472946" lat="31.586742606014013">
        <ele>5.400000095367432</ele>
        <time>2014-01-03T12:16:05.000Z</time>
      </trkpt>
      <trkpt lon="35.35413030534983" lat="31.586750652641058">
        <ele>6.0</ele>
        <time>2014-01-03T12:16:11.000Z</time>
      </trkpt>
      <trkpt lon="35.35418805666268" lat="31.586743695661426">
        <ele>6.0</ele>
        <time>2014-01-03T12:16:17.000Z</time>
      </trkpt>
      <trkpt lon="35.35420574247837" lat="31.58674579113722">
        <ele>6.0</ele>
        <time>2014-01-03T12:16:18.000Z</time>
      </trkpt>
      <trkpt lon="35.35422418266535" lat="31.586743779480457">
        <ele>6.0</ele>
        <time>2014-01-03T12:16:19.000Z</time>
      </trkpt>
      <trkpt lon="35.354241114109755" lat="31.586742270737886">
        <ele>6.0</ele>
        <time>2014-01-03T12:16:20.000Z</time>
      </trkpt>
      <trkpt lon="35.35425502806902" lat="31.586738415062428">
        <ele>6.0</ele>
        <time>2014-01-03T12:16:21.000Z</time>
      </trkpt>
      <trkpt lon="35.35427028313279" lat="31.586729949340224">
        <ele>6.400000095367432</ele>
        <time>2014-01-03T12:16:22.000Z</time>
      </trkpt>
      <trkpt lon="35.35428503528237" lat="31.586723579093814">
        <ele>6.400000095367432</ele>
        <time>2014-01-03T12:16:23.000Z</time>
      </trkpt>
      <trkpt lon="35.35429844632745" lat="31.586716370657086">
        <ele>6.400000095367432</ele>
        <time>2014-01-03T12:16:24.000Z</time>
      </trkpt>
      <trkpt lon="35.354310516268015" lat="31.586708491668105">
        <ele>6.400000095367432</ele>
        <time>2014-01-03T12:16:25.000Z</time>
      </trkpt>
      <trkpt lon="35.354321748018265" lat="31.58670145086944">
        <ele>6.400000095367432</ele>
        <time>2014-01-03T12:16:26.000Z</time>
      </trkpt>
      <trkpt lon="35.35443716682494" lat="31.586652919650078">
        <ele>7.800000190734863</ele>
        <time>2014-01-03T12:16:35.000Z</time>
      </trkpt>
      <trkpt lon="35.35458569414914" lat="31.586629785597324">
        <ele>9.199999809265137</ele>
        <time>2014-01-03T12:16:44.000Z</time>
      </trkpt>
      <trkpt lon="35.354700023308396" lat="31.586618470028043">
        <ele>10.199999809265137</ele>
        <time>2014-01-03T12:16:52.000Z</time>
      </trkpt>
      <trkpt lon="35.35479448735714" lat="31.586610171943903">
        <ele>12.199999809265137</ele>
        <time>2014-01-03T12:16:59.000Z</time>
      </trkpt>
      <trkpt lon="35.354807395488024" lat="31.586610758677125">
        <ele>12.600000381469727</ele>
        <time>2014-01-03T12:17:00.000Z</time>
      </trkpt>
      <trkpt lon="35.35482139326632" lat="31.586610339581966">
        <ele>12.600000381469727</ele>
        <time>2014-01-03T12:17:01.000Z</time>
      </trkpt>
      <trkpt lon="35.35483547486365" lat="31.5866154525429">
        <ele>13.199999809265137</ele>
        <time>2014-01-03T12:17:02.000Z</time>
      </trkpt>
      <trkpt lon="35.35484821535647" lat="31.586618553847075">
        <ele>13.199999809265137</ele>
        <time>2014-01-03T12:17:03.000Z</time>
      </trkpt>
      <trkpt lon="35.35486087203026" lat="31.586616206914186">
        <ele>13.600000381469727</ele>
        <time>2014-01-03T12:17:04.000Z</time>
      </trkpt>
      <trkpt lon="35.35487470217049" lat="31.58661293797195">
        <ele>13.600000381469727</ele>
        <time>2014-01-03T12:17:05.000Z</time>
      </trkpt>
      <trkpt lon="35.354948630556464" lat="31.586584858596325">
        <ele>14.600000381469727</ele>
        <time>2014-01-03T12:17:11.000Z</time>
      </trkpt>
      <trkpt lon="35.354959946125746" lat="31.586576979607344">
        <ele>14.600000381469727</ele>
        <time>2014-01-03T12:17:12.000Z</time>
      </trkpt>
      <trkpt lon="35.3549690824002" lat="31.58657379448414">
        <ele>14.600000381469727</ele>
        <time>2014-01-03T12:17:13.000Z</time>
      </trkpt>
      <trkpt lon="35.3549899533391" lat="31.586558958515525">
        <ele>14.600000381469727</ele>
        <time>2014-01-03T12:17:15.000Z</time>
      </trkpt>
      <trkpt lon="35.35500277765095" lat="31.586553175002337">
        <ele>15.0</ele>
        <time>2014-01-03T12:17:16.000Z</time>
      </trkpt>
      <trkpt lon="35.355015601962805" lat="31.58655082806945">
        <ele>15.600000381469727</ele>
        <time>2014-01-03T12:17:17.000Z</time>
      </trkpt>
      <trkpt lon="35.355031779035926" lat="31.586549067869782">
        <ele>15.600000381469727</ele>
        <time>2014-01-03T12:17:18.000Z</time>
      </trkpt>
      <trkpt lon="35.355044435709715" lat="31.58654940314591">
        <ele>16.0</ele>
        <time>2014-01-03T12:17:19.000Z</time>
      </trkpt>
      <trkpt lon="35.35505742765963" lat="31.586549738422036">
        <ele>16.399999618530273</ele>
        <time>2014-01-03T12:17:20.000Z</time>
      </trkpt>
      <trkpt lon="35.355081148445606" lat="31.586543368175626">
        <ele>16.399999618530273</ele>
        <time>2014-01-03T12:17:22.000Z</time>
      </trkpt>
      <trkpt lon="35.355178378522396" lat="31.58653825521469">
        <ele>17.399999618530273</ele>
        <time>2014-01-03T12:17:30.000Z</time>
      </trkpt>
      <trkpt lon="35.35527049563825" lat="31.586528113111854">
        <ele>18.399999618530273</ele>
        <time>2014-01-03T12:17:38.000Z</time>
      </trkpt>
      <trkpt lon="35.35528248175979" lat="31.58652157522738">
        <ele>18.399999618530273</ele>
        <time>2014-01-03T12:17:39.000Z</time>
      </trkpt>
      <trkpt lon="35.35529195331037" lat="31.586509002372622">
        <ele>18.799999237060547</ele>
        <time>2014-01-03T12:17:40.000Z</time>
      </trkpt>
      <trkpt lon="35.355302430689335" lat="31.586497854441404">
        <ele>18.799999237060547</ele>
        <time>2014-01-03T12:17:41.000Z</time>
      </trkpt>
      <trkpt lon="35.35531575791538" lat="31.586489472538233">
        <ele>19.399999618530273</ele>
        <time>2014-01-03T12:17:42.000Z</time>
      </trkpt>
      <trkpt lon="35.35533109679818" lat="31.58648150973022">
        <ele>19.399999618530273</ele>
        <time>2014-01-03T12:17:43.000Z</time>
      </trkpt>
      <trkpt lon="35.355343921110034" lat="31.586479917168617">
        <ele>19.799999237060547</ele>
        <time>2014-01-03T12:17:44.000Z</time>
      </trkpt>
      <trkpt lon="35.355356661602855" lat="31.586479833349586">
        <ele>19.799999237060547</ele>
        <time>2014-01-03T12:17:45.000Z</time>
      </trkpt>
      <trkpt lon="35.35550937987864" lat="31.58651285804808">
        <ele>21.200000762939453</ele>
        <time>2014-01-03T12:17:56.000Z</time>
      </trkpt>
      <trkpt lon="35.35564139485359" lat="31.586557030677795">
        <ele>22.200000762939453</ele>
        <time>2014-01-03T12:18:06.000Z</time>
      </trkpt>
      <trkpt lon="35.355679616332054" lat="31.586621655151248">
        <ele>21.200000762939453</ele>
        <time>2014-01-03T12:18:12.000Z</time>
      </trkpt>
      <trkpt lon="35.3557413071394" lat="31.586757777258754">
        <ele>21.799999237060547</ele>
        <time>2014-01-03T12:18:21.000Z</time>
      </trkpt>
      <trkpt lon="35.355779277160764" lat="31.586916027590632">
        <ele>21.799999237060547</ele>
        <time>2014-01-03T12:18:30.000Z</time>
      </trkpt>
      <trkpt lon="35.35581582225859" lat="31.58707561902702">
        <ele>22.200000762939453</ele>
        <time>2014-01-03T12:18:39.000Z</time>
      </trkpt>
      <trkpt lon="35.35581607371569" lat="31.587256081402302">
        <ele>24.600000381469727</ele>
        <time>2014-01-03T12:18:49.000Z</time>
      </trkpt>
      <trkpt lon="35.35579721443355" lat="31.587424809113145">
        <ele>25.200000762939453</ele>
        <time>2014-01-03T12:18:58.000Z</time>
      </trkpt>
      <trkpt lon="35.35574549809098" lat="31.587572749704123">
        <ele>26.0</ele>
        <time>2014-01-03T12:19:07.000Z</time>
      </trkpt>
      <trkpt lon="35.3556443285197" lat="31.58779487013817">
        <ele>26.600000381469727</ele>
        <time>2014-01-03T12:19:19.000Z</time>
      </trkpt>
      <trkpt lon="35.3555425722152" lat="31.587972650304437">
        <ele>27.600000381469727</ele>
        <time>2014-01-03T12:19:28.000Z</time>
      </trkpt>
      <trkpt lon="35.35542304627597" lat="31.58820449374616">
        <ele>28.600000381469727</ele>
        <time>2014-01-03T12:19:39.000Z</time>
      </trkpt>
      <trkpt lon="35.35537803545594" lat="31.588432984426618">
        <ele>29.399999618530273</ele>
        <time>2014-01-03T12:19:48.000Z</time>
      </trkpt>
      <trkpt lon="35.35541030578315" lat="31.588588301092386">
        <ele>30.399999618530273</ele>
        <time>2014-01-03T12:19:55.000Z</time>
      </trkpt>
      <trkpt lon="35.355486664921045" lat="31.588766667991877">
        <ele>32.400001525878906</ele>
        <time>2014-01-03T12:20:03.000Z</time>
      </trkpt>
      <trkpt lon="35.35562706179917" lat="31.589038828387856">
        <ele>34.20000076293945</ele>
        <time>2014-01-03T12:20:13.000Z</time>
      </trkpt>
      <trkpt lon="35.355740301311016" lat="31.589253405109048">
        <ele>36.20000076293945</ele>
        <time>2014-01-03T12:20:22.000Z</time>
      </trkpt>
      <trkpt lon="35.35584130324423" lat="31.589426575228572">
        <ele>38.599998474121094</ele>
        <time>2014-01-03T12:20:31.000Z</time>
      </trkpt>
      <trkpt lon="35.35586452111602" lat="31.589466389268637">
        <ele>38.599998474121094</ele>
        <time>2014-01-03T12:20:33.000Z</time>
      </trkpt>
      <trkpt lon="35.35597004927695" lat="31.589577868580818">
        <ele>38.599998474121094</ele>
        <time>2014-01-03T12:20:39.000Z</time>
      </trkpt>
      <trkpt lon="35.35621002316475" lat="31.58968783915043">
        <ele>36.599998474121094</ele>
        <time>2014-01-03T12:20:46.000Z</time>
      </trkpt>
      <trkpt lon="35.356482015922666" lat="31.58978708088398">
        <ele>36.20000076293945</ele>
        <time>2014-01-03T12:20:55.000Z</time>
      </trkpt>
      <trkpt lon="35.35670799203217" lat="31.58985497429967">
        <ele>35.79999923706055</ele>
        <time>2014-01-03T12:21:03.000Z</time>
      </trkpt>
      <trkpt lon="35.356892393901944" lat="31.58991649746895">
        <ele>36.20000076293945</ele>
        <time>2014-01-03T12:21:12.000Z</time>
      </trkpt>
      <trkpt lon="35.35703295841813" lat="31.590052116662264">
        <ele>35.79999923706055</ele>
        <time>2014-01-03T12:21:20.000Z</time>
      </trkpt>
      <trkpt lon="35.357139240950346" lat="31.590172313153744">
        <ele>36.599998474121094</ele>
        <time>2014-01-03T12:21:27.000Z</time>
      </trkpt>
      <trkpt lon="35.3572485409677" lat="31.59030114300549">
        <ele>37.599998474121094</ele>
        <time>2014-01-03T12:21:35.000Z</time>
      </trkpt>
      <trkpt lon="35.3573159314692" lat="31.590412789955735">
        <ele>37.599998474121094</ele>
        <time>2014-01-03T12:21:42.000Z</time>
      </trkpt>
      <trkpt lon="35.35742129199207" lat="31.590504068881273">
        <ele>38.599998474121094</ele>
        <time>2014-01-03T12:21:48.000Z</time>
      </trkpt>
      <trkpt lon="35.357497902587056" lat="31.590585708618164">
        <ele>40.0</ele>
        <time>2014-01-03T12:21:54.000Z</time>
      </trkpt>
      <trkpt lon="35.357588175684214" lat="31.59075016155839">
        <ele>41.400001525878906</ele>
        <time>2014-01-03T12:22:03.000Z</time>
      </trkpt>
      <trkpt lon="35.35768280737102" lat="31.59090656787157">
        <ele>43.0</ele>
        <time>2014-01-03T12:22:12.000Z</time>
      </trkpt>
      <trkpt lon="35.35771901719272" lat="31.591061213985085">
        <ele>43.400001525878906</ele>
        <time>2014-01-03T12:22:20.000Z</time>
      </trkpt>
      <trkpt lon="35.35778506658971" lat="31.591245951130986">
        <ele>45.400001525878906</ele>
        <time>2014-01-03T12:22:30.000Z</time>
      </trkpt>
      <trkpt lon="35.35789864137769" lat="31.591418534517288">
        <ele>47.79999923706055</ele>
        <time>2014-01-03T12:22:40.000Z</time>
      </trkpt>
      <trkpt lon="35.35797189921141" lat="31.591524314135313">
        <ele>48.599998474121094</ele>
        <time>2014-01-03T12:22:48.000Z</time>
      </trkpt>
      <trkpt lon="35.35811732523143" lat="31.59170888364315">
        <ele>46.79999923706055</ele>
        <time>2014-01-03T12:22:54.000Z</time>
      </trkpt>
      <trkpt lon="35.35829108208418" lat="31.591885071247816">
        <ele>44.400001525878906</ele>
        <time>2014-01-03T12:22:58.000Z</time>
      </trkpt>
      <trkpt lon="35.35833081230521" lat="31.59191306680441">
        <ele>43.79999923706055</ele>
        <time>2014-01-03T12:22:59.000Z</time>
      </trkpt>
      <trkpt lon="35.35860531963408" lat="31.592101072892547">
        <ele>39.0</ele>
        <time>2014-01-03T12:23:06.000Z</time>
      </trkpt>
      <trkpt lon="35.358801456168294" lat="31.59227516502142">
        <ele>35.79999923706055</ele>
        <time>2014-01-03T12:23:12.000Z</time>
      </trkpt>
      <trkpt lon="35.359080070629716" lat="31.592534333467484">
        <ele>30.0</ele>
        <time>2014-01-03T12:23:18.000Z</time>
      </trkpt>
      <trkpt lon="35.359124997630715" lat="31.59257716499269">
        <ele>29.0</ele>
        <time>2014-01-03T12:23:19.000Z</time>
      </trkpt>
      <trkpt lon="35.35916615277529" lat="31.592627288773656">
        <ele>28.0</ele>
        <time>2014-01-03T12:23:20.000Z</time>
      </trkpt>
      <trkpt lon="35.3595507144928" lat="31.593072451651096">
        <ele>24.600000381469727</ele>
        <time>2014-01-03T12:23:28.000Z</time>
      </trkpt>
      <trkpt lon="35.359793454408646" lat="31.5933951549232">
        <ele>23.600000381469727</ele>
        <time>2014-01-03T12:23:35.000Z</time>
      </trkpt>
      <trkpt lon="35.36010534502566" lat="31.59370151348412">
        <ele>21.200000762939453</ele>
        <time>2014-01-03T12:23:41.000Z</time>
      </trkpt>
      <trkpt lon="35.360306426882744" lat="31.593889268115163">
        <ele>19.799999237060547</ele>
        <time>2014-01-03T12:23:45.000Z</time>
      </trkpt>
      <trkpt lon="35.360367530956864" lat="31.593927405774593">
        <ele>19.399999618530273</ele>
        <time>2014-01-03T12:23:46.000Z</time>
      </trkpt>
      <trkpt lon="35.36059308797121" lat="31.594083728268743">
        <ele>18.399999618530273</ele>
        <time>2014-01-03T12:23:50.000Z</time>
      </trkpt>
      <trkpt lon="35.360637260600924" lat="31.59413150511682">
        <ele>17.399999618530273</ele>
        <time>2014-01-03T12:23:51.000Z</time>
      </trkpt>
      <trkpt lon="35.36068134941161" lat="31.594181042164564">
        <ele>17.0</ele>
        <time>2014-01-03T12:23:52.000Z</time>
      </trkpt>
      <trkpt lon="35.36072979681194" lat="31.59422974102199">
        <ele>16.399999618530273</ele>
        <time>2014-01-03T12:23:53.000Z</time>
      </trkpt>
      <trkpt lon="35.3607836086303" lat="31.594279361888766">
        <ele>16.0</ele>
        <time>2014-01-03T12:23:54.000Z</time>
      </trkpt>
      <trkpt lon="35.36090288311243" lat="31.5943743288517">
        <ele>14.600000381469727</ele>
        <time>2014-01-03T12:23:56.000Z</time>
      </trkpt>
      <trkpt lon="35.360966669395566" lat="31.594408778473735">
        <ele>14.0</ele>
        <time>2014-01-03T12:23:57.000Z</time>
      </trkpt>
      <trkpt lon="35.361033054068685" lat="31.59443392418325">
        <ele>13.199999809265137</ele>
        <time>2014-01-03T12:23:58.000Z</time>
      </trkpt>
      <trkpt lon="35.36117219366133" lat="31.594465356320143">
        <ele>12.199999809265137</ele>
        <time>2014-01-03T12:24:00.000Z</time>
      </trkpt>
      <trkpt lon="35.36146933212876" lat="31.59451707266271">
        <ele>9.800000190734863</ele>
        <time>2014-01-03T12:24:04.000Z</time>
      </trkpt>
      <trkpt lon="35.36153261549771" lat="31.59452092833817">
        <ele>9.800000190734863</ele>
        <time>2014-01-03T12:24:05.000Z</time>
      </trkpt>
      <trkpt lon="35.36159078590572" lat="31.594511875882745">
        <ele>9.800000190734863</ele>
        <time>2014-01-03T12:24:06.000Z</time>
      </trkpt>
      <trkpt lon="35.361643424257636" lat="31.594506930559874">
        <ele>9.800000190734863</ele>
        <time>2014-01-03T12:24:07.000Z</time>
      </trkpt>
      <trkpt lon="35.36169061437249" lat="31.594504164531827">
        <ele>9.800000190734863</ele>
        <time>2014-01-03T12:24:08.000Z</time>
      </trkpt>
      <trkpt lon="35.36185431294143" lat="31.59451648592949">
        <ele>10.800000190734863</ele>
        <time>2014-01-03T12:24:13.000Z</time>
      </trkpt>
      <trkpt lon="35.361955566331744" lat="31.59462402574718">
        <ele>12.600000381469727</ele>
        <time>2014-01-03T12:24:19.000Z</time>
      </trkpt>
      <trkpt lon="35.362017676234245" lat="31.594770876690745">
        <ele>13.199999809265137</ele>
        <time>2014-01-03T12:24:26.000Z</time>
      </trkpt>
      <trkpt lon="35.3620823007077" lat="31.594964833930135">
        <ele>13.600000381469727</ele>
        <time>2014-01-03T12:24:34.000Z</time>
      </trkpt>
      <trkpt lon="35.36220098845661" lat="31.59513859078288">
        <ele>15.0</ele>
        <time>2014-01-03T12:24:43.000Z</time>
      </trkpt>
      <trkpt lon="35.36236787214875" lat="31.595238586887717">
        <ele>15.600000381469727</ele>
        <time>2014-01-03T12:24:50.000Z</time>
      </trkpt>
      <trkpt lon="35.36258043721318" lat="31.5953188855201">
        <ele>15.600000381469727</ele>
        <time>2014-01-03T12:24:57.000Z</time>
      </trkpt>
      <trkpt lon="35.36270063370466" lat="31.595459366217256">
        <ele>14.600000381469727</ele>
        <time>2014-01-03T12:25:05.000Z</time>
      </trkpt>
      <trkpt lon="35.36279048770666" lat="31.595626333728433">
        <ele>12.199999809265137</ele>
        <time>2014-01-03T12:25:10.000Z</time>
      </trkpt>
      <trkpt lon="35.36293809302151" lat="31.59601123072207">
        <ele>7.800000190734863</ele>
        <time>2014-01-03T12:25:18.000Z</time>
      </trkpt>
      <trkpt lon="35.36298746243119" lat="31.596406856551766">
        <ele>4.0</ele>
        <time>2014-01-03T12:25:26.000Z</time>
      </trkpt>
      <trkpt lon="35.36297606304288" lat="31.596589162945747">
        <ele>3.0</ele>
        <time>2014-01-03T12:25:29.000Z</time>
      </trkpt>
      <trkpt lon="35.36296349018812" lat="31.596645237877965">
        <ele>2.5999999046325684</ele>
        <time>2014-01-03T12:25:30.000Z</time>
      </trkpt>
      <trkpt lon="35.36293423734605" lat="31.596970204263926">
        <ele>1.2000000476837158</ele>
        <time>2014-01-03T12:25:36.000Z</time>
      </trkpt>
      <trkpt lon="35.3629489056766" lat="31.59701395779848">
        <ele>1.2000000476837158</ele>
        <time>2014-01-03T12:25:37.000Z</time>
      </trkpt>
      <trkpt lon="35.36296910606325" lat="31.597052849829197">
        <ele>1.2000000476837158</ele>
        <time>2014-01-03T12:25:38.000Z</time>
      </trkpt>
      <trkpt lon="35.362992910668254" lat="31.597087047994137">
        <ele>1.2000000476837158</ele>
        <time>2014-01-03T12:25:39.000Z</time>
      </trkpt>
      <trkpt lon="35.36302115768194" lat="31.597113953903317">
        <ele>0.6000000238418579</ele>
        <time>2014-01-03T12:25:40.000Z</time>
      </trkpt>
      <trkpt lon="35.36305476911366" lat="31.597133483737707">
        <ele>0.6000000238418579</ele>
        <time>2014-01-03T12:25:41.000Z</time>
      </trkpt>
      <trkpt lon="35.36309793591499" lat="31.597152762115">
        <ele>0.6000000238418579</ele>
        <time>2014-01-03T12:25:42.000Z</time>
      </trkpt>
      <trkpt lon="35.36315057426691" lat="31.597169609740376">
        <ele>0.20000000298023224</ele>
        <time>2014-01-03T12:25:43.000Z</time>
      </trkpt>
      <trkpt lon="35.363207487389445" lat="31.59718687646091">
        <ele>-0.4000000059604645</ele>
        <time>2014-01-03T12:25:44.000Z</time>
      </trkpt>
      <trkpt lon="35.36326104775071" lat="31.597208753228188">
        <ele>-0.4000000059604645</ele>
        <time>2014-01-03T12:25:45.000Z</time>
      </trkpt>
      <trkpt lon="35.363311590626836" lat="31.597236329689622">
        <ele>-0.4000000059604645</ele>
        <time>2014-01-03T12:25:46.000Z</time>
      </trkpt>
      <trkpt lon="35.363355595618486" lat="31.59727044403553">
        <ele>-0.800000011920929</ele>
        <time>2014-01-03T12:25:47.000Z</time>
      </trkpt>
      <trkpt lon="35.363586181774735" lat="31.597493654116988">
        <ele>-0.800000011920929</ele>
        <time>2014-01-03T12:25:53.000Z</time>
      </trkpt>
      <trkpt lon="35.36361275240779" lat="31.597530115395784">
        <ele>-0.800000011920929</ele>
        <time>2014-01-03T12:25:54.000Z</time>
      </trkpt>
      <trkpt lon="35.363638401031494" lat="31.597563810646534">
        <ele>-0.800000011920929</ele>
        <time>2014-01-03T12:25:55.000Z</time>
      </trkpt>
      <trkpt lon="35.36382037214935" lat="31.597801689058542">
        <ele>-1.2000000476837158</ele>
        <time>2014-01-03T12:26:01.000Z</time>
      </trkpt>
      <trkpt lon="35.36398524418473" lat="31.59797594882548">
        <ele>0.20000000298023224</ele>
        <time>2014-01-03T12:26:07.000Z</time>
      </trkpt>
      <trkpt lon="35.36416101269424" lat="31.59812455996871">
        <ele>0.6000000238418579</ele>
        <time>2014-01-03T12:26:15.000Z</time>
      </trkpt>
      <trkpt lon="35.36428372375667" lat="31.598302172496915">
        <ele>0.20000000298023224</ele>
        <time>2014-01-03T12:26:23.000Z</time>
      </trkpt>
      <trkpt lon="35.36435614340007" lat="31.598569303750992">
        <ele>-3.799999952316284</ele>
        <time>2014-01-03T12:26:27.000Z</time>
      </trkpt>
      <trkpt lon="35.364398807287216" lat="31.598725207149982">
        <ele>-4.599999904632568</ele>
        <time>2014-01-03T12:26:29.000Z</time>
      </trkpt>
      <trkpt lon="35.36444700323045" lat="31.598830735310912">
        <ele>-4.599999904632568</ele>
        <time>2014-01-03T12:26:31.000Z</time>
      </trkpt>
      <trkpt lon="35.36445773206651" lat="31.598865184932947">
        <ele>-4.599999904632568</ele>
        <time>2014-01-03T12:26:32.000Z</time>
      </trkpt>
      <trkpt lon="35.36446150392294" lat="31.59889368340373">
        <ele>-4.199999809265137</ele>
        <time>2014-01-03T12:26:33.000Z</time>
      </trkpt>
      <trkpt lon="35.364460330456495" lat="31.598916985094547">
        <ele>-4.199999809265137</ele>
        <time>2014-01-03T12:26:34.000Z</time>
      </trkpt>
      <trkpt lon="35.364458318799734" lat="31.598939783871174">
        <ele>-4.199999809265137</ele>
        <time>2014-01-03T12:26:35.000Z</time>
      </trkpt>
      <trkpt lon="35.36446049809456" lat="31.598961325362325">
        <ele>-3.799999952316284</ele>
        <time>2014-01-03T12:26:36.000Z</time>
      </trkpt>
      <trkpt lon="35.36441506817937" lat="31.599115720018744">
        <ele>-4.199999809265137</ele>
        <time>2014-01-03T12:26:42.000Z</time>
      </trkpt>
      <trkpt lon="35.36424181424081" lat="31.59939106553793">
        <ele>-6.199999809265137</ele>
        <time>2014-01-03T12:26:49.000Z</time>
      </trkpt>
      <trkpt lon="35.36409471184015" lat="31.599677307531238">
        <ele>-4.599999904632568</ele>
        <time>2014-01-03T12:26:58.000Z</time>
      </trkpt>
      <trkpt lon="35.36400745622814" lat="31.59985668025911">
        <ele>-2.200000047683716</ele>
        <time>2014-01-03T12:27:05.000Z</time>
      </trkpt>
      <trkpt lon="35.3639402333647" lat="31.599994311109185">
        <ele>-0.800000011920929</ele>
        <time>2014-01-03T12:27:12.000Z</time>
      </trkpt>
      <trkpt lon="35.36390997469425" lat="31.600133031606674">
        <ele>0.6000000238418579</ele>
        <time>2014-01-03T12:27:20.000Z</time>
      </trkpt>
      <trkpt lon="35.363993123173714" lat="31.60028960555792">
        <ele>0.20000000298023224</ele>
        <time>2014-01-03T12:27:26.000Z</time>
      </trkpt>
      <trkpt lon="35.364065961912274" lat="31.600342746824026">
        <ele>-1.2000000476837158</ele>
        <time>2014-01-03T12:27:28.000Z</time>
      </trkpt>
      <trkpt lon="35.364110972732306" lat="31.600363617762923">
        <ele>-1.7999999523162842</ele>
        <time>2014-01-03T12:27:29.000Z</time>
      </trkpt>
      <trkpt lon="35.36415707319975" lat="31.600378872826695">
        <ele>-2.200000047683716</ele>
        <time>2014-01-03T12:27:30.000Z</time>
      </trkpt>
      <trkpt lon="35.36420459859073" lat="31.600390188395977">
        <ele>-2.799999952316284</ele>
        <time>2014-01-03T12:27:31.000Z</time>
      </trkpt>
      <trkpt lon="35.36425078287721" lat="31.600396893918514">
        <ele>-3.799999952316284</ele>
        <time>2014-01-03T12:27:32.000Z</time>
      </trkpt>
      <trkpt lon="35.36429696716368" lat="31.60039957612753">
        <ele>-4.199999809265137</ele>
        <time>2014-01-03T12:27:33.000Z</time>
      </trkpt>
      <trkpt lon="35.36459108814597" lat="31.600382644683123">
        <ele>-7.599999904632568</ele>
        <time>2014-01-03T12:27:40.000Z</time>
      </trkpt>
      <trkpt lon="35.364863416180015" lat="31.600418016314507">
        <ele>-11.399999618530273</ele>
        <time>2014-01-03T12:27:47.000Z</time>
      </trkpt>
      <trkpt lon="35.36504496820271" lat="31.60051977261901">
        <ele>-13.399999618530273</ele>
        <time>2014-01-03T12:27:52.000Z</time>
      </trkpt>
      <trkpt lon="35.365117052569985" lat="31.600572494789958">
        <ele>-12.399999618530273</ele>
        <time>2014-01-03T12:27:57.000Z</time>
      </trkpt>
      <trkpt lon="35.36513842642307" lat="31.600572494789958">
        <ele>-12.399999618530273</ele>
        <time>2014-01-03T12:27:58.000Z</time>
      </trkpt>
      <trkpt lon="35.3652769792825" lat="31.600520610809326">
        <ele>-11.800000190734863</ele>
        <time>2014-01-03T12:28:06.000Z</time>
      </trkpt>
      <trkpt lon="35.36539105698466" lat="31.60046403296292">
        <ele>-11.399999618530273</ele>
        <time>2014-01-03T12:28:13.000Z</time>
      </trkpt>
      <trkpt lon="35.36554008722305" lat="31.600397983565927">
        <ele>-10.399999618530273</ele>
        <time>2014-01-03T12:28:21.000Z</time>
      </trkpt>
      <trkpt lon="35.36571241915226" lat="31.600299077108502">
        <ele>-10.399999618530273</ele>
        <time>2014-01-03T12:28:27.000Z</time>
      </trkpt>
      <trkpt lon="35.3658018540591" lat="31.600216599181294">
        <ele>-11.0</ele>
        <time>2014-01-03T12:28:30.000Z</time>
      </trkpt>
      <trkpt lon="35.365924229845405" lat="31.600053403526545">
        <ele>-11.800000190734863</ele>
        <time>2014-01-03T12:28:34.000Z</time>
      </trkpt>
      <trkpt lon="35.36595976911485" lat="31.599967991933227">
        <ele>-11.800000190734863</ele>
        <time>2014-01-03T12:28:36.000Z</time>
      </trkpt>
      <trkpt lon="35.36596178077161" lat="31.59993010573089">
        <ele>-11.800000190734863</ele>
        <time>2014-01-03T12:28:37.000Z</time>
      </trkpt>
      <trkpt lon="35.365957925096154" lat="31.59989641048014">
        <ele>-11.399999618530273</ele>
        <time>2014-01-03T12:28:38.000Z</time>
      </trkpt>
      <trkpt lon="35.36594702862203" lat="31.599867241457105">
        <ele>-11.0</ele>
        <time>2014-01-03T12:28:39.000Z</time>
      </trkpt>
      <trkpt lon="35.36593093536794" lat="31.599837904796004">
        <ele>-10.399999618530273</ele>
        <time>2014-01-03T12:28:40.000Z</time>
      </trkpt>
      <trkpt lon="35.36591433919966" lat="31.599808819592">
        <ele>-10.0</ele>
        <time>2014-01-03T12:28:41.000Z</time>
      </trkpt>
      <trkpt lon="35.36582398228347" lat="31.59971645101905">
        <ele>-9.0</ele>
        <time>2014-01-03T12:28:46.000Z</time>
      </trkpt>
      <trkpt lon="35.365761956200004" lat="31.599645456299186">
        <ele>-7.0</ele>
        <time>2014-01-03T12:28:53.000Z</time>
      </trkpt>
      <trkpt lon="35.365751814097166" lat="31.59963246434927">
        <ele>-7.0</ele>
        <time>2014-01-03T12:28:54.000Z</time>
      </trkpt>
      <trkpt lon="35.36565223708749" lat="31.599521655589342">
        <ele>-4.599999904632568</ele>
        <time>2014-01-03T12:29:03.000Z</time>
      </trkpt>
      <trkpt lon="35.365601275116205" lat="31.599422497674823">
        <ele>-4.599999904632568</ele>
        <time>2014-01-03T12:29:08.000Z</time>
      </trkpt>
      <trkpt lon="35.36560135893524" lat="31.59940338693559">
        <ele>-4.199999809265137</ele>
        <time>2014-01-03T12:29:09.000Z</time>
      </trkpt>
      <trkpt lon="35.365602280944586" lat="31.599385449662805">
        <ele>-4.199999809265137</ele>
        <time>2014-01-03T12:29:10.000Z</time>
      </trkpt>
      <trkpt lon="35.36560554988682" lat="31.599369859322906">
        <ele>-4.199999809265137</ele>
        <time>2014-01-03T12:29:11.000Z</time>
      </trkpt>
      <trkpt lon="35.365610579028726" lat="31.599355190992355">
        <ele>-3.799999952316284</ele>
        <time>2014-01-03T12:29:12.000Z</time>
      </trkpt>
      <trkpt lon="35.3656187094748" lat="31.59934119321406">
        <ele>-3.200000047683716</ele>
        <time>2014-01-03T12:29:13.000Z</time>
      </trkpt>
      <trkpt lon="35.365704875439405" lat="31.5991975273937">
        <ele>-2.200000047683716</ele>
        <time>2014-01-03T12:29:23.000Z</time>
      </trkpt>
      <trkpt lon="35.36578668281436" lat="31.59908269532025">
        <ele>-1.7999999523162842</ele>
        <time>2014-01-03T12:29:30.000Z</time>
      </trkpt>
      <trkpt lon="35.36583546549082" lat="31.59897381439805">
        <ele>0.6000000238418579</ele>
        <time>2014-01-03T12:29:39.000Z</time>
      </trkpt>
      <trkpt lon="35.36588056012988" lat="31.598917320370674">
        <ele>2.5999999046325684</ele>
        <time>2014-01-03T12:29:44.000Z</time>
      </trkpt>
      <trkpt lon="35.36588391289115" lat="31.598906088620424">
        <ele>2.5999999046325684</ele>
        <time>2014-01-03T12:29:45.000Z</time>
      </trkpt>
      <trkpt lon="35.365885589271784" lat="31.598893431946635">
        <ele>3.0</ele>
        <time>2014-01-03T12:29:46.000Z</time>
      </trkpt>
      <trkpt lon="35.365886595100164" lat="31.598881697282195">
        <ele>3.5999999046325684</ele>
        <time>2014-01-03T12:29:47.000Z</time>
      </trkpt>
      <trkpt lon="35.36588449962437" lat="31.598871052265167">
        <ele>3.5999999046325684</ele>
        <time>2014-01-03T12:29:48.000Z</time>
      </trkpt>
      <trkpt lon="35.365882236510515" lat="31.598860323429108">
        <ele>3.5999999046325684</ele>
        <time>2014-01-03T12:29:49.000Z</time>
      </trkpt>
      <trkpt lon="35.365877375006676" lat="31.598779186606407">
        <ele>5.400000095367432</ele>
        <time>2014-01-03T12:29:57.000Z</time>
      </trkpt>
      <trkpt lon="35.36587896756828" lat="31.598763344809413">
        <ele>6.0</ele>
        <time>2014-01-03T12:29:59.000Z</time>
      </trkpt>
      <trkpt lon="35.36588399671018" lat="31.598743814975023">
        <ele>6.0</ele>
        <time>2014-01-03T12:30:01.000Z</time>
      </trkpt>
      <trkpt lon="35.36588751710951" lat="31.598732080310583">
        <ele>6.400000095367432</ele>
        <time>2014-01-03T12:30:02.000Z</time>
      </trkpt>
      <trkpt lon="35.365897826850414" lat="31.59872210584581">
        <ele>6.400000095367432</ele>
        <time>2014-01-03T12:30:03.000Z</time>
      </trkpt>
      <trkpt lon="35.365908555686474" lat="31.59871431067586">
        <ele>6.400000095367432</ele>
        <time>2014-01-03T12:30:04.000Z</time>
      </trkpt>
      <trkpt lon="35.36591408774257" lat="31.598705761134624">
        <ele>6.400000095367432</ele>
        <time>2014-01-03T12:30:05.000Z</time>
      </trkpt>
      <trkpt lon="35.36596538498998" lat="31.59864063374698">
        <ele>7.800000190734863</ele>
        <time>2014-01-03T12:30:13.000Z</time>
      </trkpt>
      <trkpt lon="35.36601425148547" lat="31.598579613491893">
        <ele>8.800000190734863</ele>
        <time>2014-01-03T12:30:20.000Z</time>
      </trkpt>
      <trkpt lon="35.36603285931051" lat="31.598566453903913">
        <ele>9.199999809265137</ele>
        <time>2014-01-03T12:30:22.000Z</time>
      </trkpt>
      <trkpt lon="35.36604174412787" lat="31.598557317629457">
        <ele>9.199999809265137</ele>
        <time>2014-01-03T12:30:23.000Z</time>
      </trkpt>
      <trkpt lon="35.366055658087134" lat="31.598548516631126">
        <ele>9.199999809265137</ele>
        <time>2014-01-03T12:30:24.000Z</time>
      </trkpt>
      <trkpt lon="35.36607434973121" lat="31.598536195233464">
        <ele>9.199999809265137</ele>
        <time>2014-01-03T12:30:25.000Z</time>
      </trkpt>
      <trkpt lon="35.36609899252653" lat="31.598518509417772">
        <ele>9.199999809265137</ele>
        <time>2014-01-03T12:30:26.000Z</time>
      </trkpt>
      <trkpt lon="35.36627207882702" lat="31.598381968215108">
        <ele>8.399999618530273</ele>
        <time>2014-01-03T12:30:30.000Z</time>
      </trkpt>
      <trkpt lon="35.36651817150414" lat="31.59820376895368">
        <ele>8.399999618530273</ele>
        <time>2014-01-03T12:30:36.000Z</time>
      </trkpt>
      <trkpt lon="35.36655907519162" lat="31.598185244947672">
        <ele>8.399999618530273</ele>
        <time>2014-01-03T12:30:37.000Z</time>
      </trkpt>
      <trkpt lon="35.3668153937906" lat="31.598069574683905">
        <ele>8.399999618530273</ele>
        <time>2014-01-03T12:30:44.000Z</time>
      </trkpt>
      <trkpt lon="35.36691287532449" lat="31.597975781187415">
        <ele>8.800000190734863</ele>
        <time>2014-01-03T12:30:52.000Z</time>
      </trkpt>
      <trkpt lon="35.366969369351864" lat="31.597844269126654">
        <ele>8.399999618530273</ele>
        <time>2014-01-03T12:31:00.000Z</time>
      </trkpt>
      <trkpt lon="35.366969872266054" lat="31.59772491082549">
        <ele>8.399999618530273</ele>
        <time>2014-01-03T12:31:08.000Z</time>
      </trkpt>
      <trkpt lon="35.36700549535453" lat="31.597617622464895">
        <ele>9.199999809265137</ele>
        <time>2014-01-03T12:31:18.000Z</time>
      </trkpt>
      <trkpt lon="35.367044219747186" lat="31.59754109568894">
        <ele>11.600000381469727</ele>
        <time>2014-01-03T12:31:27.000Z</time>
      </trkpt>
      <trkpt lon="35.36706307902932" lat="31.597472447901964">
        <ele>12.600000381469727</ele>
        <time>2014-01-03T12:31:35.000Z</time>
      </trkpt>
      <trkpt lon="35.36709048785269" lat="31.59741318784654">
        <ele>13.199999809265137</ele>
        <time>2014-01-03T12:31:42.000Z</time>
      </trkpt>
      <trkpt lon="35.36714999936521" lat="31.59734177403152">
        <ele>14.600000381469727</ele>
        <time>2014-01-03T12:31:50.000Z</time>
      </trkpt>
      <trkpt lon="35.367151172831655" lat="31.59733255393803">
        <ele>14.600000381469727</ele>
        <time>2014-01-03T12:31:51.000Z</time>
      </trkpt>
      <trkpt lon="35.367154190316796" lat="31.597325010225177">
        <ele>14.600000381469727</ele>
        <time>2014-01-03T12:31:52.000Z</time>
      </trkpt>
      <trkpt lon="35.3671557828784" lat="31.597315622493625">
        <ele>14.600000381469727</ele>
        <time>2014-01-03T12:31:53.000Z</time>
      </trkpt>
      <trkpt lon="35.36715989001095" lat="31.597307324409485">
        <ele>14.600000381469727</ele>
        <time>2014-01-03T12:31:54.000Z</time>
      </trkpt>
      <trkpt lon="35.3671660926193" lat="31.597300870344043">
        <ele>15.0</ele>
        <time>2014-01-03T12:31:55.000Z</time>
      </trkpt>
      <trkpt lon="35.3671713732183" lat="31.597291650250554">
        <ele>15.0</ele>
        <time>2014-01-03T12:31:56.000Z</time>
      </trkpt>
      <trkpt lon="35.367178497835994" lat="31.59728075377643">
        <ele>15.0</ele>
        <time>2014-01-03T12:31:57.000Z</time>
      </trkpt>
      <trkpt lon="35.367185454815626" lat="31.59727044403553">
        <ele>15.600000381469727</ele>
        <time>2014-01-03T12:31:58.000Z</time>
      </trkpt>
      <trkpt lon="35.367232812568545" lat="31.597215123474598">
        <ele>16.0</ele>
        <time>2014-01-03T12:32:05.000Z</time>
      </trkpt>
      <trkpt lon="35.36729014478624" lat="31.597147565335035">
        <ele>17.0</ele>
        <time>2014-01-03T12:32:13.000Z</time>
      </trkpt>
      <trkpt lon="35.367342280223966" lat="31.59707698971033">
        <ele>18.399999618530273</ele>
        <time>2014-01-03T12:32:22.000Z</time>
      </trkpt>
      <trkpt lon="35.3673976007849" lat="31.59701043739915">
        <ele>18.399999618530273</ele>
        <time>2014-01-03T12:32:30.000Z</time>
      </trkpt>
      <trkpt lon="35.36748569458723" lat="31.596958469599485">
        <ele>18.799999237060547</ele>
        <time>2014-01-03T12:32:38.000Z</time>
      </trkpt>
      <trkpt lon="35.36760287359357" lat="31.596878422424197">
        <ele>19.399999618530273</ele>
        <time>2014-01-03T12:32:45.000Z</time>
      </trkpt>
      <trkpt lon="35.36782315000892" lat="31.59674716182053">
        <ele>18.399999618530273</ele>
        <time>2014-01-03T12:32:50.000Z</time>
      </trkpt>
      <trkpt lon="35.36810830235481" lat="31.59655697643757">
        <ele>17.0</ele>
        <time>2014-01-03T12:32:57.000Z</time>
      </trkpt>
      <trkpt lon="35.36826906725764" lat="31.596472738310695">
        <ele>16.0</ele>
        <time>2014-01-03T12:33:01.000Z</time>
      </trkpt>
      <trkpt lon="35.36842430010438" lat="31.596414064988494">
        <ele>15.600000381469727</ele>
        <time>2014-01-03T12:33:06.000Z</time>
      </trkpt>
      <trkpt lon="35.36862253211439" lat="31.59631616435945">
        <ele>17.0</ele>
        <time>2014-01-03T12:33:16.000Z</time>
      </trkpt>
      <trkpt lon="35.368686486035585" lat="31.596224382519722">
        <ele>17.399999618530273</ele>
        <time>2014-01-03T12:33:23.000Z</time>
      </trkpt>
      <trkpt lon="35.36882143467665" lat="31.596124386414886">
        <ele>19.399999618530273</ele>
        <time>2014-01-03T12:33:33.000Z</time>
      </trkpt>
      <trkpt lon="35.36896409466863" lat="31.596037801355124">
        <ele>20.799999237060547</ele>
        <time>2014-01-03T12:33:43.000Z</time>
      </trkpt>
      <trkpt lon="35.369084207341075" lat="31.595971500501037">
        <ele>22.200000762939453</ele>
        <time>2014-01-03T12:33:52.000Z</time>
      </trkpt>
      <trkpt lon="35.369200045242906" lat="31.595905451104045">
        <ele>23.200000762939453</ele>
        <time>2014-01-03T12:34:01.000Z</time>
      </trkpt>
      <trkpt lon="35.36933558061719" lat="31.595848202705383">
        <ele>23.600000381469727</ele>
        <time>2014-01-03T12:34:09.000Z</time>
      </trkpt>
      <trkpt lon="35.369502045214176" lat="31.595794055610895">
        <ele>23.200000762939453</ele>
        <time>2014-01-03T12:34:15.000Z</time>
      </trkpt>
      <trkpt lon="35.36961805075407" lat="31.59571995958686">
        <ele>23.200000762939453</ele>
        <time>2014-01-03T12:34:20.000Z</time>
      </trkpt>
      <trkpt lon="35.36977085284889" lat="31.595607809722424">
        <ele>23.600000381469727</ele>
        <time>2014-01-03T12:34:28.000Z</time>
      </trkpt>
      <trkpt lon="35.36989758722484" lat="31.595474956557155">
        <ele>24.200000762939453</ele>
        <time>2014-01-03T12:34:37.000Z</time>
      </trkpt>
      <trkpt lon="35.370038570836186" lat="31.59536188468337">
        <ele>23.200000762939453</ele>
        <time>2014-01-03T12:34:44.000Z</time>
      </trkpt>
      <trkpt lon="35.370086347684264" lat="31.595222325995564">
        <ele>22.799999237060547</ele>
        <time>2014-01-03T12:34:49.000Z</time>
      </trkpt>
      <trkpt lon="35.370175866410136" lat="31.595045384019613">
        <ele>23.600000381469727</ele>
        <time>2014-01-03T12:34:56.000Z</time>
      </trkpt>
      <trkpt lon="35.37027033045888" lat="31.594894928857684">
        <ele>26.0</ele>
        <time>2014-01-03T12:35:05.000Z</time>
      </trkpt>
      <trkpt lon="35.37034953944385" lat="31.594780180603266">
        <ele>29.399999618530273</ele>
        <time>2014-01-03T12:35:15.000Z</time>
      </trkpt>
      <trkpt lon="35.3704435005784" lat="31.59469971433282">
        <ele>31.399999618530273</ele>
        <time>2014-01-03T12:35:24.000Z</time>
      </trkpt>
      <trkpt lon="35.370461186394095" lat="31.594680100679398">
        <ele>31.799999237060547</ele>
        <time>2014-01-03T12:35:26.000Z</time>
      </trkpt>
      <trkpt lon="35.370466969907284" lat="31.594667863100767">
        <ele>32.400001525878906</ele>
        <time>2014-01-03T12:35:27.000Z</time>
      </trkpt>
      <trkpt lon="35.37047367542982" lat="31.59465570934117">
        <ele>32.400001525878906</ele>
        <time>2014-01-03T12:35:28.000Z</time>
      </trkpt>
      <trkpt lon="35.37047887220979" lat="31.594644226133823">
        <ele>32.79999923706055</ele>
        <time>2014-01-03T12:35:29.000Z</time>
      </trkpt>
      <trkpt lon="35.37048381753266" lat="31.594634922221303">
        <ele>33.20000076293945</ele>
        <time>2014-01-03T12:35:30.000Z</time>
      </trkpt>
      <trkpt lon="35.37052916362882" lat="31.594569962471724">
        <ele>33.79999923706055</ele>
        <time>2014-01-03T12:35:38.000Z</time>
      </trkpt>
      <trkpt lon="35.37058163434267" lat="31.594500141218305">
        <ele>34.20000076293945</ele>
        <time>2014-01-03T12:35:46.000Z</time>
      </trkpt>
      <trkpt lon="35.37063745781779" lat="31.594358319416642">
        <ele>34.20000076293945</ele>
        <time>2014-01-03T12:35:53.000Z</time>
      </trkpt>
      <trkpt lon="35.37067257799208" lat="31.59432202577591">
        <ele>33.79999923706055</ele>
        <time>2014-01-03T12:35:54.000Z</time>
      </trkpt>
      <trkpt lon="35.3709601610899" lat="31.59408263862133">
        <ele>30.399999618530273</ele>
        <time>2014-01-03T12:35:59.000Z</time>
      </trkpt>
      <trkpt lon="35.37127557210624" lat="31.593851717188954">
        <ele>29.399999618530273</ele>
        <time>2014-01-03T12:36:04.000Z</time>
      </trkpt>
      <trkpt lon="35.37165703251958" lat="31.593550806865096">
        <ele>27.0</ele>
        <time>2014-01-03T12:36:11.000Z</time>
      </trkpt>
      <trkpt lon="35.371982334181666" lat="31.593287028372288">
        <ele>26.0</ele>
        <time>2014-01-03T12:36:17.000Z</time>
      </trkpt>
      <trkpt lon="35.37210705690086" lat="31.593123832717538">
        <ele>26.600000381469727</ele>
        <time>2014-01-03T12:36:23.000Z</time>
      </trkpt>
      <trkpt lon="35.37232062779367" lat="31.592930629849434">
        <ele>26.0</ele>
        <time>2014-01-03T12:36:32.000Z</time>
      </trkpt>
      <trkpt lon="35.37254450842738" lat="31.59274379722774">
        <ele>24.600000381469727</ele>
        <time>2014-01-03T12:36:38.000Z</time>
      </trkpt>
      <trkpt lon="35.372583149001" lat="31.592718735337257">
        <ele>24.600000381469727</ele>
        <time>2014-01-03T12:36:39.000Z</time>
      </trkpt>
      <trkpt lon="35.37261768244207" lat="31.59269342198968">
        <ele>24.600000381469727</ele>
        <time>2014-01-03T12:36:40.000Z</time>
      </trkpt>
      <trkpt lon="35.37264416925609" lat="31.592665510252118">
        <ele>24.200000762939453</ele>
        <time>2014-01-03T12:36:41.000Z</time>
      </trkpt>
      <trkpt lon="35.372663950547576" lat="31.59263919107616">
        <ele>24.200000762939453</ele>
        <time>2014-01-03T12:36:42.000Z</time>
      </trkpt>
      <trkpt lon="35.372744081541896" lat="31.59255470149219">
        <ele>24.600000381469727</ele>
        <time>2014-01-03T12:36:48.000Z</time>
      </trkpt>
      <trkpt lon="35.372883724048734" lat="31.592443054541945">
        <ele>24.600000381469727</ele>
        <time>2014-01-03T12:36:58.000Z</time>
      </trkpt>
      <trkpt lon="35.37305454723537" lat="31.5923573076725">
        <ele>24.600000381469727</ele>
        <time>2014-01-03T12:37:08.000Z</time>
      </trkpt>
      <trkpt lon="35.37327406927943" lat="31.59228941425681">
        <ele>25.200000762939453</ele>
        <time>2014-01-03T12:37:15.000Z</time>
      </trkpt>
      <trkpt lon="35.37341262213886" lat="31.592213474214077">
        <ele>25.600000381469727</ele>
        <time>2014-01-03T12:37:22.000Z</time>
      </trkpt>
      <trkpt lon="35.373557126149535" lat="31.59209579229355">
        <ele>26.0</ele>
        <time>2014-01-03T12:37:32.000Z</time>
      </trkpt>
      <trkpt lon="35.37362711504102" lat="31.59207383170724">
        <ele>26.600000381469727</ele>
        <time>2014-01-03T12:37:36.000Z</time>
      </trkpt>
      <trkpt lon="35.373776983469725" lat="31.59199085086584">
        <ele>27.0</ele>
        <time>2014-01-03T12:37:47.000Z</time>
      </trkpt>
      <trkpt lon="35.37391595542431" lat="31.59192672930658">
        <ele>29.0</ele>
        <time>2014-01-03T12:37:56.000Z</time>
      </trkpt>
      <trkpt lon="35.37404294125736" lat="31.591869480907917">
        <ele>32.79999923706055</ele>
        <time>2014-01-03T12:38:06.000Z</time>
      </trkpt>
      <trkpt lon="35.3741667419672" lat="31.591832265257835">
        <ele>35.79999923706055</ele>
        <time>2014-01-03T12:38:15.000Z</time>
      </trkpt>
      <trkpt lon="35.374289117753506" lat="31.591797983273864">
        <ele>37.599998474121094</ele>
        <time>2014-01-03T12:38:25.000Z</time>
      </trkpt>
      <trkpt lon="35.3744275867939" lat="31.591754984110594">
        <ele>39.0</ele>
        <time>2014-01-03T12:38:36.000Z</time>
      </trkpt>
      <trkpt lon="35.37452154792845" lat="31.591711565852165">
        <ele>39.599998474121094</ele>
        <time>2014-01-03T12:38:44.000Z</time>
      </trkpt>
      <trkpt lon="35.37453428842127" lat="31.591707710176706">
        <ele>40.0</ele>
        <time>2014-01-03T12:38:45.000Z</time>
      </trkpt>
      <trkpt lon="35.37454719655216" lat="31.59170159138739">
        <ele>40.0</ele>
        <time>2014-01-03T12:38:46.000Z</time>
      </trkpt>
      <trkpt lon="35.374561781063676" lat="31.59169706515968">
        <ele>40.0</ele>
        <time>2014-01-03T12:38:47.000Z</time>
      </trkpt>
      <trkpt lon="35.37457368336618" lat="31.59169170074165">
        <ele>40.599998474121094</ele>
        <time>2014-01-03T12:38:48.000Z</time>
      </trkpt>
      <trkpt lon="35.37458734586835" lat="31.59168591722846">
        <ele>40.599998474121094</ele>
        <time>2014-01-03T12:38:49.000Z</time>
      </trkpt>
      <trkpt lon="35.374602265655994" lat="31.591682815924287">
        <ele>40.599998474121094</ele>
        <time>2014-01-03T12:38:50.000Z</time>
      </trkpt>
      <trkpt lon="35.37461492232978" lat="31.591677200049162">
        <ele>40.599998474121094</ele>
        <time>2014-01-03T12:38:51.000Z</time>
      </trkpt>
      <trkpt lon="35.374625818803906" lat="31.591672003269196">
        <ele>40.599998474121094</ele>
        <time>2014-01-03T12:38:52.000Z</time>
      </trkpt>
      <trkpt lon="35.374730341136456" lat="31.591630093753338">
        <ele>41.400001525878906</ele>
        <time>2014-01-03T12:39:00.000Z</time>
      </trkpt>
      <trkpt lon="35.37474475800991" lat="31.591626070439816">
        <ele>41.400001525878906</ele>
        <time>2014-01-03T12:39:01.000Z</time>
      </trkpt>
      <trkpt lon="35.37475783377886" lat="31.591619281098247">
        <ele>41.400001525878906</ele>
        <time>2014-01-03T12:39:02.000Z</time>
      </trkpt>
      <trkpt lon="35.37492941133678" lat="31.591561697423458">
        <ele>42.400001525878906</ele>
        <time>2014-01-03T12:39:13.000Z</time>
      </trkpt>
      <trkpt lon="35.37510685622692" lat="31.591498078778386">
        <ele>43.0</ele>
        <time>2014-01-03T12:39:24.000Z</time>
      </trkpt>
      <trkpt lon="35.37522395141423" lat="31.591467820107937">
        <ele>43.400001525878906</ele>
        <time>2014-01-03T12:39:33.000Z</time>
      </trkpt>
      <trkpt lon="35.37523878738284" lat="31.591463210061193">
        <ele>43.400001525878906</ele>
        <time>2014-01-03T12:39:34.000Z</time>
      </trkpt>
      <trkpt lon="35.37525303661823" lat="31.59146010875702">
        <ele>43.400001525878906</ele>
        <time>2014-01-03T12:39:35.000Z</time>
      </trkpt>
      <trkpt lon="35.375413969159126" lat="31.591435382142663">
        <ele>44.400001525878906</ele>
        <time>2014-01-03T12:39:45.000Z</time>
      </trkpt>
      <trkpt lon="35.37562913261354" lat="31.5913990046829">
        <ele>43.79999923706055</ele>
        <time>2014-01-03T12:39:53.000Z</time>
      </trkpt>
      <trkpt lon="35.37576709873974" lat="31.591390622779727">
        <ele>43.0</ele>
        <time>2014-01-03T12:39:56.000Z</time>
      </trkpt>
      <trkpt lon="35.37587631493807" lat="31.59138735383749">
        <ele>42.0</ele>
        <time>2014-01-03T12:39:58.000Z</time>
      </trkpt>
      <trkpt lon="35.37630102597177" lat="31.59134980291128">
        <ele>38.599998474121094</ele>
        <time>2014-01-03T12:40:04.000Z</time>
      </trkpt>
      <trkpt lon="35.376843167468905" lat="31.591239664703608">
        <ele>34.79999923706055</ele>
        <time>2014-01-03T12:40:11.000Z</time>
      </trkpt>
      <trkpt lon="35.376903768628836" lat="31.59121200442314">
        <ele>34.79999923706055</ele>
        <time>2014-01-03T12:40:12.000Z</time>
      </trkpt>
      <trkpt lon="35.37704173475504" lat="31.591128688305616">
        <ele>34.79999923706055</ele>
        <time>2014-01-03T12:40:16.000Z</time>
      </trkpt>
      <trkpt lon="35.37716897204518" lat="31.59105660393834">
        <ele>36.599998474121094</ele>
        <time>2014-01-03T12:40:24.000Z</time>
      </trkpt>
      <trkpt lon="35.37732386961579" lat="31.59099449403584">
        <ele>39.599998474121094</ele>
        <time>2014-01-03T12:40:32.000Z</time>
      </trkpt>
      <trkpt lon="35.377489160746336" lat="31.590943867340684">
        <ele>42.0</ele>
        <time>2014-01-03T12:40:40.000Z</time>
      </trkpt>
      <trkpt lon="35.37761086598039" lat="31.590921990573406">
        <ele>43.79999923706055</ele>
        <time>2014-01-03T12:40:48.000Z</time>
      </trkpt>
      <trkpt lon="35.37763651460409" lat="31.590910255908966">
        <ele>44.400001525878906</ele>
        <time>2014-01-03T12:40:50.000Z</time>
      </trkpt>
      <trkpt lon="35.377650428563356" lat="31.590905813500285">
        <ele>44.79999923706055</ele>
        <time>2014-01-03T12:40:51.000Z</time>
      </trkpt>
      <trkpt lon="35.37766476161778" lat="31.590902376919985">
        <ele>44.79999923706055</ele>
        <time>2014-01-03T12:40:52.000Z</time>
      </trkpt>
      <trkpt lon="35.377680603414774" lat="31.5908981859684">
        <ele>44.79999923706055</ele>
        <time>2014-01-03T12:40:53.000Z</time>
      </trkpt>
      <trkpt lon="35.37769351154566" lat="31.590892150998116">
        <ele>44.79999923706055</ele>
        <time>2014-01-03T12:40:54.000Z</time>
      </trkpt>
      <trkpt lon="35.37770566530526" lat="31.590885864570737">
        <ele>44.79999923706055</ele>
        <time>2014-01-03T12:40:55.000Z</time>
      </trkpt>
      <trkpt lon="35.3777173999697" lat="31.59088008105755">
        <ele>44.79999923706055</ele>
        <time>2014-01-03T12:40:56.000Z</time>
      </trkpt>
      <trkpt lon="35.3777308948338" lat="31.590876560658216">
        <ele>45.400001525878906</ele>
        <time>2014-01-03T12:40:57.000Z</time>
      </trkpt>
      <trkpt lon="35.377743719145656" lat="31.590872621163726">
        <ele>45.400001525878906</ele>
        <time>2014-01-03T12:40:58.000Z</time>
      </trkpt>
      <trkpt lon="35.377756878733635" lat="31.590868597850204">
        <ele>45.400001525878906</ele>
        <time>2014-01-03T12:40:59.000Z</time>
      </trkpt>
      <trkpt lon="35.377769535407424" lat="31.590863149613142">
        <ele>45.79999923706055</ele>
        <time>2014-01-03T12:41:00.000Z</time>
      </trkpt>
      <trkpt lon="35.377779342234135" lat="31.590856947004795">
        <ele>45.79999923706055</ele>
        <time>2014-01-03T12:41:01.000Z</time>
      </trkpt>
      <trkpt lon="35.37779149599373" lat="31.590850744396448">
        <ele>45.79999923706055</ele>
        <time>2014-01-03T12:41:02.000Z</time>
      </trkpt>
      <trkpt lon="35.377919152379036" lat="31.590815540403128">
        <ele>47.20000076293945</ele>
        <time>2014-01-03T12:41:11.000Z</time>
      </trkpt>
      <trkpt lon="35.37809047847986" lat="31.590777318924665">
        <ele>46.79999923706055</ele>
        <time>2014-01-03T12:41:21.000Z</time>
      </trkpt>
      <trkpt lon="35.37822081707418" lat="31.590741192921996">
        <ele>46.20000076293945</ele>
        <time>2014-01-03T12:41:29.000Z</time>
      </trkpt>
      <trkpt lon="35.37831377238035" lat="31.590715795755386">
        <ele>46.20000076293945</ele>
        <time>2014-01-03T12:41:36.000Z</time>
      </trkpt>
      <trkpt lon="35.37838853895664" lat="31.590697774663568">
        <ele>46.79999923706055</ele>
        <time>2014-01-03T12:41:45.000Z</time>
      </trkpt>
      <trkpt lon="35.37840656004846" lat="31.59069006331265">
        <ele>46.79999923706055</ele>
        <time>2014-01-03T12:41:46.000Z</time>
      </trkpt>
      <trkpt lon="35.378429694101214" lat="31.59068419598043">
        <ele>46.20000076293945</ele>
        <time>2014-01-03T12:41:47.000Z</time>
      </trkpt>
      <trkpt lon="35.37864971905947" lat="31.59062166698277">
        <ele>45.400001525878906</ele>
        <time>2014-01-03T12:41:53.000Z</time>
      </trkpt>
      <trkpt lon="35.379016008228064" lat="31.590508092194796">
        <ele>43.0</ele>
        <time>2014-01-03T12:41:59.000Z</time>
      </trkpt>
      <trkpt lon="35.379652697592974" lat="31.590373562648892">
        <ele>40.0</ele>
        <time>2014-01-03T12:42:08.000Z</time>
      </trkpt>
      <trkpt lon="35.37983584217727" lat="31.59032461233437">
        <ele>39.599998474121094</ele>
        <time>2014-01-03T12:42:11.000Z</time>
      </trkpt>
      <trkpt lon="35.380006497725844" lat="31.59026644192636">
        <ele>40.0</ele>
        <time>2014-01-03T12:42:16.000Z</time>
      </trkpt>
      <trkpt lon="35.38024471141398" lat="31.59020248800516">
        <ele>40.599998474121094</ele>
        <time>2014-01-03T12:42:24.000Z</time>
      </trkpt>
      <trkpt lon="35.38056129589677" lat="31.59019846469164">
        <ele>39.599998474121094</ele>
        <time>2014-01-03T12:42:33.000Z</time>
      </trkpt>
      <trkpt lon="35.3809757810086" lat="31.590235512703657">
        <ele>38.599998474121094</ele>
        <time>2014-01-03T12:42:42.000Z</time>
      </trkpt>
      <trkpt lon="35.381406443193555" lat="31.590311620384455">
        <ele>36.599998474121094</ele>
        <time>2014-01-03T12:42:51.000Z</time>
      </trkpt>
      <trkpt lon="35.38164750672877" lat="31.59034263342619">
        <ele>36.599998474121094</ele>
        <time>2014-01-03T12:43:00.000Z</time>
      </trkpt>
      <trkpt lon="35.381853114813566" lat="31.590360989794135">
        <ele>37.599998474121094</ele>
        <time>2014-01-03T12:43:09.000Z</time>
      </trkpt>
      <trkpt lon="35.38204036653042" lat="31.59038035199046">
        <ele>38.599998474121094</ele>
        <time>2014-01-03T12:43:18.000Z</time>
      </trkpt>
      <trkpt lon="35.38224798627198" lat="31.590428045019507">
        <ele>38.20000076293945</ele>
        <time>2014-01-03T12:43:27.000Z</time>
      </trkpt>
      <trkpt lon="35.38250111974776" lat="31.590509098023176">
        <ele>36.20000076293945</ele>
        <time>2014-01-03T12:43:34.000Z</time>
      </trkpt>
      <trkpt lon="35.382843436673284" lat="31.590648237615824">
        <ele>32.79999923706055</ele>
        <time>2014-01-03T12:43:39.000Z</time>
      </trkpt>
      <trkpt lon="35.38345489650965" lat="31.59085376188159">
        <ele>25.600000381469727</ele>
        <time>2014-01-03T12:43:45.000Z</time>
      </trkpt>
      <trkpt lon="35.38438503630459" lat="31.591122150421143">
        <ele>18.399999618530273</ele>
        <time>2014-01-03T12:43:53.000Z</time>
      </trkpt>
      <trkpt lon="35.38514208979905" lat="31.591261960566044">
        <ele>15.0</ele>
        <time>2014-01-03T12:44:00.000Z</time>
      </trkpt>
      <trkpt lon="35.38561776280403" lat="31.591308983042836">
        <ele>14.0</ele>
        <time>2014-01-03T12:44:05.000Z</time>
      </trkpt>
      <trkpt lon="35.38603794761002" lat="31.59141769632697">
        <ele>12.199999809265137</ele>
        <time>2014-01-03T12:44:11.000Z</time>
      </trkpt>
      <trkpt lon="35.38608287461102" lat="31.59143672324717">
        <ele>12.199999809265137</ele>
        <time>2014-01-03T12:44:12.000Z</time>
      </trkpt>
      <trkpt lon="35.38635293953121" lat="31.591512579470873">
        <ele>10.800000190734863</ele>
        <time>2014-01-03T12:44:18.000Z</time>
      </trkpt>
      <trkpt lon="35.38645754568279" lat="31.591535629704595">
        <ele>10.199999809265137</ele>
        <time>2014-01-03T12:44:20.000Z</time>
      </trkpt>
      <trkpt lon="35.38650808855891" lat="31.591551806777716">
        <ele>10.199999809265137</ele>
        <time>2014-01-03T12:44:21.000Z</time>
      </trkpt>
      <trkpt lon="35.38655821233988" lat="31.59157150425017">
        <ele>10.199999809265137</ele>
        <time>2014-01-03T12:44:22.000Z</time>
      </trkpt>
      <trkpt lon="35.386605989187956" lat="31.591589441522956">
        <ele>10.800000190734863</ele>
        <time>2014-01-03T12:44:23.000Z</time>
      </trkpt>
      <trkpt lon="35.38664923980832" lat="31.59159849397838">
        <ele>10.800000190734863</ele>
        <time>2014-01-03T12:44:24.000Z</time>
      </trkpt>
      <trkpt lon="35.386689472943544" lat="31.59159304574132">
        <ele>11.199999809265137</ele>
        <time>2014-01-03T12:44:25.000Z</time>
      </trkpt>
      <trkpt lon="35.3867263533175" lat="31.591579215601087">
        <ele>11.199999809265137</ele>
        <time>2014-01-03T12:44:26.000Z</time>
      </trkpt>
      <trkpt lon="35.386761389672756" lat="31.591564044356346">
        <ele>11.600000381469727</ele>
        <time>2014-01-03T12:44:27.000Z</time>
      </trkpt>
      <trkpt lon="35.3870128467679" lat="31.591439489275217">
        <ele>12.600000381469727</ele>
        <time>2014-01-03T12:44:34.000Z</time>
      </trkpt>
      <trkpt lon="35.387330520898104" lat="31.591311413794756">
        <ele>12.600000381469727</ele>
        <time>2014-01-03T12:44:42.000Z</time>
      </trkpt>
      <trkpt lon="35.38738005794585" lat="31.59131007269025">
        <ele>12.600000381469727</ele>
        <time>2014-01-03T12:44:43.000Z</time>
      </trkpt>
      <trkpt lon="35.38743504323065" lat="31.591315856203437">
        <ele>12.199999809265137</ele>
        <time>2014-01-03T12:44:44.000Z</time>
      </trkpt>
      <trkpt lon="35.38749497383833" lat="31.591330943629146">
        <ele>11.600000381469727</ele>
        <time>2014-01-03T12:44:45.000Z</time>
      </trkpt>
      <trkpt lon="35.38756177760661" lat="31.591351563110948">
        <ele>10.800000190734863</ele>
        <time>2014-01-03T12:44:46.000Z</time>
      </trkpt>
      <trkpt lon="35.388036696240306" lat="31.591478129848838">
        <ele>4.0</ele>
        <time>2014-01-03T12:44:52.000Z</time>
      </trkpt>
      <trkpt lon="35.388114396482706" lat="31.591474944725633">
        <ele>3.5999999046325684</ele>
        <time>2014-01-03T12:44:53.000Z</time>
      </trkpt>
      <trkpt lon="35.38819042034447" lat="31.59145717509091">
        <ele>3.0</ele>
        <time>2014-01-03T12:44:54.000Z</time>
      </trkpt>
      <trkpt lon="35.38826451636851" lat="31.591432113200426">
        <ele>2.5999999046325684</ele>
        <time>2014-01-03T12:44:55.000Z</time>
      </trkpt>
      <trkpt lon="35.38833458907902" lat="31.591404620558023">
        <ele>2.0</ele>
        <time>2014-01-03T12:44:56.000Z</time>
      </trkpt>
      <trkpt lon="35.38846978917718" lat="31.591353826224804">
        <ele>1.600000023841858</ele>
        <time>2014-01-03T12:44:58.000Z</time>
      </trkpt>
      <trkpt lon="35.38857406005263" lat="31.591292386874557">
        <ele>1.600000023841858</ele>
        <time>2014-01-03T12:45:00.000Z</time>
      </trkpt>
      <trkpt lon="35.388620998710394" lat="31.59127243794501">
        <ele>1.600000023841858</ele>
        <time>2014-01-03T12:45:01.000Z</time>
      </trkpt>
      <trkpt lon="35.388801880180836" lat="31.591195994988084">
        <ele>3.0</ele>
        <time>2014-01-03T12:45:07.000Z</time>
      </trkpt>
      <trkpt lon="35.389033891260624" lat="31.591065237298608">
        <ele>5.400000095367432</ele>
        <time>2014-01-03T12:45:15.000Z</time>
      </trkpt>
      <trkpt lon="35.38916062563658" lat="31.590986950322986">
        <ele>7.800000190734863</ele>
        <time>2014-01-03T12:45:22.000Z</time>
      </trkpt>
      <trkpt lon="35.38927596062422" lat="31.590897012501955">
        <ele>9.800000190734863</ele>
        <time>2014-01-03T12:45:31.000Z</time>
      </trkpt>
      <trkpt lon="35.38937914185226" lat="31.590815037488937">
        <ele>12.199999809265137</ele>
        <time>2014-01-03T12:45:40.000Z</time>
      </trkpt>
      <trkpt lon="35.38939096033573" lat="31.59080539830029">
        <ele>12.199999809265137</ele>
        <time>2014-01-03T12:45:41.000Z</time>
      </trkpt>
      <trkpt lon="35.38940294645727" lat="31.59079517237842">
        <ele>12.600000381469727</ele>
        <time>2014-01-03T12:45:42.000Z</time>
      </trkpt>
      <trkpt lon="35.38957226090133" lat="31.59072778187692">
        <ele>13.600000381469727</ele>
        <time>2014-01-03T12:45:51.000Z</time>
      </trkpt>
      <trkpt lon="35.389589946717024" lat="31.590718729421496">
        <ele>13.600000381469727</ele>
        <time>2014-01-03T12:45:52.000Z</time>
      </trkpt>
      <trkpt lon="35.389610566198826" lat="31.590709844604135">
        <ele>13.600000381469727</ele>
        <time>2014-01-03T12:45:53.000Z</time>
      </trkpt>
      <trkpt lon="35.389866633340716" lat="31.590648824349046">
        <ele>13.199999809265137</ele>
        <time>2014-01-03T12:46:02.000Z</time>
      </trkpt>
      <trkpt lon="35.39015463553369" lat="31.590649913996458">
        <ele>12.199999809265137</ele>
        <time>2014-01-03T12:46:08.000Z</time>
      </trkpt>
      <trkpt lon="35.390265779569745" lat="31.590666426345706">
        <ele>11.600000381469727</ele>
        <time>2014-01-03T12:46:10.000Z</time>
      </trkpt>
      <trkpt lon="35.39032428525388" lat="31.590668438002467">
        <ele>11.199999809265137</ele>
        <time>2014-01-03T12:46:11.000Z</time>
      </trkpt>
      <trkpt lon="35.3903819527477" lat="31.59066567197442">
        <ele>10.800000190734863</ele>
        <time>2014-01-03T12:46:12.000Z</time>
      </trkpt>
      <trkpt lon="35.39049510844052" lat="31.590650249272585">
        <ele>10.800000190734863</ele>
        <time>2014-01-03T12:46:14.000Z</time>
      </trkpt>
      <trkpt lon="35.39055218920112" lat="31.590635580942035">
        <ele>10.199999809265137</ele>
        <time>2014-01-03T12:46:15.000Z</time>
      </trkpt>
      <trkpt lon="35.390965919941664" lat="31.590516222640872">
        <ele>9.199999809265137</ele>
        <time>2014-01-03T12:46:22.000Z</time>
      </trkpt>
      <trkpt lon="35.39114654995501" lat="31.590464673936367">
        <ele>10.800000190734863</ele>
        <time>2014-01-03T12:46:27.000Z</time>
      </trkpt>
      <trkpt lon="35.39137411862612" lat="31.59037155099213">
        <ele>12.199999809265137</ele>
        <time>2014-01-03T12:46:35.000Z</time>
      </trkpt>
      <trkpt lon="35.391564555466175" lat="31.59030055627227">
        <ele>13.199999809265137</ele>
        <time>2014-01-03T12:46:44.000Z</time>
      </trkpt>
      <trkpt lon="35.39177653379738" lat="31.59025965258479">
        <ele>13.600000381469727</ele>
        <time>2014-01-03T12:46:53.000Z</time>
      </trkpt>
      <trkpt lon="35.39196386933327" lat="31.590241296216846">
        <ele>13.199999809265137</ele>
        <time>2014-01-03T12:47:01.000Z</time>
      </trkpt>
      <trkpt lon="35.39224969223142" lat="31.590212378650904">
        <ele>11.600000381469727</ele>
        <time>2014-01-03T12:47:09.000Z</time>
      </trkpt>
      <trkpt lon="35.39244247600436" lat="31.590175833553076">
        <ele>11.600000381469727</ele>
        <time>2014-01-03T12:47:16.000Z</time>
      </trkpt>
      <trkpt lon="35.39245882071555" lat="31.590166864916682">
        <ele>10.800000190734863</ele>
        <time>2014-01-03T12:47:22.000Z</time>
      </trkpt>
      <trkpt lon="35.39245504885912" lat="31.590180108323693">
        <ele>8.399999618530273</ele>
        <time>2014-01-03T12:47:33.000Z</time>
      </trkpt>
    </trkseg>
  </trk>
</gpx>
